<?xml version="1.0" encoding="UTF-8" standalone="no" ?>
<gpx xmlns="http://www.topografix.com/GPX/1/1" xmlns:xsi="http://www.w3.org/2001/XMLSchema-instance" xsi:schemaLocation="http://www.topografix.com/GPX/1/1 http://www.topografix.com/GPX/1/1/gpx.xsd" version="1.1" creator="VisuGPX - https://www.visugpx.com">
  <metadata>
    <name>160601ROBBenjamins1000</name>
    <desc><![CDATA[Excellente sortie]]></desc>
  </metadata>
  <trk>
    <name><![CDATA[160601ROBBenjamins1000]]></name>
    <trkseg>
      <trkpt lat="43.41579" lon="6.07044">
        <ele>204.19999694824</ele>
        <time>2016-06-01T12:06:42Z</time>
      </trkpt>
      <trkpt lat="43.4158" lon="6.07046">
        <ele>203.80000305176</ele>
        <time>2016-06-01T12:06:48Z</time>
      </trkpt>
      <trkpt lat="43.4158" lon="6.07047">
        <ele>203.80000305176</ele>
        <time>2016-06-01T12:06:49Z</time>
      </trkpt>
      <trkpt lat="43.41582" lon="6.07062">
        <ele>203.80000305176</ele>
        <time>2016-06-01T12:06:54Z</time>
      </trkpt>
      <trkpt lat="43.41584" lon="6.0709">
        <ele>203.39999389648</ele>
        <time>2016-06-01T12:07:01Z</time>
      </trkpt>
      <trkpt lat="43.4158" lon="6.07104">
        <ele>203.39999389648</ele>
        <time>2016-06-01T12:07:05Z</time>
      </trkpt>
      <trkpt lat="43.41564" lon="6.07115">
        <ele>203.39999389648</ele>
        <time>2016-06-01T12:07:11Z</time>
      </trkpt>
      <trkpt lat="43.41548" lon="6.07111">
        <ele>203.80000305176</ele>
        <time>2016-06-01T12:07:16Z</time>
      </trkpt>
      <trkpt lat="43.41547" lon="6.07098">
        <ele>203.80000305176</ele>
        <time>2016-06-01T12:07:19Z</time>
      </trkpt>
      <trkpt lat="43.41541" lon="6.0708">
        <ele>203.39999389648</ele>
        <time>2016-06-01T12:07:24Z</time>
      </trkpt>
      <trkpt lat="43.41534" lon="6.07077">
        <ele>203.19999694824</ele>
        <time>2016-06-01T12:07:26Z</time>
      </trkpt>
      <trkpt lat="43.4153" lon="6.07078">
        <ele>203.19999694824</ele>
        <time>2016-06-01T12:07:27Z</time>
      </trkpt>
      <trkpt lat="43.41526" lon="6.07078">
        <ele>203.19999694824</ele>
        <time>2016-06-01T12:07:28Z</time>
      </trkpt>
      <trkpt lat="43.41521" lon="6.07079">
        <ele>202.80000305176</ele>
        <time>2016-06-01T12:07:29Z</time>
      </trkpt>
      <trkpt lat="43.415" lon="6.0708">
        <ele>202.39999389648</ele>
        <time>2016-06-01T12:07:34Z</time>
      </trkpt>
      <trkpt lat="43.4148" lon="6.07073">
        <ele>202.60000610352</ele>
        <time>2016-06-01T12:07:39Z</time>
      </trkpt>
      <trkpt lat="43.41472" lon="6.07071">
        <ele>202.19999694824</ele>
        <time>2016-06-01T12:07:42Z</time>
      </trkpt>
      <trkpt lat="43.4147" lon="6.0707">
        <ele>202</ele>
        <time>2016-06-01T12:07:43Z</time>
      </trkpt>
      <trkpt lat="43.41468" lon="6.0707">
        <ele>201.39999389648</ele>
        <time>2016-06-01T12:07:47Z</time>
      </trkpt>
      <trkpt lat="43.41465" lon="6.07067">
        <ele>201.39999389648</ele>
        <time>2016-06-01T12:07:59Z</time>
      </trkpt>
      <trkpt lat="43.41463" lon="6.07064">
        <ele>201.19999694824</ele>
        <time>2016-06-01T12:08:02Z</time>
      </trkpt>
      <trkpt lat="43.41469" lon="6.07054">
        <ele>201.39999389648</ele>
        <time>2016-06-01T12:08:07Z</time>
      </trkpt>
      <trkpt lat="43.41478" lon="6.07036">
        <ele>201.60000610352</ele>
        <time>2016-06-01T12:08:12Z</time>
      </trkpt>
      <trkpt lat="43.4148" lon="6.07031">
        <ele>201.60000610352</ele>
        <time>2016-06-01T12:08:13Z</time>
      </trkpt>
      <trkpt lat="43.41488" lon="6.07013">
        <ele>201.80000305176</ele>
        <time>2016-06-01T12:08:16Z</time>
      </trkpt>
      <trkpt lat="43.4149" lon="6.07008">
        <ele>201.80000305176</ele>
        <time>2016-06-01T12:08:17Z</time>
      </trkpt>
      <trkpt lat="43.41492" lon="6.07002">
        <ele>202</ele>
        <time>2016-06-01T12:08:18Z</time>
      </trkpt>
      <trkpt lat="43.41492" lon="6.06984">
        <ele>202</ele>
        <time>2016-06-01T12:08:22Z</time>
      </trkpt>
      <trkpt lat="43.41484" lon="6.06961">
        <ele>202.19999694824</ele>
        <time>2016-06-01T12:08:27Z</time>
      </trkpt>
      <trkpt lat="43.41482" lon="6.06957">
        <ele>202.39999389648</ele>
        <time>2016-06-01T12:08:28Z</time>
      </trkpt>
      <trkpt lat="43.41467" lon="6.06932">
        <ele>203.19999694824</ele>
        <time>2016-06-01T12:08:35Z</time>
      </trkpt>
      <trkpt lat="43.41461" lon="6.06922">
        <ele>203.19999694824</ele>
        <time>2016-06-01T12:08:41Z</time>
      </trkpt>
      <trkpt lat="43.41463" lon="6.06906">
        <ele>203.39999389648</ele>
        <time>2016-06-01T12:08:45Z</time>
      </trkpt>
      <trkpt lat="43.41464" lon="6.06887">
        <ele>203.39999389648</ele>
        <time>2016-06-01T12:08:49Z</time>
      </trkpt>
      <trkpt lat="43.41462" lon="6.06881">
        <ele>203.39999389648</ele>
        <time>2016-06-01T12:08:50Z</time>
      </trkpt>
      <trkpt lat="43.41457" lon="6.06869">
        <ele>203.39999389648</ele>
        <time>2016-06-01T12:08:52Z</time>
      </trkpt>
      <trkpt lat="43.41452" lon="6.06864">
        <ele>203.39999389648</ele>
        <time>2016-06-01T12:08:53Z</time>
      </trkpt>
      <trkpt lat="43.41434" lon="6.06858">
        <ele>203.60000610352</ele>
        <time>2016-06-01T12:08:56Z</time>
      </trkpt>
      <trkpt lat="43.41428" lon="6.06858">
        <ele>203.60000610352</ele>
        <time>2016-06-01T12:08:57Z</time>
      </trkpt>
      <trkpt lat="43.41422" lon="6.06858">
        <ele>203.60000610352</ele>
        <time>2016-06-01T12:08:58Z</time>
      </trkpt>
      <trkpt lat="43.41415" lon="6.06856">
        <ele>203.60000610352</ele>
        <time>2016-06-01T12:08:59Z</time>
      </trkpt>
      <trkpt lat="43.41409" lon="6.06853">
        <ele>203.39999389648</ele>
        <time>2016-06-01T12:09:00Z</time>
      </trkpt>
      <trkpt lat="43.41404" lon="6.06848">
        <ele>203.39999389648</ele>
        <time>2016-06-01T12:09:01Z</time>
      </trkpt>
      <trkpt lat="43.41399" lon="6.06844">
        <ele>203.39999389648</ele>
        <time>2016-06-01T12:09:02Z</time>
      </trkpt>
      <trkpt lat="43.41384" lon="6.06832">
        <ele>203.39999389648</ele>
        <time>2016-06-01T12:09:05Z</time>
      </trkpt>
      <trkpt lat="43.41378" lon="6.06829">
        <ele>203.60000610352</ele>
        <time>2016-06-01T12:09:06Z</time>
      </trkpt>
      <trkpt lat="43.41332" lon="6.06805">
        <ele>204</ele>
        <time>2016-06-01T12:09:14Z</time>
      </trkpt>
      <trkpt lat="43.41303" lon="6.06785">
        <ele>203</ele>
        <time>2016-06-01T12:09:19Z</time>
      </trkpt>
      <trkpt lat="43.41293" lon="6.06774">
        <ele>202.80000305176</ele>
        <time>2016-06-01T12:09:21Z</time>
      </trkpt>
      <trkpt lat="43.41282" lon="6.06752">
        <ele>202</ele>
        <time>2016-06-01T12:09:24Z</time>
      </trkpt>
      <trkpt lat="43.41279" lon="6.06744">
        <ele>201.80000305176</ele>
        <time>2016-06-01T12:09:25Z</time>
      </trkpt>
      <trkpt lat="43.41274" lon="6.06721">
        <ele>201.60000610352</ele>
        <time>2016-06-01T12:09:28Z</time>
      </trkpt>
      <trkpt lat="43.41272" lon="6.06707">
        <ele>201.80000305176</ele>
        <time>2016-06-01T12:09:30Z</time>
      </trkpt>
      <trkpt lat="43.4127" lon="6.06695">
        <ele>202.19999694824</ele>
        <time>2016-06-01T12:09:32Z</time>
      </trkpt>
      <trkpt lat="43.41265" lon="6.06687">
        <ele>202.60000610352</ele>
        <time>2016-06-01T12:09:34Z</time>
      </trkpt>
      <trkpt lat="43.41253" lon="6.06687">
        <ele>202.19999694824</ele>
        <time>2016-06-01T12:09:37Z</time>
      </trkpt>
      <trkpt lat="43.41248" lon="6.0669">
        <ele>201.80000305176</ele>
        <time>2016-06-01T12:09:39Z</time>
      </trkpt>
      <trkpt lat="43.41245" lon="6.06692">
        <ele>201</ele>
        <time>2016-06-01T12:09:41Z</time>
      </trkpt>
      <trkpt lat="43.41244" lon="6.06695">
        <ele>200.19999694824</ele>
        <time>2016-06-01T12:09:46Z</time>
      </trkpt>
      <trkpt lat="43.41241" lon="6.06702">
        <ele>199.80000305176</ele>
        <time>2016-06-01T12:09:54Z</time>
      </trkpt>
      <trkpt lat="43.41242" lon="6.06707">
        <ele>200</ele>
        <time>2016-06-01T12:09:56Z</time>
      </trkpt>
      <trkpt lat="43.41246" lon="6.06713">
        <ele>200.19999694824</ele>
        <time>2016-06-01T12:09:59Z</time>
      </trkpt>
      <trkpt lat="43.41246" lon="6.06714">
        <ele>200.19999694824</ele>
        <time>2016-06-01T12:10:00Z</time>
      </trkpt>
      <trkpt lat="43.41243" lon="6.06714">
        <ele>200</ele>
        <time>2016-06-01T12:10:02Z</time>
      </trkpt>
      <trkpt lat="43.4123" lon="6.06713">
        <ele>200</ele>
        <time>2016-06-01T12:10:06Z</time>
      </trkpt>
      <trkpt lat="43.41221" lon="6.06714">
        <ele>199.60000610352</ele>
        <time>2016-06-01T12:10:08Z</time>
      </trkpt>
      <trkpt lat="43.41212" lon="6.06715">
        <ele>199.19999694824</ele>
        <time>2016-06-01T12:10:10Z</time>
      </trkpt>
      <trkpt lat="43.41196" lon="6.06715">
        <ele>198.60000610352</ele>
        <time>2016-06-01T12:10:13Z</time>
      </trkpt>
      <trkpt lat="43.41191" lon="6.06714">
        <ele>198.39999389648</ele>
        <time>2016-06-01T12:10:14Z</time>
      </trkpt>
      <trkpt lat="43.4118" lon="6.06713">
        <ele>198.39999389648</ele>
        <time>2016-06-01T12:10:16Z</time>
      </trkpt>
      <trkpt lat="43.41175" lon="6.06713">
        <ele>198.39999389648</ele>
        <time>2016-06-01T12:10:17Z</time>
      </trkpt>
      <trkpt lat="43.41164" lon="6.06711">
        <ele>198.39999389648</ele>
        <time>2016-06-01T12:10:19Z</time>
      </trkpt>
      <trkpt lat="43.41158" lon="6.06712">
        <ele>198.60000610352</ele>
        <time>2016-06-01T12:10:20Z</time>
      </trkpt>
      <trkpt lat="43.41136" lon="6.06717">
        <ele>198.19999694824</ele>
        <time>2016-06-01T12:10:24Z</time>
      </trkpt>
      <trkpt lat="43.41131" lon="6.06718">
        <ele>198</ele>
        <time>2016-06-01T12:10:25Z</time>
      </trkpt>
      <trkpt lat="43.41113" lon="6.06731">
        <ele>198</ele>
        <time>2016-06-01T12:10:29Z</time>
      </trkpt>
      <trkpt lat="43.41108" lon="6.06734">
        <ele>198</ele>
        <time>2016-06-01T12:10:30Z</time>
      </trkpt>
      <trkpt lat="43.41103" lon="6.06736">
        <ele>198</ele>
        <time>2016-06-01T12:10:31Z</time>
      </trkpt>
      <trkpt lat="43.41099" lon="6.06738">
        <ele>198</ele>
        <time>2016-06-01T12:10:32Z</time>
      </trkpt>
      <trkpt lat="43.41096" lon="6.06737">
        <ele>197.80000305176</ele>
        <time>2016-06-01T12:10:33Z</time>
      </trkpt>
      <trkpt lat="43.41094" lon="6.06737">
        <ele>197.60000610352</ele>
        <time>2016-06-01T12:10:34Z</time>
      </trkpt>
      <trkpt lat="43.41091" lon="6.06738">
        <ele>197.60000610352</ele>
        <time>2016-06-01T12:10:36Z</time>
      </trkpt>
      <trkpt lat="43.41089" lon="6.06739">
        <ele>197.39999389648</ele>
        <time>2016-06-01T12:10:38Z</time>
      </trkpt>
      <trkpt lat="43.41088" lon="6.06743">
        <ele>197.39999389648</ele>
        <time>2016-06-01T12:10:44Z</time>
      </trkpt>
      <trkpt lat="43.41087" lon="6.06744">
        <ele>197.39999389648</ele>
        <time>2016-06-01T12:10:46Z</time>
      </trkpt>
      <trkpt lat="43.41082" lon="6.06752">
        <ele>197.39999389648</ele>
        <time>2016-06-01T12:10:50Z</time>
      </trkpt>
      <trkpt lat="43.4108" lon="6.06766">
        <ele>197.19999694824</ele>
        <time>2016-06-01T12:10:53Z</time>
      </trkpt>
      <trkpt lat="43.41079" lon="6.06773">
        <ele>197.19999694824</ele>
        <time>2016-06-01T12:10:54Z</time>
      </trkpt>
      <trkpt lat="43.41077" lon="6.06786">
        <ele>197.19999694824</ele>
        <time>2016-06-01T12:10:56Z</time>
      </trkpt>
      <trkpt lat="43.41072" lon="6.06813">
        <ele>197.39999389648</ele>
        <time>2016-06-01T12:11:00Z</time>
      </trkpt>
      <trkpt lat="43.41068" lon="6.06834">
        <ele>197.39999389648</ele>
        <time>2016-06-01T12:11:03Z</time>
      </trkpt>
      <trkpt lat="43.41066" lon="6.06855">
        <ele>197.39999389648</ele>
        <time>2016-06-01T12:11:06Z</time>
      </trkpt>
      <trkpt lat="43.41065" lon="6.06866">
        <ele>198</ele>
        <time>2016-06-01T12:11:09Z</time>
      </trkpt>
      <trkpt lat="43.41063" lon="6.06868">
        <ele>198.19999694824</ele>
        <time>2016-06-01T12:11:10Z</time>
      </trkpt>
      <trkpt lat="43.41058" lon="6.06871">
        <ele>198.60000610352</ele>
        <time>2016-06-01T12:11:12Z</time>
      </trkpt>
      <trkpt lat="43.41055" lon="6.06872">
        <ele>199</ele>
        <time>2016-06-01T12:11:13Z</time>
      </trkpt>
      <trkpt lat="43.41035" lon="6.0688">
        <ele>199</ele>
        <time>2016-06-01T12:11:18Z</time>
      </trkpt>
      <trkpt lat="43.41022" lon="6.06886">
        <ele>197.80000305176</ele>
        <time>2016-06-01T12:11:22Z</time>
      </trkpt>
      <trkpt lat="43.41018" lon="6.06886">
        <ele>197.39999389648</ele>
        <time>2016-06-01T12:11:25Z</time>
      </trkpt>
      <trkpt lat="43.41017" lon="6.06886">
        <ele>197.39999389648</ele>
        <time>2016-06-01T12:11:26Z</time>
      </trkpt>
      <trkpt lat="43.41016" lon="6.06886">
        <ele>197.60000610352</ele>
        <time>2016-06-01T12:11:33Z</time>
      </trkpt>
      <trkpt lat="43.41016" lon="6.06886">
        <ele>197.60000610352</ele>
        <time>2016-06-01T12:11:41Z</time>
      </trkpt>
      <trkpt lat="43.41016" lon="6.06887">
        <ele>197.39999389648</ele>
        <time>2016-06-01T12:11:43Z</time>
      </trkpt>
      <trkpt lat="43.41015" lon="6.06888">
        <ele>197.19999694824</ele>
        <time>2016-06-01T12:11:49Z</time>
      </trkpt>
      <trkpt lat="43.41014" lon="6.06892">
        <ele>197.19999694824</ele>
        <time>2016-06-01T12:11:51Z</time>
      </trkpt>
      <trkpt lat="43.4101" lon="6.06906">
        <ele>197.60000610352</ele>
        <time>2016-06-01T12:11:55Z</time>
      </trkpt>
      <trkpt lat="43.41002" lon="6.06912">
        <ele>197.80000305176</ele>
        <time>2016-06-01T12:11:57Z</time>
      </trkpt>
      <trkpt lat="43.40998" lon="6.06915">
        <ele>197.80000305176</ele>
        <time>2016-06-01T12:11:58Z</time>
      </trkpt>
      <trkpt lat="43.40993" lon="6.06918">
        <ele>197.80000305176</ele>
        <time>2016-06-01T12:11:59Z</time>
      </trkpt>
      <trkpt lat="43.40987" lon="6.0692">
        <ele>197.80000305176</ele>
        <time>2016-06-01T12:12:00Z</time>
      </trkpt>
      <trkpt lat="43.40976" lon="6.06925">
        <ele>197.60000610352</ele>
        <time>2016-06-01T12:12:02Z</time>
      </trkpt>
      <trkpt lat="43.4095" lon="6.06934">
        <ele>197.39999389648</ele>
        <time>2016-06-01T12:12:06Z</time>
      </trkpt>
      <trkpt lat="43.40944" lon="6.06936">
        <ele>197.39999389648</ele>
        <time>2016-06-01T12:12:07Z</time>
      </trkpt>
      <trkpt lat="43.40923" lon="6.06941">
        <ele>197.19999694824</ele>
        <time>2016-06-01T12:12:11Z</time>
      </trkpt>
      <trkpt lat="43.40909" lon="6.0695">
        <ele>197.39999389648</ele>
        <time>2016-06-01T12:12:15Z</time>
      </trkpt>
      <trkpt lat="43.40907" lon="6.06955">
        <ele>197.80000305176</ele>
        <time>2016-06-01T12:12:16Z</time>
      </trkpt>
      <trkpt lat="43.40898" lon="6.06973">
        <ele>198</ele>
        <time>2016-06-01T12:12:19Z</time>
      </trkpt>
      <trkpt lat="43.40887" lon="6.0698">
        <ele>198</ele>
        <time>2016-06-01T12:12:21Z</time>
      </trkpt>
      <trkpt lat="43.40875" lon="6.06986">
        <ele>198</ele>
        <time>2016-06-01T12:12:23Z</time>
      </trkpt>
      <trkpt lat="43.40857" lon="6.06993">
        <ele>198</ele>
        <time>2016-06-01T12:12:26Z</time>
      </trkpt>
      <trkpt lat="43.40849" lon="6.06998">
        <ele>198</ele>
        <time>2016-06-01T12:12:28Z</time>
      </trkpt>
      <trkpt lat="43.40845" lon="6.07002">
        <ele>197.80000305176</ele>
        <time>2016-06-01T12:12:30Z</time>
      </trkpt>
      <trkpt lat="43.40844" lon="6.07003">
        <ele>197.80000305176</ele>
        <time>2016-06-01T12:12:31Z</time>
      </trkpt>
      <trkpt lat="43.40843" lon="6.07005">
        <ele>197.80000305176</ele>
        <time>2016-06-01T12:12:36Z</time>
      </trkpt>
      <trkpt lat="43.4084" lon="6.07008">
        <ele>198</ele>
        <time>2016-06-01T12:12:38Z</time>
      </trkpt>
      <trkpt lat="43.40838" lon="6.07014">
        <ele>197.80000305176</ele>
        <time>2016-06-01T12:12:40Z</time>
      </trkpt>
      <trkpt lat="43.40838" lon="6.07023">
        <ele>197.80000305176</ele>
        <time>2016-06-01T12:12:42Z</time>
      </trkpt>
      <trkpt lat="43.40841" lon="6.07039">
        <ele>197.80000305176</ele>
        <time>2016-06-01T12:12:45Z</time>
      </trkpt>
      <trkpt lat="43.40844" lon="6.07065">
        <ele>198</ele>
        <time>2016-06-01T12:12:49Z</time>
      </trkpt>
      <trkpt lat="43.40844" lon="6.0708">
        <ele>198</ele>
        <time>2016-06-01T12:12:51Z</time>
      </trkpt>
      <trkpt lat="43.40844" lon="6.07088">
        <ele>198</ele>
        <time>2016-06-01T12:12:52Z</time>
      </trkpt>
      <trkpt lat="43.40844" lon="6.07095">
        <ele>198</ele>
        <time>2016-06-01T12:12:53Z</time>
      </trkpt>
      <trkpt lat="43.40843" lon="6.07109">
        <ele>198</ele>
        <time>2016-06-01T12:12:55Z</time>
      </trkpt>
      <trkpt lat="43.40841" lon="6.07123">
        <ele>198</ele>
        <time>2016-06-01T12:12:57Z</time>
      </trkpt>
      <trkpt lat="43.40835" lon="6.07149">
        <ele>198.19999694824</ele>
        <time>2016-06-01T12:13:01Z</time>
      </trkpt>
      <trkpt lat="43.40831" lon="6.07161">
        <ele>198.19999694824</ele>
        <time>2016-06-01T12:13:03Z</time>
      </trkpt>
      <trkpt lat="43.40811" lon="6.07201">
        <ele>198</ele>
        <time>2016-06-01T12:13:10Z</time>
      </trkpt>
      <trkpt lat="43.40783" lon="6.07233">
        <ele>198.60000610352</ele>
        <time>2016-06-01T12:13:17Z</time>
      </trkpt>
      <trkpt lat="43.40763" lon="6.07248">
        <ele>198.80000305176</ele>
        <time>2016-06-01T12:13:21Z</time>
      </trkpt>
      <trkpt lat="43.40758" lon="6.07251">
        <ele>198.80000305176</ele>
        <time>2016-06-01T12:13:22Z</time>
      </trkpt>
      <trkpt lat="43.40752" lon="6.07255">
        <ele>198.80000305176</ele>
        <time>2016-06-01T12:13:23Z</time>
      </trkpt>
      <trkpt lat="43.40707" lon="6.07279">
        <ele>199</ele>
        <time>2016-06-01T12:13:31Z</time>
      </trkpt>
      <trkpt lat="43.40686" lon="6.07291">
        <ele>199.80000305176</ele>
        <time>2016-06-01T12:13:35Z</time>
      </trkpt>
      <trkpt lat="43.40667" lon="6.07302">
        <ele>200.39999389648</ele>
        <time>2016-06-01T12:13:39Z</time>
      </trkpt>
      <trkpt lat="43.40652" lon="6.07311">
        <ele>200.80000305176</ele>
        <time>2016-06-01T12:13:43Z</time>
      </trkpt>
      <trkpt lat="43.40637" lon="6.07319">
        <ele>201.60000610352</ele>
        <time>2016-06-01T12:13:47Z</time>
      </trkpt>
      <trkpt lat="43.40633" lon="6.07321">
        <ele>201.80000305176</ele>
        <time>2016-06-01T12:13:48Z</time>
      </trkpt>
      <trkpt lat="43.40626" lon="6.0732">
        <ele>202</ele>
        <time>2016-06-01T12:13:50Z</time>
      </trkpt>
      <trkpt lat="43.4061" lon="6.07305">
        <ele>202.80000305176</ele>
        <time>2016-06-01T12:13:56Z</time>
      </trkpt>
      <trkpt lat="43.40608" lon="6.07302">
        <ele>202.80000305176</ele>
        <time>2016-06-01T12:13:57Z</time>
      </trkpt>
      <trkpt lat="43.40604" lon="6.07296">
        <ele>203.19999694824</ele>
        <time>2016-06-01T12:14:01Z</time>
      </trkpt>
      <trkpt lat="43.40604" lon="6.07296">
        <ele>203.39999389648</ele>
        <time>2016-06-01T12:14:02Z</time>
      </trkpt>
      <trkpt lat="43.40603" lon="6.07297">
        <ele>203.39999389648</ele>
        <time>2016-06-01T12:14:07Z</time>
      </trkpt>
      <trkpt lat="43.40603" lon="6.07297">
        <ele>203.19999694824</ele>
        <time>2016-06-01T12:14:11Z</time>
      </trkpt>
      <trkpt lat="43.40603" lon="6.07296">
        <ele>203.39999389648</ele>
        <time>2016-06-01T12:14:25Z</time>
      </trkpt>
      <trkpt lat="43.40603" lon="6.07297">
        <ele>203.60000610352</ele>
        <time>2016-06-01T12:14:29Z</time>
      </trkpt>
      <trkpt lat="43.406" lon="6.07293">
        <ele>203.80000305176</ele>
        <time>2016-06-01T12:14:34Z</time>
      </trkpt>
      <trkpt lat="43.40589" lon="6.0729">
        <ele>203.60000610352</ele>
        <time>2016-06-01T12:14:38Z</time>
      </trkpt>
      <trkpt lat="43.40574" lon="6.07299">
        <ele>203.80000305176</ele>
        <time>2016-06-01T12:14:42Z</time>
      </trkpt>
      <trkpt lat="43.40565" lon="6.07299">
        <ele>204</ele>
        <time>2016-06-01T12:14:44Z</time>
      </trkpt>
      <trkpt lat="43.40556" lon="6.07297">
        <ele>204.39999389648</ele>
        <time>2016-06-01T12:14:46Z</time>
      </trkpt>
      <trkpt lat="43.40552" lon="6.07296">
        <ele>204.39999389648</ele>
        <time>2016-06-01T12:14:47Z</time>
      </trkpt>
      <trkpt lat="43.40528" lon="6.07291">
        <ele>204.80000305176</ele>
        <time>2016-06-01T12:14:52Z</time>
      </trkpt>
      <trkpt lat="43.40524" lon="6.07288">
        <ele>205</ele>
        <time>2016-06-01T12:14:53Z</time>
      </trkpt>
      <trkpt lat="43.40519" lon="6.07286">
        <ele>205</ele>
        <time>2016-06-01T12:14:54Z</time>
      </trkpt>
      <trkpt lat="43.40501" lon="6.07278">
        <ele>205.19999694824</ele>
        <time>2016-06-01T12:14:58Z</time>
      </trkpt>
      <trkpt lat="43.40491" lon="6.07276">
        <ele>205.19999694824</ele>
        <time>2016-06-01T12:15:00Z</time>
      </trkpt>
      <trkpt lat="43.40458" lon="6.07276">
        <ele>206.19999694824</ele>
        <time>2016-06-01T12:15:07Z</time>
      </trkpt>
      <trkpt lat="43.40453" lon="6.07277">
        <ele>206.39999389648</ele>
        <time>2016-06-01T12:15:08Z</time>
      </trkpt>
      <trkpt lat="43.4044" lon="6.07278">
        <ele>206.80000305176</ele>
        <time>2016-06-01T12:15:11Z</time>
      </trkpt>
      <trkpt lat="43.40429" lon="6.07279">
        <ele>207.19999694824</ele>
        <time>2016-06-01T12:15:14Z</time>
      </trkpt>
      <trkpt lat="43.40425" lon="6.07279">
        <ele>207.39999389648</ele>
        <time>2016-06-01T12:15:15Z</time>
      </trkpt>
      <trkpt lat="43.40407" lon="6.07277">
        <ele>208.60000610352</ele>
        <time>2016-06-01T12:15:20Z</time>
      </trkpt>
      <trkpt lat="43.40397" lon="6.07269">
        <ele>209.39999389648</ele>
        <time>2016-06-01T12:15:25Z</time>
      </trkpt>
      <trkpt lat="43.40395" lon="6.07266">
        <ele>209.60000610352</ele>
        <time>2016-06-01T12:15:27Z</time>
      </trkpt>
      <trkpt lat="43.40389" lon="6.07256">
        <ele>209.80000305176</ele>
        <time>2016-06-01T12:15:30Z</time>
      </trkpt>
      <trkpt lat="43.40373" lon="6.07246">
        <ele>209.80000305176</ele>
        <time>2016-06-01T12:15:35Z</time>
      </trkpt>
      <trkpt lat="43.40356" lon="6.07234">
        <ele>210.19999694824</ele>
        <time>2016-06-01T12:15:40Z</time>
      </trkpt>
      <trkpt lat="43.40343" lon="6.07225">
        <ele>210.60000610352</ele>
        <time>2016-06-01T12:15:44Z</time>
      </trkpt>
      <trkpt lat="43.40339" lon="6.07223">
        <ele>210.80000305176</ele>
        <time>2016-06-01T12:15:45Z</time>
      </trkpt>
      <trkpt lat="43.4032" lon="6.07215">
        <ele>211.39999389648</ele>
        <time>2016-06-01T12:15:50Z</time>
      </trkpt>
      <trkpt lat="43.40309" lon="6.0721">
        <ele>211.80000305176</ele>
        <time>2016-06-01T12:15:53Z</time>
      </trkpt>
      <trkpt lat="43.40289" lon="6.07193">
        <ele>212</ele>
        <time>2016-06-01T12:15:59Z</time>
      </trkpt>
      <trkpt lat="43.4027" lon="6.07172">
        <ele>212.19999694824</ele>
        <time>2016-06-01T12:16:05Z</time>
      </trkpt>
      <trkpt lat="43.40267" lon="6.0717">
        <ele>212.19999694824</ele>
        <time>2016-06-01T12:16:06Z</time>
      </trkpt>
      <trkpt lat="43.40245" lon="6.07166">
        <ele>212.80000305176</ele>
        <time>2016-06-01T12:16:12Z</time>
      </trkpt>
      <trkpt lat="43.40242" lon="6.07166">
        <ele>213</ele>
        <time>2016-06-01T12:16:13Z</time>
      </trkpt>
      <trkpt lat="43.40221" lon="6.07171">
        <ele>213.80000305176</ele>
        <time>2016-06-01T12:16:20Z</time>
      </trkpt>
      <trkpt lat="43.40218" lon="6.07172">
        <ele>214.19999694824</ele>
        <time>2016-06-01T12:16:21Z</time>
      </trkpt>
      <trkpt lat="43.4021" lon="6.07177">
        <ele>214.80000305176</ele>
        <time>2016-06-01T12:16:24Z</time>
      </trkpt>
      <trkpt lat="43.40202" lon="6.07181">
        <ele>215.60000610352</ele>
        <time>2016-06-01T12:16:27Z</time>
      </trkpt>
      <trkpt lat="43.4019" lon="6.07188">
        <ele>216.60000610352</ele>
        <time>2016-06-01T12:16:31Z</time>
      </trkpt>
      <trkpt lat="43.40178" lon="6.07196">
        <ele>218</ele>
        <time>2016-06-01T12:16:35Z</time>
      </trkpt>
      <trkpt lat="43.40176" lon="6.07198">
        <ele>218.19999694824</ele>
        <time>2016-06-01T12:16:36Z</time>
      </trkpt>
      <trkpt lat="43.40173" lon="6.072">
        <ele>218.60000610352</ele>
        <time>2016-06-01T12:16:37Z</time>
      </trkpt>
      <trkpt lat="43.40168" lon="6.07204">
        <ele>219.19999694824</ele>
        <time>2016-06-01T12:16:39Z</time>
      </trkpt>
      <trkpt lat="43.4016" lon="6.0721">
        <ele>220.19999694824</ele>
        <time>2016-06-01T12:16:42Z</time>
      </trkpt>
      <trkpt lat="43.40158" lon="6.07212">
        <ele>220.39999389648</ele>
        <time>2016-06-01T12:16:43Z</time>
      </trkpt>
      <trkpt lat="43.40156" lon="6.07215">
        <ele>220.60000610352</ele>
        <time>2016-06-01T12:16:44Z</time>
      </trkpt>
      <trkpt lat="43.40154" lon="6.07217">
        <ele>220.80000305176</ele>
        <time>2016-06-01T12:16:45Z</time>
      </trkpt>
      <trkpt lat="43.40148" lon="6.07226">
        <ele>221.39999389648</ele>
        <time>2016-06-01T12:16:49Z</time>
      </trkpt>
      <trkpt lat="43.40144" lon="6.07231">
        <ele>221.80000305176</ele>
        <time>2016-06-01T12:16:52Z</time>
      </trkpt>
      <trkpt lat="43.40142" lon="6.07236">
        <ele>222</ele>
        <time>2016-06-01T12:16:55Z</time>
      </trkpt>
      <trkpt lat="43.40142" lon="6.07238">
        <ele>222</ele>
        <time>2016-06-01T12:16:57Z</time>
      </trkpt>
      <trkpt lat="43.40142" lon="6.07239">
        <ele>222</ele>
        <time>2016-06-01T12:17:00Z</time>
      </trkpt>
      <trkpt lat="43.40142" lon="6.07239">
        <ele>221.80000305176</ele>
        <time>2016-06-01T12:17:07Z</time>
      </trkpt>
      <trkpt lat="43.40142" lon="6.07239">
        <ele>222.19999694824</ele>
        <time>2016-06-01T12:17:40Z</time>
      </trkpt>
      <trkpt lat="43.40142" lon="6.07239">
        <ele>221.60000610352</ele>
        <time>2016-06-01T12:18:05Z</time>
      </trkpt>
      <trkpt lat="43.40142" lon="6.0724">
        <ele>221.39999389648</ele>
        <time>2016-06-01T12:18:43Z</time>
      </trkpt>
      <trkpt lat="43.40143" lon="6.07243">
        <ele>221</ele>
        <time>2016-06-01T12:19:10Z</time>
      </trkpt>
      <trkpt lat="43.40143" lon="6.07245">
        <ele>221</ele>
        <time>2016-06-01T12:19:11Z</time>
      </trkpt>
      <trkpt lat="43.40144" lon="6.07262">
        <ele>221</ele>
        <time>2016-06-01T12:19:16Z</time>
      </trkpt>
      <trkpt lat="43.40144" lon="6.07292">
        <ele>221.39999389648</ele>
        <time>2016-06-01T12:19:23Z</time>
      </trkpt>
      <trkpt lat="43.40141" lon="6.0732">
        <ele>221.80000305176</ele>
        <time>2016-06-01T12:19:29Z</time>
      </trkpt>
      <trkpt lat="43.40139" lon="6.07338">
        <ele>221.80000305176</ele>
        <time>2016-06-01T12:19:33Z</time>
      </trkpt>
      <trkpt lat="43.40136" lon="6.07384">
        <ele>222.39999389648</ele>
        <time>2016-06-01T12:19:43Z</time>
      </trkpt>
      <trkpt lat="43.40141" lon="6.07418">
        <ele>222.60000610352</ele>
        <time>2016-06-01T12:19:50Z</time>
      </trkpt>
      <trkpt lat="43.40143" lon="6.07433">
        <ele>223</ele>
        <time>2016-06-01T12:19:53Z</time>
      </trkpt>
      <trkpt lat="43.40143" lon="6.07438">
        <ele>223.19999694824</ele>
        <time>2016-06-01T12:19:54Z</time>
      </trkpt>
      <trkpt lat="43.40143" lon="6.07453">
        <ele>223.80000305176</ele>
        <time>2016-06-01T12:19:57Z</time>
      </trkpt>
      <trkpt lat="43.40141" lon="6.07483">
        <ele>224.39999389648</ele>
        <time>2016-06-01T12:20:03Z</time>
      </trkpt>
      <trkpt lat="43.4014" lon="6.07492">
        <ele>224.80000305176</ele>
        <time>2016-06-01T12:20:05Z</time>
      </trkpt>
      <trkpt lat="43.40136" lon="6.07509">
        <ele>225.80000305176</ele>
        <time>2016-06-01T12:20:09Z</time>
      </trkpt>
      <trkpt lat="43.40133" lon="6.07517">
        <ele>226.80000305176</ele>
        <time>2016-06-01T12:20:12Z</time>
      </trkpt>
      <trkpt lat="43.40125" lon="6.07533">
        <ele>227.39999389648</ele>
        <time>2016-06-01T12:20:19Z</time>
      </trkpt>
      <trkpt lat="43.40117" lon="6.07549">
        <ele>227.60000610352</ele>
        <time>2016-06-01T12:20:25Z</time>
      </trkpt>
      <trkpt lat="43.40113" lon="6.07554">
        <ele>227.80000305176</ele>
        <time>2016-06-01T12:20:27Z</time>
      </trkpt>
      <trkpt lat="43.40103" lon="6.07569">
        <ele>228</ele>
        <time>2016-06-01T12:20:33Z</time>
      </trkpt>
      <trkpt lat="43.40095" lon="6.07585">
        <ele>228.39999389648</ele>
        <time>2016-06-01T12:20:38Z</time>
      </trkpt>
      <trkpt lat="43.4009" lon="6.07603">
        <ele>228.80000305176</ele>
        <time>2016-06-01T12:20:43Z</time>
      </trkpt>
      <trkpt lat="43.40089" lon="6.07611">
        <ele>229</ele>
        <time>2016-06-01T12:20:45Z</time>
      </trkpt>
      <trkpt lat="43.40089" lon="6.0763">
        <ele>230</ele>
        <time>2016-06-01T12:20:50Z</time>
      </trkpt>
      <trkpt lat="43.40088" lon="6.07645">
        <ele>230.60000610352</ele>
        <time>2016-06-01T12:20:54Z</time>
      </trkpt>
      <trkpt lat="43.40087" lon="6.07653">
        <ele>231</ele>
        <time>2016-06-01T12:20:56Z</time>
      </trkpt>
      <trkpt lat="43.40084" lon="6.07664">
        <ele>231.80000305176</ele>
        <time>2016-06-01T12:20:59Z</time>
      </trkpt>
      <trkpt lat="43.40083" lon="6.07667">
        <ele>232</ele>
        <time>2016-06-01T12:21:00Z</time>
      </trkpt>
      <trkpt lat="43.40078" lon="6.07677">
        <ele>233</ele>
        <time>2016-06-01T12:21:04Z</time>
      </trkpt>
      <trkpt lat="43.40073" lon="6.07687">
        <ele>234</ele>
        <time>2016-06-01T12:21:08Z</time>
      </trkpt>
      <trkpt lat="43.4007" lon="6.07692">
        <ele>234.60000610352</ele>
        <time>2016-06-01T12:21:10Z</time>
      </trkpt>
      <trkpt lat="43.4006" lon="6.07705">
        <ele>235.19999694824</ele>
        <time>2016-06-01T12:21:16Z</time>
      </trkpt>
      <trkpt lat="43.40059" lon="6.07707">
        <ele>235.19999694824</ele>
        <time>2016-06-01T12:21:17Z</time>
      </trkpt>
      <trkpt lat="43.40044" lon="6.07727">
        <ele>235.39999389648</ele>
        <time>2016-06-01T12:21:25Z</time>
      </trkpt>
      <trkpt lat="43.40031" lon="6.07753">
        <ele>235.60000610352</ele>
        <time>2016-06-01T12:21:33Z</time>
      </trkpt>
      <trkpt lat="43.40025" lon="6.07778">
        <ele>235.39999389648</ele>
        <time>2016-06-01T12:21:39Z</time>
      </trkpt>
      <trkpt lat="43.40019" lon="6.07793">
        <ele>236</ele>
        <time>2016-06-01T12:21:43Z</time>
      </trkpt>
      <trkpt lat="43.40014" lon="6.07812">
        <ele>236</ele>
        <time>2016-06-01T12:21:48Z</time>
      </trkpt>
      <trkpt lat="43.40012" lon="6.07819">
        <ele>236.39999389648</ele>
        <time>2016-06-01T12:21:50Z</time>
      </trkpt>
      <trkpt lat="43.40006" lon="6.07839">
        <ele>236.80000305176</ele>
        <time>2016-06-01T12:21:56Z</time>
      </trkpt>
      <trkpt lat="43.39997" lon="6.07872">
        <ele>236.80000305176</ele>
        <time>2016-06-01T12:22:05Z</time>
      </trkpt>
      <trkpt lat="43.39986" lon="6.07915">
        <ele>238.39999389648</ele>
        <time>2016-06-01T12:22:17Z</time>
      </trkpt>
      <trkpt lat="43.39983" lon="6.07926">
        <ele>238.80000305176</ele>
        <time>2016-06-01T12:22:20Z</time>
      </trkpt>
      <trkpt lat="43.39979" lon="6.07943">
        <ele>239.60000610352</ele>
        <time>2016-06-01T12:22:25Z</time>
      </trkpt>
      <trkpt lat="43.39974" lon="6.0796">
        <ele>240.60000610352</ele>
        <time>2016-06-01T12:22:31Z</time>
      </trkpt>
      <trkpt lat="43.39973" lon="6.07964">
        <ele>241.19999694824</ele>
        <time>2016-06-01T12:22:33Z</time>
      </trkpt>
      <trkpt lat="43.39969" lon="6.07968">
        <ele>241.80000305176</ele>
        <time>2016-06-01T12:22:36Z</time>
      </trkpt>
      <trkpt lat="43.39966" lon="6.0797">
        <ele>242.19999694824</ele>
        <time>2016-06-01T12:22:39Z</time>
      </trkpt>
      <trkpt lat="43.39959" lon="6.07974">
        <ele>242.60000610352</ele>
        <time>2016-06-01T12:22:45Z</time>
      </trkpt>
      <trkpt lat="43.39949" lon="6.0798">
        <ele>243</ele>
        <time>2016-06-01T12:22:50Z</time>
      </trkpt>
      <trkpt lat="43.39944" lon="6.07983">
        <ele>243.19999694824</ele>
        <time>2016-06-01T12:22:52Z</time>
      </trkpt>
      <trkpt lat="43.39926" lon="6.07994">
        <ele>243.60000610352</ele>
        <time>2016-06-01T12:22:59Z</time>
      </trkpt>
      <trkpt lat="43.39898" lon="6.08024">
        <ele>243.19999694824</ele>
        <time>2016-06-01T12:23:09Z</time>
      </trkpt>
      <trkpt lat="43.3989" lon="6.08028">
        <ele>242.80000305176</ele>
        <time>2016-06-01T12:23:11Z</time>
      </trkpt>
      <trkpt lat="43.39882" lon="6.08028">
        <ele>242.39999389648</ele>
        <time>2016-06-01T12:23:13Z</time>
      </trkpt>
      <trkpt lat="43.39875" lon="6.08025">
        <ele>242.19999694824</ele>
        <time>2016-06-01T12:23:15Z</time>
      </trkpt>
      <trkpt lat="43.39848" lon="6.08009">
        <ele>241.80000305176</ele>
        <time>2016-06-01T12:23:22Z</time>
      </trkpt>
      <trkpt lat="43.39841" lon="6.08004">
        <ele>241.80000305176</ele>
        <time>2016-06-01T12:23:24Z</time>
      </trkpt>
      <trkpt lat="43.39815" lon="6.07988">
        <ele>241.39999389648</ele>
        <time>2016-06-01T12:23:31Z</time>
      </trkpt>
      <trkpt lat="43.39794" lon="6.0798">
        <ele>241.80000305176</ele>
        <time>2016-06-01T12:23:37Z</time>
      </trkpt>
      <trkpt lat="43.39782" lon="6.07975">
        <ele>242.80000305176</ele>
        <time>2016-06-01T12:23:41Z</time>
      </trkpt>
      <trkpt lat="43.39779" lon="6.07974">
        <ele>243.19999694824</ele>
        <time>2016-06-01T12:23:42Z</time>
      </trkpt>
      <trkpt lat="43.39774" lon="6.07971">
        <ele>243.60000610352</ele>
        <time>2016-06-01T12:23:44Z</time>
      </trkpt>
      <trkpt lat="43.39767" lon="6.07966">
        <ele>244.19999694824</ele>
        <time>2016-06-01T12:23:47Z</time>
      </trkpt>
      <trkpt lat="43.39751" lon="6.07959">
        <ele>245.19999694824</ele>
        <time>2016-06-01T12:23:53Z</time>
      </trkpt>
      <trkpt lat="43.39741" lon="6.07953">
        <ele>245.80000305176</ele>
        <time>2016-06-01T12:23:57Z</time>
      </trkpt>
      <trkpt lat="43.39734" lon="6.07948">
        <ele>246.19999694824</ele>
        <time>2016-06-01T12:24:00Z</time>
      </trkpt>
      <trkpt lat="43.39721" lon="6.07934">
        <ele>246.60000610352</ele>
        <time>2016-06-01T12:24:06Z</time>
      </trkpt>
      <trkpt lat="43.39716" lon="6.07926">
        <ele>247.19999694824</ele>
        <time>2016-06-01T12:24:09Z</time>
      </trkpt>
      <trkpt lat="43.3971" lon="6.0792">
        <ele>248</ele>
        <time>2016-06-01T12:24:12Z</time>
      </trkpt>
      <trkpt lat="43.39708" lon="6.07919">
        <ele>248.39999389648</ele>
        <time>2016-06-01T12:24:13Z</time>
      </trkpt>
      <trkpt lat="43.39703" lon="6.07914">
        <ele>249</ele>
        <time>2016-06-01T12:24:16Z</time>
      </trkpt>
      <trkpt lat="43.397" lon="6.0791">
        <ele>249.80000305176</ele>
        <time>2016-06-01T12:24:18Z</time>
      </trkpt>
      <trkpt lat="43.39692" lon="6.07902">
        <ele>251</ele>
        <time>2016-06-01T12:24:23Z</time>
      </trkpt>
      <trkpt lat="43.39686" lon="6.07898">
        <ele>252</ele>
        <time>2016-06-01T12:24:27Z</time>
      </trkpt>
      <trkpt lat="43.39678" lon="6.07894">
        <ele>252.60000610352</ele>
        <time>2016-06-01T12:24:31Z</time>
      </trkpt>
      <trkpt lat="43.39676" lon="6.07893">
        <ele>252.80000305176</ele>
        <time>2016-06-01T12:24:32Z</time>
      </trkpt>
      <trkpt lat="43.39671" lon="6.07892">
        <ele>253</ele>
        <time>2016-06-01T12:24:35Z</time>
      </trkpt>
      <trkpt lat="43.39667" lon="6.07891">
        <ele>253.19999694824</ele>
        <time>2016-06-01T12:24:37Z</time>
      </trkpt>
      <trkpt lat="43.39663" lon="6.07891">
        <ele>253.39999389648</ele>
        <time>2016-06-01T12:24:39Z</time>
      </trkpt>
      <trkpt lat="43.3966" lon="6.0789">
        <ele>253.60000610352</ele>
        <time>2016-06-01T12:24:41Z</time>
      </trkpt>
      <trkpt lat="43.39658" lon="6.0789">
        <ele>253.80000305176</ele>
        <time>2016-06-01T12:24:42Z</time>
      </trkpt>
      <trkpt lat="43.39656" lon="6.0789">
        <ele>254</ele>
        <time>2016-06-01T12:24:43Z</time>
      </trkpt>
      <trkpt lat="43.39653" lon="6.07891">
        <ele>254</ele>
        <time>2016-06-01T12:24:45Z</time>
      </trkpt>
      <trkpt lat="43.39642" lon="6.07892">
        <ele>254.60000610352</ele>
        <time>2016-06-01T12:24:51Z</time>
      </trkpt>
      <trkpt lat="43.39629" lon="6.07894">
        <ele>255</ele>
        <time>2016-06-01T12:24:57Z</time>
      </trkpt>
      <trkpt lat="43.39622" lon="6.07896">
        <ele>255.19999694824</ele>
        <time>2016-06-01T12:25:00Z</time>
      </trkpt>
      <trkpt lat="43.39612" lon="6.079">
        <ele>255.39999389648</ele>
        <time>2016-06-01T12:25:05Z</time>
      </trkpt>
      <trkpt lat="43.39602" lon="6.07903">
        <ele>256.39999389648</ele>
        <time>2016-06-01T12:25:10Z</time>
      </trkpt>
      <trkpt lat="43.39588" lon="6.07903">
        <ele>258.39999389648</ele>
        <time>2016-06-01T12:25:18Z</time>
      </trkpt>
      <trkpt lat="43.39587" lon="6.07904">
        <ele>258.79998779297</ele>
        <time>2016-06-01T12:25:19Z</time>
      </trkpt>
      <trkpt lat="43.39582" lon="6.07908">
        <ele>259.60000610352</ele>
        <time>2016-06-01T12:25:22Z</time>
      </trkpt>
      <trkpt lat="43.39581" lon="6.0791">
        <ele>259.79998779297</ele>
        <time>2016-06-01T12:25:23Z</time>
      </trkpt>
      <trkpt lat="43.3958" lon="6.07917">
        <ele>259.79998779297</ele>
        <time>2016-06-01T12:25:26Z</time>
      </trkpt>
      <trkpt lat="43.39579" lon="6.07924">
        <ele>259.79998779297</ele>
        <time>2016-06-01T12:25:29Z</time>
      </trkpt>
      <trkpt lat="43.39578" lon="6.07926">
        <ele>259.79998779297</ele>
        <time>2016-06-01T12:25:30Z</time>
      </trkpt>
      <trkpt lat="43.39577" lon="6.07928">
        <ele>260</ele>
        <time>2016-06-01T12:25:31Z</time>
      </trkpt>
      <trkpt lat="43.39577" lon="6.07929">
        <ele>260.20001220703</ele>
        <time>2016-06-01T12:25:32Z</time>
      </trkpt>
      <trkpt lat="43.39575" lon="6.07931">
        <ele>260.60000610352</ele>
        <time>2016-06-01T12:25:34Z</time>
      </trkpt>
      <trkpt lat="43.3957" lon="6.07932">
        <ele>261.20001220703</ele>
        <time>2016-06-01T12:25:38Z</time>
      </trkpt>
      <trkpt lat="43.39561" lon="6.07933">
        <ele>262.39999389648</ele>
        <time>2016-06-01T12:25:44Z</time>
      </trkpt>
      <trkpt lat="43.39552" lon="6.07938">
        <ele>263</ele>
        <time>2016-06-01T12:25:50Z</time>
      </trkpt>
      <trkpt lat="43.39548" lon="6.0794">
        <ele>263.39999389648</ele>
        <time>2016-06-01T12:25:53Z</time>
      </trkpt>
      <trkpt lat="43.39531" lon="6.0795">
        <ele>265.79998779297</ele>
        <time>2016-06-01T12:26:06Z</time>
      </trkpt>
      <trkpt lat="43.39528" lon="6.07951">
        <ele>266</ele>
        <time>2016-06-01T12:26:08Z</time>
      </trkpt>
      <trkpt lat="43.39518" lon="6.07953">
        <ele>266.79998779297</ele>
        <time>2016-06-01T12:26:13Z</time>
      </trkpt>
      <trkpt lat="43.39512" lon="6.07955">
        <ele>267.39999389648</ele>
        <time>2016-06-01T12:26:17Z</time>
      </trkpt>
      <trkpt lat="43.395" lon="6.07958">
        <ele>268.20001220703</ele>
        <time>2016-06-01T12:26:24Z</time>
      </trkpt>
      <trkpt lat="43.39487" lon="6.07964">
        <ele>268.60000610352</ele>
        <time>2016-06-01T12:26:31Z</time>
      </trkpt>
      <trkpt lat="43.39477" lon="6.07966">
        <ele>269</ele>
        <time>2016-06-01T12:26:37Z</time>
      </trkpt>
      <trkpt lat="43.39465" lon="6.07971">
        <ele>269.79998779297</ele>
        <time>2016-06-01T12:26:44Z</time>
      </trkpt>
      <trkpt lat="43.39453" lon="6.07974">
        <ele>270.20001220703</ele>
        <time>2016-06-01T12:26:51Z</time>
      </trkpt>
      <trkpt lat="43.39439" lon="6.07981">
        <ele>270.60000610352</ele>
        <time>2016-06-01T12:26:58Z</time>
      </trkpt>
      <trkpt lat="43.39428" lon="6.07984">
        <ele>271.60000610352</ele>
        <time>2016-06-01T12:27:04Z</time>
      </trkpt>
      <trkpt lat="43.39425" lon="6.07985">
        <ele>271.60000610352</ele>
        <time>2016-06-01T12:27:06Z</time>
      </trkpt>
      <trkpt lat="43.39411" lon="6.07991">
        <ele>272.39999389648</ele>
        <time>2016-06-01T12:27:14Z</time>
      </trkpt>
      <trkpt lat="43.39402" lon="6.07995">
        <ele>273.20001220703</ele>
        <time>2016-06-01T12:27:19Z</time>
      </trkpt>
      <trkpt lat="43.39399" lon="6.07996">
        <ele>273.79998779297</ele>
        <time>2016-06-01T12:27:21Z</time>
      </trkpt>
      <trkpt lat="43.39395" lon="6.07999">
        <ele>274.20001220703</ele>
        <time>2016-06-01T12:27:23Z</time>
      </trkpt>
      <trkpt lat="43.39391" lon="6.08">
        <ele>274.60000610352</ele>
        <time>2016-06-01T12:27:25Z</time>
      </trkpt>
      <trkpt lat="43.39389" lon="6.08">
        <ele>274.79998779297</ele>
        <time>2016-06-01T12:27:27Z</time>
      </trkpt>
      <trkpt lat="43.39385" lon="6.08">
        <ele>274.79998779297</ele>
        <time>2016-06-01T12:27:29Z</time>
      </trkpt>
      <trkpt lat="43.39383" lon="6.08001">
        <ele>275.20001220703</ele>
        <time>2016-06-01T12:27:33Z</time>
      </trkpt>
      <trkpt lat="43.39383" lon="6.08001">
        <ele>275.39999389648</ele>
        <time>2016-06-01T12:27:36Z</time>
      </trkpt>
      <trkpt lat="43.39383" lon="6.08001">
        <ele>275.39999389648</ele>
        <time>2016-06-01T12:27:39Z</time>
      </trkpt>
      <trkpt lat="43.39382" lon="6.08001">
        <ele>275.20001220703</ele>
        <time>2016-06-01T12:27:42Z</time>
      </trkpt>
      <trkpt lat="43.39382" lon="6.08001">
        <ele>275.20001220703</ele>
        <time>2016-06-01T12:27:46Z</time>
      </trkpt>
      <trkpt lat="43.39382" lon="6.08001">
        <ele>275.39999389648</ele>
        <time>2016-06-01T12:27:49Z</time>
      </trkpt>
      <trkpt lat="43.39382" lon="6.08001">
        <ele>275.39999389648</ele>
        <time>2016-06-01T12:27:53Z</time>
      </trkpt>
      <trkpt lat="43.39382" lon="6.08">
        <ele>275.20001220703</ele>
        <time>2016-06-01T12:27:58Z</time>
      </trkpt>
      <trkpt lat="43.39379" lon="6.07997">
        <ele>275.20001220703</ele>
        <time>2016-06-01T12:28:01Z</time>
      </trkpt>
      <trkpt lat="43.39374" lon="6.07987">
        <ele>276</ele>
        <time>2016-06-01T12:28:07Z</time>
      </trkpt>
      <trkpt lat="43.39374" lon="6.07985">
        <ele>276.39999389648</ele>
        <time>2016-06-01T12:28:08Z</time>
      </trkpt>
      <trkpt lat="43.39375" lon="6.07978">
        <ele>277</ele>
        <time>2016-06-01T12:28:11Z</time>
      </trkpt>
      <trkpt lat="43.39376" lon="6.07975">
        <ele>277.60000610352</ele>
        <time>2016-06-01T12:28:13Z</time>
      </trkpt>
      <trkpt lat="43.39371" lon="6.07973">
        <ele>278.60000610352</ele>
        <time>2016-06-01T12:28:17Z</time>
      </trkpt>
      <trkpt lat="43.39368" lon="6.07973">
        <ele>279</ele>
        <time>2016-06-01T12:28:19Z</time>
      </trkpt>
      <trkpt lat="43.39363" lon="6.07976">
        <ele>279.39999389648</ele>
        <time>2016-06-01T12:28:23Z</time>
      </trkpt>
      <trkpt lat="43.39359" lon="6.07981">
        <ele>279.20001220703</ele>
        <time>2016-06-01T12:28:29Z</time>
      </trkpt>
      <trkpt lat="43.39359" lon="6.07979">
        <ele>279.60000610352</ele>
        <time>2016-06-01T12:28:39Z</time>
      </trkpt>
      <trkpt lat="43.39358" lon="6.07978">
        <ele>279.79998779297</ele>
        <time>2016-06-01T12:28:47Z</time>
      </trkpt>
      <trkpt lat="43.39358" lon="6.07978">
        <ele>279.60000610352</ele>
        <time>2016-06-01T12:28:48Z</time>
      </trkpt>
      <trkpt lat="43.39357" lon="6.07978">
        <ele>279.39999389648</ele>
        <time>2016-06-01T12:28:54Z</time>
      </trkpt>
      <trkpt lat="43.39357" lon="6.07978">
        <ele>279.20001220703</ele>
        <time>2016-06-01T12:29:18Z</time>
      </trkpt>
      <trkpt lat="43.39357" lon="6.07978">
        <ele>279</ele>
        <time>2016-06-01T12:30:05Z</time>
      </trkpt>
      <trkpt lat="43.39357" lon="6.07978">
        <ele>279.39999389648</ele>
        <time>2016-06-01T12:30:12Z</time>
      </trkpt>
      <trkpt lat="43.39358" lon="6.07978">
        <ele>280</ele>
        <time>2016-06-01T12:30:44Z</time>
      </trkpt>
      <trkpt lat="43.39361" lon="6.07974">
        <ele>279.60000610352</ele>
        <time>2016-06-01T12:31:00Z</time>
      </trkpt>
      <trkpt lat="43.39361" lon="6.07973">
        <ele>279.39999389648</ele>
        <time>2016-06-01T12:31:01Z</time>
      </trkpt>
      <trkpt lat="43.3936" lon="6.07975">
        <ele>279.60000610352</ele>
        <time>2016-06-01T12:31:06Z</time>
      </trkpt>
      <trkpt lat="43.39359" lon="6.07979">
        <ele>279.60000610352</ele>
        <time>2016-06-01T12:31:09Z</time>
      </trkpt>
      <trkpt lat="43.39357" lon="6.07988">
        <ele>279.60000610352</ele>
        <time>2016-06-01T12:31:11Z</time>
      </trkpt>
      <trkpt lat="43.39356" lon="6.07994">
        <ele>279.39999389648</ele>
        <time>2016-06-01T12:31:13Z</time>
      </trkpt>
      <trkpt lat="43.39356" lon="6.07995">
        <ele>279.20001220703</ele>
        <time>2016-06-01T12:31:14Z</time>
      </trkpt>
      <trkpt lat="43.39358" lon="6.07997">
        <ele>279</ele>
        <time>2016-06-01T12:31:20Z</time>
      </trkpt>
      <trkpt lat="43.39358" lon="6.07994">
        <ele>278.79998779297</ele>
        <time>2016-06-01T12:31:26Z</time>
      </trkpt>
      <trkpt lat="43.39357" lon="6.07992">
        <ele>279</ele>
        <time>2016-06-01T12:31:30Z</time>
      </trkpt>
      <trkpt lat="43.39358" lon="6.0799">
        <ele>279.39999389648</ele>
        <time>2016-06-01T12:31:34Z</time>
      </trkpt>
      <trkpt lat="43.39358" lon="6.07988">
        <ele>280</ele>
        <time>2016-06-01T12:31:42Z</time>
      </trkpt>
      <trkpt lat="43.39357" lon="6.07986">
        <ele>280</ele>
        <time>2016-06-01T12:31:46Z</time>
      </trkpt>
      <trkpt lat="43.39357" lon="6.07986">
        <ele>279.79998779297</ele>
        <time>2016-06-01T12:31:51Z</time>
      </trkpt>
      <trkpt lat="43.39358" lon="6.07986">
        <ele>279.79998779297</ele>
        <time>2016-06-01T12:31:56Z</time>
      </trkpt>
      <trkpt lat="43.39357" lon="6.07986">
        <ele>280</ele>
        <time>2016-06-01T12:32:05Z</time>
      </trkpt>
      <trkpt lat="43.39357" lon="6.07986">
        <ele>279.79998779297</ele>
        <time>2016-06-01T12:32:11Z</time>
      </trkpt>
      <trkpt lat="43.39357" lon="6.07986">
        <ele>279.79998779297</ele>
        <time>2016-06-01T12:32:16Z</time>
      </trkpt>
      <trkpt lat="43.39357" lon="6.07985">
        <ele>279.60000610352</ele>
        <time>2016-06-01T12:32:34Z</time>
      </trkpt>
      <trkpt lat="43.39357" lon="6.07985">
        <ele>279.79998779297</ele>
        <time>2016-06-01T12:32:36Z</time>
      </trkpt>
      <trkpt lat="43.39357" lon="6.07985">
        <ele>279.60000610352</ele>
        <time>2016-06-01T12:32:39Z</time>
      </trkpt>
      <trkpt lat="43.39357" lon="6.07984">
        <ele>279.60000610352</ele>
        <time>2016-06-01T12:32:41Z</time>
      </trkpt>
      <trkpt lat="43.39357" lon="6.07984">
        <ele>279.20001220703</ele>
        <time>2016-06-01T12:32:50Z</time>
      </trkpt>
      <trkpt lat="43.39358" lon="6.07984">
        <ele>279.39999389648</ele>
        <time>2016-06-01T12:33:05Z</time>
      </trkpt>
      <trkpt lat="43.39359" lon="6.07983">
        <ele>279.39999389648</ele>
        <time>2016-06-01T12:33:14Z</time>
      </trkpt>
      <trkpt lat="43.39358" lon="6.07984">
        <ele>279.39999389648</ele>
        <time>2016-06-01T12:33:27Z</time>
      </trkpt>
      <trkpt lat="43.39359" lon="6.07983">
        <ele>279.60000610352</ele>
        <time>2016-06-01T12:33:46Z</time>
      </trkpt>
      <trkpt lat="43.39358" lon="6.07984">
        <ele>279.39999389648</ele>
        <time>2016-06-01T12:33:52Z</time>
      </trkpt>
      <trkpt lat="43.39359" lon="6.07982">
        <ele>279.39999389648</ele>
        <time>2016-06-01T12:33:56Z</time>
      </trkpt>
      <trkpt lat="43.39359" lon="6.07982">
        <ele>279.39999389648</ele>
        <time>2016-06-01T12:34:02Z</time>
      </trkpt>
      <trkpt lat="43.39359" lon="6.07981">
        <ele>279.39999389648</ele>
        <time>2016-06-01T12:34:10Z</time>
      </trkpt>
      <trkpt lat="43.39359" lon="6.07981">
        <ele>279.39999389648</ele>
        <time>2016-06-01T12:34:12Z</time>
      </trkpt>
      <trkpt lat="43.39359" lon="6.07981">
        <ele>279.39999389648</ele>
        <time>2016-06-01T12:34:22Z</time>
      </trkpt>
      <trkpt lat="43.39359" lon="6.07981">
        <ele>279.20001220703</ele>
        <time>2016-06-01T12:34:57Z</time>
      </trkpt>
      <trkpt lat="43.39359" lon="6.07981">
        <ele>279</ele>
        <time>2016-06-01T12:35:14Z</time>
      </trkpt>
      <trkpt lat="43.39359" lon="6.07981">
        <ele>279.20001220703</ele>
        <time>2016-06-01T12:35:18Z</time>
      </trkpt>
      <trkpt lat="43.39359" lon="6.07981">
        <ele>279</ele>
        <time>2016-06-01T12:35:20Z</time>
      </trkpt>
      <trkpt lat="43.39359" lon="6.07982">
        <ele>279</ele>
        <time>2016-06-01T12:35:25Z</time>
      </trkpt>
      <trkpt lat="43.39358" lon="6.07982">
        <ele>279</ele>
        <time>2016-06-01T12:35:30Z</time>
      </trkpt>
      <trkpt lat="43.39356" lon="6.07987">
        <ele>278.79998779297</ele>
        <time>2016-06-01T12:35:35Z</time>
      </trkpt>
      <trkpt lat="43.39356" lon="6.07987">
        <ele>278.60000610352</ele>
        <time>2016-06-01T12:35:36Z</time>
      </trkpt>
      <trkpt lat="43.39356" lon="6.07987">
        <ele>278.60000610352</ele>
        <time>2016-06-01T12:35:37Z</time>
      </trkpt>
      <trkpt lat="43.39355" lon="6.07987">
        <ele>278.39999389648</ele>
        <time>2016-06-01T12:35:55Z</time>
      </trkpt>
      <trkpt lat="43.39355" lon="6.07987">
        <ele>278</ele>
        <time>2016-06-01T12:36:04Z</time>
      </trkpt>
      <trkpt lat="43.39354" lon="6.07987">
        <ele>278.60000610352</ele>
        <time>2016-06-01T12:36:22Z</time>
      </trkpt>
      <trkpt lat="43.39354" lon="6.07987">
        <ele>278.60000610352</ele>
        <time>2016-06-01T12:36:40Z</time>
      </trkpt>
      <trkpt lat="43.39354" lon="6.07986">
        <ele>278.60000610352</ele>
        <time>2016-06-01T12:36:46Z</time>
      </trkpt>
      <trkpt lat="43.39354" lon="6.07986">
        <ele>278.79998779297</ele>
        <time>2016-06-01T12:36:50Z</time>
      </trkpt>
      <trkpt lat="43.39354" lon="6.07985">
        <ele>278.60000610352</ele>
        <time>2016-06-01T12:36:56Z</time>
      </trkpt>
      <trkpt lat="43.39356" lon="6.07982">
        <ele>278.79998779297</ele>
        <time>2016-06-01T12:37:03Z</time>
      </trkpt>
      <trkpt lat="43.39356" lon="6.07983">
        <ele>278.60000610352</ele>
        <time>2016-06-01T12:37:09Z</time>
      </trkpt>
      <trkpt lat="43.39357" lon="6.07982">
        <ele>278.79998779297</ele>
        <time>2016-06-01T12:37:14Z</time>
      </trkpt>
      <trkpt lat="43.39358" lon="6.07981">
        <ele>279.20001220703</ele>
        <time>2016-06-01T12:37:24Z</time>
      </trkpt>
      <trkpt lat="43.39358" lon="6.0798">
        <ele>278.60000610352</ele>
        <time>2016-06-01T12:37:33Z</time>
      </trkpt>
      <trkpt lat="43.39358" lon="6.0798">
        <ele>278.79998779297</ele>
        <time>2016-06-01T12:37:41Z</time>
      </trkpt>
      <trkpt lat="43.39358" lon="6.0798">
        <ele>278.79998779297</ele>
        <time>2016-06-01T12:37:42Z</time>
      </trkpt>
      <trkpt lat="43.39359" lon="6.07978">
        <ele>279.20001220703</ele>
        <time>2016-06-01T12:37:47Z</time>
      </trkpt>
      <trkpt lat="43.39359" lon="6.07978">
        <ele>279.39999389648</ele>
        <time>2016-06-01T12:37:49Z</time>
      </trkpt>
      <trkpt lat="43.39359" lon="6.07978">
        <ele>279.39999389648</ele>
        <time>2016-06-01T12:37:51Z</time>
      </trkpt>
      <trkpt lat="43.39359" lon="6.07977">
        <ele>279.20001220703</ele>
        <time>2016-06-01T12:37:56Z</time>
      </trkpt>
      <trkpt lat="43.39359" lon="6.07977">
        <ele>279.20001220703</ele>
        <time>2016-06-01T12:38:01Z</time>
      </trkpt>
      <trkpt lat="43.39359" lon="6.07979">
        <ele>279.20001220703</ele>
        <time>2016-06-01T12:38:03Z</time>
      </trkpt>
      <trkpt lat="43.39357" lon="6.07984">
        <ele>279.20001220703</ele>
        <time>2016-06-01T12:38:05Z</time>
      </trkpt>
      <trkpt lat="43.39356" lon="6.07988">
        <ele>279</ele>
        <time>2016-06-01T12:38:06Z</time>
      </trkpt>
      <trkpt lat="43.39354" lon="6.07995">
        <ele>278.60000610352</ele>
        <time>2016-06-01T12:38:08Z</time>
      </trkpt>
      <trkpt lat="43.39354" lon="6.07997">
        <ele>278.39999389648</ele>
        <time>2016-06-01T12:38:09Z</time>
      </trkpt>
      <trkpt lat="43.39353" lon="6.07999">
        <ele>278.20001220703</ele>
        <time>2016-06-01T12:38:10Z</time>
      </trkpt>
      <trkpt lat="43.39352" lon="6.08003">
        <ele>278</ele>
        <time>2016-06-01T12:38:12Z</time>
      </trkpt>
      <trkpt lat="43.39353" lon="6.0801">
        <ele>277.79998779297</ele>
        <time>2016-06-01T12:38:15Z</time>
      </trkpt>
      <trkpt lat="43.39356" lon="6.08013">
        <ele>277</ele>
        <time>2016-06-01T12:38:17Z</time>
      </trkpt>
      <trkpt lat="43.39356" lon="6.08013">
        <ele>276.60000610352</ele>
        <time>2016-06-01T12:38:18Z</time>
      </trkpt>
      <trkpt lat="43.39356" lon="6.08014">
        <ele>276.39999389648</ele>
        <time>2016-06-01T12:38:21Z</time>
      </trkpt>
      <trkpt lat="43.39356" lon="6.08013">
        <ele>276.39999389648</ele>
        <time>2016-06-01T12:38:25Z</time>
      </trkpt>
      <trkpt lat="43.39356" lon="6.08013">
        <ele>276.39999389648</ele>
        <time>2016-06-01T12:38:34Z</time>
      </trkpt>
      <trkpt lat="43.39356" lon="6.08013">
        <ele>276.60000610352</ele>
        <time>2016-06-01T12:38:40Z</time>
      </trkpt>
      <trkpt lat="43.39356" lon="6.08014">
        <ele>276.60000610352</ele>
        <time>2016-06-01T12:38:46Z</time>
      </trkpt>
      <trkpt lat="43.39356" lon="6.08014">
        <ele>276.60000610352</ele>
        <time>2016-06-01T12:38:51Z</time>
      </trkpt>
      <trkpt lat="43.39356" lon="6.08014">
        <ele>276.39999389648</ele>
        <time>2016-06-01T12:39:00Z</time>
      </trkpt>
      <trkpt lat="43.39356" lon="6.08014">
        <ele>276.20001220703</ele>
        <time>2016-06-01T12:39:58Z</time>
      </trkpt>
      <trkpt lat="43.39356" lon="6.08014">
        <ele>276.20001220703</ele>
        <time>2016-06-01T12:40:32Z</time>
      </trkpt>
      <trkpt lat="43.39356" lon="6.08014">
        <ele>276.39999389648</ele>
        <time>2016-06-01T12:41:33Z</time>
      </trkpt>
      <trkpt lat="43.39356" lon="6.08014">
        <ele>276.39999389648</ele>
        <time>2016-06-01T12:41:52Z</time>
      </trkpt>
      <trkpt lat="43.39356" lon="6.08014">
        <ele>276.39999389648</ele>
        <time>2016-06-01T12:42:20Z</time>
      </trkpt>
      <trkpt lat="43.39356" lon="6.08015">
        <ele>276.60000610352</ele>
        <time>2016-06-01T12:42:28Z</time>
      </trkpt>
      <trkpt lat="43.39355" lon="6.08017">
        <ele>276.60000610352</ele>
        <time>2016-06-01T12:42:30Z</time>
      </trkpt>
      <trkpt lat="43.39354" lon="6.08019">
        <ele>276.60000610352</ele>
        <time>2016-06-01T12:42:31Z</time>
      </trkpt>
      <trkpt lat="43.39352" lon="6.08022">
        <ele>276.79998779297</ele>
        <time>2016-06-01T12:42:33Z</time>
      </trkpt>
      <trkpt lat="43.39347" lon="6.0803">
        <ele>277</ele>
        <time>2016-06-01T12:42:37Z</time>
      </trkpt>
      <trkpt lat="43.39342" lon="6.08035">
        <ele>277.20001220703</ele>
        <time>2016-06-01T12:42:40Z</time>
      </trkpt>
      <trkpt lat="43.3934" lon="6.08037">
        <ele>278</ele>
        <time>2016-06-01T12:42:42Z</time>
      </trkpt>
      <trkpt lat="43.39334" lon="6.08047">
        <ele>279</ele>
        <time>2016-06-01T12:42:46Z</time>
      </trkpt>
      <trkpt lat="43.39333" lon="6.0805">
        <ele>279.20001220703</ele>
        <time>2016-06-01T12:42:47Z</time>
      </trkpt>
      <trkpt lat="43.39327" lon="6.08059">
        <ele>279.39999389648</ele>
        <time>2016-06-01T12:42:50Z</time>
      </trkpt>
      <trkpt lat="43.39317" lon="6.08073">
        <ele>279.39999389648</ele>
        <time>2016-06-01T12:42:56Z</time>
      </trkpt>
      <trkpt lat="43.39313" lon="6.08079">
        <ele>279.79998779297</ele>
        <time>2016-06-01T12:42:59Z</time>
      </trkpt>
      <trkpt lat="43.39303" lon="6.08097">
        <ele>280.79998779297</ele>
        <time>2016-06-01T12:43:07Z</time>
      </trkpt>
      <trkpt lat="43.39302" lon="6.08099">
        <ele>280.79998779297</ele>
        <time>2016-06-01T12:43:08Z</time>
      </trkpt>
      <trkpt lat="43.39297" lon="6.08111">
        <ele>281.20001220703</ele>
        <time>2016-06-01T12:43:12Z</time>
      </trkpt>
      <trkpt lat="43.39296" lon="6.08114">
        <ele>281.39999389648</ele>
        <time>2016-06-01T12:43:13Z</time>
      </trkpt>
      <trkpt lat="43.3929" lon="6.08124">
        <ele>281.60000610352</ele>
        <time>2016-06-01T12:43:17Z</time>
      </trkpt>
      <trkpt lat="43.39288" lon="6.08131">
        <ele>281.79998779297</ele>
        <time>2016-06-01T12:43:19Z</time>
      </trkpt>
      <trkpt lat="43.39286" lon="6.08134">
        <ele>282</ele>
        <time>2016-06-01T12:43:20Z</time>
      </trkpt>
      <trkpt lat="43.39283" lon="6.08146">
        <ele>283</ele>
        <time>2016-06-01T12:43:26Z</time>
      </trkpt>
      <trkpt lat="43.39283" lon="6.08146">
        <ele>283.20001220703</ele>
        <time>2016-06-01T12:43:27Z</time>
      </trkpt>
      <trkpt lat="43.39283" lon="6.08151">
        <ele>284</ele>
        <time>2016-06-01T12:43:33Z</time>
      </trkpt>
      <trkpt lat="43.39281" lon="6.08159">
        <ele>284.20001220703</ele>
        <time>2016-06-01T12:43:38Z</time>
      </trkpt>
      <trkpt lat="43.39281" lon="6.08161">
        <ele>284.20001220703</ele>
        <time>2016-06-01T12:43:39Z</time>
      </trkpt>
      <trkpt lat="43.39277" lon="6.08171">
        <ele>284.79998779297</ele>
        <time>2016-06-01T12:43:44Z</time>
      </trkpt>
      <trkpt lat="43.39274" lon="6.08181">
        <ele>285.60000610352</ele>
        <time>2016-06-01T12:43:49Z</time>
      </trkpt>
      <trkpt lat="43.39272" lon="6.08187">
        <ele>286.60000610352</ele>
        <time>2016-06-01T12:43:54Z</time>
      </trkpt>
      <trkpt lat="43.39272" lon="6.08188">
        <ele>286.60000610352</ele>
        <time>2016-06-01T12:43:55Z</time>
      </trkpt>
      <trkpt lat="43.39272" lon="6.0819">
        <ele>286.79998779297</ele>
        <time>2016-06-01T12:44:00Z</time>
      </trkpt>
      <trkpt lat="43.39271" lon="6.08192">
        <ele>287.20001220703</ele>
        <time>2016-06-01T12:44:04Z</time>
      </trkpt>
      <trkpt lat="43.3927" lon="6.08193">
        <ele>287.39999389648</ele>
        <time>2016-06-01T12:44:06Z</time>
      </trkpt>
      <trkpt lat="43.39269" lon="6.08196">
        <ele>287.39999389648</ele>
        <time>2016-06-01T12:44:11Z</time>
      </trkpt>
      <trkpt lat="43.39269" lon="6.08195">
        <ele>287.39999389648</ele>
        <time>2016-06-01T12:44:13Z</time>
      </trkpt>
      <trkpt lat="43.39268" lon="6.08198">
        <ele>287</ele>
        <time>2016-06-01T12:44:20Z</time>
      </trkpt>
      <trkpt lat="43.39265" lon="6.08212">
        <ele>287.39999389648</ele>
        <time>2016-06-01T12:44:26Z</time>
      </trkpt>
      <trkpt lat="43.39265" lon="6.08219">
        <ele>288</ele>
        <time>2016-06-01T12:44:29Z</time>
      </trkpt>
      <trkpt lat="43.39261" lon="6.08229">
        <ele>288.60000610352</ele>
        <time>2016-06-01T12:44:33Z</time>
      </trkpt>
      <trkpt lat="43.3926" lon="6.08237">
        <ele>289</ele>
        <time>2016-06-01T12:44:37Z</time>
      </trkpt>
      <trkpt lat="43.3926" lon="6.08246">
        <ele>290.20001220703</ele>
        <time>2016-06-01T12:44:41Z</time>
      </trkpt>
      <trkpt lat="43.39259" lon="6.08259">
        <ele>290.60000610352</ele>
        <time>2016-06-01T12:44:48Z</time>
      </trkpt>
      <trkpt lat="43.39256" lon="6.0826">
        <ele>291.39999389648</ele>
        <time>2016-06-01T12:44:50Z</time>
      </trkpt>
      <trkpt lat="43.39254" lon="6.08264">
        <ele>292</ele>
        <time>2016-06-01T12:44:54Z</time>
      </trkpt>
      <trkpt lat="43.39255" lon="6.08264">
        <ele>292</ele>
        <time>2016-06-01T12:45:01Z</time>
      </trkpt>
      <trkpt lat="43.39254" lon="6.08266">
        <ele>292</ele>
        <time>2016-06-01T12:45:03Z</time>
      </trkpt>
      <trkpt lat="43.39249" lon="6.0827">
        <ele>292.39999389648</ele>
        <time>2016-06-01T12:45:07Z</time>
      </trkpt>
      <trkpt lat="43.39244" lon="6.08276">
        <ele>293</ele>
        <time>2016-06-01T12:45:11Z</time>
      </trkpt>
      <trkpt lat="43.39242" lon="6.08281">
        <ele>293.20001220703</ele>
        <time>2016-06-01T12:45:13Z</time>
      </trkpt>
      <trkpt lat="43.39241" lon="6.08283">
        <ele>293.39999389648</ele>
        <time>2016-06-01T12:45:14Z</time>
      </trkpt>
      <trkpt lat="43.3924" lon="6.08284">
        <ele>293.79998779297</ele>
        <time>2016-06-01T12:45:16Z</time>
      </trkpt>
      <trkpt lat="43.39236" lon="6.08292">
        <ele>294.20001220703</ele>
        <time>2016-06-01T12:45:22Z</time>
      </trkpt>
      <trkpt lat="43.39232" lon="6.083">
        <ele>294.60000610352</ele>
        <time>2016-06-01T12:45:26Z</time>
      </trkpt>
      <trkpt lat="43.39229" lon="6.08305">
        <ele>295</ele>
        <time>2016-06-01T12:45:29Z</time>
      </trkpt>
      <trkpt lat="43.39228" lon="6.08308">
        <ele>295.60000610352</ele>
        <time>2016-06-01T12:45:34Z</time>
      </trkpt>
      <trkpt lat="43.39227" lon="6.0831">
        <ele>295.60000610352</ele>
        <time>2016-06-01T12:45:41Z</time>
      </trkpt>
      <trkpt lat="43.39225" lon="6.08314">
        <ele>296.20001220703</ele>
        <time>2016-06-01T12:45:48Z</time>
      </trkpt>
      <trkpt lat="43.39223" lon="6.08316">
        <ele>296.79998779297</ele>
        <time>2016-06-01T12:45:56Z</time>
      </trkpt>
      <trkpt lat="43.39223" lon="6.08319">
        <ele>296.79998779297</ele>
        <time>2016-06-01T12:45:59Z</time>
      </trkpt>
      <trkpt lat="43.39225" lon="6.08323">
        <ele>296.79998779297</ele>
        <time>2016-06-01T12:46:02Z</time>
      </trkpt>
      <trkpt lat="43.39219" lon="6.08327">
        <ele>297.20001220703</ele>
        <time>2016-06-01T12:46:08Z</time>
      </trkpt>
      <trkpt lat="43.39217" lon="6.08329">
        <ele>298</ele>
        <time>2016-06-01T12:46:10Z</time>
      </trkpt>
      <trkpt lat="43.39216" lon="6.08332">
        <ele>298.39999389648</ele>
        <time>2016-06-01T12:46:12Z</time>
      </trkpt>
      <trkpt lat="43.39215" lon="6.08339">
        <ele>298.60000610352</ele>
        <time>2016-06-01T12:46:15Z</time>
      </trkpt>
      <trkpt lat="43.39213" lon="6.08345">
        <ele>299.20001220703</ele>
        <time>2016-06-01T12:46:18Z</time>
      </trkpt>
      <trkpt lat="43.39213" lon="6.08347">
        <ele>299.39999389648</ele>
        <time>2016-06-01T12:46:19Z</time>
      </trkpt>
      <trkpt lat="43.39211" lon="6.0836">
        <ele>300</ele>
        <time>2016-06-01T12:46:25Z</time>
      </trkpt>
      <trkpt lat="43.39209" lon="6.08374">
        <ele>300.79998779297</ele>
        <time>2016-06-01T12:46:32Z</time>
      </trkpt>
      <trkpt lat="43.39205" lon="6.08383">
        <ele>301.20001220703</ele>
        <time>2016-06-01T12:46:37Z</time>
      </trkpt>
      <trkpt lat="43.39206" lon="6.08384">
        <ele>301.60000610352</ele>
        <time>2016-06-01T12:46:38Z</time>
      </trkpt>
      <trkpt lat="43.39206" lon="6.08395">
        <ele>302.39999389648</ele>
        <time>2016-06-01T12:46:43Z</time>
      </trkpt>
      <trkpt lat="43.39205" lon="6.0841">
        <ele>303</ele>
        <time>2016-06-01T12:46:49Z</time>
      </trkpt>
      <trkpt lat="43.39205" lon="6.08411">
        <ele>303</ele>
        <time>2016-06-01T12:46:50Z</time>
      </trkpt>
      <trkpt lat="43.39203" lon="6.08415">
        <ele>304</ele>
        <time>2016-06-01T12:46:53Z</time>
      </trkpt>
      <trkpt lat="43.392" lon="6.08423">
        <ele>304.60000610352</ele>
        <time>2016-06-01T12:46:58Z</time>
      </trkpt>
      <trkpt lat="43.39199" lon="6.08433">
        <ele>305.20001220703</ele>
        <time>2016-06-01T12:47:03Z</time>
      </trkpt>
      <trkpt lat="43.39199" lon="6.08434">
        <ele>306.39999389648</ele>
        <time>2016-06-01T12:47:08Z</time>
      </trkpt>
      <trkpt lat="43.39199" lon="6.08434">
        <ele>306.60000610352</ele>
        <time>2016-06-01T12:47:09Z</time>
      </trkpt>
      <trkpt lat="43.39199" lon="6.08434">
        <ele>306.60000610352</ele>
        <time>2016-06-01T12:47:14Z</time>
      </trkpt>
      <trkpt lat="43.39199" lon="6.08436">
        <ele>306.60000610352</ele>
        <time>2016-06-01T12:47:18Z</time>
      </trkpt>
      <trkpt lat="43.39199" lon="6.08437">
        <ele>306.60000610352</ele>
        <time>2016-06-01T12:47:19Z</time>
      </trkpt>
      <trkpt lat="43.392" lon="6.08445">
        <ele>307</ele>
        <time>2016-06-01T12:47:24Z</time>
      </trkpt>
      <trkpt lat="43.392" lon="6.08449">
        <ele>307</ele>
        <time>2016-06-01T12:47:26Z</time>
      </trkpt>
      <trkpt lat="43.392" lon="6.08451">
        <ele>307.20001220703</ele>
        <time>2016-06-01T12:47:27Z</time>
      </trkpt>
      <trkpt lat="43.39199" lon="6.08461">
        <ele>307.39999389648</ele>
        <time>2016-06-01T12:47:32Z</time>
      </trkpt>
      <trkpt lat="43.39198" lon="6.08468">
        <ele>307.79998779297</ele>
        <time>2016-06-01T12:47:35Z</time>
      </trkpt>
      <trkpt lat="43.39198" lon="6.08478">
        <ele>308.60000610352</ele>
        <time>2016-06-01T12:47:40Z</time>
      </trkpt>
      <trkpt lat="43.39196" lon="6.08483">
        <ele>308.79998779297</ele>
        <time>2016-06-01T12:47:42Z</time>
      </trkpt>
      <trkpt lat="43.39194" lon="6.08496">
        <ele>309.20001220703</ele>
        <time>2016-06-01T12:47:49Z</time>
      </trkpt>
      <trkpt lat="43.39196" lon="6.085">
        <ele>309.60000610352</ele>
        <time>2016-06-01T12:47:54Z</time>
      </trkpt>
      <trkpt lat="43.39196" lon="6.085">
        <ele>309.60000610352</ele>
        <time>2016-06-01T12:47:57Z</time>
      </trkpt>
      <trkpt lat="43.39196" lon="6.085">
        <ele>310</ele>
        <time>2016-06-01T12:48:01Z</time>
      </trkpt>
      <trkpt lat="43.39196" lon="6.085">
        <ele>310.20001220703</ele>
        <time>2016-06-01T12:48:05Z</time>
      </trkpt>
      <trkpt lat="43.39196" lon="6.085">
        <ele>309.79998779297</ele>
        <time>2016-06-01T12:48:08Z</time>
      </trkpt>
      <trkpt lat="43.39196" lon="6.085">
        <ele>309.79998779297</ele>
        <time>2016-06-01T12:48:12Z</time>
      </trkpt>
      <trkpt lat="43.39196" lon="6.085">
        <ele>310</ele>
        <time>2016-06-01T12:48:15Z</time>
      </trkpt>
      <trkpt lat="43.39196" lon="6.085">
        <ele>310</ele>
        <time>2016-06-01T12:48:17Z</time>
      </trkpt>
      <trkpt lat="43.39196" lon="6.085">
        <ele>309.79998779297</ele>
        <time>2016-06-01T12:48:22Z</time>
      </trkpt>
      <trkpt lat="43.39195" lon="6.085">
        <ele>309.79998779297</ele>
        <time>2016-06-01T12:50:31Z</time>
      </trkpt>
      <trkpt lat="43.39193" lon="6.085">
        <ele>309.79998779297</ele>
        <time>2016-06-01T12:50:44Z</time>
      </trkpt>
      <trkpt lat="43.39192" lon="6.085">
        <ele>309.79998779297</ele>
        <time>2016-06-01T12:50:54Z</time>
      </trkpt>
      <trkpt lat="43.39192" lon="6.085">
        <ele>309.79998779297</ele>
        <time>2016-06-01T12:50:56Z</time>
      </trkpt>
      <trkpt lat="43.39191" lon="6.085">
        <ele>309.79998779297</ele>
        <time>2016-06-01T12:50:58Z</time>
      </trkpt>
      <trkpt lat="43.39188" lon="6.08504">
        <ele>309.79998779297</ele>
        <time>2016-06-01T12:51:02Z</time>
      </trkpt>
      <trkpt lat="43.39183" lon="6.0852">
        <ele>309.79998779297</ele>
        <time>2016-06-01T12:51:08Z</time>
      </trkpt>
      <trkpt lat="43.3918" lon="6.08533">
        <ele>309.39999389648</ele>
        <time>2016-06-01T12:51:12Z</time>
      </trkpt>
      <trkpt lat="43.39175" lon="6.08547">
        <ele>308.79998779297</ele>
        <time>2016-06-01T12:51:16Z</time>
      </trkpt>
      <trkpt lat="43.39172" lon="6.08555">
        <ele>308.39999389648</ele>
        <time>2016-06-01T12:51:18Z</time>
      </trkpt>
      <trkpt lat="43.39167" lon="6.08571">
        <ele>308.60000610352</ele>
        <time>2016-06-01T12:51:21Z</time>
      </trkpt>
      <trkpt lat="43.39167" lon="6.08577">
        <ele>308.79998779297</ele>
        <time>2016-06-01T12:51:22Z</time>
      </trkpt>
      <trkpt lat="43.39163" lon="6.08597">
        <ele>308.20001220703</ele>
        <time>2016-06-01T12:51:25Z</time>
      </trkpt>
      <trkpt lat="43.39158" lon="6.08616">
        <ele>307.39999389648</ele>
        <time>2016-06-01T12:51:28Z</time>
      </trkpt>
      <trkpt lat="43.39156" lon="6.08622">
        <ele>307</ele>
        <time>2016-06-01T12:51:29Z</time>
      </trkpt>
      <trkpt lat="43.39153" lon="6.08633">
        <ele>306.79998779297</ele>
        <time>2016-06-01T12:51:31Z</time>
      </trkpt>
      <trkpt lat="43.39151" lon="6.0864">
        <ele>306.60000610352</ele>
        <time>2016-06-01T12:51:32Z</time>
      </trkpt>
      <trkpt lat="43.39148" lon="6.0866">
        <ele>306.79998779297</ele>
        <time>2016-06-01T12:51:35Z</time>
      </trkpt>
      <trkpt lat="43.39144" lon="6.08671">
        <ele>306.79998779297</ele>
        <time>2016-06-01T12:51:37Z</time>
      </trkpt>
      <trkpt lat="43.39142" lon="6.0869">
        <ele>306.79998779297</ele>
        <time>2016-06-01T12:51:40Z</time>
      </trkpt>
      <trkpt lat="43.39141" lon="6.08695">
        <ele>306.79998779297</ele>
        <time>2016-06-01T12:51:41Z</time>
      </trkpt>
      <trkpt lat="43.39134" lon="6.08728">
        <ele>307.20001220703</ele>
        <time>2016-06-01T12:51:47Z</time>
      </trkpt>
      <trkpt lat="43.3913" lon="6.08745">
        <ele>307.39999389648</ele>
        <time>2016-06-01T12:51:50Z</time>
      </trkpt>
      <trkpt lat="43.39127" lon="6.08761">
        <ele>307.60000610352</ele>
        <time>2016-06-01T12:51:53Z</time>
      </trkpt>
      <trkpt lat="43.39122" lon="6.08779">
        <ele>308</ele>
        <time>2016-06-01T12:51:56Z</time>
      </trkpt>
      <trkpt lat="43.39117" lon="6.08797">
        <ele>308.20001220703</ele>
        <time>2016-06-01T12:51:59Z</time>
      </trkpt>
      <trkpt lat="43.39116" lon="6.08803">
        <ele>308.39999389648</ele>
        <time>2016-06-01T12:52:00Z</time>
      </trkpt>
      <trkpt lat="43.39113" lon="6.08815">
        <ele>308.60000610352</ele>
        <time>2016-06-01T12:52:02Z</time>
      </trkpt>
      <trkpt lat="43.3911" lon="6.0883">
        <ele>309</ele>
        <time>2016-06-01T12:52:05Z</time>
      </trkpt>
      <trkpt lat="43.39105" lon="6.08851">
        <ele>309.60000610352</ele>
        <time>2016-06-01T12:52:11Z</time>
      </trkpt>
      <trkpt lat="43.39101" lon="6.08869">
        <ele>309.79998779297</ele>
        <time>2016-06-01T12:52:17Z</time>
      </trkpt>
      <trkpt lat="43.39098" lon="6.0888">
        <ele>310.20001220703</ele>
        <time>2016-06-01T12:52:22Z</time>
      </trkpt>
      <trkpt lat="43.39095" lon="6.08899">
        <ele>310.20001220703</ele>
        <time>2016-06-01T12:52:27Z</time>
      </trkpt>
      <trkpt lat="43.39091" lon="6.08925">
        <ele>310.39999389648</ele>
        <time>2016-06-01T12:52:33Z</time>
      </trkpt>
      <trkpt lat="43.39088" lon="6.08938">
        <ele>310.79998779297</ele>
        <time>2016-06-01T12:52:36Z</time>
      </trkpt>
      <trkpt lat="43.39086" lon="6.0895">
        <ele>311</ele>
        <time>2016-06-01T12:52:39Z</time>
      </trkpt>
      <trkpt lat="43.39082" lon="6.08965">
        <ele>311.20001220703</ele>
        <time>2016-06-01T12:52:44Z</time>
      </trkpt>
      <trkpt lat="43.39075" lon="6.08981">
        <ele>311.39999389648</ele>
        <time>2016-06-01T12:52:50Z</time>
      </trkpt>
      <trkpt lat="43.39074" lon="6.0899">
        <ele>311.60000610352</ele>
        <time>2016-06-01T12:52:54Z</time>
      </trkpt>
      <trkpt lat="43.39072" lon="6.08994">
        <ele>311.60000610352</ele>
        <time>2016-06-01T12:52:56Z</time>
      </trkpt>
      <trkpt lat="43.39071" lon="6.08996">
        <ele>311.79998779297</ele>
        <time>2016-06-01T12:52:57Z</time>
      </trkpt>
      <trkpt lat="43.39064" lon="6.09007">
        <ele>311.79998779297</ele>
        <time>2016-06-01T12:53:02Z</time>
      </trkpt>
      <trkpt lat="43.39055" lon="6.09025">
        <ele>312</ele>
        <time>2016-06-01T12:53:08Z</time>
      </trkpt>
      <trkpt lat="43.39048" lon="6.09036">
        <ele>312.39999389648</ele>
        <time>2016-06-01T12:53:13Z</time>
      </trkpt>
      <trkpt lat="43.39041" lon="6.09053">
        <ele>312.79998779297</ele>
        <time>2016-06-01T12:53:19Z</time>
      </trkpt>
      <trkpt lat="43.39037" lon="6.09065">
        <ele>313.20001220703</ele>
        <time>2016-06-01T12:53:23Z</time>
      </trkpt>
      <trkpt lat="43.39029" lon="6.09083">
        <ele>313.39999389648</ele>
        <time>2016-06-01T12:53:29Z</time>
      </trkpt>
      <trkpt lat="43.3902" lon="6.09102">
        <ele>313.79998779297</ele>
        <time>2016-06-01T12:53:35Z</time>
      </trkpt>
      <trkpt lat="43.39017" lon="6.09111">
        <ele>314</ele>
        <time>2016-06-01T12:53:38Z</time>
      </trkpt>
      <trkpt lat="43.39013" lon="6.09124">
        <ele>314.20001220703</ele>
        <time>2016-06-01T12:53:41Z</time>
      </trkpt>
      <trkpt lat="43.39006" lon="6.0915">
        <ele>314.60000610352</ele>
        <time>2016-06-01T12:53:47Z</time>
      </trkpt>
      <trkpt lat="43.39" lon="6.09175">
        <ele>315.20001220703</ele>
        <time>2016-06-01T12:53:54Z</time>
      </trkpt>
      <trkpt lat="43.38998" lon="6.09182">
        <ele>315.20001220703</ele>
        <time>2016-06-01T12:53:56Z</time>
      </trkpt>
      <trkpt lat="43.38997" lon="6.09197">
        <ele>316</ele>
        <time>2016-06-01T12:54:01Z</time>
      </trkpt>
      <trkpt lat="43.38992" lon="6.09226">
        <ele>316.20001220703</ele>
        <time>2016-06-01T12:54:08Z</time>
      </trkpt>
      <trkpt lat="43.38988" lon="6.0925">
        <ele>316.20001220703</ele>
        <time>2016-06-01T12:54:13Z</time>
      </trkpt>
      <trkpt lat="43.38984" lon="6.09265">
        <ele>316.60000610352</ele>
        <time>2016-06-01T12:54:17Z</time>
      </trkpt>
      <trkpt lat="43.38983" lon="6.09268">
        <ele>316.60000610352</ele>
        <time>2016-06-01T12:54:18Z</time>
      </trkpt>
      <trkpt lat="43.38969" lon="6.09298">
        <ele>317.79998779297</ele>
        <time>2016-06-01T12:54:31Z</time>
      </trkpt>
      <trkpt lat="43.38963" lon="6.09307">
        <ele>318.79998779297</ele>
        <time>2016-06-01T12:54:36Z</time>
      </trkpt>
      <trkpt lat="43.3896" lon="6.09312">
        <ele>319</ele>
        <time>2016-06-01T12:54:39Z</time>
      </trkpt>
      <trkpt lat="43.38954" lon="6.09325">
        <ele>319.60000610352</ele>
        <time>2016-06-01T12:54:45Z</time>
      </trkpt>
      <trkpt lat="43.38952" lon="6.09331">
        <ele>320</ele>
        <time>2016-06-01T12:54:47Z</time>
      </trkpt>
      <trkpt lat="43.38947" lon="6.09338">
        <ele>320</ele>
        <time>2016-06-01T12:54:51Z</time>
      </trkpt>
      <trkpt lat="43.38938" lon="6.09348">
        <ele>320</ele>
        <time>2016-06-01T12:54:57Z</time>
      </trkpt>
      <trkpt lat="43.38929" lon="6.09359">
        <ele>320.60000610352</ele>
        <time>2016-06-01T12:55:03Z</time>
      </trkpt>
      <trkpt lat="43.38922" lon="6.09366">
        <ele>320.79998779297</ele>
        <time>2016-06-01T12:55:07Z</time>
      </trkpt>
      <trkpt lat="43.38919" lon="6.09369">
        <ele>321.20001220703</ele>
        <time>2016-06-01T12:55:09Z</time>
      </trkpt>
      <trkpt lat="43.38913" lon="6.09373">
        <ele>321.60000610352</ele>
        <time>2016-06-01T12:55:14Z</time>
      </trkpt>
      <trkpt lat="43.38909" lon="6.09378">
        <ele>322</ele>
        <time>2016-06-01T12:55:18Z</time>
      </trkpt>
      <trkpt lat="43.38898" lon="6.09389">
        <ele>323.39999389648</ele>
        <time>2016-06-01T12:55:27Z</time>
      </trkpt>
      <trkpt lat="43.38895" lon="6.09393">
        <ele>323.79998779297</ele>
        <time>2016-06-01T12:55:30Z</time>
      </trkpt>
      <trkpt lat="43.38892" lon="6.09397">
        <ele>324</ele>
        <time>2016-06-01T12:55:32Z</time>
      </trkpt>
      <trkpt lat="43.3889" lon="6.09398">
        <ele>324.39999389648</ele>
        <time>2016-06-01T12:55:33Z</time>
      </trkpt>
      <trkpt lat="43.3889" lon="6.094">
        <ele>324.39999389648</ele>
        <time>2016-06-01T12:55:34Z</time>
      </trkpt>
      <trkpt lat="43.38887" lon="6.09408">
        <ele>324.79998779297</ele>
        <time>2016-06-01T12:55:36Z</time>
      </trkpt>
      <trkpt lat="43.38882" lon="6.09416">
        <ele>325.60000610352</ele>
        <time>2016-06-01T12:55:40Z</time>
      </trkpt>
      <trkpt lat="43.38882" lon="6.09418">
        <ele>325.79998779297</ele>
        <time>2016-06-01T12:55:41Z</time>
      </trkpt>
      <trkpt lat="43.38882" lon="6.09419">
        <ele>326</ele>
        <time>2016-06-01T12:55:46Z</time>
      </trkpt>
      <trkpt lat="43.38881" lon="6.0942">
        <ele>326</ele>
        <time>2016-06-01T12:55:49Z</time>
      </trkpt>
      <trkpt lat="43.38882" lon="6.09421">
        <ele>326</ele>
        <time>2016-06-01T12:55:52Z</time>
      </trkpt>
      <trkpt lat="43.38881" lon="6.09421">
        <ele>326</ele>
        <time>2016-06-01T12:55:54Z</time>
      </trkpt>
      <trkpt lat="43.38878" lon="6.0942">
        <ele>326.60000610352</ele>
        <time>2016-06-01T12:56:02Z</time>
      </trkpt>
      <trkpt lat="43.38877" lon="6.09423">
        <ele>326.60000610352</ele>
        <time>2016-06-01T12:56:10Z</time>
      </trkpt>
      <trkpt lat="43.38877" lon="6.09424">
        <ele>326.79998779297</ele>
        <time>2016-06-01T12:56:12Z</time>
      </trkpt>
      <trkpt lat="43.38877" lon="6.09424">
        <ele>327</ele>
        <time>2016-06-01T12:56:14Z</time>
      </trkpt>
      <trkpt lat="43.38876" lon="6.09426">
        <ele>327.39999389648</ele>
        <time>2016-06-01T12:56:21Z</time>
      </trkpt>
      <trkpt lat="43.38875" lon="6.09428">
        <ele>327.60000610352</ele>
        <time>2016-06-01T12:56:26Z</time>
      </trkpt>
      <trkpt lat="43.38876" lon="6.09428">
        <ele>327.79998779297</ele>
        <time>2016-06-01T12:56:30Z</time>
      </trkpt>
      <trkpt lat="43.38877" lon="6.09427">
        <ele>327.79998779297</ele>
        <time>2016-06-01T12:56:33Z</time>
      </trkpt>
      <trkpt lat="43.38877" lon="6.09427">
        <ele>327.79998779297</ele>
        <time>2016-06-01T12:56:37Z</time>
      </trkpt>
      <trkpt lat="43.38877" lon="6.09427">
        <ele>328</ele>
        <time>2016-06-01T12:56:42Z</time>
      </trkpt>
      <trkpt lat="43.38877" lon="6.09427">
        <ele>328</ele>
        <time>2016-06-01T12:56:49Z</time>
      </trkpt>
      <trkpt lat="43.38876" lon="6.09427">
        <ele>327.39999389648</ele>
        <time>2016-06-01T12:57:08Z</time>
      </trkpt>
      <trkpt lat="43.38876" lon="6.09427">
        <ele>327.39999389648</ele>
        <time>2016-06-01T12:57:12Z</time>
      </trkpt>
      <trkpt lat="43.38876" lon="6.09427">
        <ele>327.39999389648</ele>
        <time>2016-06-01T12:57:26Z</time>
      </trkpt>
      <trkpt lat="43.38876" lon="6.09427">
        <ele>327.39999389648</ele>
        <time>2016-06-01T12:57:36Z</time>
      </trkpt>
      <trkpt lat="43.38876" lon="6.09427">
        <ele>327.20001220703</ele>
        <time>2016-06-01T12:57:48Z</time>
      </trkpt>
      <trkpt lat="43.38876" lon="6.09427">
        <ele>327.60000610352</ele>
        <time>2016-06-01T12:58:18Z</time>
      </trkpt>
      <trkpt lat="43.38876" lon="6.09427">
        <ele>327.39999389648</ele>
        <time>2016-06-01T12:58:45Z</time>
      </trkpt>
      <trkpt lat="43.38876" lon="6.09426">
        <ele>328</ele>
        <time>2016-06-01T12:59:20Z</time>
      </trkpt>
      <trkpt lat="43.38876" lon="6.09427">
        <ele>327.79998779297</ele>
        <time>2016-06-01T12:59:30Z</time>
      </trkpt>
      <trkpt lat="43.38876" lon="6.09427">
        <ele>327.79998779297</ele>
        <time>2016-06-01T12:59:36Z</time>
      </trkpt>
      <trkpt lat="43.38876" lon="6.09427">
        <ele>328</ele>
        <time>2016-06-01T13:00:02Z</time>
      </trkpt>
      <trkpt lat="43.38876" lon="6.09427">
        <ele>328.20001220703</ele>
        <time>2016-06-01T13:00:08Z</time>
      </trkpt>
      <trkpt lat="43.38876" lon="6.09427">
        <ele>328.79998779297</ele>
        <time>2016-06-01T13:00:12Z</time>
      </trkpt>
      <trkpt lat="43.38876" lon="6.09428">
        <ele>328.39999389648</ele>
        <time>2016-06-01T13:00:39Z</time>
      </trkpt>
      <trkpt lat="43.38876" lon="6.09428">
        <ele>328.20001220703</ele>
        <time>2016-06-01T13:01:01Z</time>
      </trkpt>
      <trkpt lat="43.38876" lon="6.09428">
        <ele>328.60000610352</ele>
        <time>2016-06-01T13:01:18Z</time>
      </trkpt>
      <trkpt lat="43.38876" lon="6.09428">
        <ele>328.79998779297</ele>
        <time>2016-06-01T13:01:19Z</time>
      </trkpt>
      <trkpt lat="43.38876" lon="6.09427">
        <ele>328.79998779297</ele>
        <time>2016-06-01T13:01:26Z</time>
      </trkpt>
      <trkpt lat="43.38876" lon="6.09426">
        <ele>328.39999389648</ele>
        <time>2016-06-01T13:01:35Z</time>
      </trkpt>
      <trkpt lat="43.38876" lon="6.09427">
        <ele>328.20001220703</ele>
        <time>2016-06-01T13:01:45Z</time>
      </trkpt>
      <trkpt lat="43.38876" lon="6.09427">
        <ele>328.39999389648</ele>
        <time>2016-06-01T13:01:58Z</time>
      </trkpt>
      <trkpt lat="43.38876" lon="6.09427">
        <ele>328.39999389648</ele>
        <time>2016-06-01T13:02:07Z</time>
      </trkpt>
      <trkpt lat="43.38875" lon="6.09427">
        <ele>328.79998779297</ele>
        <time>2016-06-01T13:02:23Z</time>
      </trkpt>
      <trkpt lat="43.38873" lon="6.09426">
        <ele>328.79998779297</ele>
        <time>2016-06-01T13:02:24Z</time>
      </trkpt>
      <trkpt lat="43.38866" lon="6.09425">
        <ele>327.79998779297</ele>
        <time>2016-06-01T13:02:28Z</time>
      </trkpt>
      <trkpt lat="43.38864" lon="6.09424">
        <ele>327.60000610352</ele>
        <time>2016-06-01T13:02:29Z</time>
      </trkpt>
      <trkpt lat="43.38863" lon="6.09422">
        <ele>327</ele>
        <time>2016-06-01T13:02:30Z</time>
      </trkpt>
      <trkpt lat="43.38863" lon="6.09421">
        <ele>326.79998779297</ele>
        <time>2016-06-01T13:02:31Z</time>
      </trkpt>
      <trkpt lat="43.38861" lon="6.09417">
        <ele>326.39999389648</ele>
        <time>2016-06-01T13:02:34Z</time>
      </trkpt>
      <trkpt lat="43.38853" lon="6.09406">
        <ele>325.60000610352</ele>
        <time>2016-06-01T13:02:38Z</time>
      </trkpt>
      <trkpt lat="43.38852" lon="6.09403">
        <ele>325</ele>
        <time>2016-06-01T13:02:39Z</time>
      </trkpt>
      <trkpt lat="43.3885" lon="6.094">
        <ele>324.60000610352</ele>
        <time>2016-06-01T13:02:40Z</time>
      </trkpt>
      <trkpt lat="43.38845" lon="6.09391">
        <ele>323</ele>
        <time>2016-06-01T13:02:43Z</time>
      </trkpt>
      <trkpt lat="43.38844" lon="6.09391">
        <ele>322</ele>
        <time>2016-06-01T13:02:44Z</time>
      </trkpt>
      <trkpt lat="43.38842" lon="6.09392">
        <ele>321.79998779297</ele>
        <time>2016-06-01T13:02:45Z</time>
      </trkpt>
      <trkpt lat="43.38839" lon="6.09401">
        <ele>320.79998779297</ele>
        <time>2016-06-01T13:02:48Z</time>
      </trkpt>
      <trkpt lat="43.38838" lon="6.09406">
        <ele>320.60000610352</ele>
        <time>2016-06-01T13:02:49Z</time>
      </trkpt>
      <trkpt lat="43.38835" lon="6.09416">
        <ele>319.20001220703</ele>
        <time>2016-06-01T13:02:52Z</time>
      </trkpt>
      <trkpt lat="43.38832" lon="6.09422">
        <ele>318</ele>
        <time>2016-06-01T13:02:55Z</time>
      </trkpt>
      <trkpt lat="43.38831" lon="6.0943">
        <ele>317</ele>
        <time>2016-06-01T13:02:59Z</time>
      </trkpt>
      <trkpt lat="43.38832" lon="6.09434">
        <ele>317</ele>
        <time>2016-06-01T13:03:02Z</time>
      </trkpt>
      <trkpt lat="43.38832" lon="6.09442">
        <ele>317.79998779297</ele>
        <time>2016-06-01T13:03:09Z</time>
      </trkpt>
      <trkpt lat="43.38832" lon="6.09442">
        <ele>317.79998779297</ele>
        <time>2016-06-01T13:03:10Z</time>
      </trkpt>
      <trkpt lat="43.38832" lon="6.09442">
        <ele>317.79998779297</ele>
        <time>2016-06-01T13:03:12Z</time>
      </trkpt>
      <trkpt lat="43.38832" lon="6.09442">
        <ele>317.79998779297</ele>
        <time>2016-06-01T13:03:30Z</time>
      </trkpt>
      <trkpt lat="43.38832" lon="6.09442">
        <ele>317.79998779297</ele>
        <time>2016-06-01T13:03:43Z</time>
      </trkpt>
      <trkpt lat="43.38832" lon="6.09443">
        <ele>317.60000610352</ele>
        <time>2016-06-01T13:04:30Z</time>
      </trkpt>
      <trkpt lat="43.38832" lon="6.09445">
        <ele>317.60000610352</ele>
        <time>2016-06-01T13:04:33Z</time>
      </trkpt>
      <trkpt lat="43.38834" lon="6.09449">
        <ele>317.60000610352</ele>
        <time>2016-06-01T13:04:36Z</time>
      </trkpt>
      <trkpt lat="43.38835" lon="6.09451">
        <ele>317.60000610352</ele>
        <time>2016-06-01T13:04:37Z</time>
      </trkpt>
      <trkpt lat="43.38839" lon="6.09453">
        <ele>318</ele>
        <time>2016-06-01T13:04:41Z</time>
      </trkpt>
      <trkpt lat="43.38843" lon="6.09455">
        <ele>318.20001220703</ele>
        <time>2016-06-01T13:04:44Z</time>
      </trkpt>
      <trkpt lat="43.38845" lon="6.09456">
        <ele>318.60000610352</ele>
        <time>2016-06-01T13:04:46Z</time>
      </trkpt>
      <trkpt lat="43.38847" lon="6.09458">
        <ele>318.79998779297</ele>
        <time>2016-06-01T13:04:47Z</time>
      </trkpt>
      <trkpt lat="43.38847" lon="6.09459">
        <ele>319.20001220703</ele>
        <time>2016-06-01T13:04:48Z</time>
      </trkpt>
      <trkpt lat="43.38847" lon="6.09461">
        <ele>320.20001220703</ele>
        <time>2016-06-01T13:04:50Z</time>
      </trkpt>
      <trkpt lat="43.38847" lon="6.09461">
        <ele>320.39999389648</ele>
        <time>2016-06-01T13:04:51Z</time>
      </trkpt>
      <trkpt lat="43.38848" lon="6.09461">
        <ele>320.60000610352</ele>
        <time>2016-06-01T13:04:53Z</time>
      </trkpt>
      <trkpt lat="43.38844" lon="6.09459">
        <ele>319.79998779297</ele>
        <time>2016-06-01T13:05:03Z</time>
      </trkpt>
      <trkpt lat="43.38844" lon="6.09459">
        <ele>319.60000610352</ele>
        <time>2016-06-01T13:05:04Z</time>
      </trkpt>
      <trkpt lat="43.38844" lon="6.09459">
        <ele>319.39999389648</ele>
        <time>2016-06-01T13:05:05Z</time>
      </trkpt>
      <trkpt lat="43.38845" lon="6.09459">
        <ele>319.20001220703</ele>
        <time>2016-06-01T13:05:07Z</time>
      </trkpt>
      <trkpt lat="43.38844" lon="6.09459">
        <ele>319.20001220703</ele>
        <time>2016-06-01T13:05:14Z</time>
      </trkpt>
      <trkpt lat="43.38844" lon="6.09459">
        <ele>319.39999389648</ele>
        <time>2016-06-01T13:05:17Z</time>
      </trkpt>
      <trkpt lat="43.38845" lon="6.09461">
        <ele>319.39999389648</ele>
        <time>2016-06-01T13:05:19Z</time>
      </trkpt>
      <trkpt lat="43.38845" lon="6.09462">
        <ele>319.79998779297</ele>
        <time>2016-06-01T13:05:24Z</time>
      </trkpt>
      <trkpt lat="43.38845" lon="6.09462">
        <ele>319.79998779297</ele>
        <time>2016-06-01T13:05:26Z</time>
      </trkpt>
      <trkpt lat="43.38845" lon="6.09462">
        <ele>319.79998779297</ele>
        <time>2016-06-01T13:05:28Z</time>
      </trkpt>
      <trkpt lat="43.38844" lon="6.09459">
        <ele>319.39999389648</ele>
        <time>2016-06-01T13:05:35Z</time>
      </trkpt>
      <trkpt lat="43.38837" lon="6.09455">
        <ele>318.60000610352</ele>
        <time>2016-06-01T13:05:40Z</time>
      </trkpt>
      <trkpt lat="43.38834" lon="6.09453">
        <ele>318</ele>
        <time>2016-06-01T13:05:42Z</time>
      </trkpt>
      <trkpt lat="43.38833" lon="6.09451">
        <ele>318</ele>
        <time>2016-06-01T13:05:43Z</time>
      </trkpt>
      <trkpt lat="43.38832" lon="6.09447">
        <ele>317.39999389648</ele>
        <time>2016-06-01T13:05:45Z</time>
      </trkpt>
      <trkpt lat="43.38829" lon="6.09445">
        <ele>317.20001220703</ele>
        <time>2016-06-01T13:05:49Z</time>
      </trkpt>
      <trkpt lat="43.3883" lon="6.09448">
        <ele>317</ele>
        <time>2016-06-01T13:05:51Z</time>
      </trkpt>
      <trkpt lat="43.3883" lon="6.09449">
        <ele>317</ele>
        <time>2016-06-01T13:05:53Z</time>
      </trkpt>
      <trkpt lat="43.3883" lon="6.09449">
        <ele>317.20001220703</ele>
        <time>2016-06-01T13:05:57Z</time>
      </trkpt>
      <trkpt lat="43.3883" lon="6.09449">
        <ele>317.60000610352</ele>
        <time>2016-06-01T13:06:02Z</time>
      </trkpt>
      <trkpt lat="43.3883" lon="6.09449">
        <ele>317.60000610352</ele>
        <time>2016-06-01T13:06:04Z</time>
      </trkpt>
      <trkpt lat="43.3883" lon="6.09449">
        <ele>317.39999389648</ele>
        <time>2016-06-01T13:06:38Z</time>
      </trkpt>
      <trkpt lat="43.3883" lon="6.09449">
        <ele>316.79998779297</ele>
        <time>2016-06-01T13:07:10Z</time>
      </trkpt>
      <trkpt lat="43.38831" lon="6.0945">
        <ele>316.79998779297</ele>
        <time>2016-06-01T13:07:16Z</time>
      </trkpt>
      <trkpt lat="43.38834" lon="6.09454">
        <ele>316.79998779297</ele>
        <time>2016-06-01T13:07:18Z</time>
      </trkpt>
      <trkpt lat="43.38837" lon="6.09456">
        <ele>317</ele>
        <time>2016-06-01T13:07:20Z</time>
      </trkpt>
      <trkpt lat="43.38841" lon="6.09458">
        <ele>317.60000610352</ele>
        <time>2016-06-01T13:07:22Z</time>
      </trkpt>
      <trkpt lat="43.38843" lon="6.09459">
        <ele>318.39999389648</ele>
        <time>2016-06-01T13:07:23Z</time>
      </trkpt>
      <trkpt lat="43.38846" lon="6.09462">
        <ele>319.20001220703</ele>
        <time>2016-06-01T13:07:25Z</time>
      </trkpt>
      <trkpt lat="43.38847" lon="6.09463">
        <ele>319.79998779297</ele>
        <time>2016-06-01T13:07:26Z</time>
      </trkpt>
      <trkpt lat="43.38849" lon="6.09464">
        <ele>320.39999389648</ele>
        <time>2016-06-01T13:07:28Z</time>
      </trkpt>
      <trkpt lat="43.38851" lon="6.09464">
        <ele>321</ele>
        <time>2016-06-01T13:07:30Z</time>
      </trkpt>
      <trkpt lat="43.38851" lon="6.09464">
        <ele>321.20001220703</ele>
        <time>2016-06-01T13:07:31Z</time>
      </trkpt>
      <trkpt lat="43.38851" lon="6.09464">
        <ele>321.20001220703</ele>
        <time>2016-06-01T13:07:33Z</time>
      </trkpt>
      <trkpt lat="43.38852" lon="6.09463">
        <ele>321</ele>
        <time>2016-06-01T13:07:41Z</time>
      </trkpt>
      <trkpt lat="43.38854" lon="6.09464">
        <ele>321.60000610352</ele>
        <time>2016-06-01T13:07:45Z</time>
      </trkpt>
      <trkpt lat="43.38854" lon="6.09464">
        <ele>321.79998779297</ele>
        <time>2016-06-01T13:07:46Z</time>
      </trkpt>
      <trkpt lat="43.38855" lon="6.09464">
        <ele>321.60000610352</ele>
        <time>2016-06-01T13:07:48Z</time>
      </trkpt>
      <trkpt lat="43.38855" lon="6.09464">
        <ele>321.60000610352</ele>
        <time>2016-06-01T13:07:50Z</time>
      </trkpt>
      <trkpt lat="43.38855" lon="6.09464">
        <ele>321.79998779297</ele>
        <time>2016-06-01T13:07:54Z</time>
      </trkpt>
      <trkpt lat="43.38855" lon="6.09464">
        <ele>321.60000610352</ele>
        <time>2016-06-01T13:08:02Z</time>
      </trkpt>
      <trkpt lat="43.38855" lon="6.09464">
        <ele>321.79998779297</ele>
        <time>2016-06-01T13:08:21Z</time>
      </trkpt>
      <trkpt lat="43.38855" lon="6.09464">
        <ele>321.79998779297</ele>
        <time>2016-06-01T13:08:25Z</time>
      </trkpt>
      <trkpt lat="43.38855" lon="6.09463">
        <ele>321.79998779297</ele>
        <time>2016-06-01T13:08:29Z</time>
      </trkpt>
      <trkpt lat="43.38855" lon="6.09463">
        <ele>321.79998779297</ele>
        <time>2016-06-01T13:08:32Z</time>
      </trkpt>
      <trkpt lat="43.38855" lon="6.09462">
        <ele>322</ele>
        <time>2016-06-01T13:08:53Z</time>
      </trkpt>
      <trkpt lat="43.38855" lon="6.09462">
        <ele>322</ele>
        <time>2016-06-01T13:09:04Z</time>
      </trkpt>
      <trkpt lat="43.38857" lon="6.0946">
        <ele>322.39999389648</ele>
        <time>2016-06-01T13:09:09Z</time>
      </trkpt>
      <trkpt lat="43.38857" lon="6.0946">
        <ele>322.39999389648</ele>
        <time>2016-06-01T13:09:10Z</time>
      </trkpt>
      <trkpt lat="43.38859" lon="6.09458">
        <ele>322.79998779297</ele>
        <time>2016-06-01T13:09:15Z</time>
      </trkpt>
      <trkpt lat="43.3886" lon="6.09459">
        <ele>323.39999389648</ele>
        <time>2016-06-01T13:09:17Z</time>
      </trkpt>
      <trkpt lat="43.38862" lon="6.09461">
        <ele>324.20001220703</ele>
        <time>2016-06-01T13:09:23Z</time>
      </trkpt>
      <trkpt lat="43.38865" lon="6.09466">
        <ele>325</ele>
        <time>2016-06-01T13:09:33Z</time>
      </trkpt>
      <trkpt lat="43.38865" lon="6.09467">
        <ele>325.39999389648</ele>
        <time>2016-06-01T13:09:38Z</time>
      </trkpt>
      <trkpt lat="43.38865" lon="6.09466">
        <ele>325.39999389648</ele>
        <time>2016-06-01T13:09:43Z</time>
      </trkpt>
      <trkpt lat="43.38866" lon="6.09467">
        <ele>325.39999389648</ele>
        <time>2016-06-01T13:09:47Z</time>
      </trkpt>
      <trkpt lat="43.38868" lon="6.09469">
        <ele>325.60000610352</ele>
        <time>2016-06-01T13:09:50Z</time>
      </trkpt>
      <trkpt lat="43.38869" lon="6.0947">
        <ele>326</ele>
        <time>2016-06-01T13:09:53Z</time>
      </trkpt>
      <trkpt lat="43.3887" lon="6.09472">
        <ele>326.20001220703</ele>
        <time>2016-06-01T13:09:55Z</time>
      </trkpt>
      <trkpt lat="43.38871" lon="6.09472">
        <ele>326.60000610352</ele>
        <time>2016-06-01T13:09:57Z</time>
      </trkpt>
      <trkpt lat="43.38871" lon="6.09472">
        <ele>326.79998779297</ele>
        <time>2016-06-01T13:10:00Z</time>
      </trkpt>
      <trkpt lat="43.38871" lon="6.09472">
        <ele>326.79998779297</ele>
        <time>2016-06-01T13:10:03Z</time>
      </trkpt>
      <trkpt lat="43.38871" lon="6.09472">
        <ele>326.60000610352</ele>
        <time>2016-06-01T13:10:15Z</time>
      </trkpt>
      <trkpt lat="43.38871" lon="6.09472">
        <ele>326.60000610352</ele>
        <time>2016-06-01T13:10:24Z</time>
      </trkpt>
      <trkpt lat="43.38871" lon="6.09472">
        <ele>326.60000610352</ele>
        <time>2016-06-01T13:10:30Z</time>
      </trkpt>
      <trkpt lat="43.38871" lon="6.09474">
        <ele>326.20001220703</ele>
        <time>2016-06-01T13:10:59Z</time>
      </trkpt>
      <trkpt lat="43.38872" lon="6.09489">
        <ele>326.39999389648</ele>
        <time>2016-06-01T13:11:05Z</time>
      </trkpt>
      <trkpt lat="43.38873" lon="6.0952">
        <ele>326.60000610352</ele>
        <time>2016-06-01T13:11:11Z</time>
      </trkpt>
      <trkpt lat="43.38874" lon="6.09563">
        <ele>326.39999389648</ele>
        <time>2016-06-01T13:11:18Z</time>
      </trkpt>
      <trkpt lat="43.3888" lon="6.09601">
        <ele>324.60000610352</ele>
        <time>2016-06-01T13:11:23Z</time>
      </trkpt>
      <trkpt lat="43.38882" lon="6.09608">
        <ele>324.39999389648</ele>
        <time>2016-06-01T13:11:24Z</time>
      </trkpt>
      <trkpt lat="43.38893" lon="6.09626">
        <ele>324.39999389648</ele>
        <time>2016-06-01T13:11:27Z</time>
      </trkpt>
      <trkpt lat="43.38895" lon="6.09632">
        <ele>324.39999389648</ele>
        <time>2016-06-01T13:11:28Z</time>
      </trkpt>
      <trkpt lat="43.38897" lon="6.0966">
        <ele>324</ele>
        <time>2016-06-01T13:11:32Z</time>
      </trkpt>
      <trkpt lat="43.38898" lon="6.09677">
        <ele>323.39999389648</ele>
        <time>2016-06-01T13:11:34Z</time>
      </trkpt>
      <trkpt lat="43.389" lon="6.09713">
        <ele>322.20001220703</ele>
        <time>2016-06-01T13:11:38Z</time>
      </trkpt>
      <trkpt lat="43.38902" lon="6.09733">
        <ele>321</ele>
        <time>2016-06-01T13:11:40Z</time>
      </trkpt>
      <trkpt lat="43.38897" lon="6.09774">
        <ele>319.60000610352</ele>
        <time>2016-06-01T13:11:44Z</time>
      </trkpt>
      <trkpt lat="43.38892" lon="6.09796">
        <ele>318.60000610352</ele>
        <time>2016-06-01T13:11:46Z</time>
      </trkpt>
      <trkpt lat="43.38888" lon="6.09819">
        <ele>316.20001220703</ele>
        <time>2016-06-01T13:11:48Z</time>
      </trkpt>
      <trkpt lat="43.38887" lon="6.0983">
        <ele>315</ele>
        <time>2016-06-01T13:11:49Z</time>
      </trkpt>
      <trkpt lat="43.38885" lon="6.09855">
        <ele>312.79998779297</ele>
        <time>2016-06-01T13:11:51Z</time>
      </trkpt>
      <trkpt lat="43.38883" lon="6.09869">
        <ele>311.79998779297</ele>
        <time>2016-06-01T13:11:52Z</time>
      </trkpt>
      <trkpt lat="43.3888" lon="6.09882">
        <ele>310.60000610352</ele>
        <time>2016-06-01T13:11:53Z</time>
      </trkpt>
      <trkpt lat="43.38877" lon="6.09896">
        <ele>309.60000610352</ele>
        <time>2016-06-01T13:11:54Z</time>
      </trkpt>
      <trkpt lat="43.38875" lon="6.0991">
        <ele>307.79998779297</ele>
        <time>2016-06-01T13:11:55Z</time>
      </trkpt>
      <trkpt lat="43.38866" lon="6.09948">
        <ele>303.79998779297</ele>
        <time>2016-06-01T13:11:58Z</time>
      </trkpt>
      <trkpt lat="43.38861" lon="6.09975">
        <ele>302</ele>
        <time>2016-06-01T13:12:00Z</time>
      </trkpt>
      <trkpt lat="43.38858" lon="6.10001">
        <ele>301</ele>
        <time>2016-06-01T13:12:02Z</time>
      </trkpt>
      <trkpt lat="43.38853" lon="6.10026">
        <ele>299.39999389648</ele>
        <time>2016-06-01T13:12:04Z</time>
      </trkpt>
      <trkpt lat="43.38847" lon="6.1005">
        <ele>297.60000610352</ele>
        <time>2016-06-01T13:12:06Z</time>
      </trkpt>
      <trkpt lat="43.38844" lon="6.10062">
        <ele>296.60000610352</ele>
        <time>2016-06-01T13:12:07Z</time>
      </trkpt>
      <trkpt lat="43.38841" lon="6.10074">
        <ele>295.79998779297</ele>
        <time>2016-06-01T13:12:08Z</time>
      </trkpt>
      <trkpt lat="43.38835" lon="6.10097">
        <ele>294.39999389648</ele>
        <time>2016-06-01T13:12:10Z</time>
      </trkpt>
      <trkpt lat="43.3883" lon="6.10118">
        <ele>293.39999389648</ele>
        <time>2016-06-01T13:12:12Z</time>
      </trkpt>
      <trkpt lat="43.38824" lon="6.10139">
        <ele>292.60000610352</ele>
        <time>2016-06-01T13:12:15Z</time>
      </trkpt>
      <trkpt lat="43.38823" lon="6.10143">
        <ele>292.20001220703</ele>
        <time>2016-06-01T13:12:16Z</time>
      </trkpt>
      <trkpt lat="43.38823" lon="6.10147">
        <ele>291.79998779297</ele>
        <time>2016-06-01T13:12:18Z</time>
      </trkpt>
      <trkpt lat="43.38824" lon="6.1015">
        <ele>291.39999389648</ele>
        <time>2016-06-01T13:12:22Z</time>
      </trkpt>
      <trkpt lat="43.38825" lon="6.10152">
        <ele>291.39999389648</ele>
        <time>2016-06-01T13:12:23Z</time>
      </trkpt>
      <trkpt lat="43.38826" lon="6.10157">
        <ele>291.39999389648</ele>
        <time>2016-06-01T13:12:25Z</time>
      </trkpt>
      <trkpt lat="43.38826" lon="6.1016">
        <ele>291.60000610352</ele>
        <time>2016-06-01T13:12:27Z</time>
      </trkpt>
      <trkpt lat="43.38827" lon="6.10161">
        <ele>291.60000610352</ele>
        <time>2016-06-01T13:12:34Z</time>
      </trkpt>
      <trkpt lat="43.38828" lon="6.10167">
        <ele>291.39999389648</ele>
        <time>2016-06-01T13:12:39Z</time>
      </trkpt>
      <trkpt lat="43.38828" lon="6.10173">
        <ele>291.20001220703</ele>
        <time>2016-06-01T13:12:41Z</time>
      </trkpt>
      <trkpt lat="43.38826" lon="6.10181">
        <ele>291.20001220703</ele>
        <time>2016-06-01T13:12:43Z</time>
      </trkpt>
      <trkpt lat="43.38823" lon="6.10189">
        <ele>291.79998779297</ele>
        <time>2016-06-01T13:12:46Z</time>
      </trkpt>
      <trkpt lat="43.38821" lon="6.10192">
        <ele>292.20001220703</ele>
        <time>2016-06-01T13:12:49Z</time>
      </trkpt>
      <trkpt lat="43.38821" lon="6.10194">
        <ele>292.39999389648</ele>
        <time>2016-06-01T13:12:51Z</time>
      </trkpt>
      <trkpt lat="43.38819" lon="6.10203">
        <ele>293</ele>
        <time>2016-06-01T13:12:55Z</time>
      </trkpt>
      <trkpt lat="43.38818" lon="6.10208">
        <ele>293.39999389648</ele>
        <time>2016-06-01T13:12:57Z</time>
      </trkpt>
      <trkpt lat="43.38818" lon="6.10221">
        <ele>294.20001220703</ele>
        <time>2016-06-01T13:13:02Z</time>
      </trkpt>
      <trkpt lat="43.38819" lon="6.10224">
        <ele>294.20001220703</ele>
        <time>2016-06-01T13:13:03Z</time>
      </trkpt>
      <trkpt lat="43.38823" lon="6.10239">
        <ele>293.20001220703</ele>
        <time>2016-06-01T13:13:08Z</time>
      </trkpt>
      <trkpt lat="43.38824" lon="6.10243">
        <ele>292.60000610352</ele>
        <time>2016-06-01T13:13:09Z</time>
      </trkpt>
      <trkpt lat="43.38826" lon="6.10258">
        <ele>291.39999389648</ele>
        <time>2016-06-01T13:13:12Z</time>
      </trkpt>
      <trkpt lat="43.38829" lon="6.10277">
        <ele>290.39999389648</ele>
        <time>2016-06-01T13:13:15Z</time>
      </trkpt>
      <trkpt lat="43.3883" lon="6.10292">
        <ele>290</ele>
        <time>2016-06-01T13:13:17Z</time>
      </trkpt>
      <trkpt lat="43.3883" lon="6.10299">
        <ele>289.79998779297</ele>
        <time>2016-06-01T13:13:18Z</time>
      </trkpt>
      <trkpt lat="43.38829" lon="6.10314">
        <ele>289.39999389648</ele>
        <time>2016-06-01T13:13:20Z</time>
      </trkpt>
      <trkpt lat="43.3883" lon="6.10334">
        <ele>289.20001220703</ele>
        <time>2016-06-01T13:13:23Z</time>
      </trkpt>
      <trkpt lat="43.3883" lon="6.10363">
        <ele>289</ele>
        <time>2016-06-01T13:13:27Z</time>
      </trkpt>
      <trkpt lat="43.38829" lon="6.10397">
        <ele>288.39999389648</ele>
        <time>2016-06-01T13:13:33Z</time>
      </trkpt>
      <trkpt lat="43.38829" lon="6.10403">
        <ele>288.20001220703</ele>
        <time>2016-06-01T13:13:34Z</time>
      </trkpt>
      <trkpt lat="43.38827" lon="6.10425">
        <ele>287.20001220703</ele>
        <time>2016-06-01T13:13:38Z</time>
      </trkpt>
      <trkpt lat="43.38826" lon="6.1043">
        <ele>286.79998779297</ele>
        <time>2016-06-01T13:13:39Z</time>
      </trkpt>
      <trkpt lat="43.38823" lon="6.10465">
        <ele>285.60000610352</ele>
        <time>2016-06-01T13:13:45Z</time>
      </trkpt>
      <trkpt lat="43.38823" lon="6.10472">
        <ele>285.39999389648</ele>
        <time>2016-06-01T13:13:46Z</time>
      </trkpt>
      <trkpt lat="43.3882" lon="6.1049">
        <ele>284.39999389648</ele>
        <time>2016-06-01T13:13:49Z</time>
      </trkpt>
      <trkpt lat="43.38819" lon="6.10495">
        <ele>283.79998779297</ele>
        <time>2016-06-01T13:13:50Z</time>
      </trkpt>
      <trkpt lat="43.38816" lon="6.10505">
        <ele>283.20001220703</ele>
        <time>2016-06-01T13:13:52Z</time>
      </trkpt>
      <trkpt lat="43.38814" lon="6.10514">
        <ele>283.20001220703</ele>
        <time>2016-06-01T13:13:54Z</time>
      </trkpt>
      <trkpt lat="43.38811" lon="6.10528">
        <ele>282.79998779297</ele>
        <time>2016-06-01T13:13:58Z</time>
      </trkpt>
      <trkpt lat="43.38809" lon="6.10548">
        <ele>282.39999389648</ele>
        <time>2016-06-01T13:14:03Z</time>
      </trkpt>
      <trkpt lat="43.38804" lon="6.10558">
        <ele>282.20001220703</ele>
        <time>2016-06-01T13:14:06Z</time>
      </trkpt>
      <trkpt lat="43.38804" lon="6.10561">
        <ele>282</ele>
        <time>2016-06-01T13:14:07Z</time>
      </trkpt>
      <trkpt lat="43.38802" lon="6.1058">
        <ele>281.79998779297</ele>
        <time>2016-06-01T13:14:11Z</time>
      </trkpt>
      <trkpt lat="43.388" lon="6.10592">
        <ele>281</ele>
        <time>2016-06-01T13:14:13Z</time>
      </trkpt>
      <trkpt lat="43.38794" lon="6.10615">
        <ele>280</ele>
        <time>2016-06-01T13:14:17Z</time>
      </trkpt>
      <trkpt lat="43.38792" lon="6.1063">
        <ele>279.20001220703</ele>
        <time>2016-06-01T13:14:21Z</time>
      </trkpt>
      <trkpt lat="43.38792" lon="6.10632">
        <ele>279</ele>
        <time>2016-06-01T13:14:22Z</time>
      </trkpt>
      <trkpt lat="43.38791" lon="6.1064">
        <ele>278.60000610352</ele>
        <time>2016-06-01T13:14:27Z</time>
      </trkpt>
      <trkpt lat="43.38786" lon="6.10658">
        <ele>278</ele>
        <time>2016-06-01T13:14:32Z</time>
      </trkpt>
      <trkpt lat="43.38782" lon="6.10673">
        <ele>277.79998779297</ele>
        <time>2016-06-01T13:14:36Z</time>
      </trkpt>
      <trkpt lat="43.38774" lon="6.10708">
        <ele>277</ele>
        <time>2016-06-01T13:14:43Z</time>
      </trkpt>
      <trkpt lat="43.3877" lon="6.10727">
        <ele>276.79998779297</ele>
        <time>2016-06-01T13:14:46Z</time>
      </trkpt>
      <trkpt lat="43.38768" lon="6.10738">
        <ele>276.60000610352</ele>
        <time>2016-06-01T13:14:48Z</time>
      </trkpt>
      <trkpt lat="43.38767" lon="6.10749">
        <ele>275.60000610352</ele>
        <time>2016-06-01T13:14:51Z</time>
      </trkpt>
      <trkpt lat="43.38766" lon="6.1075">
        <ele>275.39999389648</ele>
        <time>2016-06-01T13:14:52Z</time>
      </trkpt>
      <trkpt lat="43.38768" lon="6.10752">
        <ele>275</ele>
        <time>2016-06-01T13:14:58Z</time>
      </trkpt>
      <trkpt lat="43.38768" lon="6.10752">
        <ele>275</ele>
        <time>2016-06-01T13:15:07Z</time>
      </trkpt>
      <trkpt lat="43.38768" lon="6.10752">
        <ele>275.20001220703</ele>
        <time>2016-06-01T13:15:10Z</time>
      </trkpt>
      <trkpt lat="43.38766" lon="6.10753">
        <ele>275</ele>
        <time>2016-06-01T13:15:17Z</time>
      </trkpt>
      <trkpt lat="43.38759" lon="6.10758">
        <ele>275.20001220703</ele>
        <time>2016-06-01T13:15:21Z</time>
      </trkpt>
      <trkpt lat="43.38754" lon="6.1076">
        <ele>275.60000610352</ele>
        <time>2016-06-01T13:15:23Z</time>
      </trkpt>
      <trkpt lat="43.38749" lon="6.10762">
        <ele>276.60000610352</ele>
        <time>2016-06-01T13:15:25Z</time>
      </trkpt>
      <trkpt lat="43.38744" lon="6.10763">
        <ele>276.79998779297</ele>
        <time>2016-06-01T13:15:26Z</time>
      </trkpt>
      <trkpt lat="43.38738" lon="6.10766">
        <ele>277</ele>
        <time>2016-06-01T13:15:28Z</time>
      </trkpt>
      <trkpt lat="43.38736" lon="6.10767">
        <ele>277.20001220703</ele>
        <time>2016-06-01T13:15:29Z</time>
      </trkpt>
      <trkpt lat="43.38734" lon="6.10769">
        <ele>277.39999389648</ele>
        <time>2016-06-01T13:15:30Z</time>
      </trkpt>
      <trkpt lat="43.38733" lon="6.10771">
        <ele>277.39999389648</ele>
        <time>2016-06-01T13:15:33Z</time>
      </trkpt>
      <trkpt lat="43.38733" lon="6.10772">
        <ele>277.20001220703</ele>
        <time>2016-06-01T13:15:36Z</time>
      </trkpt>
      <trkpt lat="43.38733" lon="6.10771">
        <ele>277</ele>
        <time>2016-06-01T13:15:40Z</time>
      </trkpt>
      <trkpt lat="43.38732" lon="6.10775">
        <ele>276.79998779297</ele>
        <time>2016-06-01T13:15:45Z</time>
      </trkpt>
      <trkpt lat="43.38731" lon="6.10778">
        <ele>276.79998779297</ele>
        <time>2016-06-01T13:15:46Z</time>
      </trkpt>
      <trkpt lat="43.38725" lon="6.1079">
        <ele>276.60000610352</ele>
        <time>2016-06-01T13:15:50Z</time>
      </trkpt>
      <trkpt lat="43.38712" lon="6.10798">
        <ele>277.79998779297</ele>
        <time>2016-06-01T13:15:55Z</time>
      </trkpt>
      <trkpt lat="43.38701" lon="6.10808">
        <ele>278.60000610352</ele>
        <time>2016-06-01T13:16:00Z</time>
      </trkpt>
      <trkpt lat="43.38697" lon="6.10814">
        <ele>278.60000610352</ele>
        <time>2016-06-01T13:16:02Z</time>
      </trkpt>
      <trkpt lat="43.38695" lon="6.10822">
        <ele>278.60000610352</ele>
        <time>2016-06-01T13:16:04Z</time>
      </trkpt>
      <trkpt lat="43.38693" lon="6.10827">
        <ele>279</ele>
        <time>2016-06-01T13:16:06Z</time>
      </trkpt>
      <trkpt lat="43.38689" lon="6.10838">
        <ele>279</ele>
        <time>2016-06-01T13:16:09Z</time>
      </trkpt>
      <trkpt lat="43.38682" lon="6.10866">
        <ele>278.60000610352</ele>
        <time>2016-06-01T13:16:14Z</time>
      </trkpt>
      <trkpt lat="43.38676" lon="6.10886">
        <ele>278.20001220703</ele>
        <time>2016-06-01T13:16:18Z</time>
      </trkpt>
      <trkpt lat="43.38668" lon="6.10911">
        <ele>278.20001220703</ele>
        <time>2016-06-01T13:16:23Z</time>
      </trkpt>
      <trkpt lat="43.3866" lon="6.10947">
        <ele>278.60000610352</ele>
        <time>2016-06-01T13:16:30Z</time>
      </trkpt>
      <trkpt lat="43.38655" lon="6.10982">
        <ele>278.79998779297</ele>
        <time>2016-06-01T13:16:37Z</time>
      </trkpt>
      <trkpt lat="43.38654" lon="6.10996">
        <ele>279</ele>
        <time>2016-06-01T13:16:40Z</time>
      </trkpt>
      <trkpt lat="43.38649" lon="6.11">
        <ele>278.79998779297</ele>
        <time>2016-06-01T13:16:42Z</time>
      </trkpt>
      <trkpt lat="43.38646" lon="6.10998">
        <ele>279.79998779297</ele>
        <time>2016-06-01T13:16:45Z</time>
      </trkpt>
      <trkpt lat="43.38643" lon="6.10997">
        <ele>280.20001220703</ele>
        <time>2016-06-01T13:16:47Z</time>
      </trkpt>
      <trkpt lat="43.38639" lon="6.10998">
        <ele>280.60000610352</ele>
        <time>2016-06-01T13:16:50Z</time>
      </trkpt>
      <trkpt lat="43.38632" lon="6.11005">
        <ele>281</ele>
        <time>2016-06-01T13:16:56Z</time>
      </trkpt>
      <trkpt lat="43.38631" lon="6.11005">
        <ele>281.20001220703</ele>
        <time>2016-06-01T13:16:57Z</time>
      </trkpt>
      <trkpt lat="43.38629" lon="6.11004">
        <ele>281.39999389648</ele>
        <time>2016-06-01T13:16:59Z</time>
      </trkpt>
      <trkpt lat="43.38626" lon="6.11003">
        <ele>282</ele>
        <time>2016-06-01T13:17:01Z</time>
      </trkpt>
      <trkpt lat="43.38623" lon="6.10999">
        <ele>282.20001220703</ele>
        <time>2016-06-01T13:17:05Z</time>
      </trkpt>
      <trkpt lat="43.38615" lon="6.10995">
        <ele>282</ele>
        <time>2016-06-01T13:17:10Z</time>
      </trkpt>
      <trkpt lat="43.38614" lon="6.10995">
        <ele>282</ele>
        <time>2016-06-01T13:17:11Z</time>
      </trkpt>
      <trkpt lat="43.3861" lon="6.10991">
        <ele>282</ele>
        <time>2016-06-01T13:17:16Z</time>
      </trkpt>
      <trkpt lat="43.38609" lon="6.10991">
        <ele>282</ele>
        <time>2016-06-01T13:17:17Z</time>
      </trkpt>
      <trkpt lat="43.38609" lon="6.10991">
        <ele>281.60000610352</ele>
        <time>2016-06-01T13:17:23Z</time>
      </trkpt>
      <trkpt lat="43.38608" lon="6.1099">
        <ele>281.79998779297</ele>
        <time>2016-06-01T13:17:29Z</time>
      </trkpt>
      <trkpt lat="43.38606" lon="6.10988">
        <ele>282</ele>
        <time>2016-06-01T13:17:34Z</time>
      </trkpt>
      <trkpt lat="43.38606" lon="6.10988">
        <ele>282</ele>
        <time>2016-06-01T13:17:38Z</time>
      </trkpt>
      <trkpt lat="43.38605" lon="6.10987">
        <ele>282</ele>
        <time>2016-06-01T13:17:42Z</time>
      </trkpt>
      <trkpt lat="43.38603" lon="6.10987">
        <ele>282</ele>
        <time>2016-06-01T13:17:43Z</time>
      </trkpt>
      <trkpt lat="43.38601" lon="6.10987">
        <ele>282</ele>
        <time>2016-06-01T13:17:44Z</time>
      </trkpt>
      <trkpt lat="43.38593" lon="6.10989">
        <ele>281.79998779297</ele>
        <time>2016-06-01T13:17:48Z</time>
      </trkpt>
      <trkpt lat="43.38589" lon="6.10989">
        <ele>281.79998779297</ele>
        <time>2016-06-01T13:17:49Z</time>
      </trkpt>
      <trkpt lat="43.38569" lon="6.10988">
        <ele>280.79998779297</ele>
        <time>2016-06-01T13:17:54Z</time>
      </trkpt>
      <trkpt lat="43.38564" lon="6.10987">
        <ele>280.20001220703</ele>
        <time>2016-06-01T13:17:55Z</time>
      </trkpt>
      <trkpt lat="43.38558" lon="6.10985">
        <ele>280</ele>
        <time>2016-06-01T13:17:56Z</time>
      </trkpt>
      <trkpt lat="43.38542" lon="6.10977">
        <ele>279.20001220703</ele>
        <time>2016-06-01T13:17:59Z</time>
      </trkpt>
      <trkpt lat="43.38537" lon="6.10974">
        <ele>279</ele>
        <time>2016-06-01T13:18:00Z</time>
      </trkpt>
      <trkpt lat="43.38525" lon="6.10969">
        <ele>278.39999389648</ele>
        <time>2016-06-01T13:18:02Z</time>
      </trkpt>
      <trkpt lat="43.3851" lon="6.10965">
        <ele>277.39999389648</ele>
        <time>2016-06-01T13:18:04Z</time>
      </trkpt>
      <trkpt lat="43.38496" lon="6.10962">
        <ele>275.79998779297</ele>
        <time>2016-06-01T13:18:06Z</time>
      </trkpt>
      <trkpt lat="43.38486" lon="6.10959">
        <ele>274.79998779297</ele>
        <time>2016-06-01T13:18:08Z</time>
      </trkpt>
      <trkpt lat="43.38481" lon="6.10958">
        <ele>273.79998779297</ele>
        <time>2016-06-01T13:18:10Z</time>
      </trkpt>
      <trkpt lat="43.38479" lon="6.10957">
        <ele>273.39999389648</ele>
        <time>2016-06-01T13:18:11Z</time>
      </trkpt>
      <trkpt lat="43.38468" lon="6.10956">
        <ele>272.79998779297</ele>
        <time>2016-06-01T13:18:16Z</time>
      </trkpt>
      <trkpt lat="43.38461" lon="6.10956">
        <ele>272.60000610352</ele>
        <time>2016-06-01T13:18:18Z</time>
      </trkpt>
      <trkpt lat="43.38445" lon="6.10954">
        <ele>272.20001220703</ele>
        <time>2016-06-01T13:18:22Z</time>
      </trkpt>
      <trkpt lat="43.38413" lon="6.10948">
        <ele>271.39999389648</ele>
        <time>2016-06-01T13:18:28Z</time>
      </trkpt>
      <trkpt lat="43.38408" lon="6.10946">
        <ele>271.39999389648</ele>
        <time>2016-06-01T13:18:29Z</time>
      </trkpt>
      <trkpt lat="43.38364" lon="6.10935">
        <ele>270.79998779297</ele>
        <time>2016-06-01T13:18:37Z</time>
      </trkpt>
      <trkpt lat="43.38334" lon="6.10926">
        <ele>270.39999389648</ele>
        <time>2016-06-01T13:18:43Z</time>
      </trkpt>
      <trkpt lat="43.38302" lon="6.10916">
        <ele>270.20001220703</ele>
        <time>2016-06-01T13:18:49Z</time>
      </trkpt>
      <trkpt lat="43.38258" lon="6.10903">
        <ele>269.60000610352</ele>
        <time>2016-06-01T13:18:57Z</time>
      </trkpt>
      <trkpt lat="43.38226" lon="6.10894">
        <ele>269.79998779297</ele>
        <time>2016-06-01T13:19:04Z</time>
      </trkpt>
      <trkpt lat="43.38204" lon="6.10888">
        <ele>270</ele>
        <time>2016-06-01T13:19:11Z</time>
      </trkpt>
      <trkpt lat="43.38201" lon="6.10887">
        <ele>270</ele>
        <time>2016-06-01T13:19:13Z</time>
      </trkpt>
      <trkpt lat="43.38198" lon="6.10889">
        <ele>270.20001220703</ele>
        <time>2016-06-01T13:19:16Z</time>
      </trkpt>
      <trkpt lat="43.38197" lon="6.10893">
        <ele>270.39999389648</ele>
        <time>2016-06-01T13:19:20Z</time>
      </trkpt>
      <trkpt lat="43.38197" lon="6.10898">
        <ele>270.39999389648</ele>
        <time>2016-06-01T13:19:22Z</time>
      </trkpt>
      <trkpt lat="43.38193" lon="6.10916">
        <ele>270.79998779297</ele>
        <time>2016-06-01T13:19:29Z</time>
      </trkpt>
      <trkpt lat="43.3819" lon="6.1093">
        <ele>271.20001220703</ele>
        <time>2016-06-01T13:19:34Z</time>
      </trkpt>
      <trkpt lat="43.38189" lon="6.10939">
        <ele>271.20001220703</ele>
        <time>2016-06-01T13:19:37Z</time>
      </trkpt>
      <trkpt lat="43.38184" lon="6.10959">
        <ele>271.39999389648</ele>
        <time>2016-06-01T13:19:43Z</time>
      </trkpt>
      <trkpt lat="43.38181" lon="6.10984">
        <ele>272</ele>
        <time>2016-06-01T13:19:50Z</time>
      </trkpt>
      <trkpt lat="43.38177" lon="6.10996">
        <ele>272.20001220703</ele>
        <time>2016-06-01T13:19:54Z</time>
      </trkpt>
      <trkpt lat="43.38176" lon="6.11005">
        <ele>272.39999389648</ele>
        <time>2016-06-01T13:19:57Z</time>
      </trkpt>
      <trkpt lat="43.38171" lon="6.11028">
        <ele>273</ele>
        <time>2016-06-01T13:20:04Z</time>
      </trkpt>
      <trkpt lat="43.3817" lon="6.11035">
        <ele>273</ele>
        <time>2016-06-01T13:20:06Z</time>
      </trkpt>
      <trkpt lat="43.38167" lon="6.11049">
        <ele>273.60000610352</ele>
        <time>2016-06-01T13:20:10Z</time>
      </trkpt>
      <trkpt lat="43.38164" lon="6.11061">
        <ele>273.79998779297</ele>
        <time>2016-06-01T13:20:13Z</time>
      </trkpt>
      <trkpt lat="43.38163" lon="6.11065">
        <ele>274.20001220703</ele>
        <time>2016-06-01T13:20:14Z</time>
      </trkpt>
      <trkpt lat="43.38157" lon="6.11081">
        <ele>274.79998779297</ele>
        <time>2016-06-01T13:20:18Z</time>
      </trkpt>
      <trkpt lat="43.38154" lon="6.1109">
        <ele>275</ele>
        <time>2016-06-01T13:20:20Z</time>
      </trkpt>
      <trkpt lat="43.38149" lon="6.11102">
        <ele>275.20001220703</ele>
        <time>2016-06-01T13:20:23Z</time>
      </trkpt>
      <trkpt lat="43.38136" lon="6.1112">
        <ele>275.79998779297</ele>
        <time>2016-06-01T13:20:28Z</time>
      </trkpt>
      <trkpt lat="43.38126" lon="6.11132">
        <ele>276.39999389648</ele>
        <time>2016-06-01T13:20:32Z</time>
      </trkpt>
      <trkpt lat="43.38117" lon="6.11142">
        <ele>277</ele>
        <time>2016-06-01T13:20:36Z</time>
      </trkpt>
      <trkpt lat="43.38107" lon="6.11151">
        <ele>277.39999389648</ele>
        <time>2016-06-01T13:20:40Z</time>
      </trkpt>
      <trkpt lat="43.38101" lon="6.11159">
        <ele>278</ele>
        <time>2016-06-01T13:20:43Z</time>
      </trkpt>
      <trkpt lat="43.38097" lon="6.11163">
        <ele>278.20001220703</ele>
        <time>2016-06-01T13:20:45Z</time>
      </trkpt>
      <trkpt lat="43.38087" lon="6.11172">
        <ele>279.79998779297</ele>
        <time>2016-06-01T13:20:49Z</time>
      </trkpt>
      <trkpt lat="43.38079" lon="6.1118">
        <ele>280.39999389648</ele>
        <time>2016-06-01T13:20:53Z</time>
      </trkpt>
      <trkpt lat="43.38077" lon="6.11183">
        <ele>280.79998779297</ele>
        <time>2016-06-01T13:20:54Z</time>
      </trkpt>
      <trkpt lat="43.38062" lon="6.11197">
        <ele>281.20001220703</ele>
        <time>2016-06-01T13:21:00Z</time>
      </trkpt>
      <trkpt lat="43.3805" lon="6.11214">
        <ele>281.39999389648</ele>
        <time>2016-06-01T13:21:05Z</time>
      </trkpt>
      <trkpt lat="43.38037" lon="6.11239">
        <ele>281</ele>
        <time>2016-06-01T13:21:10Z</time>
      </trkpt>
      <trkpt lat="43.38032" lon="6.11249">
        <ele>281</ele>
        <time>2016-06-01T13:21:12Z</time>
      </trkpt>
      <trkpt lat="43.38022" lon="6.11268">
        <ele>281.20001220703</ele>
        <time>2016-06-01T13:21:16Z</time>
      </trkpt>
      <trkpt lat="43.38008" lon="6.11297">
        <ele>281</ele>
        <time>2016-06-01T13:21:22Z</time>
      </trkpt>
      <trkpt lat="43.37998" lon="6.11321">
        <ele>281</ele>
        <time>2016-06-01T13:21:27Z</time>
      </trkpt>
      <trkpt lat="43.37989" lon="6.11341">
        <ele>281</ele>
        <time>2016-06-01T13:21:32Z</time>
      </trkpt>
      <trkpt lat="43.37969" lon="6.11368">
        <ele>281.20001220703</ele>
        <time>2016-06-01T13:21:39Z</time>
      </trkpt>
      <trkpt lat="43.37951" lon="6.11388">
        <ele>280.79998779297</ele>
        <time>2016-06-01T13:21:45Z</time>
      </trkpt>
      <trkpt lat="43.37931" lon="6.11417">
        <ele>281.39999389648</ele>
        <time>2016-06-01T13:21:53Z</time>
      </trkpt>
      <trkpt lat="43.37926" lon="6.11423">
        <ele>281.39999389648</ele>
        <time>2016-06-01T13:21:55Z</time>
      </trkpt>
      <trkpt lat="43.3791" lon="6.11442">
        <ele>281.39999389648</ele>
        <time>2016-06-01T13:22:00Z</time>
      </trkpt>
      <trkpt lat="43.37891" lon="6.11459">
        <ele>281.39999389648</ele>
        <time>2016-06-01T13:22:06Z</time>
      </trkpt>
      <trkpt lat="43.37872" lon="6.11466">
        <ele>281.39999389648</ele>
        <time>2016-06-01T13:22:12Z</time>
      </trkpt>
      <trkpt lat="43.37858" lon="6.11473">
        <ele>281.60000610352</ele>
        <time>2016-06-01T13:22:17Z</time>
      </trkpt>
      <trkpt lat="43.37849" lon="6.11486">
        <ele>282.39999389648</ele>
        <time>2016-06-01T13:22:22Z</time>
      </trkpt>
      <trkpt lat="43.37848" lon="6.11488">
        <ele>282.60000610352</ele>
        <time>2016-06-01T13:22:23Z</time>
      </trkpt>
      <trkpt lat="43.37843" lon="6.115">
        <ele>283.39999389648</ele>
        <time>2016-06-01T13:22:27Z</time>
      </trkpt>
      <trkpt lat="43.37839" lon="6.11508">
        <ele>284</ele>
        <time>2016-06-01T13:22:30Z</time>
      </trkpt>
      <trkpt lat="43.37831" lon="6.11525">
        <ele>284.20001220703</ele>
        <time>2016-06-01T13:22:36Z</time>
      </trkpt>
      <trkpt lat="43.37826" lon="6.11535">
        <ele>284.39999389648</ele>
        <time>2016-06-01T13:22:43Z</time>
      </trkpt>
      <trkpt lat="43.37825" lon="6.11537">
        <ele>284.39999389648</ele>
        <time>2016-06-01T13:22:44Z</time>
      </trkpt>
      <trkpt lat="43.37819" lon="6.1155">
        <ele>285.79998779297</ele>
        <time>2016-06-01T13:22:50Z</time>
      </trkpt>
      <trkpt lat="43.37816" lon="6.11555">
        <ele>286</ele>
        <time>2016-06-01T13:22:52Z</time>
      </trkpt>
      <trkpt lat="43.37808" lon="6.11568">
        <ele>286.20001220703</ele>
        <time>2016-06-01T13:22:57Z</time>
      </trkpt>
      <trkpt lat="43.37798" lon="6.1158">
        <ele>286.60000610352</ele>
        <time>2016-06-01T13:23:02Z</time>
      </trkpt>
      <trkpt lat="43.37796" lon="6.11583">
        <ele>286.79998779297</ele>
        <time>2016-06-01T13:23:03Z</time>
      </trkpt>
      <trkpt lat="43.37785" lon="6.11598">
        <ele>287.39999389648</ele>
        <time>2016-06-01T13:23:10Z</time>
      </trkpt>
      <trkpt lat="43.37781" lon="6.11602">
        <ele>287.79998779297</ele>
        <time>2016-06-01T13:23:12Z</time>
      </trkpt>
      <trkpt lat="43.37774" lon="6.11613">
        <ele>288.39999389648</ele>
        <time>2016-06-01T13:23:16Z</time>
      </trkpt>
      <trkpt lat="43.37766" lon="6.11627">
        <ele>288.79998779297</ele>
        <time>2016-06-01T13:23:21Z</time>
      </trkpt>
      <trkpt lat="43.37764" lon="6.1163">
        <ele>288.79998779297</ele>
        <time>2016-06-01T13:23:22Z</time>
      </trkpt>
      <trkpt lat="43.3776" lon="6.11638">
        <ele>289.39999389648</ele>
        <time>2016-06-01T13:23:25Z</time>
      </trkpt>
      <trkpt lat="43.37759" lon="6.11641">
        <ele>289.60000610352</ele>
        <time>2016-06-01T13:23:26Z</time>
      </trkpt>
      <trkpt lat="43.37757" lon="6.11646">
        <ele>290</ele>
        <time>2016-06-01T13:23:28Z</time>
      </trkpt>
      <trkpt lat="43.37751" lon="6.1166">
        <ele>290.60000610352</ele>
        <time>2016-06-01T13:23:33Z</time>
      </trkpt>
      <trkpt lat="43.37748" lon="6.11667">
        <ele>291</ele>
        <time>2016-06-01T13:23:35Z</time>
      </trkpt>
      <trkpt lat="43.37741" lon="6.11681">
        <ele>291.60000610352</ele>
        <time>2016-06-01T13:23:39Z</time>
      </trkpt>
      <trkpt lat="43.37733" lon="6.11696">
        <ele>292</ele>
        <time>2016-06-01T13:23:44Z</time>
      </trkpt>
      <trkpt lat="43.3773" lon="6.11702">
        <ele>292.20001220703</ele>
        <time>2016-06-01T13:23:46Z</time>
      </trkpt>
      <trkpt lat="43.37723" lon="6.11716">
        <ele>292.79998779297</ele>
        <time>2016-06-01T13:23:51Z</time>
      </trkpt>
      <trkpt lat="43.37714" lon="6.11732">
        <ele>293.79998779297</ele>
        <time>2016-06-01T13:23:58Z</time>
      </trkpt>
      <trkpt lat="43.37713" lon="6.11734">
        <ele>294.20001220703</ele>
        <time>2016-06-01T13:23:59Z</time>
      </trkpt>
      <trkpt lat="43.37706" lon="6.11747">
        <ele>294.39999389648</ele>
        <time>2016-06-01T13:24:04Z</time>
      </trkpt>
      <trkpt lat="43.37698" lon="6.11764">
        <ele>295.39999389648</ele>
        <time>2016-06-01T13:24:11Z</time>
      </trkpt>
      <trkpt lat="43.37692" lon="6.11778">
        <ele>296.39999389648</ele>
        <time>2016-06-01T13:24:17Z</time>
      </trkpt>
      <trkpt lat="43.37691" lon="6.1178">
        <ele>296.39999389648</ele>
        <time>2016-06-01T13:24:18Z</time>
      </trkpt>
      <trkpt lat="43.37683" lon="6.118">
        <ele>297.39999389648</ele>
        <time>2016-06-01T13:24:26Z</time>
      </trkpt>
      <trkpt lat="43.3768" lon="6.1181">
        <ele>298.39999389648</ele>
        <time>2016-06-01T13:24:30Z</time>
      </trkpt>
      <trkpt lat="43.37679" lon="6.11812">
        <ele>298.60000610352</ele>
        <time>2016-06-01T13:24:31Z</time>
      </trkpt>
      <trkpt lat="43.37676" lon="6.11819">
        <ele>299.60000610352</ele>
        <time>2016-06-01T13:24:34Z</time>
      </trkpt>
      <trkpt lat="43.37671" lon="6.11827">
        <ele>300.20001220703</ele>
        <time>2016-06-01T13:24:38Z</time>
      </trkpt>
      <trkpt lat="43.37671" lon="6.11829">
        <ele>300.39999389648</ele>
        <time>2016-06-01T13:24:39Z</time>
      </trkpt>
      <trkpt lat="43.37666" lon="6.11835">
        <ele>300.60000610352</ele>
        <time>2016-06-01T13:24:42Z</time>
      </trkpt>
      <trkpt lat="43.37663" lon="6.11839">
        <ele>301.20001220703</ele>
        <time>2016-06-01T13:24:45Z</time>
      </trkpt>
      <trkpt lat="43.3766" lon="6.11844">
        <ele>301.60000610352</ele>
        <time>2016-06-01T13:24:48Z</time>
      </trkpt>
      <trkpt lat="43.37657" lon="6.11848">
        <ele>302</ele>
        <time>2016-06-01T13:24:51Z</time>
      </trkpt>
      <trkpt lat="43.37653" lon="6.11852">
        <ele>302.39999389648</ele>
        <time>2016-06-01T13:24:54Z</time>
      </trkpt>
      <trkpt lat="43.37651" lon="6.11855">
        <ele>302.60000610352</ele>
        <time>2016-06-01T13:24:56Z</time>
      </trkpt>
      <trkpt lat="43.3765" lon="6.11857">
        <ele>302.79998779297</ele>
        <time>2016-06-01T13:24:57Z</time>
      </trkpt>
      <trkpt lat="43.37648" lon="6.11861">
        <ele>303.20001220703</ele>
        <time>2016-06-01T13:25:00Z</time>
      </trkpt>
      <trkpt lat="43.37641" lon="6.11874">
        <ele>304</ele>
        <time>2016-06-01T13:25:07Z</time>
      </trkpt>
      <trkpt lat="43.37635" lon="6.11887">
        <ele>305.20001220703</ele>
        <time>2016-06-01T13:25:13Z</time>
      </trkpt>
      <trkpt lat="43.37627" lon="6.11898">
        <ele>306.60000610352</ele>
        <time>2016-06-01T13:25:19Z</time>
      </trkpt>
      <trkpt lat="43.37624" lon="6.11902">
        <ele>307.39999389648</ele>
        <time>2016-06-01T13:25:21Z</time>
      </trkpt>
      <trkpt lat="43.3762" lon="6.11908">
        <ele>308</ele>
        <time>2016-06-01T13:25:25Z</time>
      </trkpt>
      <trkpt lat="43.37618" lon="6.11912">
        <ele>308.20001220703</ele>
        <time>2016-06-01T13:25:30Z</time>
      </trkpt>
      <trkpt lat="43.37618" lon="6.11913">
        <ele>308.20001220703</ele>
        <time>2016-06-01T13:25:32Z</time>
      </trkpt>
      <trkpt lat="43.37618" lon="6.11913">
        <ele>308.20001220703</ele>
        <time>2016-06-01T13:25:35Z</time>
      </trkpt>
      <trkpt lat="43.37618" lon="6.11912">
        <ele>308.39999389648</ele>
        <time>2016-06-01T13:25:40Z</time>
      </trkpt>
      <trkpt lat="43.37617" lon="6.11913">
        <ele>308.39999389648</ele>
        <time>2016-06-01T13:25:43Z</time>
      </trkpt>
      <trkpt lat="43.37617" lon="6.11913">
        <ele>308.20001220703</ele>
        <time>2016-06-01T13:25:46Z</time>
      </trkpt>
      <trkpt lat="43.37617" lon="6.11913">
        <ele>308</ele>
        <time>2016-06-01T13:25:48Z</time>
      </trkpt>
      <trkpt lat="43.37617" lon="6.11913">
        <ele>307.79998779297</ele>
        <time>2016-06-01T13:26:08Z</time>
      </trkpt>
      <trkpt lat="43.37617" lon="6.11913">
        <ele>307.79998779297</ele>
        <time>2016-06-01T13:26:11Z</time>
      </trkpt>
      <trkpt lat="43.37617" lon="6.11913">
        <ele>307.79998779297</ele>
        <time>2016-06-01T13:26:15Z</time>
      </trkpt>
      <trkpt lat="43.37618" lon="6.11916">
        <ele>307.79998779297</ele>
        <time>2016-06-01T13:26:25Z</time>
      </trkpt>
      <trkpt lat="43.37622" lon="6.11924">
        <ele>307.79998779297</ele>
        <time>2016-06-01T13:26:28Z</time>
      </trkpt>
      <trkpt lat="43.37622" lon="6.11933">
        <ele>308.20001220703</ele>
        <time>2016-06-01T13:26:31Z</time>
      </trkpt>
      <trkpt lat="43.37625" lon="6.11943">
        <ele>308.79998779297</ele>
        <time>2016-06-01T13:26:34Z</time>
      </trkpt>
      <trkpt lat="43.37625" lon="6.11949">
        <ele>309.20001220703</ele>
        <time>2016-06-01T13:26:36Z</time>
      </trkpt>
      <trkpt lat="43.37625" lon="6.11963">
        <ele>310</ele>
        <time>2016-06-01T13:26:41Z</time>
      </trkpt>
      <trkpt lat="43.37624" lon="6.11966">
        <ele>310.20001220703</ele>
        <time>2016-06-01T13:26:42Z</time>
      </trkpt>
      <trkpt lat="43.37624" lon="6.11968">
        <ele>310.39999389648</ele>
        <time>2016-06-01T13:26:43Z</time>
      </trkpt>
      <trkpt lat="43.37622" lon="6.11974">
        <ele>311.20001220703</ele>
        <time>2016-06-01T13:26:46Z</time>
      </trkpt>
      <trkpt lat="43.37621" lon="6.11979">
        <ele>311.60000610352</ele>
        <time>2016-06-01T13:26:48Z</time>
      </trkpt>
      <trkpt lat="43.37617" lon="6.11992">
        <ele>312.20001220703</ele>
        <time>2016-06-01T13:26:53Z</time>
      </trkpt>
      <trkpt lat="43.37614" lon="6.12002">
        <ele>313</ele>
        <time>2016-06-01T13:26:57Z</time>
      </trkpt>
      <trkpt lat="43.37612" lon="6.1201">
        <ele>313.79998779297</ele>
        <time>2016-06-01T13:27:00Z</time>
      </trkpt>
      <trkpt lat="43.37607" lon="6.12021">
        <ele>314.39999389648</ele>
        <time>2016-06-01T13:27:04Z</time>
      </trkpt>
      <trkpt lat="43.37606" lon="6.12024">
        <ele>314.79998779297</ele>
        <time>2016-06-01T13:27:05Z</time>
      </trkpt>
      <trkpt lat="43.37606" lon="6.12028">
        <ele>315.20001220703</ele>
        <time>2016-06-01T13:27:07Z</time>
      </trkpt>
      <trkpt lat="43.37603" lon="6.12038">
        <ele>315.79998779297</ele>
        <time>2016-06-01T13:27:12Z</time>
      </trkpt>
      <trkpt lat="43.37599" lon="6.12051">
        <ele>316.20001220703</ele>
        <time>2016-06-01T13:27:17Z</time>
      </trkpt>
      <trkpt lat="43.37598" lon="6.12054">
        <ele>316.20001220703</ele>
        <time>2016-06-01T13:27:18Z</time>
      </trkpt>
      <trkpt lat="43.37597" lon="6.12057">
        <ele>316.39999389648</ele>
        <time>2016-06-01T13:27:19Z</time>
      </trkpt>
      <trkpt lat="43.37595" lon="6.12065">
        <ele>316.60000610352</ele>
        <time>2016-06-01T13:27:23Z</time>
      </trkpt>
      <trkpt lat="43.3759" lon="6.12073">
        <ele>317.39999389648</ele>
        <time>2016-06-01T13:27:27Z</time>
      </trkpt>
      <trkpt lat="43.37589" lon="6.12076">
        <ele>317.79998779297</ele>
        <time>2016-06-01T13:27:28Z</time>
      </trkpt>
      <trkpt lat="43.37582" lon="6.1209">
        <ele>318.20001220703</ele>
        <time>2016-06-01T13:27:33Z</time>
      </trkpt>
      <trkpt lat="43.37579" lon="6.12095">
        <ele>318.39999389648</ele>
        <time>2016-06-01T13:27:35Z</time>
      </trkpt>
      <trkpt lat="43.37574" lon="6.12104">
        <ele>319.79998779297</ele>
        <time>2016-06-01T13:27:40Z</time>
      </trkpt>
      <trkpt lat="43.3757" lon="6.1211">
        <ele>320.60000610352</ele>
        <time>2016-06-01T13:27:44Z</time>
      </trkpt>
      <trkpt lat="43.37566" lon="6.12117">
        <ele>321.20001220703</ele>
        <time>2016-06-01T13:27:47Z</time>
      </trkpt>
      <trkpt lat="43.37564" lon="6.12121">
        <ele>321.39999389648</ele>
        <time>2016-06-01T13:27:49Z</time>
      </trkpt>
      <trkpt lat="43.3756" lon="6.1213">
        <ele>321.79998779297</ele>
        <time>2016-06-01T13:27:52Z</time>
      </trkpt>
      <trkpt lat="43.37554" lon="6.12143">
        <ele>322</ele>
        <time>2016-06-01T13:27:57Z</time>
      </trkpt>
      <trkpt lat="43.37553" lon="6.12145">
        <ele>322.20001220703</ele>
        <time>2016-06-01T13:27:58Z</time>
      </trkpt>
      <trkpt lat="43.37546" lon="6.12154">
        <ele>322.20001220703</ele>
        <time>2016-06-01T13:28:03Z</time>
      </trkpt>
      <trkpt lat="43.3754" lon="6.12162">
        <ele>322.39999389648</ele>
        <time>2016-06-01T13:28:08Z</time>
      </trkpt>
      <trkpt lat="43.37537" lon="6.12167">
        <ele>323</ele>
        <time>2016-06-01T13:28:11Z</time>
      </trkpt>
      <trkpt lat="43.37533" lon="6.12172">
        <ele>323.60000610352</ele>
        <time>2016-06-01T13:28:14Z</time>
      </trkpt>
      <trkpt lat="43.37529" lon="6.1218">
        <ele>324.20001220703</ele>
        <time>2016-06-01T13:28:18Z</time>
      </trkpt>
      <trkpt lat="43.37521" lon="6.12193">
        <ele>324.60000610352</ele>
        <time>2016-06-01T13:28:24Z</time>
      </trkpt>
      <trkpt lat="43.37516" lon="6.122">
        <ele>325.20001220703</ele>
        <time>2016-06-01T13:28:27Z</time>
      </trkpt>
      <trkpt lat="43.37513" lon="6.12206">
        <ele>325.79998779297</ele>
        <time>2016-06-01T13:28:30Z</time>
      </trkpt>
      <trkpt lat="43.37513" lon="6.12207">
        <ele>326</ele>
        <time>2016-06-01T13:28:31Z</time>
      </trkpt>
      <trkpt lat="43.37512" lon="6.12209">
        <ele>326.20001220703</ele>
        <time>2016-06-01T13:28:32Z</time>
      </trkpt>
      <trkpt lat="43.37511" lon="6.12215">
        <ele>326.39999389648</ele>
        <time>2016-06-01T13:28:34Z</time>
      </trkpt>
      <trkpt lat="43.37511" lon="6.12218">
        <ele>326.39999389648</ele>
        <time>2016-06-01T13:28:35Z</time>
      </trkpt>
      <trkpt lat="43.37511" lon="6.12233">
        <ele>326.20001220703</ele>
        <time>2016-06-01T13:28:39Z</time>
      </trkpt>
      <trkpt lat="43.37509" lon="6.12252">
        <ele>326.79998779297</ele>
        <time>2016-06-01T13:28:44Z</time>
      </trkpt>
      <trkpt lat="43.3751" lon="6.12263">
        <ele>327.39999389648</ele>
        <time>2016-06-01T13:28:48Z</time>
      </trkpt>
      <trkpt lat="43.3751" lon="6.12265">
        <ele>327.39999389648</ele>
        <time>2016-06-01T13:28:49Z</time>
      </trkpt>
      <trkpt lat="43.3751" lon="6.12282">
        <ele>328</ele>
        <time>2016-06-01T13:28:55Z</time>
      </trkpt>
      <trkpt lat="43.37509" lon="6.12286">
        <ele>328</ele>
        <time>2016-06-01T13:28:57Z</time>
      </trkpt>
      <trkpt lat="43.37506" lon="6.12296">
        <ele>328.79998779297</ele>
        <time>2016-06-01T13:29:02Z</time>
      </trkpt>
      <trkpt lat="43.37505" lon="6.12302">
        <ele>329.60000610352</ele>
        <time>2016-06-01T13:29:05Z</time>
      </trkpt>
      <trkpt lat="43.37503" lon="6.12308">
        <ele>330.20001220703</ele>
        <time>2016-06-01T13:29:08Z</time>
      </trkpt>
      <trkpt lat="43.37504" lon="6.12311">
        <ele>330.39999389648</ele>
        <time>2016-06-01T13:29:09Z</time>
      </trkpt>
      <trkpt lat="43.37504" lon="6.12313">
        <ele>330.60000610352</ele>
        <time>2016-06-01T13:29:10Z</time>
      </trkpt>
      <trkpt lat="43.37503" lon="6.12317">
        <ele>331</ele>
        <time>2016-06-01T13:29:12Z</time>
      </trkpt>
      <trkpt lat="43.37502" lon="6.12329">
        <ele>331.60000610352</ele>
        <time>2016-06-01T13:29:17Z</time>
      </trkpt>
      <trkpt lat="43.37501" lon="6.12337">
        <ele>331.79998779297</ele>
        <time>2016-06-01T13:29:20Z</time>
      </trkpt>
      <trkpt lat="43.375" lon="6.1234">
        <ele>332</ele>
        <time>2016-06-01T13:29:21Z</time>
      </trkpt>
      <trkpt lat="43.37499" lon="6.1235">
        <ele>332.60000610352</ele>
        <time>2016-06-01T13:29:25Z</time>
      </trkpt>
      <trkpt lat="43.37498" lon="6.1236">
        <ele>333.79998779297</ele>
        <time>2016-06-01T13:29:29Z</time>
      </trkpt>
      <trkpt lat="43.37497" lon="6.12375">
        <ele>335</ele>
        <time>2016-06-01T13:29:35Z</time>
      </trkpt>
      <trkpt lat="43.375" lon="6.12378">
        <ele>335.20001220703</ele>
        <time>2016-06-01T13:29:37Z</time>
      </trkpt>
      <trkpt lat="43.37507" lon="6.12383">
        <ele>335</ele>
        <time>2016-06-01T13:29:41Z</time>
      </trkpt>
      <trkpt lat="43.37508" lon="6.12388">
        <ele>335.39999389648</ele>
        <time>2016-06-01T13:29:43Z</time>
      </trkpt>
      <trkpt lat="43.37514" lon="6.12404">
        <ele>336.39999389648</ele>
        <time>2016-06-01T13:29:49Z</time>
      </trkpt>
      <trkpt lat="43.37519" lon="6.12416">
        <ele>337.20001220703</ele>
        <time>2016-06-01T13:29:53Z</time>
      </trkpt>
      <trkpt lat="43.37521" lon="6.1242">
        <ele>337.60000610352</ele>
        <time>2016-06-01T13:29:55Z</time>
      </trkpt>
      <trkpt lat="43.37521" lon="6.12423">
        <ele>338</ele>
        <time>2016-06-01T13:29:57Z</time>
      </trkpt>
      <trkpt lat="43.37522" lon="6.12424">
        <ele>338.20001220703</ele>
        <time>2016-06-01T13:29:58Z</time>
      </trkpt>
      <trkpt lat="43.37526" lon="6.12429">
        <ele>338.79998779297</ele>
        <time>2016-06-01T13:30:00Z</time>
      </trkpt>
      <trkpt lat="43.37531" lon="6.12434">
        <ele>339.20001220703</ele>
        <time>2016-06-01T13:30:03Z</time>
      </trkpt>
      <trkpt lat="43.37536" lon="6.12438">
        <ele>340</ele>
        <time>2016-06-01T13:30:06Z</time>
      </trkpt>
      <trkpt lat="43.3754" lon="6.12443">
        <ele>340.39999389648</ele>
        <time>2016-06-01T13:30:09Z</time>
      </trkpt>
      <trkpt lat="43.37541" lon="6.12449">
        <ele>340.39999389648</ele>
        <time>2016-06-01T13:30:12Z</time>
      </trkpt>
      <trkpt lat="43.37539" lon="6.12458">
        <ele>341.39999389648</ele>
        <time>2016-06-01T13:30:17Z</time>
      </trkpt>
      <trkpt lat="43.37539" lon="6.12459">
        <ele>341.60000610352</ele>
        <time>2016-06-01T13:30:18Z</time>
      </trkpt>
      <trkpt lat="43.37539" lon="6.12466">
        <ele>341.60000610352</ele>
        <time>2016-06-01T13:30:23Z</time>
      </trkpt>
      <trkpt lat="43.3754" lon="6.12467">
        <ele>341.39999389648</ele>
        <time>2016-06-01T13:30:27Z</time>
      </trkpt>
      <trkpt lat="43.37541" lon="6.12467">
        <ele>341.39999389648</ele>
        <time>2016-06-01T13:30:30Z</time>
      </trkpt>
      <trkpt lat="43.37541" lon="6.12467">
        <ele>341.39999389648</ele>
        <time>2016-06-01T13:30:31Z</time>
      </trkpt>
      <trkpt lat="43.37541" lon="6.12467">
        <ele>341.60000610352</ele>
        <time>2016-06-01T13:30:35Z</time>
      </trkpt>
      <trkpt lat="43.37541" lon="6.12467">
        <ele>342</ele>
        <time>2016-06-01T13:30:41Z</time>
      </trkpt>
      <trkpt lat="43.37541" lon="6.12467">
        <ele>342.20001220703</ele>
        <time>2016-06-01T13:31:04Z</time>
      </trkpt>
      <trkpt lat="43.37541" lon="6.12467">
        <ele>342</ele>
        <time>2016-06-01T13:31:16Z</time>
      </trkpt>
      <trkpt lat="43.37541" lon="6.12467">
        <ele>342</ele>
        <time>2016-06-01T13:31:26Z</time>
      </trkpt>
      <trkpt lat="43.37541" lon="6.12467">
        <ele>341.79998779297</ele>
        <time>2016-06-01T13:31:43Z</time>
      </trkpt>
      <trkpt lat="43.37541" lon="6.12467">
        <ele>342</ele>
        <time>2016-06-01T13:32:07Z</time>
      </trkpt>
      <trkpt lat="43.37541" lon="6.12467">
        <ele>342</ele>
        <time>2016-06-01T13:32:32Z</time>
      </trkpt>
      <trkpt lat="43.37541" lon="6.12475">
        <ele>342</ele>
        <time>2016-06-01T13:32:36Z</time>
      </trkpt>
      <trkpt lat="43.37541" lon="6.12491">
        <ele>342.20001220703</ele>
        <time>2016-06-01T13:32:41Z</time>
      </trkpt>
      <trkpt lat="43.3754" lon="6.12497">
        <ele>342</ele>
        <time>2016-06-01T13:32:44Z</time>
      </trkpt>
      <trkpt lat="43.37539" lon="6.12501">
        <ele>341.79998779297</ele>
        <time>2016-06-01T13:32:46Z</time>
      </trkpt>
      <trkpt lat="43.37547" lon="6.12506">
        <ele>341.79998779297</ele>
        <time>2016-06-01T13:32:51Z</time>
      </trkpt>
      <trkpt lat="43.37554" lon="6.12508">
        <ele>341.20001220703</ele>
        <time>2016-06-01T13:32:53Z</time>
      </trkpt>
      <trkpt lat="43.37558" lon="6.12508">
        <ele>340.60000610352</ele>
        <time>2016-06-01T13:32:54Z</time>
      </trkpt>
      <trkpt lat="43.37563" lon="6.12506">
        <ele>339.60000610352</ele>
        <time>2016-06-01T13:32:55Z</time>
      </trkpt>
      <trkpt lat="43.37568" lon="6.12503">
        <ele>338.60000610352</ele>
        <time>2016-06-01T13:32:56Z</time>
      </trkpt>
      <trkpt lat="43.37577" lon="6.12497">
        <ele>337.79998779297</ele>
        <time>2016-06-01T13:32:58Z</time>
      </trkpt>
      <trkpt lat="43.37581" lon="6.12494">
        <ele>337.39999389648</ele>
        <time>2016-06-01T13:32:59Z</time>
      </trkpt>
      <trkpt lat="43.37585" lon="6.12491">
        <ele>336.39999389648</ele>
        <time>2016-06-01T13:33:00Z</time>
      </trkpt>
      <trkpt lat="43.37589" lon="6.12489">
        <ele>335.20001220703</ele>
        <time>2016-06-01T13:33:01Z</time>
      </trkpt>
      <trkpt lat="43.37597" lon="6.12488">
        <ele>333.60000610352</ele>
        <time>2016-06-01T13:33:03Z</time>
      </trkpt>
      <trkpt lat="43.376" lon="6.12487">
        <ele>333</ele>
        <time>2016-06-01T13:33:04Z</time>
      </trkpt>
      <trkpt lat="43.37602" lon="6.12485">
        <ele>332.39999389648</ele>
        <time>2016-06-01T13:33:05Z</time>
      </trkpt>
      <trkpt lat="43.37605" lon="6.12481">
        <ele>331.20001220703</ele>
        <time>2016-06-01T13:33:08Z</time>
      </trkpt>
      <trkpt lat="43.37611" lon="6.12472">
        <ele>330.20001220703</ele>
        <time>2016-06-01T13:33:13Z</time>
      </trkpt>
      <trkpt lat="43.37617" lon="6.12463">
        <ele>330</ele>
        <time>2016-06-01T13:33:16Z</time>
      </trkpt>
      <trkpt lat="43.37624" lon="6.12458">
        <ele>329.60000610352</ele>
        <time>2016-06-01T13:33:19Z</time>
      </trkpt>
      <trkpt lat="43.37632" lon="6.1245">
        <ele>329</ele>
        <time>2016-06-01T13:33:24Z</time>
      </trkpt>
      <trkpt lat="43.37634" lon="6.12441">
        <ele>329.20001220703</ele>
        <time>2016-06-01T13:33:28Z</time>
      </trkpt>
      <trkpt lat="43.37632" lon="6.12415">
        <ele>327.60000610352</ele>
        <time>2016-06-01T13:33:33Z</time>
      </trkpt>
      <trkpt lat="43.3763" lon="6.12397">
        <ele>326.20001220703</ele>
        <time>2016-06-01T13:33:36Z</time>
      </trkpt>
      <trkpt lat="43.37627" lon="6.12382">
        <ele>325.79998779297</ele>
        <time>2016-06-01T13:33:39Z</time>
      </trkpt>
      <trkpt lat="43.37628" lon="6.12371">
        <ele>325.79998779297</ele>
        <time>2016-06-01T13:33:41Z</time>
      </trkpt>
      <trkpt lat="43.3763" lon="6.12365">
        <ele>325.79998779297</ele>
        <time>2016-06-01T13:33:42Z</time>
      </trkpt>
      <trkpt lat="43.37633" lon="6.12351">
        <ele>325</ele>
        <time>2016-06-01T13:33:44Z</time>
      </trkpt>
      <trkpt lat="43.37639" lon="6.12332">
        <ele>323.39999389648</ele>
        <time>2016-06-01T13:33:47Z</time>
      </trkpt>
      <trkpt lat="43.37642" lon="6.12325">
        <ele>323</ele>
        <time>2016-06-01T13:33:48Z</time>
      </trkpt>
      <trkpt lat="43.37651" lon="6.12311">
        <ele>322.20001220703</ele>
        <time>2016-06-01T13:33:50Z</time>
      </trkpt>
      <trkpt lat="43.37663" lon="6.12298">
        <ele>319.60000610352</ele>
        <time>2016-06-01T13:33:52Z</time>
      </trkpt>
      <trkpt lat="43.37667" lon="6.12292">
        <ele>318.60000610352</ele>
        <time>2016-06-01T13:33:53Z</time>
      </trkpt>
      <trkpt lat="43.3767" lon="6.12285">
        <ele>318.20001220703</ele>
        <time>2016-06-01T13:33:54Z</time>
      </trkpt>
      <trkpt lat="43.37681" lon="6.12274">
        <ele>317.60000610352</ele>
        <time>2016-06-01T13:33:57Z</time>
      </trkpt>
      <trkpt lat="43.37691" lon="6.12272">
        <ele>316.39999389648</ele>
        <time>2016-06-01T13:33:59Z</time>
      </trkpt>
      <trkpt lat="43.37697" lon="6.12273">
        <ele>316</ele>
        <time>2016-06-01T13:34:00Z</time>
      </trkpt>
      <trkpt lat="43.37702" lon="6.12275">
        <ele>315.79998779297</ele>
        <time>2016-06-01T13:34:01Z</time>
      </trkpt>
      <trkpt lat="43.37709" lon="6.12288">
        <ele>315</ele>
        <time>2016-06-01T13:34:04Z</time>
      </trkpt>
      <trkpt lat="43.37708" lon="6.12302">
        <ele>314.79998779297</ele>
        <time>2016-06-01T13:34:07Z</time>
      </trkpt>
      <trkpt lat="43.37708" lon="6.12308">
        <ele>314.79998779297</ele>
        <time>2016-06-01T13:34:08Z</time>
      </trkpt>
      <trkpt lat="43.37708" lon="6.12314">
        <ele>314.60000610352</ele>
        <time>2016-06-01T13:34:09Z</time>
      </trkpt>
      <trkpt lat="43.37708" lon="6.12324">
        <ele>313.60000610352</ele>
        <time>2016-06-01T13:34:11Z</time>
      </trkpt>
      <trkpt lat="43.37708" lon="6.12329">
        <ele>313</ele>
        <time>2016-06-01T13:34:12Z</time>
      </trkpt>
      <trkpt lat="43.37711" lon="6.12332">
        <ele>312.60000610352</ele>
        <time>2016-06-01T13:34:13Z</time>
      </trkpt>
      <trkpt lat="43.37714" lon="6.12333">
        <ele>312.20001220703</ele>
        <time>2016-06-01T13:34:14Z</time>
      </trkpt>
      <trkpt lat="43.37723" lon="6.1233">
        <ele>311.39999389648</ele>
        <time>2016-06-01T13:34:16Z</time>
      </trkpt>
      <trkpt lat="43.37727" lon="6.12329">
        <ele>311.20001220703</ele>
        <time>2016-06-01T13:34:17Z</time>
      </trkpt>
      <trkpt lat="43.37733" lon="6.12332">
        <ele>311</ele>
        <time>2016-06-01T13:34:19Z</time>
      </trkpt>
      <trkpt lat="43.37734" lon="6.12337">
        <ele>311.20001220703</ele>
        <time>2016-06-01T13:34:21Z</time>
      </trkpt>
      <trkpt lat="43.37734" lon="6.12339">
        <ele>311.39999389648</ele>
        <time>2016-06-01T13:34:22Z</time>
      </trkpt>
      <trkpt lat="43.37734" lon="6.12341">
        <ele>311.60000610352</ele>
        <time>2016-06-01T13:34:23Z</time>
      </trkpt>
      <trkpt lat="43.37733" lon="6.12347">
        <ele>311.79998779297</ele>
        <time>2016-06-01T13:34:26Z</time>
      </trkpt>
      <trkpt lat="43.37732" lon="6.12351">
        <ele>312</ele>
        <time>2016-06-01T13:34:28Z</time>
      </trkpt>
      <trkpt lat="43.37731" lon="6.12356">
        <ele>312.20001220703</ele>
        <time>2016-06-01T13:34:31Z</time>
      </trkpt>
      <trkpt lat="43.3773" lon="6.12359">
        <ele>312.60000610352</ele>
        <time>2016-06-01T13:34:33Z</time>
      </trkpt>
      <trkpt lat="43.37729" lon="6.12377">
        <ele>313</ele>
        <time>2016-06-01T13:34:40Z</time>
      </trkpt>
      <trkpt lat="43.37727" lon="6.12386">
        <ele>313.20001220703</ele>
        <time>2016-06-01T13:34:43Z</time>
      </trkpt>
      <trkpt lat="43.37726" lon="6.12395">
        <ele>313.39999389648</ele>
        <time>2016-06-01T13:34:46Z</time>
      </trkpt>
      <trkpt lat="43.37724" lon="6.1242">
        <ele>314</ele>
        <time>2016-06-01T13:34:54Z</time>
      </trkpt>
      <trkpt lat="43.37722" lon="6.12432">
        <ele>314.39999389648</ele>
        <time>2016-06-01T13:34:58Z</time>
      </trkpt>
      <trkpt lat="43.37722" lon="6.12441">
        <ele>315</ele>
        <time>2016-06-01T13:35:01Z</time>
      </trkpt>
      <trkpt lat="43.3772" lon="6.12447">
        <ele>315.39999389648</ele>
        <time>2016-06-01T13:35:03Z</time>
      </trkpt>
      <trkpt lat="43.37716" lon="6.12464">
        <ele>315.79998779297</ele>
        <time>2016-06-01T13:35:08Z</time>
      </trkpt>
      <trkpt lat="43.37713" lon="6.1248">
        <ele>316.39999389648</ele>
        <time>2016-06-01T13:35:13Z</time>
      </trkpt>
      <trkpt lat="43.37711" lon="6.12496">
        <ele>317</ele>
        <time>2016-06-01T13:35:18Z</time>
      </trkpt>
      <trkpt lat="43.3771" lon="6.12507">
        <ele>317.39999389648</ele>
        <time>2016-06-01T13:35:21Z</time>
      </trkpt>
      <trkpt lat="43.37705" lon="6.12522">
        <ele>317.79998779297</ele>
        <time>2016-06-01T13:35:25Z</time>
      </trkpt>
      <trkpt lat="43.37702" lon="6.12541">
        <ele>318</ele>
        <time>2016-06-01T13:35:30Z</time>
      </trkpt>
      <trkpt lat="43.37702" lon="6.12557">
        <ele>318.60000610352</ele>
        <time>2016-06-01T13:35:35Z</time>
      </trkpt>
      <trkpt lat="43.37701" lon="6.12573">
        <ele>318.79998779297</ele>
        <time>2016-06-01T13:35:40Z</time>
      </trkpt>
      <trkpt lat="43.37702" lon="6.12593">
        <ele>319.60000610352</ele>
        <time>2016-06-01T13:35:45Z</time>
      </trkpt>
      <trkpt lat="43.37702" lon="6.12597">
        <ele>319.60000610352</ele>
        <time>2016-06-01T13:35:46Z</time>
      </trkpt>
      <trkpt lat="43.37704" lon="6.1261">
        <ele>320</ele>
        <time>2016-06-01T13:35:50Z</time>
      </trkpt>
      <trkpt lat="43.37704" lon="6.12619">
        <ele>320.39999389648</ele>
        <time>2016-06-01T13:35:54Z</time>
      </trkpt>
      <trkpt lat="43.37704" lon="6.12621">
        <ele>320.39999389648</ele>
        <time>2016-06-01T13:35:55Z</time>
      </trkpt>
      <trkpt lat="43.37704" lon="6.12623">
        <ele>320.20001220703</ele>
        <time>2016-06-01T13:35:59Z</time>
      </trkpt>
      <trkpt lat="43.37704" lon="6.12624">
        <ele>320.20001220703</ele>
        <time>2016-06-01T13:36:03Z</time>
      </trkpt>
      <trkpt lat="43.37705" lon="6.12624">
        <ele>320.20001220703</ele>
        <time>2016-06-01T13:36:07Z</time>
      </trkpt>
      <trkpt lat="43.37704" lon="6.12627">
        <ele>320</ele>
        <time>2016-06-01T13:36:17Z</time>
      </trkpt>
      <trkpt lat="43.37703" lon="6.1264">
        <ele>320.20001220703</ele>
        <time>2016-06-01T13:36:22Z</time>
      </trkpt>
      <trkpt lat="43.37702" lon="6.12657">
        <ele>320</ele>
        <time>2016-06-01T13:36:27Z</time>
      </trkpt>
      <trkpt lat="43.37703" lon="6.12661">
        <ele>320.20001220703</ele>
        <time>2016-06-01T13:36:28Z</time>
      </trkpt>
      <trkpt lat="43.37702" lon="6.12676">
        <ele>320.60000610352</ele>
        <time>2016-06-01T13:36:32Z</time>
      </trkpt>
      <trkpt lat="43.37698" lon="6.12701">
        <ele>321</ele>
        <time>2016-06-01T13:36:39Z</time>
      </trkpt>
      <trkpt lat="43.37698" lon="6.1272">
        <ele>321.60000610352</ele>
        <time>2016-06-01T13:36:45Z</time>
      </trkpt>
      <trkpt lat="43.37701" lon="6.12744">
        <ele>322</ele>
        <time>2016-06-01T13:36:51Z</time>
      </trkpt>
      <trkpt lat="43.37701" lon="6.12751">
        <ele>322.20001220703</ele>
        <time>2016-06-01T13:36:53Z</time>
      </trkpt>
      <trkpt lat="43.377" lon="6.12768">
        <ele>323.20001220703</ele>
        <time>2016-06-01T13:36:59Z</time>
      </trkpt>
      <trkpt lat="43.37701" lon="6.1278">
        <ele>324</ele>
        <time>2016-06-01T13:37:03Z</time>
      </trkpt>
      <trkpt lat="43.37702" lon="6.1279">
        <ele>324.20001220703</ele>
        <time>2016-06-01T13:37:06Z</time>
      </trkpt>
      <trkpt lat="43.37705" lon="6.12804">
        <ele>325.20001220703</ele>
        <time>2016-06-01T13:37:10Z</time>
      </trkpt>
      <trkpt lat="43.37708" lon="6.12839">
        <ele>326.60000610352</ele>
        <time>2016-06-01T13:37:20Z</time>
      </trkpt>
      <trkpt lat="43.37711" lon="6.12865">
        <ele>327.39999389648</ele>
        <time>2016-06-01T13:37:27Z</time>
      </trkpt>
      <trkpt lat="43.37709" lon="6.12886">
        <ele>327.60000610352</ele>
        <time>2016-06-01T13:37:33Z</time>
      </trkpt>
      <trkpt lat="43.37705" lon="6.12908">
        <ele>327.60000610352</ele>
        <time>2016-06-01T13:37:39Z</time>
      </trkpt>
      <trkpt lat="43.377" lon="6.12924">
        <ele>327.60000610352</ele>
        <time>2016-06-01T13:37:46Z</time>
      </trkpt>
      <trkpt lat="43.37692" lon="6.12941">
        <ele>328</ele>
        <time>2016-06-01T13:37:54Z</time>
      </trkpt>
      <trkpt lat="43.37687" lon="6.12951">
        <ele>328</ele>
        <time>2016-06-01T13:37:58Z</time>
      </trkpt>
      <trkpt lat="43.37686" lon="6.12961">
        <ele>328</ele>
        <time>2016-06-01T13:38:02Z</time>
      </trkpt>
      <trkpt lat="43.37684" lon="6.12973">
        <ele>328</ele>
        <time>2016-06-01T13:38:08Z</time>
      </trkpt>
      <trkpt lat="43.37682" lon="6.12979">
        <ele>328</ele>
        <time>2016-06-01T13:38:13Z</time>
      </trkpt>
      <trkpt lat="43.3768" lon="6.1298">
        <ele>327.79998779297</ele>
        <time>2016-06-01T13:38:15Z</time>
      </trkpt>
      <trkpt lat="43.37683" lon="6.12985">
        <ele>327.60000610352</ele>
        <time>2016-06-01T13:38:21Z</time>
      </trkpt>
      <trkpt lat="43.3768" lon="6.12981">
        <ele>327.79998779297</ele>
        <time>2016-06-01T13:38:27Z</time>
      </trkpt>
      <trkpt lat="43.37679" lon="6.12981">
        <ele>327.39999389648</ele>
        <time>2016-06-01T13:38:35Z</time>
      </trkpt>
      <trkpt lat="43.37679" lon="6.1298">
        <ele>327.39999389648</ele>
        <time>2016-06-01T13:38:45Z</time>
      </trkpt>
      <trkpt lat="43.37679" lon="6.1298">
        <ele>327.39999389648</ele>
        <time>2016-06-01T13:38:47Z</time>
      </trkpt>
      <trkpt lat="43.37679" lon="6.12981">
        <ele>327.79998779297</ele>
        <time>2016-06-01T13:38:51Z</time>
      </trkpt>
      <trkpt lat="43.37679" lon="6.1298">
        <ele>327.79998779297</ele>
        <time>2016-06-01T13:38:52Z</time>
      </trkpt>
      <trkpt lat="43.37675" lon="6.12977">
        <ele>327.60000610352</ele>
        <time>2016-06-01T13:39:00Z</time>
      </trkpt>
      <trkpt lat="43.37675" lon="6.12978">
        <ele>327.60000610352</ele>
        <time>2016-06-01T13:39:08Z</time>
      </trkpt>
      <trkpt lat="43.37675" lon="6.12979">
        <ele>327.60000610352</ele>
        <time>2016-06-01T13:39:16Z</time>
      </trkpt>
      <trkpt lat="43.37674" lon="6.12984">
        <ele>328</ele>
        <time>2016-06-01T13:39:26Z</time>
      </trkpt>
      <trkpt lat="43.37675" lon="6.12988">
        <ele>328.39999389648</ele>
        <time>2016-06-01T13:39:34Z</time>
      </trkpt>
      <trkpt lat="43.37675" lon="6.1299">
        <ele>328.79998779297</ele>
        <time>2016-06-01T13:39:43Z</time>
      </trkpt>
      <trkpt lat="43.37675" lon="6.12992">
        <ele>329</ele>
        <time>2016-06-01T13:39:45Z</time>
      </trkpt>
      <trkpt lat="43.37677" lon="6.12997">
        <ele>329</ele>
        <time>2016-06-01T13:39:48Z</time>
      </trkpt>
      <trkpt lat="43.37677" lon="6.13007">
        <ele>329.39999389648</ele>
        <time>2016-06-01T13:39:52Z</time>
      </trkpt>
      <trkpt lat="43.37677" lon="6.13013">
        <ele>329.60000610352</ele>
        <time>2016-06-01T13:39:54Z</time>
      </trkpt>
      <trkpt lat="43.3767" lon="6.13031">
        <ele>329.79998779297</ele>
        <time>2016-06-01T13:39:59Z</time>
      </trkpt>
      <trkpt lat="43.37655" lon="6.13054">
        <ele>330.20001220703</ele>
        <time>2016-06-01T13:40:07Z</time>
      </trkpt>
      <trkpt lat="43.37643" lon="6.13071">
        <ele>330.79998779297</ele>
        <time>2016-06-01T13:40:13Z</time>
      </trkpt>
      <trkpt lat="43.37635" lon="6.13085">
        <ele>331.20001220703</ele>
        <time>2016-06-01T13:40:18Z</time>
      </trkpt>
      <trkpt lat="43.37631" lon="6.13091">
        <ele>331.20001220703</ele>
        <time>2016-06-01T13:40:20Z</time>
      </trkpt>
      <trkpt lat="43.37619" lon="6.13107">
        <ele>331.79998779297</ele>
        <time>2016-06-01T13:40:26Z</time>
      </trkpt>
      <trkpt lat="43.3761" lon="6.1312">
        <ele>332.60000610352</ele>
        <time>2016-06-01T13:40:31Z</time>
      </trkpt>
      <trkpt lat="43.37605" lon="6.13129">
        <ele>333</ele>
        <time>2016-06-01T13:40:34Z</time>
      </trkpt>
      <trkpt lat="43.37604" lon="6.13132">
        <ele>333.39999389648</ele>
        <time>2016-06-01T13:40:35Z</time>
      </trkpt>
      <trkpt lat="43.37593" lon="6.13153">
        <ele>333.79998779297</ele>
        <time>2016-06-01T13:40:42Z</time>
      </trkpt>
      <trkpt lat="43.37586" lon="6.13173">
        <ele>334.39999389648</ele>
        <time>2016-06-01T13:40:48Z</time>
      </trkpt>
      <trkpt lat="43.37584" lon="6.1318">
        <ele>335</ele>
        <time>2016-06-01T13:40:50Z</time>
      </trkpt>
      <trkpt lat="43.37578" lon="6.13205">
        <ele>335.20001220703</ele>
        <time>2016-06-01T13:40:57Z</time>
      </trkpt>
      <trkpt lat="43.37576" lon="6.13223">
        <ele>336.20001220703</ele>
        <time>2016-06-01T13:41:02Z</time>
      </trkpt>
      <trkpt lat="43.37575" lon="6.13236">
        <ele>336.79998779297</ele>
        <time>2016-06-01T13:41:06Z</time>
      </trkpt>
      <trkpt lat="43.37574" lon="6.13242">
        <ele>337.20001220703</ele>
        <time>2016-06-01T13:41:08Z</time>
      </trkpt>
      <trkpt lat="43.37573" lon="6.13265">
        <ele>338</ele>
        <time>2016-06-01T13:41:15Z</time>
      </trkpt>
      <trkpt lat="43.37571" lon="6.13285">
        <ele>338.39999389648</ele>
        <time>2016-06-01T13:41:22Z</time>
      </trkpt>
      <trkpt lat="43.37571" lon="6.13288">
        <ele>338.39999389648</ele>
        <time>2016-06-01T13:41:23Z</time>
      </trkpt>
      <trkpt lat="43.37569" lon="6.13308">
        <ele>338.79998779297</ele>
        <time>2016-06-01T13:41:31Z</time>
      </trkpt>
      <trkpt lat="43.3757" lon="6.13316">
        <ele>339.39999389648</ele>
        <time>2016-06-01T13:41:34Z</time>
      </trkpt>
      <trkpt lat="43.3757" lon="6.13318">
        <ele>339.79998779297</ele>
        <time>2016-06-01T13:41:35Z</time>
      </trkpt>
      <trkpt lat="43.37568" lon="6.13323">
        <ele>340.39999389648</ele>
        <time>2016-06-01T13:41:37Z</time>
      </trkpt>
      <trkpt lat="43.37567" lon="6.13324">
        <ele>340.79998779297</ele>
        <time>2016-06-01T13:41:38Z</time>
      </trkpt>
      <trkpt lat="43.37566" lon="6.13326">
        <ele>341</ele>
        <time>2016-06-01T13:41:39Z</time>
      </trkpt>
      <trkpt lat="43.37563" lon="6.13329">
        <ele>341.20001220703</ele>
        <time>2016-06-01T13:41:41Z</time>
      </trkpt>
      <trkpt lat="43.37562" lon="6.13331">
        <ele>341.20001220703</ele>
        <time>2016-06-01T13:41:42Z</time>
      </trkpt>
      <trkpt lat="43.3756" lon="6.13336">
        <ele>340.79998779297</ele>
        <time>2016-06-01T13:41:45Z</time>
      </trkpt>
      <trkpt lat="43.37558" lon="6.13337">
        <ele>340.79998779297</ele>
        <time>2016-06-01T13:41:46Z</time>
      </trkpt>
      <trkpt lat="43.37556" lon="6.13339">
        <ele>340.79998779297</ele>
        <time>2016-06-01T13:41:48Z</time>
      </trkpt>
      <trkpt lat="43.37555" lon="6.13341">
        <ele>341</ele>
        <time>2016-06-01T13:41:49Z</time>
      </trkpt>
      <trkpt lat="43.3755" lon="6.13349">
        <ele>340.79998779297</ele>
        <time>2016-06-01T13:41:52Z</time>
      </trkpt>
      <trkpt lat="43.37546" lon="6.13357">
        <ele>341</ele>
        <time>2016-06-01T13:41:55Z</time>
      </trkpt>
      <trkpt lat="43.37542" lon="6.13363">
        <ele>341</ele>
        <time>2016-06-01T13:41:58Z</time>
      </trkpt>
      <trkpt lat="43.37539" lon="6.1337">
        <ele>341</ele>
        <time>2016-06-01T13:42:01Z</time>
      </trkpt>
      <trkpt lat="43.37537" lon="6.13383">
        <ele>341.39999389648</ele>
        <time>2016-06-01T13:42:06Z</time>
      </trkpt>
      <trkpt lat="43.37532" lon="6.13397">
        <ele>341.60000610352</ele>
        <time>2016-06-01T13:42:11Z</time>
      </trkpt>
      <trkpt lat="43.37529" lon="6.13409">
        <ele>341.79998779297</ele>
        <time>2016-06-01T13:42:16Z</time>
      </trkpt>
      <trkpt lat="43.37529" lon="6.13411">
        <ele>342</ele>
        <time>2016-06-01T13:42:17Z</time>
      </trkpt>
      <trkpt lat="43.37527" lon="6.13415">
        <ele>342.79998779297</ele>
        <time>2016-06-01T13:42:19Z</time>
      </trkpt>
      <trkpt lat="43.37524" lon="6.13425">
        <ele>343.60000610352</ele>
        <time>2016-06-01T13:42:23Z</time>
      </trkpt>
      <trkpt lat="43.37523" lon="6.13445">
        <ele>344.39999389648</ele>
        <time>2016-06-01T13:42:30Z</time>
      </trkpt>
      <trkpt lat="43.37524" lon="6.13458">
        <ele>344.60000610352</ele>
        <time>2016-06-01T13:42:35Z</time>
      </trkpt>
      <trkpt lat="43.37524" lon="6.13461">
        <ele>344.79998779297</ele>
        <time>2016-06-01T13:42:37Z</time>
      </trkpt>
      <trkpt lat="43.37525" lon="6.13463">
        <ele>344.60000610352</ele>
        <time>2016-06-01T13:42:41Z</time>
      </trkpt>
      <trkpt lat="43.37525" lon="6.13463">
        <ele>344.60000610352</ele>
        <time>2016-06-01T13:42:44Z</time>
      </trkpt>
      <trkpt lat="43.37525" lon="6.13463">
        <ele>345.20001220703</ele>
        <time>2016-06-01T13:42:56Z</time>
      </trkpt>
      <trkpt lat="43.37525" lon="6.13463">
        <ele>345</ele>
        <time>2016-06-01T13:43:41Z</time>
      </trkpt>
      <trkpt lat="43.37525" lon="6.13463">
        <ele>345.20001220703</ele>
        <time>2016-06-01T13:44:57Z</time>
      </trkpt>
      <trkpt lat="43.37525" lon="6.13464">
        <ele>345.20001220703</ele>
        <time>2016-06-01T13:45:11Z</time>
      </trkpt>
      <trkpt lat="43.37525" lon="6.13468">
        <ele>345.20001220703</ele>
        <time>2016-06-01T13:45:15Z</time>
      </trkpt>
      <trkpt lat="43.37526" lon="6.13476">
        <ele>345.39999389648</ele>
        <time>2016-06-01T13:45:18Z</time>
      </trkpt>
      <trkpt lat="43.37526" lon="6.1348">
        <ele>345.39999389648</ele>
        <time>2016-06-01T13:45:20Z</time>
      </trkpt>
      <trkpt lat="43.37528" lon="6.13493">
        <ele>346.20001220703</ele>
        <time>2016-06-01T13:45:27Z</time>
      </trkpt>
      <trkpt lat="43.37529" lon="6.13502">
        <ele>346.39999389648</ele>
        <time>2016-06-01T13:45:31Z</time>
      </trkpt>
      <trkpt lat="43.37529" lon="6.13508">
        <ele>346.60000610352</ele>
        <time>2016-06-01T13:45:34Z</time>
      </trkpt>
      <trkpt lat="43.3753" lon="6.13519">
        <ele>346.79998779297</ele>
        <time>2016-06-01T13:45:39Z</time>
      </trkpt>
      <trkpt lat="43.37531" lon="6.13528">
        <ele>347.39999389648</ele>
        <time>2016-06-01T13:45:45Z</time>
      </trkpt>
      <trkpt lat="43.37531" lon="6.13543">
        <ele>347.39999389648</ele>
        <time>2016-06-01T13:45:51Z</time>
      </trkpt>
      <trkpt lat="43.37531" lon="6.13545">
        <ele>347.60000610352</ele>
        <time>2016-06-01T13:45:52Z</time>
      </trkpt>
      <trkpt lat="43.37533" lon="6.13563">
        <ele>348.20001220703</ele>
        <time>2016-06-01T13:45:59Z</time>
      </trkpt>
      <trkpt lat="43.37535" lon="6.1357">
        <ele>348.60000610352</ele>
        <time>2016-06-01T13:46:02Z</time>
      </trkpt>
      <trkpt lat="43.37537" lon="6.13581">
        <ele>349.20001220703</ele>
        <time>2016-06-01T13:46:07Z</time>
      </trkpt>
      <trkpt lat="43.37541" lon="6.13598">
        <ele>350</ele>
        <time>2016-06-01T13:46:14Z</time>
      </trkpt>
      <trkpt lat="43.37546" lon="6.13618">
        <ele>350.79998779297</ele>
        <time>2016-06-01T13:46:22Z</time>
      </trkpt>
      <trkpt lat="43.3755" lon="6.13638">
        <ele>351.60000610352</ele>
        <time>2016-06-01T13:46:30Z</time>
      </trkpt>
      <trkpt lat="43.37551" lon="6.13651">
        <ele>351.60000610352</ele>
        <time>2016-06-01T13:46:36Z</time>
      </trkpt>
      <trkpt lat="43.37551" lon="6.13653">
        <ele>351.79998779297</ele>
        <time>2016-06-01T13:46:39Z</time>
      </trkpt>
      <trkpt lat="43.37551" lon="6.13653">
        <ele>352</ele>
        <time>2016-06-01T13:46:42Z</time>
      </trkpt>
      <trkpt lat="43.37551" lon="6.13653">
        <ele>352</ele>
        <time>2016-06-01T13:46:45Z</time>
      </trkpt>
      <trkpt lat="43.37551" lon="6.13653">
        <ele>352</ele>
        <time>2016-06-01T13:46:48Z</time>
      </trkpt>
      <trkpt lat="43.37551" lon="6.13653">
        <ele>352</ele>
        <time>2016-06-01T13:46:51Z</time>
      </trkpt>
      <trkpt lat="43.37551" lon="6.13653">
        <ele>352.20001220703</ele>
        <time>2016-06-01T13:46:59Z</time>
      </trkpt>
      <trkpt lat="43.37551" lon="6.13653">
        <ele>352.20001220703</ele>
        <time>2016-06-01T13:47:11Z</time>
      </trkpt>
      <trkpt lat="43.37551" lon="6.13655">
        <ele>352.39999389648</ele>
        <time>2016-06-01T13:47:19Z</time>
      </trkpt>
      <trkpt lat="43.37553" lon="6.13656">
        <ele>351.39999389648</ele>
        <time>2016-06-01T13:47:26Z</time>
      </trkpt>
      <trkpt lat="43.37553" lon="6.13656">
        <ele>351.39999389648</ele>
        <time>2016-06-01T13:47:29Z</time>
      </trkpt>
      <trkpt lat="43.37553" lon="6.13656">
        <ele>351.79998779297</ele>
        <time>2016-06-01T13:47:44Z</time>
      </trkpt>
      <trkpt lat="43.37553" lon="6.13659">
        <ele>352.39999389648</ele>
        <time>2016-06-01T13:53:12Z</time>
      </trkpt>
      <trkpt lat="43.37555" lon="6.1366">
        <ele>352.39999389648</ele>
        <time>2016-06-01T13:54:14Z</time>
      </trkpt>
      <trkpt lat="43.37554" lon="6.13661">
        <ele>352.39999389648</ele>
        <time>2016-06-01T13:54:23Z</time>
      </trkpt>
      <trkpt lat="43.37554" lon="6.13664">
        <ele>352.39999389648</ele>
        <time>2016-06-01T13:54:25Z</time>
      </trkpt>
      <trkpt lat="43.37553" lon="6.13683">
        <ele>352.39999389648</ele>
        <time>2016-06-01T13:54:33Z</time>
      </trkpt>
      <trkpt lat="43.37555" lon="6.13695">
        <ele>352.79998779297</ele>
        <time>2016-06-01T13:54:37Z</time>
      </trkpt>
      <trkpt lat="43.37557" lon="6.13709">
        <ele>353.79998779297</ele>
        <time>2016-06-01T13:54:42Z</time>
      </trkpt>
      <trkpt lat="43.37559" lon="6.13718">
        <ele>354</ele>
        <time>2016-06-01T13:54:45Z</time>
      </trkpt>
      <trkpt lat="43.37561" lon="6.13726">
        <ele>354.20001220703</ele>
        <time>2016-06-01T13:54:48Z</time>
      </trkpt>
      <trkpt lat="43.37564" lon="6.13735">
        <ele>355</ele>
        <time>2016-06-01T13:54:51Z</time>
      </trkpt>
      <trkpt lat="43.37565" lon="6.1374">
        <ele>355.79998779297</ele>
        <time>2016-06-01T13:54:53Z</time>
      </trkpt>
      <trkpt lat="43.37567" lon="6.1375">
        <ele>356</ele>
        <time>2016-06-01T13:54:57Z</time>
      </trkpt>
      <trkpt lat="43.37568" lon="6.13763">
        <ele>357</ele>
        <time>2016-06-01T13:55:02Z</time>
      </trkpt>
      <trkpt lat="43.37569" lon="6.13778">
        <ele>357.39999389648</ele>
        <time>2016-06-01T13:55:08Z</time>
      </trkpt>
      <trkpt lat="43.3757" lon="6.13789">
        <ele>358</ele>
        <time>2016-06-01T13:55:12Z</time>
      </trkpt>
      <trkpt lat="43.37571" lon="6.13797">
        <ele>358</ele>
        <time>2016-06-01T13:55:15Z</time>
      </trkpt>
      <trkpt lat="43.37569" lon="6.13818">
        <ele>358</ele>
        <time>2016-06-01T13:55:22Z</time>
      </trkpt>
      <trkpt lat="43.37565" lon="6.13845">
        <ele>358.39999389648</ele>
        <time>2016-06-01T13:55:30Z</time>
      </trkpt>
      <trkpt lat="43.37564" lon="6.13865">
        <ele>358.79998779297</ele>
        <time>2016-06-01T13:55:36Z</time>
      </trkpt>
      <trkpt lat="43.37563" lon="6.13892">
        <ele>359.20001220703</ele>
        <time>2016-06-01T13:55:44Z</time>
      </trkpt>
      <trkpt lat="43.37558" lon="6.1391">
        <ele>359.60000610352</ele>
        <time>2016-06-01T13:55:50Z</time>
      </trkpt>
      <trkpt lat="43.37554" lon="6.13929">
        <ele>360</ele>
        <time>2016-06-01T13:55:56Z</time>
      </trkpt>
      <trkpt lat="43.37552" lon="6.13935">
        <ele>360.20001220703</ele>
        <time>2016-06-01T13:55:58Z</time>
      </trkpt>
      <trkpt lat="43.37545" lon="6.13955">
        <ele>361.39999389648</ele>
        <time>2016-06-01T13:56:06Z</time>
      </trkpt>
      <trkpt lat="43.37541" lon="6.1397">
        <ele>361.79998779297</ele>
        <time>2016-06-01T13:56:11Z</time>
      </trkpt>
      <trkpt lat="43.3754" lon="6.13986">
        <ele>362.39999389648</ele>
        <time>2016-06-01T13:56:18Z</time>
      </trkpt>
      <trkpt lat="43.37539" lon="6.14007">
        <ele>362.79998779297</ele>
        <time>2016-06-01T13:56:25Z</time>
      </trkpt>
      <trkpt lat="43.37535" lon="6.14018">
        <ele>363.20001220703</ele>
        <time>2016-06-01T13:56:30Z</time>
      </trkpt>
      <trkpt lat="43.37534" lon="6.14021">
        <ele>363.39999389648</ele>
        <time>2016-06-01T13:56:31Z</time>
      </trkpt>
      <trkpt lat="43.37527" lon="6.14036">
        <ele>364</ele>
        <time>2016-06-01T13:56:37Z</time>
      </trkpt>
      <trkpt lat="43.37525" lon="6.14041">
        <ele>364.60000610352</ele>
        <time>2016-06-01T13:56:39Z</time>
      </trkpt>
      <trkpt lat="43.37522" lon="6.14057">
        <ele>365.20001220703</ele>
        <time>2016-06-01T13:56:45Z</time>
      </trkpt>
      <trkpt lat="43.3752" lon="6.14067">
        <ele>365</ele>
        <time>2016-06-01T13:56:49Z</time>
      </trkpt>
      <trkpt lat="43.3752" lon="6.14073">
        <ele>365.20001220703</ele>
        <time>2016-06-01T13:56:52Z</time>
      </trkpt>
      <trkpt lat="43.37521" lon="6.14075">
        <ele>365.39999389648</ele>
        <time>2016-06-01T13:56:53Z</time>
      </trkpt>
      <trkpt lat="43.37521" lon="6.14077">
        <ele>365.60000610352</ele>
        <time>2016-06-01T13:56:54Z</time>
      </trkpt>
      <trkpt lat="43.37521" lon="6.14079">
        <ele>365.79998779297</ele>
        <time>2016-06-01T13:56:56Z</time>
      </trkpt>
      <trkpt lat="43.3752" lon="6.14079">
        <ele>366.60000610352</ele>
        <time>2016-06-01T13:57:12Z</time>
      </trkpt>
      <trkpt lat="43.37519" lon="6.14082">
        <ele>366.60000610352</ele>
        <time>2016-06-01T13:57:26Z</time>
      </trkpt>
      <trkpt lat="43.37516" lon="6.14099">
        <ele>367</ele>
        <time>2016-06-01T13:57:34Z</time>
      </trkpt>
      <trkpt lat="43.37514" lon="6.14103">
        <ele>367.39999389648</ele>
        <time>2016-06-01T13:57:36Z</time>
      </trkpt>
      <trkpt lat="43.37507" lon="6.14111">
        <ele>367.60000610352</ele>
        <time>2016-06-01T13:57:41Z</time>
      </trkpt>
      <trkpt lat="43.37503" lon="6.14117">
        <ele>368.39999389648</ele>
        <time>2016-06-01T13:57:44Z</time>
      </trkpt>
      <trkpt lat="43.37497" lon="6.14126">
        <ele>368.60000610352</ele>
        <time>2016-06-01T13:57:47Z</time>
      </trkpt>
      <trkpt lat="43.37491" lon="6.14133">
        <ele>369.60000610352</ele>
        <time>2016-06-01T13:57:51Z</time>
      </trkpt>
      <trkpt lat="43.37489" lon="6.14137">
        <ele>370</ele>
        <time>2016-06-01T13:57:54Z</time>
      </trkpt>
      <trkpt lat="43.37487" lon="6.14141">
        <ele>370.39999389648</ele>
        <time>2016-06-01T13:57:56Z</time>
      </trkpt>
      <trkpt lat="43.37485" lon="6.14145">
        <ele>370.60000610352</ele>
        <time>2016-06-01T13:57:57Z</time>
      </trkpt>
      <trkpt lat="43.37482" lon="6.14147">
        <ele>371.20001220703</ele>
        <time>2016-06-01T13:58:00Z</time>
      </trkpt>
      <trkpt lat="43.37479" lon="6.14149">
        <ele>371.39999389648</ele>
        <time>2016-06-01T13:58:02Z</time>
      </trkpt>
      <trkpt lat="43.37469" lon="6.14151">
        <ele>372</ele>
        <time>2016-06-01T13:58:05Z</time>
      </trkpt>
      <trkpt lat="43.37469" lon="6.14151">
        <ele>372.60000610352</ele>
        <time>2016-06-01T13:58:06Z</time>
      </trkpt>
      <trkpt lat="43.37461" lon="6.14153">
        <ele>373.39999389648</ele>
        <time>2016-06-01T13:58:10Z</time>
      </trkpt>
      <trkpt lat="43.37457" lon="6.14156">
        <ele>373.39999389648</ele>
        <time>2016-06-01T13:58:11Z</time>
      </trkpt>
      <trkpt lat="43.37457" lon="6.14156">
        <ele>373.60000610352</ele>
        <time>2016-06-01T13:58:12Z</time>
      </trkpt>
      <trkpt lat="43.37449" lon="6.14162">
        <ele>374.60000610352</ele>
        <time>2016-06-01T13:58:17Z</time>
      </trkpt>
      <trkpt lat="43.37449" lon="6.14162">
        <ele>374.60000610352</ele>
        <time>2016-06-01T13:58:18Z</time>
      </trkpt>
      <trkpt lat="43.37447" lon="6.14163">
        <ele>374.79998779297</ele>
        <time>2016-06-01T13:58:19Z</time>
      </trkpt>
      <trkpt lat="43.37443" lon="6.14164">
        <ele>375.39999389648</ele>
        <time>2016-06-01T13:58:22Z</time>
      </trkpt>
      <trkpt lat="43.3744" lon="6.14164">
        <ele>375.60000610352</ele>
        <time>2016-06-01T13:58:24Z</time>
      </trkpt>
      <trkpt lat="43.37434" lon="6.14167">
        <ele>376.39999389648</ele>
        <time>2016-06-01T13:58:28Z</time>
      </trkpt>
      <trkpt lat="43.37432" lon="6.14169">
        <ele>377</ele>
        <time>2016-06-01T13:58:30Z</time>
      </trkpt>
      <trkpt lat="43.3743" lon="6.1417">
        <ele>377.60000610352</ele>
        <time>2016-06-01T13:58:32Z</time>
      </trkpt>
      <trkpt lat="43.37428" lon="6.1417">
        <ele>377.79998779297</ele>
        <time>2016-06-01T13:58:34Z</time>
      </trkpt>
      <trkpt lat="43.37428" lon="6.1417">
        <ele>378</ele>
        <time>2016-06-01T13:58:39Z</time>
      </trkpt>
      <trkpt lat="43.37428" lon="6.1417">
        <ele>378</ele>
        <time>2016-06-01T13:58:40Z</time>
      </trkpt>
      <trkpt lat="43.37428" lon="6.1417">
        <ele>378.20001220703</ele>
        <time>2016-06-01T13:58:41Z</time>
      </trkpt>
      <trkpt lat="43.37428" lon="6.1417">
        <ele>378.20001220703</ele>
        <time>2016-06-01T13:58:43Z</time>
      </trkpt>
      <trkpt lat="43.37428" lon="6.14171">
        <ele>378.20001220703</ele>
        <time>2016-06-01T13:58:49Z</time>
      </trkpt>
      <trkpt lat="43.37428" lon="6.14171">
        <ele>378.20001220703</ele>
        <time>2016-06-01T13:58:56Z</time>
      </trkpt>
      <trkpt lat="43.37428" lon="6.14171">
        <ele>378.20001220703</ele>
        <time>2016-06-01T13:59:01Z</time>
      </trkpt>
      <trkpt lat="43.37428" lon="6.14172">
        <ele>378.39999389648</ele>
        <time>2016-06-01T13:59:07Z</time>
      </trkpt>
      <trkpt lat="43.37428" lon="6.14173">
        <ele>378.20001220703</ele>
        <time>2016-06-01T13:59:09Z</time>
      </trkpt>
      <trkpt lat="43.37428" lon="6.14173">
        <ele>378.20001220703</ele>
        <time>2016-06-01T13:59:11Z</time>
      </trkpt>
      <trkpt lat="43.37428" lon="6.14173">
        <ele>378.39999389648</ele>
        <time>2016-06-01T13:59:16Z</time>
      </trkpt>
      <trkpt lat="43.37428" lon="6.14173">
        <ele>378.20001220703</ele>
        <time>2016-06-01T13:59:21Z</time>
      </trkpt>
      <trkpt lat="43.37428" lon="6.14173">
        <ele>378.20001220703</ele>
        <time>2016-06-01T13:59:29Z</time>
      </trkpt>
      <trkpt lat="43.37427" lon="6.14173">
        <ele>378.20001220703</ele>
        <time>2016-06-01T13:59:31Z</time>
      </trkpt>
      <trkpt lat="43.37427" lon="6.14173">
        <ele>378.20001220703</ele>
        <time>2016-06-01T13:59:32Z</time>
      </trkpt>
      <trkpt lat="43.37426" lon="6.14174">
        <ele>378.39999389648</ele>
        <time>2016-06-01T13:59:33Z</time>
      </trkpt>
      <trkpt lat="43.37426" lon="6.14175">
        <ele>378.60000610352</ele>
        <time>2016-06-01T13:59:35Z</time>
      </trkpt>
      <trkpt lat="43.37426" lon="6.14175">
        <ele>378.79998779297</ele>
        <time>2016-06-01T13:59:37Z</time>
      </trkpt>
      <trkpt lat="43.37425" lon="6.14176">
        <ele>378.79998779297</ele>
        <time>2016-06-01T13:59:39Z</time>
      </trkpt>
      <trkpt lat="43.37423" lon="6.14177">
        <ele>379</ele>
        <time>2016-06-01T13:59:45Z</time>
      </trkpt>
      <trkpt lat="43.3742" lon="6.14177">
        <ele>379</ele>
        <time>2016-06-01T13:59:47Z</time>
      </trkpt>
      <trkpt lat="43.37417" lon="6.14178">
        <ele>379.39999389648</ele>
        <time>2016-06-01T13:59:50Z</time>
      </trkpt>
      <trkpt lat="43.37415" lon="6.1418">
        <ele>379.60000610352</ele>
        <time>2016-06-01T13:59:51Z</time>
      </trkpt>
      <trkpt lat="43.37411" lon="6.14183">
        <ele>381</ele>
        <time>2016-06-01T13:59:56Z</time>
      </trkpt>
      <trkpt lat="43.3741" lon="6.14184">
        <ele>381.20001220703</ele>
        <time>2016-06-01T14:00:00Z</time>
      </trkpt>
      <trkpt lat="43.37409" lon="6.14185">
        <ele>381.39999389648</ele>
        <time>2016-06-01T14:00:08Z</time>
      </trkpt>
      <trkpt lat="43.37408" lon="6.14186">
        <ele>381.60000610352</ele>
        <time>2016-06-01T14:00:10Z</time>
      </trkpt>
      <trkpt lat="43.37407" lon="6.14187">
        <ele>381.79998779297</ele>
        <time>2016-06-01T14:00:12Z</time>
      </trkpt>
      <trkpt lat="43.37406" lon="6.14187">
        <ele>382</ele>
        <time>2016-06-01T14:00:14Z</time>
      </trkpt>
      <trkpt lat="43.37405" lon="6.14188">
        <ele>382.20001220703</ele>
        <time>2016-06-01T14:00:16Z</time>
      </trkpt>
      <trkpt lat="43.37405" lon="6.14188">
        <ele>382</ele>
        <time>2016-06-01T14:00:28Z</time>
      </trkpt>
      <trkpt lat="43.37405" lon="6.14188">
        <ele>382</ele>
        <time>2016-06-01T14:00:33Z</time>
      </trkpt>
      <trkpt lat="43.37401" lon="6.14187">
        <ele>382</ele>
        <time>2016-06-01T14:00:35Z</time>
      </trkpt>
      <trkpt lat="43.37397" lon="6.14187">
        <ele>382.20001220703</ele>
        <time>2016-06-01T14:00:37Z</time>
      </trkpt>
      <trkpt lat="43.37388" lon="6.14186">
        <ele>382.79998779297</ele>
        <time>2016-06-01T14:00:41Z</time>
      </trkpt>
      <trkpt lat="43.37381" lon="6.1419">
        <ele>383.20001220703</ele>
        <time>2016-06-01T14:00:46Z</time>
      </trkpt>
      <trkpt lat="43.37377" lon="6.14194">
        <ele>383.39999389648</ele>
        <time>2016-06-01T14:00:47Z</time>
      </trkpt>
      <trkpt lat="43.37377" lon="6.14194">
        <ele>383.39999389648</ele>
        <time>2016-06-01T14:00:48Z</time>
      </trkpt>
      <trkpt lat="43.37373" lon="6.14204">
        <ele>384.20001220703</ele>
        <time>2016-06-01T14:00:52Z</time>
      </trkpt>
      <trkpt lat="43.37371" lon="6.14209">
        <ele>384.79998779297</ele>
        <time>2016-06-01T14:00:54Z</time>
      </trkpt>
      <trkpt lat="43.3737" lon="6.14212">
        <ele>385.20001220703</ele>
        <time>2016-06-01T14:00:55Z</time>
      </trkpt>
      <trkpt lat="43.37364" lon="6.14222">
        <ele>385.60000610352</ele>
        <time>2016-06-01T14:01:00Z</time>
      </trkpt>
      <trkpt lat="43.37362" lon="6.14225">
        <ele>385.39999389648</ele>
        <time>2016-06-01T14:01:05Z</time>
      </trkpt>
      <trkpt lat="43.37362" lon="6.14226">
        <ele>385.39999389648</ele>
        <time>2016-06-01T14:01:07Z</time>
      </trkpt>
      <trkpt lat="43.37362" lon="6.14226">
        <ele>385.39999389648</ele>
        <time>2016-06-01T14:01:11Z</time>
      </trkpt>
      <trkpt lat="43.37362" lon="6.14226">
        <ele>385.60000610352</ele>
        <time>2016-06-01T14:01:17Z</time>
      </trkpt>
      <trkpt lat="43.37362" lon="6.14226">
        <ele>385.79998779297</ele>
        <time>2016-06-01T14:01:23Z</time>
      </trkpt>
      <trkpt lat="43.37362" lon="6.14226">
        <ele>385.39999389648</ele>
        <time>2016-06-01T14:01:53Z</time>
      </trkpt>
      <trkpt lat="43.37361" lon="6.14226">
        <ele>385.79998779297</ele>
        <time>2016-06-01T14:02:43Z</time>
      </trkpt>
      <trkpt lat="43.37361" lon="6.14226">
        <ele>386.20001220703</ele>
        <time>2016-06-01T14:03:04Z</time>
      </trkpt>
      <trkpt lat="43.37361" lon="6.14226">
        <ele>386.20001220703</ele>
        <time>2016-06-01T14:03:06Z</time>
      </trkpt>
      <trkpt lat="43.37361" lon="6.14226">
        <ele>385.60000610352</ele>
        <time>2016-06-01T14:03:13Z</time>
      </trkpt>
      <trkpt lat="43.37361" lon="6.14227">
        <ele>385.60000610352</ele>
        <time>2016-06-01T14:03:31Z</time>
      </trkpt>
      <trkpt lat="43.37361" lon="6.14227">
        <ele>385.60000610352</ele>
        <time>2016-06-01T14:03:33Z</time>
      </trkpt>
      <trkpt lat="43.37359" lon="6.1423">
        <ele>385.39999389648</ele>
        <time>2016-06-01T14:03:36Z</time>
      </trkpt>
      <trkpt lat="43.37357" lon="6.14232">
        <ele>385.60000610352</ele>
        <time>2016-06-01T14:03:37Z</time>
      </trkpt>
      <trkpt lat="43.37347" lon="6.14243">
        <ele>385.60000610352</ele>
        <time>2016-06-01T14:03:45Z</time>
      </trkpt>
      <trkpt lat="43.37344" lon="6.14247">
        <ele>385.20001220703</ele>
        <time>2016-06-01T14:03:47Z</time>
      </trkpt>
      <trkpt lat="43.37344" lon="6.14247">
        <ele>385</ele>
        <time>2016-06-01T14:03:48Z</time>
      </trkpt>
      <trkpt lat="43.37336" lon="6.14254">
        <ele>384.20001220703</ele>
        <time>2016-06-01T14:03:51Z</time>
      </trkpt>
      <trkpt lat="43.3733" lon="6.14261">
        <ele>383.79998779297</ele>
        <time>2016-06-01T14:03:53Z</time>
      </trkpt>
      <trkpt lat="43.37325" lon="6.14268">
        <ele>383</ele>
        <time>2016-06-01T14:03:55Z</time>
      </trkpt>
      <trkpt lat="43.3732" lon="6.14273">
        <ele>382.20001220703</ele>
        <time>2016-06-01T14:03:57Z</time>
      </trkpt>
      <trkpt lat="43.37314" lon="6.14277">
        <ele>380.60000610352</ele>
        <time>2016-06-01T14:03:59Z</time>
      </trkpt>
      <trkpt lat="43.37314" lon="6.14277">
        <ele>380</ele>
        <time>2016-06-01T14:04:00Z</time>
      </trkpt>
      <trkpt lat="43.37305" lon="6.14281">
        <ele>379.60000610352</ele>
        <time>2016-06-01T14:04:01Z</time>
      </trkpt>
      <trkpt lat="43.37305" lon="6.14281">
        <ele>378.79998779297</ele>
        <time>2016-06-01T14:04:02Z</time>
      </trkpt>
      <trkpt lat="43.37296" lon="6.14284">
        <ele>377.39999389648</ele>
        <time>2016-06-01T14:04:04Z</time>
      </trkpt>
      <trkpt lat="43.3729" lon="6.14289">
        <ele>375.79998779297</ele>
        <time>2016-06-01T14:04:06Z</time>
      </trkpt>
      <trkpt lat="43.37285" lon="6.14294">
        <ele>374.79998779297</ele>
        <time>2016-06-01T14:04:08Z</time>
      </trkpt>
      <trkpt lat="43.37279" lon="6.143">
        <ele>374.39999389648</ele>
        <time>2016-06-01T14:04:09Z</time>
      </trkpt>
      <trkpt lat="43.37271" lon="6.14305">
        <ele>373.60000610352</ele>
        <time>2016-06-01T14:04:11Z</time>
      </trkpt>
      <trkpt lat="43.37264" lon="6.14309">
        <ele>372.39999389648</ele>
        <time>2016-06-01T14:04:13Z</time>
      </trkpt>
      <trkpt lat="43.37259" lon="6.14308">
        <ele>372</ele>
        <time>2016-06-01T14:04:15Z</time>
      </trkpt>
      <trkpt lat="43.37246" lon="6.14304">
        <ele>371.39999389648</ele>
        <time>2016-06-01T14:04:19Z</time>
      </trkpt>
      <trkpt lat="43.37246" lon="6.14304">
        <ele>371.20001220703</ele>
        <time>2016-06-01T14:04:20Z</time>
      </trkpt>
      <trkpt lat="43.37226" lon="6.14314">
        <ele>370.39999389648</ele>
        <time>2016-06-01T14:04:25Z</time>
      </trkpt>
      <trkpt lat="43.37219" lon="6.14318">
        <ele>369.39999389648</ele>
        <time>2016-06-01T14:04:27Z</time>
      </trkpt>
      <trkpt lat="43.37213" lon="6.14323">
        <ele>368</ele>
        <time>2016-06-01T14:04:29Z</time>
      </trkpt>
      <trkpt lat="43.37207" lon="6.14327">
        <ele>368</ele>
        <time>2016-06-01T14:04:31Z</time>
      </trkpt>
      <trkpt lat="43.37195" lon="6.14336">
        <ele>366.79998779297</ele>
        <time>2016-06-01T14:04:36Z</time>
      </trkpt>
      <trkpt lat="43.37185" lon="6.14358">
        <ele>365.79998779297</ele>
        <time>2016-06-01T14:04:41Z</time>
      </trkpt>
      <trkpt lat="43.3718" lon="6.14362">
        <ele>366.20001220703</ele>
        <time>2016-06-01T14:04:43Z</time>
      </trkpt>
      <trkpt lat="43.37177" lon="6.14361">
        <ele>366.39999389648</ele>
        <time>2016-06-01T14:04:45Z</time>
      </trkpt>
      <trkpt lat="43.37177" lon="6.14361">
        <ele>366.39999389648</ele>
        <time>2016-06-01T14:04:46Z</time>
      </trkpt>
      <trkpt lat="43.37175" lon="6.14362">
        <ele>365.79998779297</ele>
        <time>2016-06-01T14:04:52Z</time>
      </trkpt>
      <trkpt lat="43.37175" lon="6.14362">
        <ele>365.60000610352</ele>
        <time>2016-06-01T14:04:53Z</time>
      </trkpt>
      <trkpt lat="43.37175" lon="6.14362">
        <ele>365.79998779297</ele>
        <time>2016-06-01T14:05:05Z</time>
      </trkpt>
      <trkpt lat="43.37175" lon="6.14362">
        <ele>365.60000610352</ele>
        <time>2016-06-01T14:05:07Z</time>
      </trkpt>
      <trkpt lat="43.37175" lon="6.14363">
        <ele>365.60000610352</ele>
        <time>2016-06-01T14:05:11Z</time>
      </trkpt>
      <trkpt lat="43.37174" lon="6.14363">
        <ele>365.79998779297</ele>
        <time>2016-06-01T14:05:19Z</time>
      </trkpt>
      <trkpt lat="43.37171" lon="6.14362">
        <ele>365.79998779297</ele>
        <time>2016-06-01T14:05:21Z</time>
      </trkpt>
      <trkpt lat="43.3716" lon="6.1436">
        <ele>366.20001220703</ele>
        <time>2016-06-01T14:05:26Z</time>
      </trkpt>
      <trkpt lat="43.37153" lon="6.14361">
        <ele>366.20001220703</ele>
        <time>2016-06-01T14:05:27Z</time>
      </trkpt>
      <trkpt lat="43.37136" lon="6.14362">
        <ele>366</ele>
        <time>2016-06-01T14:05:31Z</time>
      </trkpt>
      <trkpt lat="43.37128" lon="6.14361">
        <ele>366.20001220703</ele>
        <time>2016-06-01T14:05:34Z</time>
      </trkpt>
      <trkpt lat="43.37107" lon="6.1435">
        <ele>365.79998779297</ele>
        <time>2016-06-01T14:05:39Z</time>
      </trkpt>
      <trkpt lat="43.37099" lon="6.14345">
        <ele>365.20001220703</ele>
        <time>2016-06-01T14:05:41Z</time>
      </trkpt>
      <trkpt lat="43.37093" lon="6.14335">
        <ele>365.20001220703</ele>
        <time>2016-06-01T14:05:43Z</time>
      </trkpt>
      <trkpt lat="43.37093" lon="6.14335">
        <ele>365.20001220703</ele>
        <time>2016-06-01T14:05:44Z</time>
      </trkpt>
      <trkpt lat="43.37089" lon="6.14321">
        <ele>365.20001220703</ele>
        <time>2016-06-01T14:05:45Z</time>
      </trkpt>
      <trkpt lat="43.37086" lon="6.14307">
        <ele>364.39999389648</ele>
        <time>2016-06-01T14:05:48Z</time>
      </trkpt>
      <trkpt lat="43.37082" lon="6.14292">
        <ele>364</ele>
        <time>2016-06-01T14:05:49Z</time>
      </trkpt>
      <trkpt lat="43.37077" lon="6.14278">
        <ele>363.20001220703</ele>
        <time>2016-06-01T14:05:52Z</time>
      </trkpt>
      <trkpt lat="43.37074" lon="6.14264">
        <ele>363</ele>
        <time>2016-06-01T14:05:53Z</time>
      </trkpt>
      <trkpt lat="43.3707" lon="6.14237">
        <ele>362.20001220703</ele>
        <time>2016-06-01T14:05:57Z</time>
      </trkpt>
      <trkpt lat="43.37069" lon="6.14222">
        <ele>361.79998779297</ele>
        <time>2016-06-01T14:05:59Z</time>
      </trkpt>
      <trkpt lat="43.37064" lon="6.14208">
        <ele>362.20001220703</ele>
        <time>2016-06-01T14:06:01Z</time>
      </trkpt>
      <trkpt lat="43.37058" lon="6.14196">
        <ele>362.20001220703</ele>
        <time>2016-06-01T14:06:03Z</time>
      </trkpt>
      <trkpt lat="43.37058" lon="6.14196">
        <ele>362</ele>
        <time>2016-06-01T14:06:04Z</time>
      </trkpt>
      <trkpt lat="43.37038" lon="6.14162">
        <ele>361.79998779297</ele>
        <time>2016-06-01T14:06:09Z</time>
      </trkpt>
      <trkpt lat="43.37038" lon="6.14162">
        <ele>361.39999389648</ele>
        <time>2016-06-01T14:06:10Z</time>
      </trkpt>
      <trkpt lat="43.37032" lon="6.14147">
        <ele>361</ele>
        <time>2016-06-01T14:06:11Z</time>
      </trkpt>
      <trkpt lat="43.37024" lon="6.14132">
        <ele>359.79998779297</ele>
        <time>2016-06-01T14:06:13Z</time>
      </trkpt>
      <trkpt lat="43.37014" lon="6.14119">
        <ele>359.20001220703</ele>
        <time>2016-06-01T14:06:15Z</time>
      </trkpt>
      <trkpt lat="43.37003" lon="6.14106">
        <ele>359</ele>
        <time>2016-06-01T14:06:17Z</time>
      </trkpt>
      <trkpt lat="43.36991" lon="6.14097">
        <ele>358.60000610352</ele>
        <time>2016-06-01T14:06:19Z</time>
      </trkpt>
      <trkpt lat="43.36991" lon="6.14097">
        <ele>358.20001220703</ele>
        <time>2016-06-01T14:06:20Z</time>
      </trkpt>
      <trkpt lat="43.3698" lon="6.14095">
        <ele>357.79998779297</ele>
        <time>2016-06-01T14:06:21Z</time>
      </trkpt>
      <trkpt lat="43.36969" lon="6.14097">
        <ele>357.79998779297</ele>
        <time>2016-06-01T14:06:23Z</time>
      </trkpt>
      <trkpt lat="43.36959" lon="6.14101">
        <ele>357.79998779297</ele>
        <time>2016-06-01T14:06:25Z</time>
      </trkpt>
      <trkpt lat="43.36953" lon="6.14106">
        <ele>358.39999389648</ele>
        <time>2016-06-01T14:06:28Z</time>
      </trkpt>
      <trkpt lat="43.36943" lon="6.14111">
        <ele>359</ele>
        <time>2016-06-01T14:06:30Z</time>
      </trkpt>
      <trkpt lat="43.3694" lon="6.14112">
        <ele>359.20001220703</ele>
        <time>2016-06-01T14:06:31Z</time>
      </trkpt>
      <trkpt lat="43.3694" lon="6.14112">
        <ele>359.60000610352</ele>
        <time>2016-06-01T14:06:32Z</time>
      </trkpt>
      <trkpt lat="43.36926" lon="6.14107">
        <ele>360.20001220703</ele>
        <time>2016-06-01T14:06:35Z</time>
      </trkpt>
      <trkpt lat="43.3692" lon="6.14106">
        <ele>360.60000610352</ele>
        <time>2016-06-01T14:06:37Z</time>
      </trkpt>
      <trkpt lat="43.36914" lon="6.14109">
        <ele>361</ele>
        <time>2016-06-01T14:06:39Z</time>
      </trkpt>
      <trkpt lat="43.36905" lon="6.14115">
        <ele>360.79998779297</ele>
        <time>2016-06-01T14:06:42Z</time>
      </trkpt>
      <trkpt lat="43.36899" lon="6.14117">
        <ele>360.20001220703</ele>
        <time>2016-06-01T14:06:45Z</time>
      </trkpt>
      <trkpt lat="43.36899" lon="6.14118">
        <ele>359.60000610352</ele>
        <time>2016-06-01T14:06:49Z</time>
      </trkpt>
      <trkpt lat="43.36899" lon="6.14118">
        <ele>359.39999389648</ele>
        <time>2016-06-01T14:06:52Z</time>
      </trkpt>
      <trkpt lat="43.369" lon="6.14118">
        <ele>359.39999389648</ele>
        <time>2016-06-01T14:06:57Z</time>
      </trkpt>
      <trkpt lat="43.369" lon="6.14118">
        <ele>359.60000610352</ele>
        <time>2016-06-01T14:07:18Z</time>
      </trkpt>
      <trkpt lat="43.369" lon="6.14118">
        <ele>359.60000610352</ele>
        <time>2016-06-01T14:07:24Z</time>
      </trkpt>
      <trkpt lat="43.36898" lon="6.14118">
        <ele>359.79998779297</ele>
        <time>2016-06-01T14:07:32Z</time>
      </trkpt>
      <trkpt lat="43.36893" lon="6.14115">
        <ele>359.60000610352</ele>
        <time>2016-06-01T14:07:33Z</time>
      </trkpt>
      <trkpt lat="43.36887" lon="6.14106">
        <ele>358.79998779297</ele>
        <time>2016-06-01T14:07:35Z</time>
      </trkpt>
      <trkpt lat="43.36884" lon="6.14094">
        <ele>358.20001220703</ele>
        <time>2016-06-01T14:07:37Z</time>
      </trkpt>
      <trkpt lat="43.36877" lon="6.1407">
        <ele>357</ele>
        <time>2016-06-01T14:07:41Z</time>
      </trkpt>
      <trkpt lat="43.36877" lon="6.1407">
        <ele>356.20001220703</ele>
        <time>2016-06-01T14:07:42Z</time>
      </trkpt>
      <trkpt lat="43.36876" lon="6.14058">
        <ele>355.60000610352</ele>
        <time>2016-06-01T14:07:43Z</time>
      </trkpt>
      <trkpt lat="43.36872" lon="6.14047">
        <ele>354.39999389648</ele>
        <time>2016-06-01T14:07:45Z</time>
      </trkpt>
      <trkpt lat="43.36869" lon="6.14035">
        <ele>353.79998779297</ele>
        <time>2016-06-01T14:07:47Z</time>
      </trkpt>
      <trkpt lat="43.36868" lon="6.14028">
        <ele>353.39999389648</ele>
        <time>2016-06-01T14:07:48Z</time>
      </trkpt>
      <trkpt lat="43.36867" lon="6.14022">
        <ele>353.20001220703</ele>
        <time>2016-06-01T14:07:49Z</time>
      </trkpt>
      <trkpt lat="43.36866" lon="6.14006">
        <ele>352</ele>
        <time>2016-06-01T14:07:51Z</time>
      </trkpt>
      <trkpt lat="43.36864" lon="6.13991">
        <ele>350.60000610352</ele>
        <time>2016-06-01T14:07:53Z</time>
      </trkpt>
      <trkpt lat="43.36859" lon="6.1398">
        <ele>349.20001220703</ele>
        <time>2016-06-01T14:07:56Z</time>
      </trkpt>
      <trkpt lat="43.36851" lon="6.13973">
        <ele>348</ele>
        <time>2016-06-01T14:07:58Z</time>
      </trkpt>
      <trkpt lat="43.36844" lon="6.13964">
        <ele>348</ele>
        <time>2016-06-01T14:07:59Z</time>
      </trkpt>
      <trkpt lat="43.36837" lon="6.13957">
        <ele>347.60000610352</ele>
        <time>2016-06-01T14:08:02Z</time>
      </trkpt>
      <trkpt lat="43.3683" lon="6.13958">
        <ele>347.60000610352</ele>
        <time>2016-06-01T14:08:03Z</time>
      </trkpt>
      <trkpt lat="43.3683" lon="6.13958">
        <ele>347.60000610352</ele>
        <time>2016-06-01T14:08:04Z</time>
      </trkpt>
      <trkpt lat="43.36827" lon="6.13964">
        <ele>347.60000610352</ele>
        <time>2016-06-01T14:08:05Z</time>
      </trkpt>
      <trkpt lat="43.36827" lon="6.13971">
        <ele>348.20001220703</ele>
        <time>2016-06-01T14:08:07Z</time>
      </trkpt>
      <trkpt lat="43.36824" lon="6.13975">
        <ele>348.79998779297</ele>
        <time>2016-06-01T14:08:09Z</time>
      </trkpt>
      <trkpt lat="43.3682" lon="6.13977">
        <ele>349</ele>
        <time>2016-06-01T14:08:11Z</time>
      </trkpt>
      <trkpt lat="43.36818" lon="6.13978">
        <ele>349.39999389648</ele>
        <time>2016-06-01T14:08:12Z</time>
      </trkpt>
      <trkpt lat="43.36815" lon="6.13978">
        <ele>350</ele>
        <time>2016-06-01T14:08:14Z</time>
      </trkpt>
      <trkpt lat="43.3681" lon="6.13981">
        <ele>350.39999389648</ele>
        <time>2016-06-01T14:08:15Z</time>
      </trkpt>
      <trkpt lat="43.36798" lon="6.13987">
        <ele>351.20001220703</ele>
        <time>2016-06-01T14:08:19Z</time>
      </trkpt>
      <trkpt lat="43.36789" lon="6.13992">
        <ele>351.39999389648</ele>
        <time>2016-06-01T14:08:23Z</time>
      </trkpt>
      <trkpt lat="43.36781" lon="6.13999">
        <ele>351.60000610352</ele>
        <time>2016-06-01T14:08:28Z</time>
      </trkpt>
      <trkpt lat="43.36777" lon="6.14005">
        <ele>352.60000610352</ele>
        <time>2016-06-01T14:08:30Z</time>
      </trkpt>
      <trkpt lat="43.36775" lon="6.14007">
        <ele>353.20001220703</ele>
        <time>2016-06-01T14:08:32Z</time>
      </trkpt>
      <trkpt lat="43.36769" lon="6.14012">
        <ele>353.60000610352</ele>
        <time>2016-06-01T14:08:35Z</time>
      </trkpt>
      <trkpt lat="43.36766" lon="6.14013">
        <ele>354.39999389648</ele>
        <time>2016-06-01T14:08:38Z</time>
      </trkpt>
      <trkpt lat="43.36763" lon="6.14013">
        <ele>354.60000610352</ele>
        <time>2016-06-01T14:08:39Z</time>
      </trkpt>
      <trkpt lat="43.36763" lon="6.14013">
        <ele>354.79998779297</ele>
        <time>2016-06-01T14:08:40Z</time>
      </trkpt>
      <trkpt lat="43.36751" lon="6.14012">
        <ele>355.20001220703</ele>
        <time>2016-06-01T14:08:46Z</time>
      </trkpt>
      <trkpt lat="43.36737" lon="6.14005">
        <ele>355.39999389648</ele>
        <time>2016-06-01T14:08:52Z</time>
      </trkpt>
      <trkpt lat="43.36732" lon="6.14002">
        <ele>355.39999389648</ele>
        <time>2016-06-01T14:08:53Z</time>
      </trkpt>
      <trkpt lat="43.36723" lon="6.14001">
        <ele>355.79998779297</ele>
        <time>2016-06-01T14:08:57Z</time>
      </trkpt>
      <trkpt lat="43.36719" lon="6.14001">
        <ele>356</ele>
        <time>2016-06-01T14:08:59Z</time>
      </trkpt>
      <trkpt lat="43.36709" lon="6.14008">
        <ele>356.20001220703</ele>
        <time>2016-06-01T14:09:03Z</time>
      </trkpt>
      <trkpt lat="43.36709" lon="6.14008">
        <ele>355.79998779297</ele>
        <time>2016-06-01T14:09:04Z</time>
      </trkpt>
      <trkpt lat="43.36698" lon="6.14027">
        <ele>355.60000610352</ele>
        <time>2016-06-01T14:09:09Z</time>
      </trkpt>
      <trkpt lat="43.36684" lon="6.14042">
        <ele>355.39999389648</ele>
        <time>2016-06-01T14:09:15Z</time>
      </trkpt>
      <trkpt lat="43.36684" lon="6.14042">
        <ele>355.20001220703</ele>
        <time>2016-06-01T14:09:16Z</time>
      </trkpt>
      <trkpt lat="43.36674" lon="6.14063">
        <ele>355.20001220703</ele>
        <time>2016-06-01T14:09:22Z</time>
      </trkpt>
      <trkpt lat="43.36671" lon="6.14071">
        <ele>355.20001220703</ele>
        <time>2016-06-01T14:09:23Z</time>
      </trkpt>
      <trkpt lat="43.36666" lon="6.14093">
        <ele>355.60000610352</ele>
        <time>2016-06-01T14:09:29Z</time>
      </trkpt>
      <trkpt lat="43.36665" lon="6.14107">
        <ele>356.60000610352</ele>
        <time>2016-06-01T14:09:34Z</time>
      </trkpt>
      <trkpt lat="43.36665" lon="6.1412">
        <ele>357</ele>
        <time>2016-06-01T14:09:38Z</time>
      </trkpt>
      <trkpt lat="43.36667" lon="6.14135">
        <ele>357.60000610352</ele>
        <time>2016-06-01T14:09:44Z</time>
      </trkpt>
      <trkpt lat="43.36667" lon="6.1414">
        <ele>357.60000610352</ele>
        <time>2016-06-01T14:09:45Z</time>
      </trkpt>
      <trkpt lat="43.3667" lon="6.14151">
        <ele>358.39999389648</ele>
        <time>2016-06-01T14:09:50Z</time>
      </trkpt>
      <trkpt lat="43.36671" lon="6.14154">
        <ele>358.79998779297</ele>
        <time>2016-06-01T14:09:52Z</time>
      </trkpt>
      <trkpt lat="43.36671" lon="6.14157">
        <ele>359.39999389648</ele>
        <time>2016-06-01T14:09:58Z</time>
      </trkpt>
      <trkpt lat="43.36672" lon="6.14161">
        <ele>359.20001220703</ele>
        <time>2016-06-01T14:10:04Z</time>
      </trkpt>
      <trkpt lat="43.36674" lon="6.14173">
        <ele>360</ele>
        <time>2016-06-01T14:10:09Z</time>
      </trkpt>
      <trkpt lat="43.36677" lon="6.14186">
        <ele>360.60000610352</ele>
        <time>2016-06-01T14:10:16Z</time>
      </trkpt>
      <trkpt lat="43.36679" lon="6.14191">
        <ele>360.79998779297</ele>
        <time>2016-06-01T14:10:19Z</time>
      </trkpt>
      <trkpt lat="43.36679" lon="6.14191">
        <ele>361</ele>
        <time>2016-06-01T14:10:20Z</time>
      </trkpt>
      <trkpt lat="43.36679" lon="6.14195">
        <ele>361.20001220703</ele>
        <time>2016-06-01T14:10:22Z</time>
      </trkpt>
      <trkpt lat="43.3668" lon="6.142">
        <ele>362</ele>
        <time>2016-06-01T14:10:27Z</time>
      </trkpt>
      <trkpt lat="43.3668" lon="6.142">
        <ele>361.79998779297</ele>
        <time>2016-06-01T14:10:29Z</time>
      </trkpt>
      <trkpt lat="43.3668" lon="6.142">
        <ele>361.79998779297</ele>
        <time>2016-06-01T14:10:32Z</time>
      </trkpt>
      <trkpt lat="43.3668" lon="6.142">
        <ele>362</ele>
        <time>2016-06-01T14:10:37Z</time>
      </trkpt>
      <trkpt lat="43.3668" lon="6.142">
        <ele>362</ele>
        <time>2016-06-01T14:10:45Z</time>
      </trkpt>
      <trkpt lat="43.3668" lon="6.142">
        <ele>361.79998779297</ele>
        <time>2016-06-01T14:10:48Z</time>
      </trkpt>
      <trkpt lat="43.3668" lon="6.142">
        <ele>361.79998779297</ele>
        <time>2016-06-01T14:10:51Z</time>
      </trkpt>
      <trkpt lat="43.3668" lon="6.142">
        <ele>361.79998779297</ele>
        <time>2016-06-01T14:10:56Z</time>
      </trkpt>
      <trkpt lat="43.3668" lon="6.142">
        <ele>362.20001220703</ele>
        <time>2016-06-01T14:11:03Z</time>
      </trkpt>
      <trkpt lat="43.36678" lon="6.14198">
        <ele>362</ele>
        <time>2016-06-01T14:11:11Z</time>
      </trkpt>
      <trkpt lat="43.36678" lon="6.14196">
        <ele>361.79998779297</ele>
        <time>2016-06-01T14:11:12Z</time>
      </trkpt>
      <trkpt lat="43.36674" lon="6.14177">
        <ele>361.20001220703</ele>
        <time>2016-06-01T14:11:18Z</time>
      </trkpt>
      <trkpt lat="43.36671" lon="6.14168">
        <ele>360.39999389648</ele>
        <time>2016-06-01T14:11:21Z</time>
      </trkpt>
      <trkpt lat="43.3667" lon="6.1416">
        <ele>359.79998779297</ele>
        <time>2016-06-01T14:11:24Z</time>
      </trkpt>
      <trkpt lat="43.36668" lon="6.14155">
        <ele>359.39999389648</ele>
        <time>2016-06-01T14:11:27Z</time>
      </trkpt>
      <trkpt lat="43.36667" lon="6.14154">
        <ele>359</ele>
        <time>2016-06-01T14:11:29Z</time>
      </trkpt>
      <trkpt lat="43.36667" lon="6.14155">
        <ele>359</ele>
        <time>2016-06-01T14:11:32Z</time>
      </trkpt>
      <trkpt lat="43.36668" lon="6.14156">
        <ele>358.79998779297</ele>
        <time>2016-06-01T14:11:35Z</time>
      </trkpt>
      <trkpt lat="43.36668" lon="6.14159">
        <ele>359</ele>
        <time>2016-06-01T14:11:37Z</time>
      </trkpt>
      <trkpt lat="43.36669" lon="6.14164">
        <ele>359</ele>
        <time>2016-06-01T14:11:39Z</time>
      </trkpt>
      <trkpt lat="43.36671" lon="6.14172">
        <ele>359.60000610352</ele>
        <time>2016-06-01T14:11:42Z</time>
      </trkpt>
      <trkpt lat="43.36674" lon="6.14182">
        <ele>359.79998779297</ele>
        <time>2016-06-01T14:11:45Z</time>
      </trkpt>
      <trkpt lat="43.36678" lon="6.14194">
        <ele>360.39999389648</ele>
        <time>2016-06-01T14:11:49Z</time>
      </trkpt>
      <trkpt lat="43.36679" lon="6.14201">
        <ele>361.20001220703</ele>
        <time>2016-06-01T14:11:52Z</time>
      </trkpt>
      <trkpt lat="43.36679" lon="6.14207">
        <ele>361.39999389648</ele>
        <time>2016-06-01T14:11:53Z</time>
      </trkpt>
      <trkpt lat="43.36681" lon="6.14232">
        <ele>362.20001220703</ele>
        <time>2016-06-01T14:12:00Z</time>
      </trkpt>
      <trkpt lat="43.36682" lon="6.14235">
        <ele>362.20001220703</ele>
        <time>2016-06-01T14:12:01Z</time>
      </trkpt>
      <trkpt lat="43.36683" lon="6.14248">
        <ele>362.60000610352</ele>
        <time>2016-06-01T14:12:06Z</time>
      </trkpt>
      <trkpt lat="43.36683" lon="6.1425">
        <ele>362.79998779297</ele>
        <time>2016-06-01T14:12:08Z</time>
      </trkpt>
      <trkpt lat="43.36683" lon="6.14252">
        <ele>362.79998779297</ele>
        <time>2016-06-01T14:12:12Z</time>
      </trkpt>
      <trkpt lat="43.36683" lon="6.14257">
        <ele>362.79998779297</ele>
        <time>2016-06-01T14:12:19Z</time>
      </trkpt>
      <trkpt lat="43.36681" lon="6.14274">
        <ele>363.39999389648</ele>
        <time>2016-06-01T14:12:26Z</time>
      </trkpt>
      <trkpt lat="43.36681" lon="6.14278">
        <ele>363.60000610352</ele>
        <time>2016-06-01T14:12:28Z</time>
      </trkpt>
      <trkpt lat="43.36679" lon="6.14294">
        <ele>364.39999389648</ele>
        <time>2016-06-01T14:12:33Z</time>
      </trkpt>
      <trkpt lat="43.36679" lon="6.14294">
        <ele>364.79998779297</ele>
        <time>2016-06-01T14:12:34Z</time>
      </trkpt>
      <trkpt lat="43.36678" lon="6.14304">
        <ele>365.20001220703</ele>
        <time>2016-06-01T14:12:37Z</time>
      </trkpt>
      <trkpt lat="43.36673" lon="6.14329">
        <ele>365.39999389648</ele>
        <time>2016-06-01T14:12:46Z</time>
      </trkpt>
      <trkpt lat="43.36666" lon="6.14345">
        <ele>365.79998779297</ele>
        <time>2016-06-01T14:12:51Z</time>
      </trkpt>
      <trkpt lat="43.3666" lon="6.14355">
        <ele>366</ele>
        <time>2016-06-01T14:12:55Z</time>
      </trkpt>
      <trkpt lat="43.36654" lon="6.14368">
        <ele>366.60000610352</ele>
        <time>2016-06-01T14:13:02Z</time>
      </trkpt>
      <trkpt lat="43.36651" lon="6.14372">
        <ele>366.79998779297</ele>
        <time>2016-06-01T14:13:04Z</time>
      </trkpt>
      <trkpt lat="43.36637" lon="6.14387">
        <ele>367</ele>
        <time>2016-06-01T14:13:12Z</time>
      </trkpt>
      <trkpt lat="43.36632" lon="6.14392">
        <ele>367.79998779297</ele>
        <time>2016-06-01T14:13:15Z</time>
      </trkpt>
      <trkpt lat="43.36621" lon="6.14408">
        <ele>368.79998779297</ele>
        <time>2016-06-01T14:13:24Z</time>
      </trkpt>
      <trkpt lat="43.3661" lon="6.14428">
        <ele>369.60000610352</ele>
        <time>2016-06-01T14:13:35Z</time>
      </trkpt>
      <trkpt lat="43.36606" lon="6.14443">
        <ele>370.39999389648</ele>
        <time>2016-06-01T14:13:43Z</time>
      </trkpt>
      <trkpt lat="43.36605" lon="6.14446">
        <ele>370.60000610352</ele>
        <time>2016-06-01T14:13:45Z</time>
      </trkpt>
      <trkpt lat="43.36605" lon="6.1445">
        <ele>371.20001220703</ele>
        <time>2016-06-01T14:13:50Z</time>
      </trkpt>
      <trkpt lat="43.36604" lon="6.14451">
        <ele>371.39999389648</ele>
        <time>2016-06-01T14:13:51Z</time>
      </trkpt>
      <trkpt lat="43.36604" lon="6.14452">
        <ele>371.60000610352</ele>
        <time>2016-06-01T14:14:03Z</time>
      </trkpt>
      <trkpt lat="43.36604" lon="6.14452">
        <ele>371.60000610352</ele>
        <time>2016-06-01T14:14:07Z</time>
      </trkpt>
      <trkpt lat="43.36604" lon="6.14452">
        <ele>371.39999389648</ele>
        <time>2016-06-01T14:14:30Z</time>
      </trkpt>
      <trkpt lat="43.36604" lon="6.14452">
        <ele>371.60000610352</ele>
        <time>2016-06-01T14:14:39Z</time>
      </trkpt>
      <trkpt lat="43.36604" lon="6.14452">
        <ele>371.60000610352</ele>
        <time>2016-06-01T14:14:40Z</time>
      </trkpt>
      <trkpt lat="43.36604" lon="6.14452">
        <ele>371.60000610352</ele>
        <time>2016-06-01T14:14:54Z</time>
      </trkpt>
      <trkpt lat="43.36602" lon="6.14455">
        <ele>371.79998779297</ele>
        <time>2016-06-01T14:14:59Z</time>
      </trkpt>
      <trkpt lat="43.36599" lon="6.14457">
        <ele>371.60000610352</ele>
        <time>2016-06-01T14:15:01Z</time>
      </trkpt>
      <trkpt lat="43.36594" lon="6.14458">
        <ele>371.60000610352</ele>
        <time>2016-06-01T14:15:04Z</time>
      </trkpt>
      <trkpt lat="43.36589" lon="6.14454">
        <ele>371.39999389648</ele>
        <time>2016-06-01T14:15:05Z</time>
      </trkpt>
      <trkpt lat="43.36586" lon="6.14442">
        <ele>371.20001220703</ele>
        <time>2016-06-01T14:15:09Z</time>
      </trkpt>
      <trkpt lat="43.36585" lon="6.14429">
        <ele>371.60000610352</ele>
        <time>2016-06-01T14:15:13Z</time>
      </trkpt>
      <trkpt lat="43.36584" lon="6.14422">
        <ele>371.60000610352</ele>
        <time>2016-06-01T14:15:15Z</time>
      </trkpt>
      <trkpt lat="43.36584" lon="6.14416">
        <ele>371.79998779297</ele>
        <time>2016-06-01T14:15:17Z</time>
      </trkpt>
      <trkpt lat="43.36584" lon="6.14407">
        <ele>372.60000610352</ele>
        <time>2016-06-01T14:15:20Z</time>
      </trkpt>
      <trkpt lat="43.36584" lon="6.14405">
        <ele>373.20001220703</ele>
        <time>2016-06-01T14:15:22Z</time>
      </trkpt>
      <trkpt lat="43.36582" lon="6.144">
        <ele>373.20001220703</ele>
        <time>2016-06-01T14:15:23Z</time>
      </trkpt>
      <trkpt lat="43.36578" lon="6.14396">
        <ele>374</ele>
        <time>2016-06-01T14:15:25Z</time>
      </trkpt>
      <trkpt lat="43.36575" lon="6.14393">
        <ele>374.60000610352</ele>
        <time>2016-06-01T14:15:27Z</time>
      </trkpt>
      <trkpt lat="43.36572" lon="6.14391">
        <ele>374.79998779297</ele>
        <time>2016-06-01T14:15:29Z</time>
      </trkpt>
      <trkpt lat="43.36568" lon="6.14389">
        <ele>375.39999389648</ele>
        <time>2016-06-01T14:15:32Z</time>
      </trkpt>
      <trkpt lat="43.36565" lon="6.14387">
        <ele>376</ele>
        <time>2016-06-01T14:15:34Z</time>
      </trkpt>
      <trkpt lat="43.3656" lon="6.14384">
        <ele>376.79998779297</ele>
        <time>2016-06-01T14:15:36Z</time>
      </trkpt>
      <trkpt lat="43.36558" lon="6.14382">
        <ele>377.20001220703</ele>
        <time>2016-06-01T14:15:38Z</time>
      </trkpt>
      <trkpt lat="43.36555" lon="6.14382">
        <ele>377.60000610352</ele>
        <time>2016-06-01T14:15:39Z</time>
      </trkpt>
      <trkpt lat="43.36551" lon="6.14382">
        <ele>378.60000610352</ele>
        <time>2016-06-01T14:15:41Z</time>
      </trkpt>
      <trkpt lat="43.36549" lon="6.14381">
        <ele>378.79998779297</ele>
        <time>2016-06-01T14:15:42Z</time>
      </trkpt>
      <trkpt lat="43.36544" lon="6.14381">
        <ele>379.39999389648</ele>
        <time>2016-06-01T14:15:45Z</time>
      </trkpt>
      <trkpt lat="43.36544" lon="6.14381">
        <ele>379.79998779297</ele>
        <time>2016-06-01T14:15:46Z</time>
      </trkpt>
      <trkpt lat="43.36539" lon="6.14377">
        <ele>380.60000610352</ele>
        <time>2016-06-01T14:15:49Z</time>
      </trkpt>
      <trkpt lat="43.36539" lon="6.14377">
        <ele>380.79998779297</ele>
        <time>2016-06-01T14:15:50Z</time>
      </trkpt>
      <trkpt lat="43.36536" lon="6.14376">
        <ele>381</ele>
        <time>2016-06-01T14:15:51Z</time>
      </trkpt>
      <trkpt lat="43.36532" lon="6.14374">
        <ele>382</ele>
        <time>2016-06-01T14:15:55Z</time>
      </trkpt>
      <trkpt lat="43.36531" lon="6.14373">
        <ele>382.20001220703</ele>
        <time>2016-06-01T14:15:57Z</time>
      </trkpt>
      <trkpt lat="43.36531" lon="6.14373">
        <ele>382.39999389648</ele>
        <time>2016-06-01T14:15:59Z</time>
      </trkpt>
      <trkpt lat="43.3653" lon="6.14373">
        <ele>382.79998779297</ele>
        <time>2016-06-01T14:16:03Z</time>
      </trkpt>
      <trkpt lat="43.3653" lon="6.14374">
        <ele>382.79998779297</ele>
        <time>2016-06-01T14:16:19Z</time>
      </trkpt>
      <trkpt lat="43.3653" lon="6.14373">
        <ele>383</ele>
        <time>2016-06-01T14:16:25Z</time>
      </trkpt>
      <trkpt lat="43.3653" lon="6.14373">
        <ele>382.79998779297</ele>
        <time>2016-06-01T14:16:31Z</time>
      </trkpt>
      <trkpt lat="43.3653" lon="6.14373">
        <ele>382.79998779297</ele>
        <time>2016-06-01T14:16:34Z</time>
      </trkpt>
      <trkpt lat="43.36531" lon="6.14373">
        <ele>382.60000610352</ele>
        <time>2016-06-01T14:16:38Z</time>
      </trkpt>
      <trkpt lat="43.36531" lon="6.14373">
        <ele>382.60000610352</ele>
        <time>2016-06-01T14:16:40Z</time>
      </trkpt>
      <trkpt lat="43.3653" lon="6.14373">
        <ele>382.79998779297</ele>
        <time>2016-06-01T14:16:42Z</time>
      </trkpt>
      <trkpt lat="43.3653" lon="6.14373">
        <ele>382.79998779297</ele>
        <time>2016-06-01T14:16:46Z</time>
      </trkpt>
      <trkpt lat="43.36531" lon="6.14373">
        <ele>382.79998779297</ele>
        <time>2016-06-01T14:16:50Z</time>
      </trkpt>
      <trkpt lat="43.3653" lon="6.14373">
        <ele>382.60000610352</ele>
        <time>2016-06-01T14:16:52Z</time>
      </trkpt>
      <trkpt lat="43.3653" lon="6.14374">
        <ele>382.39999389648</ele>
        <time>2016-06-01T14:16:56Z</time>
      </trkpt>
      <trkpt lat="43.3653" lon="6.14374">
        <ele>382.79998779297</ele>
        <time>2016-06-01T14:17:07Z</time>
      </trkpt>
      <trkpt lat="43.3653" lon="6.14374">
        <ele>382.79998779297</ele>
        <time>2016-06-01T14:17:10Z</time>
      </trkpt>
      <trkpt lat="43.3653" lon="6.14374">
        <ele>382.79998779297</ele>
        <time>2016-06-01T14:17:12Z</time>
      </trkpt>
      <trkpt lat="43.3653" lon="6.14374">
        <ele>382.79998779297</ele>
        <time>2016-06-01T14:17:25Z</time>
      </trkpt>
      <trkpt lat="43.3653" lon="6.14374">
        <ele>383.39999389648</ele>
        <time>2016-06-01T14:17:37Z</time>
      </trkpt>
      <trkpt lat="43.36531" lon="6.14374">
        <ele>383</ele>
        <time>2016-06-01T14:17:53Z</time>
      </trkpt>
      <trkpt lat="43.36531" lon="6.14374">
        <ele>382.79998779297</ele>
        <time>2016-06-01T14:18:06Z</time>
      </trkpt>
      <trkpt lat="43.36531" lon="6.14374">
        <ele>382.79998779297</ele>
        <time>2016-06-01T14:18:08Z</time>
      </trkpt>
      <trkpt lat="43.3653" lon="6.14372">
        <ele>383.20001220703</ele>
        <time>2016-06-01T14:18:11Z</time>
      </trkpt>
      <trkpt lat="43.3653" lon="6.14371">
        <ele>383.20001220703</ele>
        <time>2016-06-01T14:18:12Z</time>
      </trkpt>
      <trkpt lat="43.36529" lon="6.14369">
        <ele>383.20001220703</ele>
        <time>2016-06-01T14:18:14Z</time>
      </trkpt>
      <trkpt lat="43.36523" lon="6.14349">
        <ele>382.79998779297</ele>
        <time>2016-06-01T14:18:19Z</time>
      </trkpt>
      <trkpt lat="43.36525" lon="6.14323">
        <ele>382</ele>
        <time>2016-06-01T14:18:25Z</time>
      </trkpt>
      <trkpt lat="43.36526" lon="6.14315">
        <ele>382.39999389648</ele>
        <time>2016-06-01T14:18:28Z</time>
      </trkpt>
      <trkpt lat="43.36528" lon="6.1431">
        <ele>382.60000610352</ele>
        <time>2016-06-01T14:18:30Z</time>
      </trkpt>
      <trkpt lat="43.36531" lon="6.14296">
        <ele>383</ele>
        <time>2016-06-01T14:18:35Z</time>
      </trkpt>
      <trkpt lat="43.36538" lon="6.14268">
        <ele>382.20001220703</ele>
        <time>2016-06-01T14:18:42Z</time>
      </trkpt>
      <trkpt lat="43.36538" lon="6.14264">
        <ele>382</ele>
        <time>2016-06-01T14:18:43Z</time>
      </trkpt>
      <trkpt lat="43.36542" lon="6.14237">
        <ele>381.39999389648</ele>
        <time>2016-06-01T14:18:50Z</time>
      </trkpt>
      <trkpt lat="43.36543" lon="6.14226">
        <ele>381.20001220703</ele>
        <time>2016-06-01T14:18:52Z</time>
      </trkpt>
      <trkpt lat="43.36545" lon="6.14216">
        <ele>380.79998779297</ele>
        <time>2016-06-01T14:18:53Z</time>
      </trkpt>
      <trkpt lat="43.36546" lon="6.14197">
        <ele>379.79998779297</ele>
        <time>2016-06-01T14:18:57Z</time>
      </trkpt>
      <trkpt lat="43.36546" lon="6.14197">
        <ele>379.60000610352</ele>
        <time>2016-06-01T14:18:58Z</time>
      </trkpt>
      <trkpt lat="43.36544" lon="6.1418">
        <ele>378.79998779297</ele>
        <time>2016-06-01T14:19:02Z</time>
      </trkpt>
      <trkpt lat="43.36543" lon="6.14171">
        <ele>378.39999389648</ele>
        <time>2016-06-01T14:19:03Z</time>
      </trkpt>
      <trkpt lat="43.36539" lon="6.14148">
        <ele>377.60000610352</ele>
        <time>2016-06-01T14:19:10Z</time>
      </trkpt>
      <trkpt lat="43.36538" lon="6.1414">
        <ele>377.20001220703</ele>
        <time>2016-06-01T14:19:11Z</time>
      </trkpt>
      <trkpt lat="43.36533" lon="6.14118">
        <ele>376.20001220703</ele>
        <time>2016-06-01T14:19:17Z</time>
      </trkpt>
      <trkpt lat="43.36531" lon="6.14112">
        <ele>375.79998779297</ele>
        <time>2016-06-01T14:19:19Z</time>
      </trkpt>
      <trkpt lat="43.36528" lon="6.14097">
        <ele>375</ele>
        <time>2016-06-01T14:19:23Z</time>
      </trkpt>
      <trkpt lat="43.36527" lon="6.14091">
        <ele>374.20001220703</ele>
        <time>2016-06-01T14:19:25Z</time>
      </trkpt>
      <trkpt lat="43.36527" lon="6.14086">
        <ele>373.60000610352</ele>
        <time>2016-06-01T14:19:27Z</time>
      </trkpt>
      <trkpt lat="43.36526" lon="6.14073">
        <ele>372.79998779297</ele>
        <time>2016-06-01T14:19:31Z</time>
      </trkpt>
      <trkpt lat="43.36528" lon="6.14041">
        <ele>372</ele>
        <time>2016-06-01T14:19:39Z</time>
      </trkpt>
      <trkpt lat="43.36531" lon="6.14018">
        <ele>371.60000610352</ele>
        <time>2016-06-01T14:19:44Z</time>
      </trkpt>
      <trkpt lat="43.36532" lon="6.14008">
        <ele>371.60000610352</ele>
        <time>2016-06-01T14:19:45Z</time>
      </trkpt>
      <trkpt lat="43.36532" lon="6.14008">
        <ele>371.39999389648</ele>
        <time>2016-06-01T14:19:46Z</time>
      </trkpt>
      <trkpt lat="43.36533" lon="6.1399">
        <ele>371.39999389648</ele>
        <time>2016-06-01T14:19:48Z</time>
      </trkpt>
      <trkpt lat="43.3653" lon="6.13971">
        <ele>371.39999389648</ele>
        <time>2016-06-01T14:19:51Z</time>
      </trkpt>
      <trkpt lat="43.36528" lon="6.13944">
        <ele>370.20001220703</ele>
        <time>2016-06-01T14:19:56Z</time>
      </trkpt>
      <trkpt lat="43.36528" lon="6.1393">
        <ele>369.79998779297</ele>
        <time>2016-06-01T14:19:57Z</time>
      </trkpt>
      <trkpt lat="43.36529" lon="6.13915">
        <ele>369.20001220703</ele>
        <time>2016-06-01T14:19:59Z</time>
      </trkpt>
      <trkpt lat="43.36531" lon="6.139">
        <ele>368.20001220703</ele>
        <time>2016-06-01T14:20:02Z</time>
      </trkpt>
      <trkpt lat="43.36533" lon="6.13884">
        <ele>368</ele>
        <time>2016-06-01T14:20:04Z</time>
      </trkpt>
      <trkpt lat="43.36536" lon="6.13859">
        <ele>367.79998779297</ele>
        <time>2016-06-01T14:20:06Z</time>
      </trkpt>
      <trkpt lat="43.36538" lon="6.13832">
        <ele>367.39999389648</ele>
        <time>2016-06-01T14:20:09Z</time>
      </trkpt>
      <trkpt lat="43.36538" lon="6.13832">
        <ele>367</ele>
        <time>2016-06-01T14:20:10Z</time>
      </trkpt>
      <trkpt lat="43.36543" lon="6.13796">
        <ele>365.60000610352</ele>
        <time>2016-06-01T14:20:13Z</time>
      </trkpt>
      <trkpt lat="43.36546" lon="6.13778">
        <ele>364.79998779297</ele>
        <time>2016-06-01T14:20:16Z</time>
      </trkpt>
      <trkpt lat="43.36549" lon="6.13757">
        <ele>364.79998779297</ele>
        <time>2016-06-01T14:20:17Z</time>
      </trkpt>
      <trkpt lat="43.3655" lon="6.13747">
        <ele>364.20001220703</ele>
        <time>2016-06-01T14:20:18Z</time>
      </trkpt>
      <trkpt lat="43.36551" lon="6.13737">
        <ele>362.20001220703</ele>
        <time>2016-06-01T14:20:20Z</time>
      </trkpt>
      <trkpt lat="43.36555" lon="6.13716">
        <ele>361</ele>
        <time>2016-06-01T14:20:22Z</time>
      </trkpt>
      <trkpt lat="43.36561" lon="6.13673">
        <ele>359.79998779297</ele>
        <time>2016-06-01T14:20:26Z</time>
      </trkpt>
      <trkpt lat="43.36565" lon="6.1365">
        <ele>359.20001220703</ele>
        <time>2016-06-01T14:20:28Z</time>
      </trkpt>
      <trkpt lat="43.36572" lon="6.13614">
        <ele>357.60000610352</ele>
        <time>2016-06-01T14:20:30Z</time>
      </trkpt>
      <trkpt lat="43.36575" lon="6.13603">
        <ele>356.20001220703</ele>
        <time>2016-06-01T14:20:31Z</time>
      </trkpt>
      <trkpt lat="43.36582" lon="6.13582">
        <ele>355.20001220703</ele>
        <time>2016-06-01T14:20:33Z</time>
      </trkpt>
      <trkpt lat="43.36582" lon="6.13582">
        <ele>354.79998779297</ele>
        <time>2016-06-01T14:20:34Z</time>
      </trkpt>
      <trkpt lat="43.36594" lon="6.13535">
        <ele>353.39999389648</ele>
        <time>2016-06-01T14:20:37Z</time>
      </trkpt>
      <trkpt lat="43.36594" lon="6.13535">
        <ele>352.79998779297</ele>
        <time>2016-06-01T14:20:38Z</time>
      </trkpt>
      <trkpt lat="43.36603" lon="6.13486">
        <ele>351.60000610352</ele>
        <time>2016-06-01T14:20:41Z</time>
      </trkpt>
      <trkpt lat="43.36605" lon="6.13474">
        <ele>351.39999389648</ele>
        <time>2016-06-01T14:20:42Z</time>
      </trkpt>
      <trkpt lat="43.36607" lon="6.13463">
        <ele>351</ele>
        <time>2016-06-01T14:20:43Z</time>
      </trkpt>
      <trkpt lat="43.3662" lon="6.1342">
        <ele>349.60000610352</ele>
        <time>2016-06-01T14:20:47Z</time>
      </trkpt>
      <trkpt lat="43.36625" lon="6.13399">
        <ele>349</ele>
        <time>2016-06-01T14:20:49Z</time>
      </trkpt>
      <trkpt lat="43.36631" lon="6.13379">
        <ele>348.20001220703</ele>
        <time>2016-06-01T14:20:51Z</time>
      </trkpt>
      <trkpt lat="43.36639" lon="6.13347">
        <ele>347.20001220703</ele>
        <time>2016-06-01T14:20:54Z</time>
      </trkpt>
      <trkpt lat="43.36644" lon="6.13324">
        <ele>346.60000610352</ele>
        <time>2016-06-01T14:20:56Z</time>
      </trkpt>
      <trkpt lat="43.36647" lon="6.13313">
        <ele>346</ele>
        <time>2016-06-01T14:20:58Z</time>
      </trkpt>
      <trkpt lat="43.36655" lon="6.13266">
        <ele>345.39999389648</ele>
        <time>2016-06-01T14:21:01Z</time>
      </trkpt>
      <trkpt lat="43.36657" lon="6.13243">
        <ele>344.79998779297</ele>
        <time>2016-06-01T14:21:03Z</time>
      </trkpt>
      <trkpt lat="43.36657" lon="6.13243">
        <ele>344.39999389648</ele>
        <time>2016-06-01T14:21:04Z</time>
      </trkpt>
      <trkpt lat="43.3666" lon="6.13209">
        <ele>343.60000610352</ele>
        <time>2016-06-01T14:21:06Z</time>
      </trkpt>
      <trkpt lat="43.36661" lon="6.13198">
        <ele>342.79998779297</ele>
        <time>2016-06-01T14:21:07Z</time>
      </trkpt>
      <trkpt lat="43.36663" lon="6.13181">
        <ele>341.79998779297</ele>
        <time>2016-06-01T14:21:09Z</time>
      </trkpt>
      <trkpt lat="43.36663" lon="6.13181">
        <ele>341.20001220703</ele>
        <time>2016-06-01T14:21:10Z</time>
      </trkpt>
      <trkpt lat="43.36667" lon="6.13159">
        <ele>340.60000610352</ele>
        <time>2016-06-01T14:21:12Z</time>
      </trkpt>
      <trkpt lat="43.3667" lon="6.13154">
        <ele>339.39999389648</ele>
        <time>2016-06-01T14:21:14Z</time>
      </trkpt>
      <trkpt lat="43.36678" lon="6.13148">
        <ele>339</ele>
        <time>2016-06-01T14:21:15Z</time>
      </trkpt>
      <trkpt lat="43.36688" lon="6.13144">
        <ele>338.39999389648</ele>
        <time>2016-06-01T14:21:17Z</time>
      </trkpt>
      <trkpt lat="43.36698" lon="6.13133">
        <ele>337.20001220703</ele>
        <time>2016-06-01T14:21:20Z</time>
      </trkpt>
      <trkpt lat="43.36705" lon="6.13117">
        <ele>336.20001220703</ele>
        <time>2016-06-01T14:21:21Z</time>
      </trkpt>
      <trkpt lat="43.36711" lon="6.13096">
        <ele>334.39999389648</ele>
        <time>2016-06-01T14:21:23Z</time>
      </trkpt>
      <trkpt lat="43.36721" lon="6.13065">
        <ele>333</ele>
        <time>2016-06-01T14:21:26Z</time>
      </trkpt>
      <trkpt lat="43.36726" lon="6.13056">
        <ele>333</ele>
        <time>2016-06-01T14:21:27Z</time>
      </trkpt>
      <trkpt lat="43.36736" lon="6.13038">
        <ele>331.79998779297</ele>
        <time>2016-06-01T14:21:29Z</time>
      </trkpt>
      <trkpt lat="43.36757" lon="6.13">
        <ele>330.79998779297</ele>
        <time>2016-06-01T14:21:34Z</time>
      </trkpt>
      <trkpt lat="43.36786" lon="6.12968">
        <ele>328.60000610352</ele>
        <time>2016-06-01T14:21:37Z</time>
      </trkpt>
      <trkpt lat="43.36786" lon="6.12968">
        <ele>327.79998779297</ele>
        <time>2016-06-01T14:21:38Z</time>
      </trkpt>
      <trkpt lat="43.36815" lon="6.12935">
        <ele>326.39999389648</ele>
        <time>2016-06-01T14:21:41Z</time>
      </trkpt>
      <trkpt lat="43.36822" lon="6.12927">
        <ele>326.20001220703</ele>
        <time>2016-06-01T14:21:42Z</time>
      </trkpt>
      <trkpt lat="43.36837" lon="6.12912">
        <ele>325.60000610352</ele>
        <time>2016-06-01T14:21:44Z</time>
      </trkpt>
      <trkpt lat="43.36845" lon="6.12905">
        <ele>325</ele>
        <time>2016-06-01T14:21:45Z</time>
      </trkpt>
      <trkpt lat="43.3686" lon="6.1289">
        <ele>323</ele>
        <time>2016-06-01T14:21:47Z</time>
      </trkpt>
      <trkpt lat="43.36876" lon="6.12876">
        <ele>321.60000610352</ele>
        <time>2016-06-01T14:21:49Z</time>
      </trkpt>
      <trkpt lat="43.36884" lon="6.12869">
        <ele>321.20001220703</ele>
        <time>2016-06-01T14:21:50Z</time>
      </trkpt>
      <trkpt lat="43.36891" lon="6.12862">
        <ele>320.20001220703</ele>
        <time>2016-06-01T14:21:52Z</time>
      </trkpt>
      <trkpt lat="43.36903" lon="6.1285">
        <ele>319.39999389648</ele>
        <time>2016-06-01T14:21:53Z</time>
      </trkpt>
      <trkpt lat="43.36908" lon="6.12843">
        <ele>319</ele>
        <time>2016-06-01T14:21:54Z</time>
      </trkpt>
      <trkpt lat="43.36921" lon="6.12818">
        <ele>317.39999389648</ele>
        <time>2016-06-01T14:21:57Z</time>
      </trkpt>
      <trkpt lat="43.36934" lon="6.12793">
        <ele>316.20001220703</ele>
        <time>2016-06-01T14:22:00Z</time>
      </trkpt>
      <trkpt lat="43.36937" lon="6.12786">
        <ele>316</ele>
        <time>2016-06-01T14:22:01Z</time>
      </trkpt>
      <trkpt lat="43.3694" lon="6.12777">
        <ele>315.60000610352</ele>
        <time>2016-06-01T14:22:03Z</time>
      </trkpt>
      <trkpt lat="43.3694" lon="6.12771">
        <ele>315</ele>
        <time>2016-06-01T14:22:05Z</time>
      </trkpt>
      <trkpt lat="43.3694" lon="6.1277">
        <ele>314.39999389648</ele>
        <time>2016-06-01T14:22:08Z</time>
      </trkpt>
      <trkpt lat="43.3694" lon="6.1277">
        <ele>314.20001220703</ele>
        <time>2016-06-01T14:22:14Z</time>
      </trkpt>
      <trkpt lat="43.3694" lon="6.1277">
        <ele>314.20001220703</ele>
        <time>2016-06-01T14:22:22Z</time>
      </trkpt>
      <trkpt lat="43.3694" lon="6.1277">
        <ele>314</ele>
        <time>2016-06-01T14:22:38Z</time>
      </trkpt>
      <trkpt lat="43.3694" lon="6.1277">
        <ele>314.20001220703</ele>
        <time>2016-06-01T14:22:43Z</time>
      </trkpt>
      <trkpt lat="43.3694" lon="6.1277">
        <ele>314.20001220703</ele>
        <time>2016-06-01T14:23:04Z</time>
      </trkpt>
      <trkpt lat="43.3694" lon="6.12771">
        <ele>314.20001220703</ele>
        <time>2016-06-01T14:23:15Z</time>
      </trkpt>
      <trkpt lat="43.36939" lon="6.12775">
        <ele>314.39999389648</ele>
        <time>2016-06-01T14:23:22Z</time>
      </trkpt>
      <trkpt lat="43.36938" lon="6.12778">
        <ele>314.20001220703</ele>
        <time>2016-06-01T14:23:23Z</time>
      </trkpt>
      <trkpt lat="43.36935" lon="6.12786">
        <ele>314.20001220703</ele>
        <time>2016-06-01T14:23:27Z</time>
      </trkpt>
      <trkpt lat="43.36932" lon="6.12792">
        <ele>314.20001220703</ele>
        <time>2016-06-01T14:23:31Z</time>
      </trkpt>
      <trkpt lat="43.36926" lon="6.12807">
        <ele>315</ele>
        <time>2016-06-01T14:23:37Z</time>
      </trkpt>
      <trkpt lat="43.36922" lon="6.12813">
        <ele>315.20001220703</ele>
        <time>2016-06-01T14:23:39Z</time>
      </trkpt>
      <trkpt lat="43.36913" lon="6.12833">
        <ele>316</ele>
        <time>2016-06-01T14:23:46Z</time>
      </trkpt>
      <trkpt lat="43.36909" lon="6.1284">
        <ele>316.20001220703</ele>
        <time>2016-06-01T14:23:47Z</time>
      </trkpt>
      <trkpt lat="43.36906" lon="6.12846">
        <ele>316.79998779297</ele>
        <time>2016-06-01T14:23:50Z</time>
      </trkpt>
      <trkpt lat="43.36898" lon="6.12854">
        <ele>317.20001220703</ele>
        <time>2016-06-01T14:23:53Z</time>
      </trkpt>
      <trkpt lat="43.36891" lon="6.1286">
        <ele>317.60000610352</ele>
        <time>2016-06-01T14:23:56Z</time>
      </trkpt>
      <trkpt lat="43.36882" lon="6.12868">
        <ele>318.39999389648</ele>
        <time>2016-06-01T14:24:00Z</time>
      </trkpt>
      <trkpt lat="43.36876" lon="6.12874">
        <ele>318.60000610352</ele>
        <time>2016-06-01T14:24:03Z</time>
      </trkpt>
      <trkpt lat="43.36869" lon="6.12879">
        <ele>319.20001220703</ele>
        <time>2016-06-01T14:24:06Z</time>
      </trkpt>
      <trkpt lat="43.36867" lon="6.1288">
        <ele>319.39999389648</ele>
        <time>2016-06-01T14:24:08Z</time>
      </trkpt>
      <trkpt lat="43.36852" lon="6.12896">
        <ele>320.39999389648</ele>
        <time>2016-06-01T14:24:15Z</time>
      </trkpt>
      <trkpt lat="43.3684" lon="6.12905">
        <ele>321.39999389648</ele>
        <time>2016-06-01T14:24:21Z</time>
      </trkpt>
      <trkpt lat="43.3684" lon="6.12905">
        <ele>321.39999389648</ele>
        <time>2016-06-01T14:24:22Z</time>
      </trkpt>
      <trkpt lat="43.36834" lon="6.12909">
        <ele>321.79998779297</ele>
        <time>2016-06-01T14:24:24Z</time>
      </trkpt>
      <trkpt lat="43.36823" lon="6.1292">
        <ele>322.79998779297</ele>
        <time>2016-06-01T14:24:30Z</time>
      </trkpt>
      <trkpt lat="43.36821" lon="6.12922">
        <ele>323</ele>
        <time>2016-06-01T14:24:31Z</time>
      </trkpt>
      <trkpt lat="43.36806" lon="6.12939">
        <ele>323.79998779297</ele>
        <time>2016-06-01T14:24:39Z</time>
      </trkpt>
      <trkpt lat="43.36806" lon="6.12939">
        <ele>324</ele>
        <time>2016-06-01T14:24:40Z</time>
      </trkpt>
      <trkpt lat="43.36787" lon="6.1296">
        <ele>325</ele>
        <time>2016-06-01T14:24:50Z</time>
      </trkpt>
      <trkpt lat="43.36768" lon="6.12982">
        <ele>326</ele>
        <time>2016-06-01T14:24:59Z</time>
      </trkpt>
      <trkpt lat="43.36757" lon="6.12996">
        <ele>327</ele>
        <time>2016-06-01T14:25:06Z</time>
      </trkpt>
      <trkpt lat="43.36753" lon="6.13003">
        <ele>327.60000610352</ele>
        <time>2016-06-01T14:25:09Z</time>
      </trkpt>
      <trkpt lat="43.36749" lon="6.13013">
        <ele>328.39999389648</ele>
        <time>2016-06-01T14:25:13Z</time>
      </trkpt>
      <trkpt lat="43.36745" lon="6.13022">
        <ele>329.39999389648</ele>
        <time>2016-06-01T14:25:18Z</time>
      </trkpt>
      <trkpt lat="43.36736" lon="6.13035">
        <ele>329.79998779297</ele>
        <time>2016-06-01T14:25:24Z</time>
      </trkpt>
      <trkpt lat="43.36732" lon="6.13043">
        <ele>330.20001220703</ele>
        <time>2016-06-01T14:25:28Z</time>
      </trkpt>
      <trkpt lat="43.36727" lon="6.13052">
        <ele>330.60000610352</ele>
        <time>2016-06-01T14:25:31Z</time>
      </trkpt>
      <trkpt lat="43.36716" lon="6.13074">
        <ele>331.20001220703</ele>
        <time>2016-06-01T14:25:39Z</time>
      </trkpt>
      <trkpt lat="43.36716" lon="6.13074">
        <ele>331.20001220703</ele>
        <time>2016-06-01T14:25:40Z</time>
      </trkpt>
      <trkpt lat="43.36712" lon="6.13093">
        <ele>332.20001220703</ele>
        <time>2016-06-01T14:25:45Z</time>
      </trkpt>
      <trkpt lat="43.3671" lon="6.13101">
        <ele>332.39999389648</ele>
        <time>2016-06-01T14:25:48Z</time>
      </trkpt>
      <trkpt lat="43.36703" lon="6.13122">
        <ele>333.20001220703</ele>
        <time>2016-06-01T14:25:57Z</time>
      </trkpt>
      <trkpt lat="43.36703" lon="6.13122">
        <ele>333.39999389648</ele>
        <time>2016-06-01T14:25:58Z</time>
      </trkpt>
      <trkpt lat="43.36696" lon="6.13134">
        <ele>334.60000610352</ele>
        <time>2016-06-01T14:26:04Z</time>
      </trkpt>
      <trkpt lat="43.36693" lon="6.13137">
        <ele>334.79998779297</ele>
        <time>2016-06-01T14:26:05Z</time>
      </trkpt>
      <trkpt lat="43.36686" lon="6.13141">
        <ele>335.60000610352</ele>
        <time>2016-06-01T14:26:09Z</time>
      </trkpt>
      <trkpt lat="43.36681" lon="6.13143">
        <ele>336.39999389648</ele>
        <time>2016-06-01T14:26:12Z</time>
      </trkpt>
      <trkpt lat="43.36679" lon="6.13144">
        <ele>336.79998779297</ele>
        <time>2016-06-01T14:26:14Z</time>
      </trkpt>
      <trkpt lat="43.36673" lon="6.13149">
        <ele>337</ele>
        <time>2016-06-01T14:26:17Z</time>
      </trkpt>
      <trkpt lat="43.3667" lon="6.13153">
        <ele>337.20001220703</ele>
        <time>2016-06-01T14:26:19Z</time>
      </trkpt>
      <trkpt lat="43.36666" lon="6.13162">
        <ele>337.79998779297</ele>
        <time>2016-06-01T14:26:23Z</time>
      </trkpt>
      <trkpt lat="43.36665" lon="6.13167">
        <ele>338.60000610352</ele>
        <time>2016-06-01T14:26:26Z</time>
      </trkpt>
      <trkpt lat="43.36664" lon="6.13177">
        <ele>338.79998779297</ele>
        <time>2016-06-01T14:26:29Z</time>
      </trkpt>
      <trkpt lat="43.36662" lon="6.13193">
        <ele>339.79998779297</ele>
        <time>2016-06-01T14:26:35Z</time>
      </trkpt>
      <trkpt lat="43.3666" lon="6.13199">
        <ele>340</ele>
        <time>2016-06-01T14:26:37Z</time>
      </trkpt>
      <trkpt lat="43.36658" lon="6.13212">
        <ele>340.79998779297</ele>
        <time>2016-06-01T14:26:42Z</time>
      </trkpt>
      <trkpt lat="43.36656" lon="6.1323">
        <ele>341.60000610352</ele>
        <time>2016-06-01T14:26:48Z</time>
      </trkpt>
      <trkpt lat="43.36656" lon="6.13238">
        <ele>342</ele>
        <time>2016-06-01T14:26:51Z</time>
      </trkpt>
      <trkpt lat="43.36653" lon="6.13268">
        <ele>343</ele>
        <time>2016-06-01T14:27:01Z</time>
      </trkpt>
      <trkpt lat="43.3665" lon="6.13285">
        <ele>343.60000610352</ele>
        <time>2016-06-01T14:27:07Z</time>
      </trkpt>
      <trkpt lat="43.36646" lon="6.13305">
        <ele>343.79998779297</ele>
        <time>2016-06-01T14:27:13Z</time>
      </trkpt>
      <trkpt lat="43.36645" lon="6.13308">
        <ele>343.79998779297</ele>
        <time>2016-06-01T14:27:14Z</time>
      </trkpt>
      <trkpt lat="43.36642" lon="6.13322">
        <ele>344.79998779297</ele>
        <time>2016-06-01T14:27:20Z</time>
      </trkpt>
      <trkpt lat="43.36641" lon="6.13327">
        <ele>345</ele>
        <time>2016-06-01T14:27:21Z</time>
      </trkpt>
      <trkpt lat="43.36636" lon="6.13348">
        <ele>346.20001220703</ele>
        <time>2016-06-01T14:27:29Z</time>
      </trkpt>
      <trkpt lat="43.36629" lon="6.13369">
        <ele>347.20001220703</ele>
        <time>2016-06-01T14:27:36Z</time>
      </trkpt>
      <trkpt lat="43.36629" lon="6.13372">
        <ele>347.20001220703</ele>
        <time>2016-06-01T14:27:37Z</time>
      </trkpt>
      <trkpt lat="43.36625" lon="6.13388">
        <ele>347</ele>
        <time>2016-06-01T14:27:45Z</time>
      </trkpt>
      <trkpt lat="43.36625" lon="6.13388">
        <ele>347</ele>
        <time>2016-06-01T14:27:46Z</time>
      </trkpt>
      <trkpt lat="43.36625" lon="6.13388">
        <ele>346.79998779297</ele>
        <time>2016-06-01T14:27:50Z</time>
      </trkpt>
      <trkpt lat="43.36625" lon="6.13388">
        <ele>346.79998779297</ele>
        <time>2016-06-01T14:28:00Z</time>
      </trkpt>
      <trkpt lat="43.36625" lon="6.13388">
        <ele>347</ele>
        <time>2016-06-01T14:28:03Z</time>
      </trkpt>
      <trkpt lat="43.36625" lon="6.13388">
        <ele>347</ele>
        <time>2016-06-01T14:28:06Z</time>
      </trkpt>
      <trkpt lat="43.36625" lon="6.13388">
        <ele>347</ele>
        <time>2016-06-01T14:28:13Z</time>
      </trkpt>
      <trkpt lat="43.36625" lon="6.13389">
        <ele>346.39999389648</ele>
        <time>2016-06-01T14:28:28Z</time>
      </trkpt>
      <trkpt lat="43.36625" lon="6.1339">
        <ele>346.60000610352</ele>
        <time>2016-06-01T14:28:39Z</time>
      </trkpt>
      <trkpt lat="43.36625" lon="6.1339">
        <ele>346.20001220703</ele>
        <time>2016-06-01T14:28:50Z</time>
      </trkpt>
      <trkpt lat="43.36625" lon="6.1339">
        <ele>346.39999389648</ele>
        <time>2016-06-01T14:29:08Z</time>
      </trkpt>
      <trkpt lat="43.36625" lon="6.1339">
        <ele>346.60000610352</ele>
        <time>2016-06-01T14:29:22Z</time>
      </trkpt>
      <trkpt lat="43.36625" lon="6.13389">
        <ele>346.39999389648</ele>
        <time>2016-06-01T14:29:27Z</time>
      </trkpt>
      <trkpt lat="43.36625" lon="6.13389">
        <ele>346.20001220703</ele>
        <time>2016-06-01T14:29:32Z</time>
      </trkpt>
      <trkpt lat="43.36625" lon="6.1339">
        <ele>346.20001220703</ele>
        <time>2016-06-01T14:29:39Z</time>
      </trkpt>
      <trkpt lat="43.36625" lon="6.1339">
        <ele>346.20001220703</ele>
        <time>2016-06-01T14:29:44Z</time>
      </trkpt>
      <trkpt lat="43.36625" lon="6.13391">
        <ele>346.39999389648</ele>
        <time>2016-06-01T14:29:53Z</time>
      </trkpt>
      <trkpt lat="43.36625" lon="6.13391">
        <ele>346.39999389648</ele>
        <time>2016-06-01T14:30:03Z</time>
      </trkpt>
      <trkpt lat="43.36625" lon="6.13391">
        <ele>346.20001220703</ele>
        <time>2016-06-01T14:30:12Z</time>
      </trkpt>
      <trkpt lat="43.36625" lon="6.13392">
        <ele>346.39999389648</ele>
        <time>2016-06-01T14:30:20Z</time>
      </trkpt>
      <trkpt lat="43.36625" lon="6.13392">
        <ele>346.60000610352</ele>
        <time>2016-06-01T14:30:32Z</time>
      </trkpt>
      <trkpt lat="43.36625" lon="6.13393">
        <ele>346.60000610352</ele>
        <time>2016-06-01T14:30:44Z</time>
      </trkpt>
      <trkpt lat="43.36625" lon="6.13393">
        <ele>346.60000610352</ele>
        <time>2016-06-01T14:30:51Z</time>
      </trkpt>
      <trkpt lat="43.36625" lon="6.13394">
        <ele>346.60000610352</ele>
        <time>2016-06-01T14:30:59Z</time>
      </trkpt>
      <trkpt lat="43.36625" lon="6.13394">
        <ele>346.60000610352</ele>
        <time>2016-06-01T14:31:04Z</time>
      </trkpt>
      <trkpt lat="43.36625" lon="6.13394">
        <ele>346.60000610352</ele>
        <time>2016-06-01T14:31:16Z</time>
      </trkpt>
      <trkpt lat="43.36625" lon="6.13394">
        <ele>346.79998779297</ele>
        <time>2016-06-01T14:31:25Z</time>
      </trkpt>
      <trkpt lat="43.36625" lon="6.13394">
        <ele>346.79998779297</ele>
        <time>2016-06-01T14:31:33Z</time>
      </trkpt>
      <trkpt lat="43.36625" lon="6.13394">
        <ele>346.79998779297</ele>
        <time>2016-06-01T14:31:42Z</time>
      </trkpt>
      <trkpt lat="43.36625" lon="6.13395">
        <ele>346.60000610352</ele>
        <time>2016-06-01T14:32:10Z</time>
      </trkpt>
      <trkpt lat="43.36625" lon="6.13395">
        <ele>346.79998779297</ele>
        <time>2016-06-01T14:32:16Z</time>
      </trkpt>
      <trkpt lat="43.36625" lon="6.13396">
        <ele>346.39999389648</ele>
        <time>2016-06-01T14:32:31Z</time>
      </trkpt>
      <trkpt lat="43.36625" lon="6.13396">
        <ele>346.79998779297</ele>
        <time>2016-06-01T14:32:40Z</time>
      </trkpt>
      <trkpt lat="43.36625" lon="6.13396">
        <ele>346.60000610352</ele>
        <time>2016-06-01T14:33:22Z</time>
      </trkpt>
      <trkpt lat="43.36625" lon="6.13396">
        <ele>346.79998779297</ele>
        <time>2016-06-01T14:33:38Z</time>
      </trkpt>
      <trkpt lat="43.36624" lon="6.13395">
        <ele>346.60000610352</ele>
        <time>2016-06-01T14:34:01Z</time>
      </trkpt>
      <trkpt lat="43.36624" lon="6.13395">
        <ele>346.39999389648</ele>
        <time>2016-06-01T14:34:42Z</time>
      </trkpt>
      <trkpt lat="43.36624" lon="6.13395">
        <ele>346.60000610352</ele>
        <time>2016-06-01T14:36:22Z</time>
      </trkpt>
      <trkpt lat="43.36623" lon="6.13395">
        <ele>346.79998779297</ele>
        <time>2016-06-01T14:36:31Z</time>
      </trkpt>
      <trkpt lat="43.36623" lon="6.13395">
        <ele>346.39999389648</ele>
        <time>2016-06-01T14:36:48Z</time>
      </trkpt>
      <trkpt lat="43.36623" lon="6.13394">
        <ele>346.39999389648</ele>
        <time>2016-06-01T14:37:44Z</time>
      </trkpt>
      <trkpt lat="43.36623" lon="6.13394">
        <ele>346.39999389648</ele>
        <time>2016-06-01T14:39:07Z</time>
      </trkpt>
      <trkpt lat="43.36623" lon="6.13394">
        <ele>346</ele>
        <time>2016-06-01T14:40:38Z</time>
      </trkpt>
      <trkpt lat="43.36623" lon="6.13394">
        <ele>346</ele>
        <time>2016-06-01T14:40:51Z</time>
      </trkpt>
      <trkpt lat="43.36623" lon="6.13393">
        <ele>346</ele>
        <time>2016-06-01T14:40:54Z</time>
      </trkpt>
      <trkpt lat="43.36625" lon="6.13386">
        <ele>346.79998779297</ele>
        <time>2016-06-01T14:41:00Z</time>
      </trkpt>
      <trkpt lat="43.36627" lon="6.13381">
        <ele>347</ele>
        <time>2016-06-01T14:41:03Z</time>
      </trkpt>
      <trkpt lat="43.36629" lon="6.13371">
        <ele>347</ele>
        <time>2016-06-01T14:41:07Z</time>
      </trkpt>
      <trkpt lat="43.36636" lon="6.13348">
        <ele>346.39999389648</ele>
        <time>2016-06-01T14:41:14Z</time>
      </trkpt>
      <trkpt lat="43.36643" lon="6.13322">
        <ele>346.20001220703</ele>
        <time>2016-06-01T14:41:19Z</time>
      </trkpt>
      <trkpt lat="43.36645" lon="6.13315">
        <ele>346.20001220703</ele>
        <time>2016-06-01T14:41:20Z</time>
      </trkpt>
      <trkpt lat="43.36652" lon="6.13279">
        <ele>345.20001220703</ele>
        <time>2016-06-01T14:41:25Z</time>
      </trkpt>
      <trkpt lat="43.36653" lon="6.13272">
        <ele>344.79998779297</ele>
        <time>2016-06-01T14:41:26Z</time>
      </trkpt>
      <trkpt lat="43.36656" lon="6.1324">
        <ele>343.39999389648</ele>
        <time>2016-06-01T14:41:30Z</time>
      </trkpt>
      <trkpt lat="43.36661" lon="6.13197">
        <ele>342.79998779297</ele>
        <time>2016-06-01T14:41:35Z</time>
      </trkpt>
      <trkpt lat="43.36662" lon="6.13188">
        <ele>342</ele>
        <time>2016-06-01T14:41:36Z</time>
      </trkpt>
      <trkpt lat="43.36665" lon="6.13164">
        <ele>340.79998779297</ele>
        <time>2016-06-01T14:41:39Z</time>
      </trkpt>
      <trkpt lat="43.36667" lon="6.13158">
        <ele>340</ele>
        <time>2016-06-01T14:41:40Z</time>
      </trkpt>
      <trkpt lat="43.36671" lon="6.13154">
        <ele>339.20001220703</ele>
        <time>2016-06-01T14:41:41Z</time>
      </trkpt>
      <trkpt lat="43.36679" lon="6.13149">
        <ele>338.20001220703</ele>
        <time>2016-06-01T14:41:43Z</time>
      </trkpt>
      <trkpt lat="43.36684" lon="6.13147">
        <ele>337.79998779297</ele>
        <time>2016-06-01T14:41:44Z</time>
      </trkpt>
      <trkpt lat="43.36698" lon="6.13133">
        <ele>336.79998779297</ele>
        <time>2016-06-01T14:41:47Z</time>
      </trkpt>
      <trkpt lat="43.36709" lon="6.13106">
        <ele>335.20001220703</ele>
        <time>2016-06-01T14:41:50Z</time>
      </trkpt>
      <trkpt lat="43.36712" lon="6.13096">
        <ele>334.39999389648</ele>
        <time>2016-06-01T14:41:51Z</time>
      </trkpt>
      <trkpt lat="43.36714" lon="6.13085">
        <ele>333.60000610352</ele>
        <time>2016-06-01T14:41:52Z</time>
      </trkpt>
      <trkpt lat="43.36716" lon="6.13075">
        <ele>333</ele>
        <time>2016-06-01T14:41:53Z</time>
      </trkpt>
      <trkpt lat="43.36725" lon="6.13057">
        <ele>332.39999389648</ele>
        <time>2016-06-01T14:41:55Z</time>
      </trkpt>
      <trkpt lat="43.36744" lon="6.13026">
        <ele>331</ele>
        <time>2016-06-01T14:41:59Z</time>
      </trkpt>
      <trkpt lat="43.36753" lon="6.13009">
        <ele>330</ele>
        <time>2016-06-01T14:42:01Z</time>
      </trkpt>
      <trkpt lat="43.36764" lon="6.12992">
        <ele>329</ele>
        <time>2016-06-01T14:42:03Z</time>
      </trkpt>
      <trkpt lat="43.36771" lon="6.12985">
        <ele>328.20001220703</ele>
        <time>2016-06-01T14:42:04Z</time>
      </trkpt>
      <trkpt lat="43.3679" lon="6.12964">
        <ele>326.79998779297</ele>
        <time>2016-06-01T14:42:07Z</time>
      </trkpt>
      <trkpt lat="43.36816" lon="6.12936">
        <ele>324.20001220703</ele>
        <time>2016-06-01T14:42:11Z</time>
      </trkpt>
      <trkpt lat="43.36841" lon="6.12909">
        <ele>323</ele>
        <time>2016-06-01T14:42:15Z</time>
      </trkpt>
      <trkpt lat="43.36862" lon="6.1289">
        <ele>321.20001220703</ele>
        <time>2016-06-01T14:42:18Z</time>
      </trkpt>
      <trkpt lat="43.36876" lon="6.12877">
        <ele>320.20001220703</ele>
        <time>2016-06-01T14:42:20Z</time>
      </trkpt>
      <trkpt lat="43.36897" lon="6.12857">
        <ele>319.20001220703</ele>
        <time>2016-06-01T14:42:23Z</time>
      </trkpt>
      <trkpt lat="43.36903" lon="6.1285">
        <ele>319</ele>
        <time>2016-06-01T14:42:24Z</time>
      </trkpt>
      <trkpt lat="43.36913" lon="6.12834">
        <ele>318</ele>
        <time>2016-06-01T14:42:26Z</time>
      </trkpt>
      <trkpt lat="43.36921" lon="6.12816">
        <ele>317</ele>
        <time>2016-06-01T14:42:28Z</time>
      </trkpt>
      <trkpt lat="43.36926" lon="6.12808">
        <ele>316.60000610352</ele>
        <time>2016-06-01T14:42:29Z</time>
      </trkpt>
      <trkpt lat="43.36932" lon="6.12795">
        <ele>315.79998779297</ele>
        <time>2016-06-01T14:42:31Z</time>
      </trkpt>
      <trkpt lat="43.36934" lon="6.12789">
        <ele>315.39999389648</ele>
        <time>2016-06-01T14:42:33Z</time>
      </trkpt>
      <trkpt lat="43.36938" lon="6.12781">
        <ele>314.39999389648</ele>
        <time>2016-06-01T14:42:39Z</time>
      </trkpt>
      <trkpt lat="43.36938" lon="6.1278">
        <ele>314.39999389648</ele>
        <time>2016-06-01T14:42:48Z</time>
      </trkpt>
      <trkpt lat="43.3694" lon="6.12773">
        <ele>314.60000610352</ele>
        <time>2016-06-01T14:42:58Z</time>
      </trkpt>
      <trkpt lat="43.36942" lon="6.12767">
        <ele>314.39999389648</ele>
        <time>2016-06-01T14:43:05Z</time>
      </trkpt>
      <trkpt lat="43.36943" lon="6.12766">
        <ele>314.20001220703</ele>
        <time>2016-06-01T14:43:09Z</time>
      </trkpt>
      <trkpt lat="43.36944" lon="6.12763">
        <ele>314.20001220703</ele>
        <time>2016-06-01T14:43:11Z</time>
      </trkpt>
      <trkpt lat="43.3695" lon="6.12752">
        <ele>313.60000610352</ele>
        <time>2016-06-01T14:43:16Z</time>
      </trkpt>
      <trkpt lat="43.36955" lon="6.12744">
        <ele>313.20001220703</ele>
        <time>2016-06-01T14:43:19Z</time>
      </trkpt>
      <trkpt lat="43.36958" lon="6.12738">
        <ele>313</ele>
        <time>2016-06-01T14:43:21Z</time>
      </trkpt>
      <trkpt lat="43.36966" lon="6.12721">
        <ele>313.20001220703</ele>
        <time>2016-06-01T14:43:25Z</time>
      </trkpt>
      <trkpt lat="43.36974" lon="6.12703">
        <ele>313.39999389648</ele>
        <time>2016-06-01T14:43:29Z</time>
      </trkpt>
      <trkpt lat="43.36993" lon="6.12661">
        <ele>313.20001220703</ele>
        <time>2016-06-01T14:43:39Z</time>
      </trkpt>
      <trkpt lat="43.37" lon="6.12644">
        <ele>312.60000610352</ele>
        <time>2016-06-01T14:43:43Z</time>
      </trkpt>
      <trkpt lat="43.37009" lon="6.12627">
        <ele>312.39999389648</ele>
        <time>2016-06-01T14:43:47Z</time>
      </trkpt>
      <trkpt lat="43.37023" lon="6.12602">
        <ele>312.39999389648</ele>
        <time>2016-06-01T14:43:53Z</time>
      </trkpt>
      <trkpt lat="43.37027" lon="6.12593">
        <ele>312.20001220703</ele>
        <time>2016-06-01T14:43:55Z</time>
      </trkpt>
      <trkpt lat="43.3703" lon="6.12588">
        <ele>311.79998779297</ele>
        <time>2016-06-01T14:43:56Z</time>
      </trkpt>
      <trkpt lat="43.37044" lon="6.12569">
        <ele>311.39999389648</ele>
        <time>2016-06-01T14:44:01Z</time>
      </trkpt>
      <trkpt lat="43.37061" lon="6.12551">
        <ele>310</ele>
        <time>2016-06-01T14:44:06Z</time>
      </trkpt>
      <trkpt lat="43.37064" lon="6.12548">
        <ele>309.60000610352</ele>
        <time>2016-06-01T14:44:07Z</time>
      </trkpt>
      <trkpt lat="43.37085" lon="6.12531">
        <ele>309</ele>
        <time>2016-06-01T14:44:12Z</time>
      </trkpt>
      <trkpt lat="43.37097" lon="6.12519">
        <ele>308.39999389648</ele>
        <time>2016-06-01T14:44:15Z</time>
      </trkpt>
      <trkpt lat="43.3711" lon="6.12501">
        <ele>308.20001220703</ele>
        <time>2016-06-01T14:44:19Z</time>
      </trkpt>
      <trkpt lat="43.37128" lon="6.12462">
        <ele>308</ele>
        <time>2016-06-01T14:44:26Z</time>
      </trkpt>
      <trkpt lat="43.37133" lon="6.1245">
        <ele>308.20001220703</ele>
        <time>2016-06-01T14:44:28Z</time>
      </trkpt>
      <trkpt lat="43.37141" lon="6.12429">
        <ele>308.79998779297</ele>
        <time>2016-06-01T14:44:32Z</time>
      </trkpt>
      <trkpt lat="43.37144" lon="6.12424">
        <ele>309</ele>
        <time>2016-06-01T14:44:33Z</time>
      </trkpt>
      <trkpt lat="43.37156" lon="6.12401">
        <ele>308.79998779297</ele>
        <time>2016-06-01T14:44:38Z</time>
      </trkpt>
      <trkpt lat="43.37174" lon="6.12375">
        <ele>308.39999389648</ele>
        <time>2016-06-01T14:44:45Z</time>
      </trkpt>
      <trkpt lat="43.37183" lon="6.12364">
        <ele>308.79998779297</ele>
        <time>2016-06-01T14:44:49Z</time>
      </trkpt>
      <trkpt lat="43.37193" lon="6.12351">
        <ele>309.39999389648</ele>
        <time>2016-06-01T14:44:54Z</time>
      </trkpt>
      <trkpt lat="43.37195" lon="6.12348">
        <ele>309.60000610352</ele>
        <time>2016-06-01T14:44:55Z</time>
      </trkpt>
      <trkpt lat="43.37206" lon="6.12329">
        <ele>310.79998779297</ele>
        <time>2016-06-01T14:45:02Z</time>
      </trkpt>
      <trkpt lat="43.37214" lon="6.12313">
        <ele>311.79998779297</ele>
        <time>2016-06-01T14:45:08Z</time>
      </trkpt>
      <trkpt lat="43.37216" lon="6.12308">
        <ele>312</ele>
        <time>2016-06-01T14:45:10Z</time>
      </trkpt>
      <trkpt lat="43.37223" lon="6.12291">
        <ele>313</ele>
        <time>2016-06-01T14:45:17Z</time>
      </trkpt>
      <trkpt lat="43.37226" lon="6.1228">
        <ele>313.60000610352</ele>
        <time>2016-06-01T14:45:21Z</time>
      </trkpt>
      <trkpt lat="43.37228" lon="6.12272">
        <ele>313.79998779297</ele>
        <time>2016-06-01T14:45:24Z</time>
      </trkpt>
      <trkpt lat="43.37229" lon="6.12268">
        <ele>314</ele>
        <time>2016-06-01T14:45:26Z</time>
      </trkpt>
      <trkpt lat="43.37231" lon="6.12261">
        <ele>314.60000610352</ele>
        <time>2016-06-01T14:45:30Z</time>
      </trkpt>
      <trkpt lat="43.37236" lon="6.12245">
        <ele>315.20001220703</ele>
        <time>2016-06-01T14:45:38Z</time>
      </trkpt>
      <trkpt lat="43.37241" lon="6.12232">
        <ele>315.79998779297</ele>
        <time>2016-06-01T14:45:45Z</time>
      </trkpt>
      <trkpt lat="43.37245" lon="6.12224">
        <ele>316.20001220703</ele>
        <time>2016-06-01T14:45:49Z</time>
      </trkpt>
      <trkpt lat="43.37249" lon="6.12217">
        <ele>316.79998779297</ele>
        <time>2016-06-01T14:45:53Z</time>
      </trkpt>
      <trkpt lat="43.37253" lon="6.12207">
        <ele>317.39999389648</ele>
        <time>2016-06-01T14:45:58Z</time>
      </trkpt>
      <trkpt lat="43.37257" lon="6.122">
        <ele>318.20001220703</ele>
        <time>2016-06-01T14:46:02Z</time>
      </trkpt>
      <trkpt lat="43.37265" lon="6.12187">
        <ele>318.79998779297</ele>
        <time>2016-06-01T14:46:10Z</time>
      </trkpt>
      <trkpt lat="43.37267" lon="6.12182">
        <ele>319.39999389648</ele>
        <time>2016-06-01T14:46:13Z</time>
      </trkpt>
      <trkpt lat="43.37273" lon="6.12171">
        <ele>320.20001220703</ele>
        <time>2016-06-01T14:46:19Z</time>
      </trkpt>
      <trkpt lat="43.37278" lon="6.12164">
        <ele>320.39999389648</ele>
        <time>2016-06-01T14:46:23Z</time>
      </trkpt>
      <trkpt lat="43.37283" lon="6.12158">
        <ele>321.39999389648</ele>
        <time>2016-06-01T14:46:28Z</time>
      </trkpt>
      <trkpt lat="43.37289" lon="6.12152">
        <ele>322.39999389648</ele>
        <time>2016-06-01T14:46:33Z</time>
      </trkpt>
      <trkpt lat="43.37291" lon="6.1215">
        <ele>322.79998779297</ele>
        <time>2016-06-01T14:46:35Z</time>
      </trkpt>
      <trkpt lat="43.37299" lon="6.12144">
        <ele>323.79998779297</ele>
        <time>2016-06-01T14:46:41Z</time>
      </trkpt>
      <trkpt lat="43.373" lon="6.12144">
        <ele>324.20001220703</ele>
        <time>2016-06-01T14:46:42Z</time>
      </trkpt>
      <trkpt lat="43.37307" lon="6.1214">
        <ele>326</ele>
        <time>2016-06-01T14:46:48Z</time>
      </trkpt>
      <trkpt lat="43.37308" lon="6.12139">
        <ele>326</ele>
        <time>2016-06-01T14:46:49Z</time>
      </trkpt>
      <trkpt lat="43.37315" lon="6.12135">
        <ele>326.60000610352</ele>
        <time>2016-06-01T14:46:55Z</time>
      </trkpt>
      <trkpt lat="43.37319" lon="6.12132">
        <ele>327</ele>
        <time>2016-06-01T14:46:58Z</time>
      </trkpt>
      <trkpt lat="43.37321" lon="6.12131">
        <ele>327.20001220703</ele>
        <time>2016-06-01T14:47:00Z</time>
      </trkpt>
      <trkpt lat="43.37328" lon="6.12125">
        <ele>328</ele>
        <time>2016-06-01T14:47:07Z</time>
      </trkpt>
      <trkpt lat="43.37332" lon="6.12123">
        <ele>328.39999389648</ele>
        <time>2016-06-01T14:47:10Z</time>
      </trkpt>
      <trkpt lat="43.37337" lon="6.12118">
        <ele>329.20001220703</ele>
        <time>2016-06-01T14:47:15Z</time>
      </trkpt>
      <trkpt lat="43.37352" lon="6.12105">
        <ele>330.60000610352</ele>
        <time>2016-06-01T14:47:29Z</time>
      </trkpt>
      <trkpt lat="43.37355" lon="6.12103">
        <ele>331.20001220703</ele>
        <time>2016-06-01T14:47:31Z</time>
      </trkpt>
      <trkpt lat="43.3736" lon="6.12099">
        <ele>331.60000610352</ele>
        <time>2016-06-01T14:47:35Z</time>
      </trkpt>
      <trkpt lat="43.37364" lon="6.12097">
        <ele>331.79998779297</ele>
        <time>2016-06-01T14:47:38Z</time>
      </trkpt>
      <trkpt lat="43.37372" lon="6.12093">
        <ele>332.60000610352</ele>
        <time>2016-06-01T14:47:44Z</time>
      </trkpt>
      <trkpt lat="43.3738" lon="6.12092">
        <ele>333.79998779297</ele>
        <time>2016-06-01T14:47:49Z</time>
      </trkpt>
      <trkpt lat="43.37386" lon="6.12091">
        <ele>334.39999389648</ele>
        <time>2016-06-01T14:47:53Z</time>
      </trkpt>
      <trkpt lat="43.37395" lon="6.1209">
        <ele>334.60000610352</ele>
        <time>2016-06-01T14:47:59Z</time>
      </trkpt>
      <trkpt lat="43.37406" lon="6.12089">
        <ele>335.60000610352</ele>
        <time>2016-06-01T14:48:07Z</time>
      </trkpt>
      <trkpt lat="43.37407" lon="6.12089">
        <ele>335.60000610352</ele>
        <time>2016-06-01T14:48:08Z</time>
      </trkpt>
      <trkpt lat="43.37409" lon="6.12086">
        <ele>336</ele>
        <time>2016-06-01T14:48:13Z</time>
      </trkpt>
      <trkpt lat="43.37409" lon="6.12086">
        <ele>336</ele>
        <time>2016-06-01T14:48:14Z</time>
      </trkpt>
      <trkpt lat="43.3741" lon="6.12086">
        <ele>336</ele>
        <time>2016-06-01T14:48:16Z</time>
      </trkpt>
      <trkpt lat="43.3741" lon="6.12086">
        <ele>336.20001220703</ele>
        <time>2016-06-01T14:48:19Z</time>
      </trkpt>
      <trkpt lat="43.3741" lon="6.12086">
        <ele>336.20001220703</ele>
        <time>2016-06-01T14:48:22Z</time>
      </trkpt>
      <trkpt lat="43.3741" lon="6.12086">
        <ele>336</ele>
        <time>2016-06-01T14:48:48Z</time>
      </trkpt>
      <trkpt lat="43.3741" lon="6.12087">
        <ele>336.20001220703</ele>
        <time>2016-06-01T14:48:58Z</time>
      </trkpt>
      <trkpt lat="43.3741" lon="6.12087">
        <ele>336</ele>
        <time>2016-06-01T14:49:08Z</time>
      </trkpt>
      <trkpt lat="43.3741" lon="6.12086">
        <ele>336</ele>
        <time>2016-06-01T14:49:16Z</time>
      </trkpt>
      <trkpt lat="43.3741" lon="6.12086">
        <ele>336.39999389648</ele>
        <time>2016-06-01T14:49:26Z</time>
      </trkpt>
      <trkpt lat="43.3741" lon="6.12086">
        <ele>336</ele>
        <time>2016-06-01T14:49:49Z</time>
      </trkpt>
      <trkpt lat="43.3741" lon="6.12086">
        <ele>336</ele>
        <time>2016-06-01T14:50:07Z</time>
      </trkpt>
      <trkpt lat="43.37409" lon="6.12086">
        <ele>335.60000610352</ele>
        <time>2016-06-01T14:50:34Z</time>
      </trkpt>
      <trkpt lat="43.37409" lon="6.12087">
        <ele>336</ele>
        <time>2016-06-01T14:50:43Z</time>
      </trkpt>
      <trkpt lat="43.37409" lon="6.12087">
        <ele>336</ele>
        <time>2016-06-01T14:50:53Z</time>
      </trkpt>
      <trkpt lat="43.37409" lon="6.12087">
        <ele>336</ele>
        <time>2016-06-01T14:51:05Z</time>
      </trkpt>
      <trkpt lat="43.37409" lon="6.12086">
        <ele>336.39999389648</ele>
        <time>2016-06-01T14:51:16Z</time>
      </trkpt>
      <trkpt lat="43.37409" lon="6.12086">
        <ele>336.39999389648</ele>
        <time>2016-06-01T14:51:20Z</time>
      </trkpt>
      <trkpt lat="43.37409" lon="6.12086">
        <ele>336.60000610352</ele>
        <time>2016-06-01T14:51:24Z</time>
      </trkpt>
      <trkpt lat="43.37409" lon="6.12086">
        <ele>336.39999389648</ele>
        <time>2016-06-01T14:51:28Z</time>
      </trkpt>
      <trkpt lat="43.37409" lon="6.12087">
        <ele>336.79998779297</ele>
        <time>2016-06-01T14:52:04Z</time>
      </trkpt>
      <trkpt lat="43.37409" lon="6.12088">
        <ele>336.79998779297</ele>
        <time>2016-06-01T14:52:26Z</time>
      </trkpt>
      <trkpt lat="43.37409" lon="6.12088">
        <ele>336.60000610352</ele>
        <time>2016-06-01T14:52:59Z</time>
      </trkpt>
      <trkpt lat="43.37409" lon="6.12087">
        <ele>336.60000610352</ele>
        <time>2016-06-01T14:53:42Z</time>
      </trkpt>
      <trkpt lat="43.37409" lon="6.12087">
        <ele>336.60000610352</ele>
        <time>2016-06-01T14:54:00Z</time>
      </trkpt>
      <trkpt lat="43.37409" lon="6.12088">
        <ele>336.39999389648</ele>
        <time>2016-06-01T14:54:05Z</time>
      </trkpt>
      <trkpt lat="43.3741" lon="6.12088">
        <ele>336.20001220703</ele>
        <time>2016-06-01T14:54:10Z</time>
      </trkpt>
      <trkpt lat="43.37413" lon="6.12088">
        <ele>336.39999389648</ele>
        <time>2016-06-01T14:54:13Z</time>
      </trkpt>
      <trkpt lat="43.37424" lon="6.12084">
        <ele>337.20001220703</ele>
        <time>2016-06-01T14:54:20Z</time>
      </trkpt>
      <trkpt lat="43.3743" lon="6.12084">
        <ele>337.39999389648</ele>
        <time>2016-06-01T14:54:23Z</time>
      </trkpt>
      <trkpt lat="43.37439" lon="6.12085">
        <ele>337.60000610352</ele>
        <time>2016-06-01T14:54:26Z</time>
      </trkpt>
      <trkpt lat="43.37444" lon="6.12085">
        <ele>337.39999389648</ele>
        <time>2016-06-01T14:54:27Z</time>
      </trkpt>
      <trkpt lat="43.37452" lon="6.12083">
        <ele>336.60000610352</ele>
        <time>2016-06-01T14:54:29Z</time>
      </trkpt>
      <trkpt lat="43.37461" lon="6.12078">
        <ele>335.60000610352</ele>
        <time>2016-06-01T14:54:31Z</time>
      </trkpt>
      <trkpt lat="43.37466" lon="6.12075">
        <ele>335.20001220703</ele>
        <time>2016-06-01T14:54:32Z</time>
      </trkpt>
      <trkpt lat="43.37478" lon="6.12065">
        <ele>333.60000610352</ele>
        <time>2016-06-01T14:54:34Z</time>
      </trkpt>
      <trkpt lat="43.37491" lon="6.12054">
        <ele>331.60000610352</ele>
        <time>2016-06-01T14:54:36Z</time>
      </trkpt>
      <trkpt lat="43.37504" lon="6.12042">
        <ele>329.60000610352</ele>
        <time>2016-06-01T14:54:38Z</time>
      </trkpt>
      <trkpt lat="43.37511" lon="6.12035">
        <ele>328.60000610352</ele>
        <time>2016-06-01T14:54:39Z</time>
      </trkpt>
      <trkpt lat="43.37525" lon="6.12019">
        <ele>326.60000610352</ele>
        <time>2016-06-01T14:54:41Z</time>
      </trkpt>
      <trkpt lat="43.37539" lon="6.12004">
        <ele>324.20001220703</ele>
        <time>2016-06-01T14:54:43Z</time>
      </trkpt>
      <trkpt lat="43.37547" lon="6.11997">
        <ele>323.20001220703</ele>
        <time>2016-06-01T14:54:44Z</time>
      </trkpt>
      <trkpt lat="43.37563" lon="6.11985">
        <ele>320.79998779297</ele>
        <time>2016-06-01T14:54:46Z</time>
      </trkpt>
      <trkpt lat="43.37571" lon="6.11979">
        <ele>319.20001220703</ele>
        <time>2016-06-01T14:54:47Z</time>
      </trkpt>
      <trkpt lat="43.37578" lon="6.11974">
        <ele>318</ele>
        <time>2016-06-01T14:54:48Z</time>
      </trkpt>
      <trkpt lat="43.37584" lon="6.11967">
        <ele>316.79998779297</ele>
        <time>2016-06-01T14:54:49Z</time>
      </trkpt>
      <trkpt lat="43.37596" lon="6.11953">
        <ele>314.60000610352</ele>
        <time>2016-06-01T14:54:51Z</time>
      </trkpt>
      <trkpt lat="43.37601" lon="6.11945">
        <ele>314</ele>
        <time>2016-06-01T14:54:52Z</time>
      </trkpt>
      <trkpt lat="43.37607" lon="6.11937">
        <ele>313</ele>
        <time>2016-06-01T14:54:53Z</time>
      </trkpt>
      <trkpt lat="43.3762" lon="6.11919">
        <ele>311.39999389648</ele>
        <time>2016-06-01T14:54:55Z</time>
      </trkpt>
      <trkpt lat="43.37634" lon="6.11898">
        <ele>309.20001220703</ele>
        <time>2016-06-01T14:54:57Z</time>
      </trkpt>
      <trkpt lat="43.37641" lon="6.11887">
        <ele>307.79998779297</ele>
        <time>2016-06-01T14:54:58Z</time>
      </trkpt>
      <trkpt lat="43.37647" lon="6.11876">
        <ele>306.60000610352</ele>
        <time>2016-06-01T14:54:59Z</time>
      </trkpt>
      <trkpt lat="43.37654" lon="6.11867">
        <ele>305.39999389648</ele>
        <time>2016-06-01T14:55:00Z</time>
      </trkpt>
      <trkpt lat="43.37667" lon="6.11849">
        <ele>304.20001220703</ele>
        <time>2016-06-01T14:55:02Z</time>
      </trkpt>
      <trkpt lat="43.37673" lon="6.1184">
        <ele>304</ele>
        <time>2016-06-01T14:55:03Z</time>
      </trkpt>
      <trkpt lat="43.37683" lon="6.1182">
        <ele>302.79998779297</ele>
        <time>2016-06-01T14:55:05Z</time>
      </trkpt>
      <trkpt lat="43.37687" lon="6.11808">
        <ele>301.79998779297</ele>
        <time>2016-06-01T14:55:06Z</time>
      </trkpt>
      <trkpt lat="43.37691" lon="6.11797">
        <ele>300.20001220703</ele>
        <time>2016-06-01T14:55:07Z</time>
      </trkpt>
      <trkpt lat="43.37702" lon="6.11774">
        <ele>298.39999389648</ele>
        <time>2016-06-01T14:55:09Z</time>
      </trkpt>
      <trkpt lat="43.37708" lon="6.11763">
        <ele>297.39999389648</ele>
        <time>2016-06-01T14:55:10Z</time>
      </trkpt>
      <trkpt lat="43.37713" lon="6.11752">
        <ele>296.79998779297</ele>
        <time>2016-06-01T14:55:11Z</time>
      </trkpt>
      <trkpt lat="43.37731" lon="6.11718">
        <ele>295</ele>
        <time>2016-06-01T14:55:14Z</time>
      </trkpt>
      <trkpt lat="43.37737" lon="6.11707">
        <ele>294.20001220703</ele>
        <time>2016-06-01T14:55:15Z</time>
      </trkpt>
      <trkpt lat="43.37742" lon="6.11696">
        <ele>293.39999389648</ele>
        <time>2016-06-01T14:55:16Z</time>
      </trkpt>
      <trkpt lat="43.37762" lon="6.11652">
        <ele>292.20001220703</ele>
        <time>2016-06-01T14:55:20Z</time>
      </trkpt>
      <trkpt lat="43.37768" lon="6.11641">
        <ele>292</ele>
        <time>2016-06-01T14:55:21Z</time>
      </trkpt>
      <trkpt lat="43.3778" lon="6.11621">
        <ele>291.20001220703</ele>
        <time>2016-06-01T14:55:23Z</time>
      </trkpt>
      <trkpt lat="43.37787" lon="6.11612">
        <ele>290</ele>
        <time>2016-06-01T14:55:24Z</time>
      </trkpt>
      <trkpt lat="43.37794" lon="6.11603">
        <ele>289</ele>
        <time>2016-06-01T14:55:25Z</time>
      </trkpt>
      <trkpt lat="43.37801" lon="6.11594">
        <ele>288.60000610352</ele>
        <time>2016-06-01T14:55:26Z</time>
      </trkpt>
      <trkpt lat="43.3782" lon="6.11571">
        <ele>288</ele>
        <time>2016-06-01T14:55:29Z</time>
      </trkpt>
      <trkpt lat="43.37824" lon="6.11562">
        <ele>287.79998779297</ele>
        <time>2016-06-01T14:55:30Z</time>
      </trkpt>
      <trkpt lat="43.37835" lon="6.11534">
        <ele>286.79998779297</ele>
        <time>2016-06-01T14:55:33Z</time>
      </trkpt>
      <trkpt lat="43.37838" lon="6.11524">
        <ele>286.60000610352</ele>
        <time>2016-06-01T14:55:34Z</time>
      </trkpt>
      <trkpt lat="43.37846" lon="6.11505">
        <ele>285.60000610352</ele>
        <time>2016-06-01T14:55:36Z</time>
      </trkpt>
      <trkpt lat="43.37851" lon="6.11497">
        <ele>284.79998779297</ele>
        <time>2016-06-01T14:55:37Z</time>
      </trkpt>
      <trkpt lat="43.37856" lon="6.11488">
        <ele>284.20001220703</ele>
        <time>2016-06-01T14:55:38Z</time>
      </trkpt>
      <trkpt lat="43.37861" lon="6.11481">
        <ele>283.79998779297</ele>
        <time>2016-06-01T14:55:39Z</time>
      </trkpt>
      <trkpt lat="43.37874" lon="6.11474">
        <ele>282.79998779297</ele>
        <time>2016-06-01T14:55:41Z</time>
      </trkpt>
      <trkpt lat="43.3788" lon="6.11471">
        <ele>282.60000610352</ele>
        <time>2016-06-01T14:55:42Z</time>
      </trkpt>
      <trkpt lat="43.37892" lon="6.11466">
        <ele>282</ele>
        <time>2016-06-01T14:55:44Z</time>
      </trkpt>
      <trkpt lat="43.37902" lon="6.11458">
        <ele>282</ele>
        <time>2016-06-01T14:55:46Z</time>
      </trkpt>
      <trkpt lat="43.37933" lon="6.11422">
        <ele>281.79998779297</ele>
        <time>2016-06-01T14:55:53Z</time>
      </trkpt>
      <trkpt lat="43.37944" lon="6.11406">
        <ele>281.79998779297</ele>
        <time>2016-06-01T14:55:56Z</time>
      </trkpt>
      <trkpt lat="43.37952" lon="6.11396">
        <ele>281.79998779297</ele>
        <time>2016-06-01T14:55:58Z</time>
      </trkpt>
      <trkpt lat="43.37983" lon="6.11361">
        <ele>281.79998779297</ele>
        <time>2016-06-01T14:56:05Z</time>
      </trkpt>
      <trkpt lat="43.37999" lon="6.11335">
        <ele>281.20001220703</ele>
        <time>2016-06-01T14:56:10Z</time>
      </trkpt>
      <trkpt lat="43.38002" lon="6.11329">
        <ele>281.39999389648</ele>
        <time>2016-06-01T14:56:11Z</time>
      </trkpt>
      <trkpt lat="43.38014" lon="6.11305">
        <ele>281.39999389648</ele>
        <time>2016-06-01T14:56:15Z</time>
      </trkpt>
      <trkpt lat="43.38021" lon="6.11291">
        <ele>281.20001220703</ele>
        <time>2016-06-01T14:56:17Z</time>
      </trkpt>
      <trkpt lat="43.38054" lon="6.11225">
        <ele>281.79998779297</ele>
        <time>2016-06-01T14:56:28Z</time>
      </trkpt>
      <trkpt lat="43.3806" lon="6.11215">
        <ele>282</ele>
        <time>2016-06-01T14:56:30Z</time>
      </trkpt>
      <trkpt lat="43.38072" lon="6.11202">
        <ele>282.20001220703</ele>
        <time>2016-06-01T14:56:33Z</time>
      </trkpt>
      <trkpt lat="43.38087" lon="6.11184">
        <ele>282</ele>
        <time>2016-06-01T14:56:37Z</time>
      </trkpt>
      <trkpt lat="43.38095" lon="6.11175">
        <ele>281.79998779297</ele>
        <time>2016-06-01T14:56:39Z</time>
      </trkpt>
      <trkpt lat="43.38108" lon="6.11161">
        <ele>280.60000610352</ele>
        <time>2016-06-01T14:56:42Z</time>
      </trkpt>
      <trkpt lat="43.38118" lon="6.11149">
        <ele>279.39999389648</ele>
        <time>2016-06-01T14:56:44Z</time>
      </trkpt>
      <trkpt lat="43.38139" lon="6.11124">
        <ele>278.39999389648</ele>
        <time>2016-06-01T14:56:48Z</time>
      </trkpt>
      <trkpt lat="43.38148" lon="6.11109">
        <ele>278</ele>
        <time>2016-06-01T14:56:50Z</time>
      </trkpt>
      <trkpt lat="43.38156" lon="6.11091">
        <ele>277.20001220703</ele>
        <time>2016-06-01T14:56:52Z</time>
      </trkpt>
      <trkpt lat="43.38166" lon="6.11062">
        <ele>276.39999389648</ele>
        <time>2016-06-01T14:56:55Z</time>
      </trkpt>
      <trkpt lat="43.38171" lon="6.11043">
        <ele>276.20001220703</ele>
        <time>2016-06-01T14:56:57Z</time>
      </trkpt>
      <trkpt lat="43.38178" lon="6.11002">
        <ele>275.20001220703</ele>
        <time>2016-06-01T14:57:01Z</time>
      </trkpt>
      <trkpt lat="43.38184" lon="6.1097">
        <ele>274</ele>
        <time>2016-06-01T14:57:04Z</time>
      </trkpt>
      <trkpt lat="43.38193" lon="6.10928">
        <ele>272.79998779297</ele>
        <time>2016-06-01T14:57:08Z</time>
      </trkpt>
      <trkpt lat="43.38197" lon="6.10902">
        <ele>272</ele>
        <time>2016-06-01T14:57:11Z</time>
      </trkpt>
      <trkpt lat="43.38197" lon="6.10895">
        <ele>271.79998779297</ele>
        <time>2016-06-01T14:57:12Z</time>
      </trkpt>
      <trkpt lat="43.382" lon="6.10887">
        <ele>271.39999389648</ele>
        <time>2016-06-01T14:57:14Z</time>
      </trkpt>
      <trkpt lat="43.38209" lon="6.10886">
        <ele>270.79998779297</ele>
        <time>2016-06-01T14:57:18Z</time>
      </trkpt>
      <trkpt lat="43.38214" lon="6.10888">
        <ele>270.79998779297</ele>
        <time>2016-06-01T14:57:20Z</time>
      </trkpt>
      <trkpt lat="43.38228" lon="6.10893">
        <ele>270.20001220703</ele>
        <time>2016-06-01T14:57:25Z</time>
      </trkpt>
      <trkpt lat="43.38245" lon="6.10898">
        <ele>270.39999389648</ele>
        <time>2016-06-01T14:57:31Z</time>
      </trkpt>
      <trkpt lat="43.38267" lon="6.10905">
        <ele>270</ele>
        <time>2016-06-01T14:57:39Z</time>
      </trkpt>
      <trkpt lat="43.38292" lon="6.10912">
        <ele>270.60000610352</ele>
        <time>2016-06-01T14:57:48Z</time>
      </trkpt>
      <trkpt lat="43.38295" lon="6.10913">
        <ele>270.79998779297</ele>
        <time>2016-06-01T14:57:49Z</time>
      </trkpt>
      <trkpt lat="43.38301" lon="6.10915">
        <ele>270.79998779297</ele>
        <time>2016-06-01T14:57:51Z</time>
      </trkpt>
      <trkpt lat="43.38312" lon="6.10919">
        <ele>270.79998779297</ele>
        <time>2016-06-01T14:57:55Z</time>
      </trkpt>
      <trkpt lat="43.38321" lon="6.10923">
        <ele>270.39999389648</ele>
        <time>2016-06-01T14:57:58Z</time>
      </trkpt>
      <trkpt lat="43.38345" lon="6.10932">
        <ele>270.79998779297</ele>
        <time>2016-06-01T14:58:06Z</time>
      </trkpt>
      <trkpt lat="43.38358" lon="6.10937">
        <ele>271</ele>
        <time>2016-06-01T14:58:10Z</time>
      </trkpt>
      <trkpt lat="43.38372" lon="6.1094">
        <ele>271.39999389648</ele>
        <time>2016-06-01T14:58:14Z</time>
      </trkpt>
      <trkpt lat="43.38395" lon="6.10947">
        <ele>271.60000610352</ele>
        <time>2016-06-01T14:58:20Z</time>
      </trkpt>
      <trkpt lat="43.38403" lon="6.10949">
        <ele>272</ele>
        <time>2016-06-01T14:58:22Z</time>
      </trkpt>
      <trkpt lat="43.3841" lon="6.10951">
        <ele>272</ele>
        <time>2016-06-01T14:58:24Z</time>
      </trkpt>
      <trkpt lat="43.38438" lon="6.10956">
        <ele>273</ele>
        <time>2016-06-01T14:58:32Z</time>
      </trkpt>
      <trkpt lat="43.38441" lon="6.10956">
        <ele>273.20001220703</ele>
        <time>2016-06-01T14:58:33Z</time>
      </trkpt>
      <trkpt lat="43.38457" lon="6.1096">
        <ele>274.20001220703</ele>
        <time>2016-06-01T14:58:39Z</time>
      </trkpt>
      <trkpt lat="43.3846" lon="6.10959">
        <ele>274.20001220703</ele>
        <time>2016-06-01T14:58:40Z</time>
      </trkpt>
      <trkpt lat="43.3847" lon="6.10959">
        <ele>274.39999389648</ele>
        <time>2016-06-01T14:58:46Z</time>
      </trkpt>
      <trkpt lat="43.38472" lon="6.10959">
        <ele>274.39999389648</ele>
        <time>2016-06-01T14:58:47Z</time>
      </trkpt>
      <trkpt lat="43.38476" lon="6.10959">
        <ele>274.20001220703</ele>
        <time>2016-06-01T14:58:52Z</time>
      </trkpt>
      <trkpt lat="43.38481" lon="6.10961">
        <ele>274</ele>
        <time>2016-06-01T14:58:58Z</time>
      </trkpt>
      <trkpt lat="43.38486" lon="6.10963">
        <ele>274.39999389648</ele>
        <time>2016-06-01T14:59:01Z</time>
      </trkpt>
      <trkpt lat="43.38491" lon="6.10963">
        <ele>274.79998779297</ele>
        <time>2016-06-01T14:59:04Z</time>
      </trkpt>
      <trkpt lat="43.38495" lon="6.10964">
        <ele>275</ele>
        <time>2016-06-01T14:59:07Z</time>
      </trkpt>
      <trkpt lat="43.38501" lon="6.10965">
        <ele>275.79998779297</ele>
        <time>2016-06-01T14:59:11Z</time>
      </trkpt>
      <trkpt lat="43.38512" lon="6.10967">
        <ele>276.39999389648</ele>
        <time>2016-06-01T14:59:17Z</time>
      </trkpt>
      <trkpt lat="43.38522" lon="6.1097">
        <ele>277.20001220703</ele>
        <time>2016-06-01T14:59:22Z</time>
      </trkpt>
      <trkpt lat="43.38526" lon="6.10971">
        <ele>278.39999389648</ele>
        <time>2016-06-01T14:59:25Z</time>
      </trkpt>
      <trkpt lat="43.38534" lon="6.10974">
        <ele>279.39999389648</ele>
        <time>2016-06-01T14:59:31Z</time>
      </trkpt>
      <trkpt lat="43.38535" lon="6.10975">
        <ele>279.39999389648</ele>
        <time>2016-06-01T14:59:32Z</time>
      </trkpt>
      <trkpt lat="43.38542" lon="6.10978">
        <ele>279.79998779297</ele>
        <time>2016-06-01T14:59:38Z</time>
      </trkpt>
      <trkpt lat="43.38545" lon="6.10979">
        <ele>280</ele>
        <time>2016-06-01T14:59:41Z</time>
      </trkpt>
      <trkpt lat="43.38551" lon="6.10981">
        <ele>280.60000610352</ele>
        <time>2016-06-01T14:59:45Z</time>
      </trkpt>
      <trkpt lat="43.3856" lon="6.10986">
        <ele>280.60000610352</ele>
        <time>2016-06-01T14:59:52Z</time>
      </trkpt>
      <trkpt lat="43.38569" lon="6.10987">
        <ele>281.39999389648</ele>
        <time>2016-06-01T14:59:58Z</time>
      </trkpt>
      <trkpt lat="43.38583" lon="6.10987">
        <ele>282.60000610352</ele>
        <time>2016-06-01T15:00:07Z</time>
      </trkpt>
      <trkpt lat="43.38596" lon="6.10987">
        <ele>283.20001220703</ele>
        <time>2016-06-01T15:00:14Z</time>
      </trkpt>
      <trkpt lat="43.3861" lon="6.10992">
        <ele>283.60000610352</ele>
        <time>2016-06-01T15:00:20Z</time>
      </trkpt>
      <trkpt lat="43.38612" lon="6.10993">
        <ele>283.60000610352</ele>
        <time>2016-06-01T15:00:21Z</time>
      </trkpt>
      <trkpt lat="43.38619" lon="6.10997">
        <ele>283.79998779297</ele>
        <time>2016-06-01T15:00:25Z</time>
      </trkpt>
      <trkpt lat="43.38627" lon="6.11005">
        <ele>283.60000610352</ele>
        <time>2016-06-01T15:00:29Z</time>
      </trkpt>
      <trkpt lat="43.3863" lon="6.11008">
        <ele>283.60000610352</ele>
        <time>2016-06-01T15:00:31Z</time>
      </trkpt>
      <trkpt lat="43.38636" lon="6.11005">
        <ele>283</ele>
        <time>2016-06-01T15:00:35Z</time>
      </trkpt>
      <trkpt lat="43.38639" lon="6.11003">
        <ele>282.60000610352</ele>
        <time>2016-06-01T15:00:37Z</time>
      </trkpt>
      <trkpt lat="43.38647" lon="6.11003">
        <ele>282</ele>
        <time>2016-06-01T15:00:40Z</time>
      </trkpt>
      <trkpt lat="43.38654" lon="6.11002">
        <ele>281.60000610352</ele>
        <time>2016-06-01T15:00:43Z</time>
      </trkpt>
      <trkpt lat="43.38656" lon="6.10999">
        <ele>281.39999389648</ele>
        <time>2016-06-01T15:00:44Z</time>
      </trkpt>
      <trkpt lat="43.38659" lon="6.10983">
        <ele>280.79998779297</ele>
        <time>2016-06-01T15:00:48Z</time>
      </trkpt>
      <trkpt lat="43.3866" lon="6.10979">
        <ele>280.39999389648</ele>
        <time>2016-06-01T15:00:49Z</time>
      </trkpt>
      <trkpt lat="43.38661" lon="6.10971">
        <ele>280</ele>
        <time>2016-06-01T15:00:51Z</time>
      </trkpt>
      <trkpt lat="43.38662" lon="6.1096">
        <ele>280</ele>
        <time>2016-06-01T15:00:54Z</time>
      </trkpt>
      <trkpt lat="43.38667" lon="6.10936">
        <ele>279.79998779297</ele>
        <time>2016-06-01T15:01:00Z</time>
      </trkpt>
      <trkpt lat="43.38676" lon="6.109">
        <ele>279.60000610352</ele>
        <time>2016-06-01T15:01:08Z</time>
      </trkpt>
      <trkpt lat="43.3868" lon="6.10891">
        <ele>279.39999389648</ele>
        <time>2016-06-01T15:01:10Z</time>
      </trkpt>
      <trkpt lat="43.38684" lon="6.10877">
        <ele>279.39999389648</ele>
        <time>2016-06-01T15:01:13Z</time>
      </trkpt>
      <trkpt lat="43.38688" lon="6.1086">
        <ele>279.39999389648</ele>
        <time>2016-06-01T15:01:17Z</time>
      </trkpt>
      <trkpt lat="43.38692" lon="6.10842">
        <ele>279.60000610352</ele>
        <time>2016-06-01T15:01:22Z</time>
      </trkpt>
      <trkpt lat="43.38702" lon="6.10818">
        <ele>280.20001220703</ele>
        <time>2016-06-01T15:01:28Z</time>
      </trkpt>
      <trkpt lat="43.38713" lon="6.10809">
        <ele>279.39999389648</ele>
        <time>2016-06-01T15:01:32Z</time>
      </trkpt>
      <trkpt lat="43.38727" lon="6.10799">
        <ele>278.60000610352</ele>
        <time>2016-06-01T15:01:36Z</time>
      </trkpt>
      <trkpt lat="43.38729" lon="6.10795">
        <ele>278.20001220703</ele>
        <time>2016-06-01T15:01:37Z</time>
      </trkpt>
      <trkpt lat="43.38733" lon="6.10783">
        <ele>278.60000610352</ele>
        <time>2016-06-01T15:01:40Z</time>
      </trkpt>
      <trkpt lat="43.38739" lon="6.10775">
        <ele>278.79998779297</ele>
        <time>2016-06-01T15:01:44Z</time>
      </trkpt>
      <trkpt lat="43.3875" lon="6.10771">
        <ele>278.60000610352</ele>
        <time>2016-06-01T15:01:48Z</time>
      </trkpt>
      <trkpt lat="43.3876" lon="6.10766">
        <ele>277.20001220703</ele>
        <time>2016-06-01T15:01:54Z</time>
      </trkpt>
      <trkpt lat="43.38762" lon="6.10761">
        <ele>276.60000610352</ele>
        <time>2016-06-01T15:01:59Z</time>
      </trkpt>
      <trkpt lat="43.38762" lon="6.10761">
        <ele>276.39999389648</ele>
        <time>2016-06-01T15:02:08Z</time>
      </trkpt>
      <trkpt lat="43.38762" lon="6.10761">
        <ele>276.39999389648</ele>
        <time>2016-06-01T15:02:16Z</time>
      </trkpt>
      <trkpt lat="43.38763" lon="6.10761">
        <ele>276.39999389648</ele>
        <time>2016-06-01T15:02:32Z</time>
      </trkpt>
      <trkpt lat="43.38773" lon="6.10759">
        <ele>276.60000610352</ele>
        <time>2016-06-01T15:02:38Z</time>
      </trkpt>
      <trkpt lat="43.38786" lon="6.1076">
        <ele>276</ele>
        <time>2016-06-01T15:02:42Z</time>
      </trkpt>
      <trkpt lat="43.38807" lon="6.10759">
        <ele>275.39999389648</ele>
        <time>2016-06-01T15:02:46Z</time>
      </trkpt>
      <trkpt lat="43.38818" lon="6.10757">
        <ele>274.60000610352</ele>
        <time>2016-06-01T15:02:48Z</time>
      </trkpt>
      <trkpt lat="43.38832" lon="6.10757">
        <ele>274.39999389648</ele>
        <time>2016-06-01T15:02:51Z</time>
      </trkpt>
      <trkpt lat="43.38847" lon="6.10756">
        <ele>274.20001220703</ele>
        <time>2016-06-01T15:02:54Z</time>
      </trkpt>
      <trkpt lat="43.38881" lon="6.10758">
        <ele>273.39999389648</ele>
        <time>2016-06-01T15:03:01Z</time>
      </trkpt>
      <trkpt lat="43.38886" lon="6.10759">
        <ele>273.20001220703</ele>
        <time>2016-06-01T15:03:02Z</time>
      </trkpt>
      <trkpt lat="43.389" lon="6.10763">
        <ele>273</ele>
        <time>2016-06-01T15:03:05Z</time>
      </trkpt>
      <trkpt lat="43.38908" lon="6.10768">
        <ele>272.60000610352</ele>
        <time>2016-06-01T15:03:07Z</time>
      </trkpt>
      <trkpt lat="43.38914" lon="6.10777">
        <ele>272.20001220703</ele>
        <time>2016-06-01T15:03:09Z</time>
      </trkpt>
      <trkpt lat="43.38918" lon="6.10788">
        <ele>271.79998779297</ele>
        <time>2016-06-01T15:03:11Z</time>
      </trkpt>
      <trkpt lat="43.38924" lon="6.10807">
        <ele>271.39999389648</ele>
        <time>2016-06-01T15:03:14Z</time>
      </trkpt>
      <trkpt lat="43.38927" lon="6.10813">
        <ele>271.39999389648</ele>
        <time>2016-06-01T15:03:15Z</time>
      </trkpt>
      <trkpt lat="43.38931" lon="6.10819">
        <ele>271.39999389648</ele>
        <time>2016-06-01T15:03:16Z</time>
      </trkpt>
      <trkpt lat="43.38942" lon="6.10826">
        <ele>271.39999389648</ele>
        <time>2016-06-01T15:03:18Z</time>
      </trkpt>
      <trkpt lat="43.38948" lon="6.10829">
        <ele>271.39999389648</ele>
        <time>2016-06-01T15:03:19Z</time>
      </trkpt>
      <trkpt lat="43.38953" lon="6.10832">
        <ele>271.20001220703</ele>
        <time>2016-06-01T15:03:20Z</time>
      </trkpt>
      <trkpt lat="43.38959" lon="6.10834">
        <ele>271.20001220703</ele>
        <time>2016-06-01T15:03:21Z</time>
      </trkpt>
      <trkpt lat="43.38976" lon="6.10841">
        <ele>270.20001220703</ele>
        <time>2016-06-01T15:03:24Z</time>
      </trkpt>
      <trkpt lat="43.38981" lon="6.10842">
        <ele>270.20001220703</ele>
        <time>2016-06-01T15:03:25Z</time>
      </trkpt>
      <trkpt lat="43.3899" lon="6.10844">
        <ele>270.20001220703</ele>
        <time>2016-06-01T15:03:27Z</time>
      </trkpt>
      <trkpt lat="43.38996" lon="6.10844">
        <ele>270.20001220703</ele>
        <time>2016-06-01T15:03:28Z</time>
      </trkpt>
      <trkpt lat="43.39" lon="6.10842">
        <ele>270.20001220703</ele>
        <time>2016-06-01T15:03:29Z</time>
      </trkpt>
      <trkpt lat="43.39027" lon="6.10832">
        <ele>270</ele>
        <time>2016-06-01T15:03:34Z</time>
      </trkpt>
      <trkpt lat="43.39032" lon="6.10831">
        <ele>270</ele>
        <time>2016-06-01T15:03:35Z</time>
      </trkpt>
      <trkpt lat="43.39054" lon="6.10827">
        <ele>269.79998779297</ele>
        <time>2016-06-01T15:03:39Z</time>
      </trkpt>
      <trkpt lat="43.39067" lon="6.10821">
        <ele>269.79998779297</ele>
        <time>2016-06-01T15:03:42Z</time>
      </trkpt>
      <trkpt lat="43.39076" lon="6.10815">
        <ele>270</ele>
        <time>2016-06-01T15:03:44Z</time>
      </trkpt>
      <trkpt lat="43.39083" lon="6.10808">
        <ele>270</ele>
        <time>2016-06-01T15:03:46Z</time>
      </trkpt>
      <trkpt lat="43.39088" lon="6.10801">
        <ele>269.79998779297</ele>
        <time>2016-06-01T15:03:48Z</time>
      </trkpt>
      <trkpt lat="43.39097" lon="6.10791">
        <ele>269.39999389648</ele>
        <time>2016-06-01T15:03:51Z</time>
      </trkpt>
      <trkpt lat="43.3911" lon="6.10781">
        <ele>269.20001220703</ele>
        <time>2016-06-01T15:03:54Z</time>
      </trkpt>
      <trkpt lat="43.3912" lon="6.10775">
        <ele>269</ele>
        <time>2016-06-01T15:03:56Z</time>
      </trkpt>
      <trkpt lat="43.39137" lon="6.10765">
        <ele>268.20001220703</ele>
        <time>2016-06-01T15:03:59Z</time>
      </trkpt>
      <trkpt lat="43.39143" lon="6.10761">
        <ele>268</ele>
        <time>2016-06-01T15:04:00Z</time>
      </trkpt>
      <trkpt lat="43.39159" lon="6.10745">
        <ele>267.39999389648</ele>
        <time>2016-06-01T15:04:03Z</time>
      </trkpt>
      <trkpt lat="43.39164" lon="6.10738">
        <ele>267</ele>
        <time>2016-06-01T15:04:04Z</time>
      </trkpt>
      <trkpt lat="43.39174" lon="6.10703">
        <ele>266.20001220703</ele>
        <time>2016-06-01T15:04:08Z</time>
      </trkpt>
      <trkpt lat="43.39178" lon="6.10685">
        <ele>265.79998779297</ele>
        <time>2016-06-01T15:04:10Z</time>
      </trkpt>
      <trkpt lat="43.39188" lon="6.10662">
        <ele>265</ele>
        <time>2016-06-01T15:04:13Z</time>
      </trkpt>
      <trkpt lat="43.39202" lon="6.10646">
        <ele>264.60000610352</ele>
        <time>2016-06-01T15:04:16Z</time>
      </trkpt>
      <trkpt lat="43.39212" lon="6.10639">
        <ele>264.60000610352</ele>
        <time>2016-06-01T15:04:18Z</time>
      </trkpt>
      <trkpt lat="43.39225" lon="6.10625">
        <ele>265.20001220703</ele>
        <time>2016-06-01T15:04:21Z</time>
      </trkpt>
      <trkpt lat="43.39228" lon="6.1062">
        <ele>265.20001220703</ele>
        <time>2016-06-01T15:04:22Z</time>
      </trkpt>
      <trkpt lat="43.3924" lon="6.10608">
        <ele>265.20001220703</ele>
        <time>2016-06-01T15:04:25Z</time>
      </trkpt>
      <trkpt lat="43.39247" lon="6.10602">
        <ele>265.79998779297</ele>
        <time>2016-06-01T15:04:27Z</time>
      </trkpt>
      <trkpt lat="43.39257" lon="6.10587">
        <ele>266</ele>
        <time>2016-06-01T15:04:30Z</time>
      </trkpt>
      <trkpt lat="43.39272" lon="6.10548">
        <ele>265.79998779297</ele>
        <time>2016-06-01T15:04:36Z</time>
      </trkpt>
      <trkpt lat="43.39285" lon="6.10518">
        <ele>266</ele>
        <time>2016-06-01T15:04:41Z</time>
      </trkpt>
      <trkpt lat="43.39288" lon="6.10512">
        <ele>266</ele>
        <time>2016-06-01T15:04:42Z</time>
      </trkpt>
      <trkpt lat="43.39297" lon="6.10492">
        <ele>265.39999389648</ele>
        <time>2016-06-01T15:04:45Z</time>
      </trkpt>
      <trkpt lat="43.39301" lon="6.10485">
        <ele>264.79998779297</ele>
        <time>2016-06-01T15:04:46Z</time>
      </trkpt>
      <trkpt lat="43.39309" lon="6.10472">
        <ele>264</ele>
        <time>2016-06-01T15:04:48Z</time>
      </trkpt>
      <trkpt lat="43.39312" lon="6.10464">
        <ele>263.79998779297</ele>
        <time>2016-06-01T15:04:49Z</time>
      </trkpt>
      <trkpt lat="43.39331" lon="6.10433">
        <ele>263</ele>
        <time>2016-06-01T15:04:54Z</time>
      </trkpt>
      <trkpt lat="43.39334" lon="6.10428">
        <ele>262.60000610352</ele>
        <time>2016-06-01T15:04:55Z</time>
      </trkpt>
      <trkpt lat="43.39344" lon="6.10423">
        <ele>262.39999389648</ele>
        <time>2016-06-01T15:04:57Z</time>
      </trkpt>
      <trkpt lat="43.39353" lon="6.10422">
        <ele>261.79998779297</ele>
        <time>2016-06-01T15:04:59Z</time>
      </trkpt>
      <trkpt lat="43.39359" lon="6.10421">
        <ele>261.20001220703</ele>
        <time>2016-06-01T15:05:00Z</time>
      </trkpt>
      <trkpt lat="43.39363" lon="6.10419">
        <ele>260.79998779297</ele>
        <time>2016-06-01T15:05:01Z</time>
      </trkpt>
      <trkpt lat="43.39369" lon="6.10408">
        <ele>260.20001220703</ele>
        <time>2016-06-01T15:05:03Z</time>
      </trkpt>
      <trkpt lat="43.3937" lon="6.10402">
        <ele>260</ele>
        <time>2016-06-01T15:05:04Z</time>
      </trkpt>
      <trkpt lat="43.39378" lon="6.10383">
        <ele>259.39999389648</ele>
        <time>2016-06-01T15:05:07Z</time>
      </trkpt>
      <trkpt lat="43.39381" lon="6.10377">
        <ele>259.20001220703</ele>
        <time>2016-06-01T15:05:08Z</time>
      </trkpt>
      <trkpt lat="43.39384" lon="6.10371">
        <ele>259</ele>
        <time>2016-06-01T15:05:09Z</time>
      </trkpt>
      <trkpt lat="43.3939" lon="6.10361">
        <ele>259</ele>
        <time>2016-06-01T15:05:11Z</time>
      </trkpt>
      <trkpt lat="43.39394" lon="6.1035">
        <ele>258.79998779297</ele>
        <time>2016-06-01T15:05:13Z</time>
      </trkpt>
      <trkpt lat="43.39401" lon="6.10334">
        <ele>258.60000610352</ele>
        <time>2016-06-01T15:05:16Z</time>
      </trkpt>
      <trkpt lat="43.39412" lon="6.10317">
        <ele>258</ele>
        <time>2016-06-01T15:05:20Z</time>
      </trkpt>
      <trkpt lat="43.39426" lon="6.10302">
        <ele>258.20001220703</ele>
        <time>2016-06-01T15:05:24Z</time>
      </trkpt>
      <trkpt lat="43.39434" lon="6.10296">
        <ele>258</ele>
        <time>2016-06-01T15:05:26Z</time>
      </trkpt>
      <trkpt lat="43.39457" lon="6.10278">
        <ele>257</ele>
        <time>2016-06-01T15:05:32Z</time>
      </trkpt>
      <trkpt lat="43.39461" lon="6.10273">
        <ele>257</ele>
        <time>2016-06-01T15:05:33Z</time>
      </trkpt>
      <trkpt lat="43.39479" lon="6.10255">
        <ele>255.60000610352</ele>
        <time>2016-06-01T15:05:37Z</time>
      </trkpt>
      <trkpt lat="43.39483" lon="6.10249">
        <ele>255.19999694824</ele>
        <time>2016-06-01T15:05:38Z</time>
      </trkpt>
      <trkpt lat="43.39487" lon="6.10242">
        <ele>254.80000305176</ele>
        <time>2016-06-01T15:05:39Z</time>
      </trkpt>
      <trkpt lat="43.3949" lon="6.10235">
        <ele>254.39999389648</ele>
        <time>2016-06-01T15:05:40Z</time>
      </trkpt>
      <trkpt lat="43.39496" lon="6.1022">
        <ele>254.19999694824</ele>
        <time>2016-06-01T15:05:42Z</time>
      </trkpt>
      <trkpt lat="43.39507" lon="6.10183">
        <ele>253.39999389648</ele>
        <time>2016-06-01T15:05:47Z</time>
      </trkpt>
      <trkpt lat="43.39519" lon="6.10138">
        <ele>252.39999389648</ele>
        <time>2016-06-01T15:05:53Z</time>
      </trkpt>
      <trkpt lat="43.39528" lon="6.1011">
        <ele>251.19999694824</ele>
        <time>2016-06-01T15:05:57Z</time>
      </trkpt>
      <trkpt lat="43.39531" lon="6.10104">
        <ele>251</ele>
        <time>2016-06-01T15:05:58Z</time>
      </trkpt>
      <trkpt lat="43.39543" lon="6.1008">
        <ele>250.19999694824</ele>
        <time>2016-06-01T15:06:02Z</time>
      </trkpt>
      <trkpt lat="43.39548" lon="6.10058">
        <ele>248.80000305176</ele>
        <time>2016-06-01T15:06:05Z</time>
      </trkpt>
      <trkpt lat="43.39555" lon="6.1003">
        <ele>248.39999389648</ele>
        <time>2016-06-01T15:06:09Z</time>
      </trkpt>
      <trkpt lat="43.39556" lon="6.10017">
        <ele>248.60000610352</ele>
        <time>2016-06-01T15:06:11Z</time>
      </trkpt>
      <trkpt lat="43.39555" lon="6.10012">
        <ele>248.60000610352</ele>
        <time>2016-06-01T15:06:12Z</time>
      </trkpt>
      <trkpt lat="43.39552" lon="6.09997">
        <ele>248.39999389648</ele>
        <time>2016-06-01T15:06:16Z</time>
      </trkpt>
      <trkpt lat="43.39554" lon="6.09981">
        <ele>248.60000610352</ele>
        <time>2016-06-01T15:06:21Z</time>
      </trkpt>
      <trkpt lat="43.39555" lon="6.09963">
        <ele>249</ele>
        <time>2016-06-01T15:06:27Z</time>
      </trkpt>
      <trkpt lat="43.39552" lon="6.09941">
        <ele>249.80000305176</ele>
        <time>2016-06-01T15:06:34Z</time>
      </trkpt>
      <trkpt lat="43.39549" lon="6.09932">
        <ele>250.60000610352</ele>
        <time>2016-06-01T15:06:37Z</time>
      </trkpt>
      <trkpt lat="43.39548" lon="6.09929">
        <ele>251</ele>
        <time>2016-06-01T15:06:38Z</time>
      </trkpt>
      <trkpt lat="43.39544" lon="6.09922">
        <ele>252</ele>
        <time>2016-06-01T15:06:41Z</time>
      </trkpt>
      <trkpt lat="43.39542" lon="6.09911">
        <ele>252.80000305176</ele>
        <time>2016-06-01T15:06:45Z</time>
      </trkpt>
      <trkpt lat="43.39544" lon="6.09906">
        <ele>253.19999694824</ele>
        <time>2016-06-01T15:06:47Z</time>
      </trkpt>
      <trkpt lat="43.39545" lon="6.09903">
        <ele>253.39999389648</ele>
        <time>2016-06-01T15:06:48Z</time>
      </trkpt>
      <trkpt lat="43.39552" lon="6.09889">
        <ele>253.80000305176</ele>
        <time>2016-06-01T15:06:53Z</time>
      </trkpt>
      <trkpt lat="43.39555" lon="6.09877">
        <ele>254</ele>
        <time>2016-06-01T15:06:56Z</time>
      </trkpt>
      <trkpt lat="43.39558" lon="6.09857">
        <ele>254</ele>
        <time>2016-06-01T15:07:00Z</time>
      </trkpt>
      <trkpt lat="43.39561" lon="6.0983">
        <ele>254</ele>
        <time>2016-06-01T15:07:06Z</time>
      </trkpt>
      <trkpt lat="43.39567" lon="6.09802">
        <ele>254</ele>
        <time>2016-06-01T15:07:12Z</time>
      </trkpt>
      <trkpt lat="43.39574" lon="6.09769">
        <ele>253.80000305176</ele>
        <time>2016-06-01T15:07:20Z</time>
      </trkpt>
      <trkpt lat="43.39585" lon="6.09732">
        <ele>254</ele>
        <time>2016-06-01T15:07:28Z</time>
      </trkpt>
      <trkpt lat="43.39593" lon="6.09702">
        <ele>253.80000305176</ele>
        <time>2016-06-01T15:07:34Z</time>
      </trkpt>
      <trkpt lat="43.39602" lon="6.09661">
        <ele>253.60000610352</ele>
        <time>2016-06-01T15:07:42Z</time>
      </trkpt>
      <trkpt lat="43.39608" lon="6.09625">
        <ele>253.60000610352</ele>
        <time>2016-06-01T15:07:49Z</time>
      </trkpt>
      <trkpt lat="43.39615" lon="6.09601">
        <ele>253.39999389648</ele>
        <time>2016-06-01T15:07:55Z</time>
      </trkpt>
      <trkpt lat="43.39619" lon="6.09585">
        <ele>253.39999389648</ele>
        <time>2016-06-01T15:08:01Z</time>
      </trkpt>
      <trkpt lat="43.39619" lon="6.0958">
        <ele>253.39999389648</ele>
        <time>2016-06-01T15:08:07Z</time>
      </trkpt>
      <trkpt lat="43.39619" lon="6.0958">
        <ele>253.60000610352</ele>
        <time>2016-06-01T15:08:11Z</time>
      </trkpt>
      <trkpt lat="43.39619" lon="6.0958">
        <ele>253.60000610352</ele>
        <time>2016-06-01T15:08:22Z</time>
      </trkpt>
      <trkpt lat="43.39619" lon="6.09579">
        <ele>253.80000305176</ele>
        <time>2016-06-01T15:08:32Z</time>
      </trkpt>
      <trkpt lat="43.3962" lon="6.09577">
        <ele>253.80000305176</ele>
        <time>2016-06-01T15:08:40Z</time>
      </trkpt>
      <trkpt lat="43.3962" lon="6.09577">
        <ele>253.80000305176</ele>
        <time>2016-06-01T15:08:52Z</time>
      </trkpt>
      <trkpt lat="43.39622" lon="6.09573">
        <ele>253.60000610352</ele>
        <time>2016-06-01T15:09:01Z</time>
      </trkpt>
      <trkpt lat="43.39627" lon="6.0956">
        <ele>252.80000305176</ele>
        <time>2016-06-01T15:09:07Z</time>
      </trkpt>
      <trkpt lat="43.39634" lon="6.09543">
        <ele>251.80000305176</ele>
        <time>2016-06-01T15:09:11Z</time>
      </trkpt>
      <trkpt lat="43.39637" lon="6.09539">
        <ele>251.39999389648</ele>
        <time>2016-06-01T15:09:12Z</time>
      </trkpt>
      <trkpt lat="43.39645" lon="6.0953">
        <ele>251</ele>
        <time>2016-06-01T15:09:14Z</time>
      </trkpt>
      <trkpt lat="43.39651" lon="6.09521">
        <ele>250.39999389648</ele>
        <time>2016-06-01T15:09:16Z</time>
      </trkpt>
      <trkpt lat="43.39654" lon="6.09515">
        <ele>250</ele>
        <time>2016-06-01T15:09:17Z</time>
      </trkpt>
      <trkpt lat="43.3966" lon="6.09504">
        <ele>248.80000305176</ele>
        <time>2016-06-01T15:09:19Z</time>
      </trkpt>
      <trkpt lat="43.39662" lon="6.09498">
        <ele>248.19999694824</ele>
        <time>2016-06-01T15:09:20Z</time>
      </trkpt>
      <trkpt lat="43.39664" lon="6.09492">
        <ele>247.39999389648</ele>
        <time>2016-06-01T15:09:21Z</time>
      </trkpt>
      <trkpt lat="43.39668" lon="6.09482">
        <ele>246.39999389648</ele>
        <time>2016-06-01T15:09:23Z</time>
      </trkpt>
      <trkpt lat="43.39669" lon="6.09474">
        <ele>245.39999389648</ele>
        <time>2016-06-01T15:09:25Z</time>
      </trkpt>
      <trkpt lat="43.39671" lon="6.09463">
        <ele>244.39999389648</ele>
        <time>2016-06-01T15:09:28Z</time>
      </trkpt>
      <trkpt lat="43.39673" lon="6.09462">
        <ele>244</ele>
        <time>2016-06-01T15:09:29Z</time>
      </trkpt>
      <trkpt lat="43.39679" lon="6.09463">
        <ele>243.39999389648</ele>
        <time>2016-06-01T15:09:32Z</time>
      </trkpt>
      <trkpt lat="43.39687" lon="6.09464">
        <ele>242.39999389648</ele>
        <time>2016-06-01T15:09:34Z</time>
      </trkpt>
      <trkpt lat="43.39692" lon="6.09462">
        <ele>240.80000305176</ele>
        <time>2016-06-01T15:09:35Z</time>
      </trkpt>
      <trkpt lat="43.39698" lon="6.09452">
        <ele>239.39999389648</ele>
        <time>2016-06-01T15:09:37Z</time>
      </trkpt>
      <trkpt lat="43.39701" lon="6.09446">
        <ele>238.80000305176</ele>
        <time>2016-06-01T15:09:38Z</time>
      </trkpt>
      <trkpt lat="43.39705" lon="6.0944">
        <ele>238.60000610352</ele>
        <time>2016-06-01T15:09:39Z</time>
      </trkpt>
      <trkpt lat="43.39711" lon="6.09429">
        <ele>238.60000610352</ele>
        <time>2016-06-01T15:09:41Z</time>
      </trkpt>
      <trkpt lat="43.39723" lon="6.09409">
        <ele>237.80000305176</ele>
        <time>2016-06-01T15:09:45Z</time>
      </trkpt>
      <trkpt lat="43.39729" lon="6.09399">
        <ele>237.39999389648</ele>
        <time>2016-06-01T15:09:47Z</time>
      </trkpt>
      <trkpt lat="43.39741" lon="6.0938">
        <ele>236.80000305176</ele>
        <time>2016-06-01T15:09:51Z</time>
      </trkpt>
      <trkpt lat="43.3975" lon="6.09364">
        <ele>236.80000305176</ele>
        <time>2016-06-01T15:09:54Z</time>
      </trkpt>
      <trkpt lat="43.3976" lon="6.09346">
        <ele>236.80000305176</ele>
        <time>2016-06-01T15:09:57Z</time>
      </trkpt>
      <trkpt lat="43.39776" lon="6.09314">
        <ele>236.60000610352</ele>
        <time>2016-06-01T15:10:02Z</time>
      </trkpt>
      <trkpt lat="43.39778" lon="6.09308">
        <ele>236.60000610352</ele>
        <time>2016-06-01T15:10:03Z</time>
      </trkpt>
      <trkpt lat="43.39786" lon="6.09279">
        <ele>237.19999694824</ele>
        <time>2016-06-01T15:10:08Z</time>
      </trkpt>
      <trkpt lat="43.39792" lon="6.09255">
        <ele>237.19999694824</ele>
        <time>2016-06-01T15:10:12Z</time>
      </trkpt>
      <trkpt lat="43.39796" lon="6.09231">
        <ele>237.19999694824</ele>
        <time>2016-06-01T15:10:16Z</time>
      </trkpt>
      <trkpt lat="43.39798" lon="6.09212">
        <ele>237.39999389648</ele>
        <time>2016-06-01T15:10:19Z</time>
      </trkpt>
      <trkpt lat="43.39798" lon="6.09195">
        <ele>237.19999694824</ele>
        <time>2016-06-01T15:10:22Z</time>
      </trkpt>
      <trkpt lat="43.39798" lon="6.0917">
        <ele>237.19999694824</ele>
        <time>2016-06-01T15:10:27Z</time>
      </trkpt>
      <trkpt lat="43.39799" lon="6.0916">
        <ele>237.60000610352</ele>
        <time>2016-06-01T15:10:29Z</time>
      </trkpt>
      <trkpt lat="43.39802" lon="6.09132">
        <ele>238.19999694824</ele>
        <time>2016-06-01T15:10:35Z</time>
      </trkpt>
      <trkpt lat="43.39806" lon="6.09114">
        <ele>238.80000305176</ele>
        <time>2016-06-01T15:10:39Z</time>
      </trkpt>
      <trkpt lat="43.3981" lon="6.09102">
        <ele>239</ele>
        <time>2016-06-01T15:10:42Z</time>
      </trkpt>
      <trkpt lat="43.39817" lon="6.09082">
        <ele>239.80000305176</ele>
        <time>2016-06-01T15:10:47Z</time>
      </trkpt>
      <trkpt lat="43.39825" lon="6.09064">
        <ele>240.19999694824</ele>
        <time>2016-06-01T15:10:52Z</time>
      </trkpt>
      <trkpt lat="43.39827" lon="6.09059">
        <ele>240</ele>
        <time>2016-06-01T15:10:53Z</time>
      </trkpt>
      <trkpt lat="43.39836" lon="6.09047">
        <ele>239.39999389648</ele>
        <time>2016-06-01T15:10:56Z</time>
      </trkpt>
      <trkpt lat="43.3984" lon="6.09042">
        <ele>239</ele>
        <time>2016-06-01T15:10:57Z</time>
      </trkpt>
      <trkpt lat="43.39852" lon="6.0903">
        <ele>238.39999389648</ele>
        <time>2016-06-01T15:11:00Z</time>
      </trkpt>
      <trkpt lat="43.39863" lon="6.09015">
        <ele>238</ele>
        <time>2016-06-01T15:11:03Z</time>
      </trkpt>
      <trkpt lat="43.39876" lon="6.09002">
        <ele>237.19999694824</ele>
        <time>2016-06-01T15:11:06Z</time>
      </trkpt>
      <trkpt lat="43.39886" lon="6.08997">
        <ele>237</ele>
        <time>2016-06-01T15:11:08Z</time>
      </trkpt>
      <trkpt lat="43.39892" lon="6.08995">
        <ele>236.80000305176</ele>
        <time>2016-06-01T15:11:09Z</time>
      </trkpt>
      <trkpt lat="43.39901" lon="6.08995">
        <ele>236</ele>
        <time>2016-06-01T15:11:11Z</time>
      </trkpt>
      <trkpt lat="43.39907" lon="6.08994">
        <ele>235.60000610352</ele>
        <time>2016-06-01T15:11:12Z</time>
      </trkpt>
      <trkpt lat="43.39925" lon="6.08992">
        <ele>234.39999389648</ele>
        <time>2016-06-01T15:11:15Z</time>
      </trkpt>
      <trkpt lat="43.39938" lon="6.0899">
        <ele>233.60000610352</ele>
        <time>2016-06-01T15:11:17Z</time>
      </trkpt>
      <trkpt lat="43.39944" lon="6.08989">
        <ele>233</ele>
        <time>2016-06-01T15:11:18Z</time>
      </trkpt>
      <trkpt lat="43.39965" lon="6.08985">
        <ele>232</ele>
        <time>2016-06-01T15:11:21Z</time>
      </trkpt>
      <trkpt lat="43.39971" lon="6.08984">
        <ele>231.80000305176</ele>
        <time>2016-06-01T15:11:22Z</time>
      </trkpt>
      <trkpt lat="43.39996" lon="6.08978">
        <ele>231.60000610352</ele>
        <time>2016-06-01T15:11:26Z</time>
      </trkpt>
      <trkpt lat="43.40009" lon="6.08972">
        <ele>231.60000610352</ele>
        <time>2016-06-01T15:11:28Z</time>
      </trkpt>
      <trkpt lat="43.40018" lon="6.08962">
        <ele>231.60000610352</ele>
        <time>2016-06-01T15:11:30Z</time>
      </trkpt>
      <trkpt lat="43.40026" lon="6.08943">
        <ele>231.19999694824</ele>
        <time>2016-06-01T15:11:33Z</time>
      </trkpt>
      <trkpt lat="43.40029" lon="6.08937">
        <ele>231.19999694824</ele>
        <time>2016-06-01T15:11:34Z</time>
      </trkpt>
      <trkpt lat="43.40038" lon="6.08904">
        <ele>231.39999389648</ele>
        <time>2016-06-01T15:11:39Z</time>
      </trkpt>
      <trkpt lat="43.4004" lon="6.08898">
        <ele>231.60000610352</ele>
        <time>2016-06-01T15:11:40Z</time>
      </trkpt>
      <trkpt lat="43.40049" lon="6.08871">
        <ele>231.60000610352</ele>
        <time>2016-06-01T15:11:44Z</time>
      </trkpt>
      <trkpt lat="43.40054" lon="6.08858">
        <ele>231.39999389648</ele>
        <time>2016-06-01T15:11:46Z</time>
      </trkpt>
      <trkpt lat="43.40056" lon="6.0885">
        <ele>231.19999694824</ele>
        <time>2016-06-01T15:11:47Z</time>
      </trkpt>
      <trkpt lat="43.40067" lon="6.08823">
        <ele>231.39999389648</ele>
        <time>2016-06-01T15:11:51Z</time>
      </trkpt>
      <trkpt lat="43.40075" lon="6.08806">
        <ele>231.60000610352</ele>
        <time>2016-06-01T15:11:54Z</time>
      </trkpt>
      <trkpt lat="43.40078" lon="6.08795">
        <ele>231.80000305176</ele>
        <time>2016-06-01T15:11:56Z</time>
      </trkpt>
      <trkpt lat="43.40093" lon="6.08746">
        <ele>232</ele>
        <time>2016-06-01T15:12:04Z</time>
      </trkpt>
      <trkpt lat="43.40099" lon="6.08713">
        <ele>231.39999389648</ele>
        <time>2016-06-01T15:12:09Z</time>
      </trkpt>
      <trkpt lat="43.40099" lon="6.08706">
        <ele>231.39999389648</ele>
        <time>2016-06-01T15:12:10Z</time>
      </trkpt>
      <trkpt lat="43.401" lon="6.08686">
        <ele>231.19999694824</ele>
        <time>2016-06-01T15:12:13Z</time>
      </trkpt>
      <trkpt lat="43.40099" lon="6.08673">
        <ele>230.80000305176</ele>
        <time>2016-06-01T15:12:15Z</time>
      </trkpt>
      <trkpt lat="43.40098" lon="6.08655">
        <ele>230</ele>
        <time>2016-06-01T15:12:18Z</time>
      </trkpt>
      <trkpt lat="43.401" lon="6.08644">
        <ele>229.19999694824</ele>
        <time>2016-06-01T15:12:20Z</time>
      </trkpt>
      <trkpt lat="43.40103" lon="6.0864">
        <ele>228.80000305176</ele>
        <time>2016-06-01T15:12:21Z</time>
      </trkpt>
      <trkpt lat="43.4011" lon="6.08632">
        <ele>228</ele>
        <time>2016-06-01T15:12:23Z</time>
      </trkpt>
      <trkpt lat="43.40113" lon="6.08629">
        <ele>228</ele>
        <time>2016-06-01T15:12:24Z</time>
      </trkpt>
      <trkpt lat="43.40117" lon="6.08626">
        <ele>228</ele>
        <time>2016-06-01T15:12:25Z</time>
      </trkpt>
      <trkpt lat="43.40141" lon="6.08602">
        <ele>227.60000610352</ele>
        <time>2016-06-01T15:12:32Z</time>
      </trkpt>
      <trkpt lat="43.40164" lon="6.08582">
        <ele>227.39999389648</ele>
        <time>2016-06-01T15:12:39Z</time>
      </trkpt>
      <trkpt lat="43.40167" lon="6.08562">
        <ele>227.19999694824</ele>
        <time>2016-06-01T15:12:43Z</time>
      </trkpt>
      <trkpt lat="43.40167" lon="6.08526">
        <ele>228.19999694824</ele>
        <time>2016-06-01T15:12:50Z</time>
      </trkpt>
      <trkpt lat="43.40168" lon="6.08511">
        <ele>228.39999389648</ele>
        <time>2016-06-01T15:12:53Z</time>
      </trkpt>
      <trkpt lat="43.4017" lon="6.08496">
        <ele>228.80000305176</ele>
        <time>2016-06-01T15:12:56Z</time>
      </trkpt>
      <trkpt lat="43.40174" lon="6.08467">
        <ele>229</ele>
        <time>2016-06-01T15:13:02Z</time>
      </trkpt>
      <trkpt lat="43.40177" lon="6.08428">
        <ele>229</ele>
        <time>2016-06-01T15:13:09Z</time>
      </trkpt>
      <trkpt lat="43.40178" lon="6.08417">
        <ele>229</ele>
        <time>2016-06-01T15:13:11Z</time>
      </trkpt>
      <trkpt lat="43.40179" lon="6.08398">
        <ele>229</ele>
        <time>2016-06-01T15:13:14Z</time>
      </trkpt>
      <trkpt lat="43.40179" lon="6.08372">
        <ele>228.60000610352</ele>
        <time>2016-06-01T15:13:18Z</time>
      </trkpt>
      <trkpt lat="43.40181" lon="6.08334">
        <ele>228</ele>
        <time>2016-06-01T15:13:24Z</time>
      </trkpt>
      <trkpt lat="43.40182" lon="6.08308">
        <ele>228.19999694824</ele>
        <time>2016-06-01T15:13:28Z</time>
      </trkpt>
      <trkpt lat="43.40182" lon="6.08302">
        <ele>228.19999694824</ele>
        <time>2016-06-01T15:13:29Z</time>
      </trkpt>
      <trkpt lat="43.40186" lon="6.08276">
        <ele>227.60000610352</ele>
        <time>2016-06-01T15:13:34Z</time>
      </trkpt>
      <trkpt lat="43.40186" lon="6.08264">
        <ele>227.19999694824</ele>
        <time>2016-06-01T15:13:39Z</time>
      </trkpt>
      <trkpt lat="43.40186" lon="6.08264">
        <ele>227</ele>
        <time>2016-06-01T15:13:41Z</time>
      </trkpt>
      <trkpt lat="43.40186" lon="6.08263">
        <ele>227</ele>
        <time>2016-06-01T15:13:50Z</time>
      </trkpt>
      <trkpt lat="43.40186" lon="6.08263">
        <ele>227</ele>
        <time>2016-06-01T15:13:59Z</time>
      </trkpt>
      <trkpt lat="43.40186" lon="6.08263">
        <ele>227.19999694824</ele>
        <time>2016-06-01T15:14:03Z</time>
      </trkpt>
      <trkpt lat="43.40186" lon="6.08262">
        <ele>227.39999389648</ele>
        <time>2016-06-01T15:14:12Z</time>
      </trkpt>
      <trkpt lat="43.40184" lon="6.08245">
        <ele>227.19999694824</ele>
        <time>2016-06-01T15:14:17Z</time>
      </trkpt>
      <trkpt lat="43.40186" lon="6.0822">
        <ele>227</ele>
        <time>2016-06-01T15:14:22Z</time>
      </trkpt>
      <trkpt lat="43.40187" lon="6.08215">
        <ele>227</ele>
        <time>2016-06-01T15:14:23Z</time>
      </trkpt>
      <trkpt lat="43.40197" lon="6.08182">
        <ele>226.80000305176</ele>
        <time>2016-06-01T15:14:29Z</time>
      </trkpt>
      <trkpt lat="43.40197" lon="6.08176">
        <ele>226.80000305176</ele>
        <time>2016-06-01T15:14:30Z</time>
      </trkpt>
      <trkpt lat="43.402" lon="6.08138">
        <ele>225.60000610352</ele>
        <time>2016-06-01T15:14:36Z</time>
      </trkpt>
      <trkpt lat="43.402" lon="6.08133">
        <ele>225.19999694824</ele>
        <time>2016-06-01T15:14:37Z</time>
      </trkpt>
      <trkpt lat="43.40195" lon="6.08121">
        <ele>225</ele>
        <time>2016-06-01T15:14:41Z</time>
      </trkpt>
      <trkpt lat="43.40195" lon="6.08119">
        <ele>225.19999694824</ele>
        <time>2016-06-01T15:14:46Z</time>
      </trkpt>
      <trkpt lat="43.40194" lon="6.08119">
        <ele>224.80000305176</ele>
        <time>2016-06-01T15:15:02Z</time>
      </trkpt>
      <trkpt lat="43.40193" lon="6.08111">
        <ele>225</ele>
        <time>2016-06-01T15:15:10Z</time>
      </trkpt>
      <trkpt lat="43.40194" lon="6.08093">
        <ele>224.60000610352</ele>
        <time>2016-06-01T15:15:14Z</time>
      </trkpt>
      <trkpt lat="43.40195" lon="6.08088">
        <ele>224.39999389648</ele>
        <time>2016-06-01T15:15:15Z</time>
      </trkpt>
      <trkpt lat="43.40197" lon="6.08083">
        <ele>224</ele>
        <time>2016-06-01T15:15:16Z</time>
      </trkpt>
      <trkpt lat="43.40203" lon="6.08067">
        <ele>223.39999389648</ele>
        <time>2016-06-01T15:15:19Z</time>
      </trkpt>
      <trkpt lat="43.40206" lon="6.08062">
        <ele>223.19999694824</ele>
        <time>2016-06-01T15:15:20Z</time>
      </trkpt>
      <trkpt lat="43.40235" lon="6.08026">
        <ele>222.19999694824</ele>
        <time>2016-06-01T15:15:28Z</time>
      </trkpt>
      <trkpt lat="43.40266" lon="6.07983">
        <ele>221.19999694824</ele>
        <time>2016-06-01T15:15:36Z</time>
      </trkpt>
      <trkpt lat="43.40277" lon="6.07963">
        <ele>220</ele>
        <time>2016-06-01T15:15:39Z</time>
      </trkpt>
      <trkpt lat="43.4028" lon="6.07957">
        <ele>219.60000610352</ele>
        <time>2016-06-01T15:15:40Z</time>
      </trkpt>
      <trkpt lat="43.40287" lon="6.07934">
        <ele>219.19999694824</ele>
        <time>2016-06-01T15:15:43Z</time>
      </trkpt>
      <trkpt lat="43.40289" lon="6.07927">
        <ele>219.19999694824</ele>
        <time>2016-06-01T15:15:44Z</time>
      </trkpt>
      <trkpt lat="43.40292" lon="6.07911">
        <ele>219</ele>
        <time>2016-06-01T15:15:46Z</time>
      </trkpt>
      <trkpt lat="43.40295" lon="6.07885">
        <ele>218.39999389648</ele>
        <time>2016-06-01T15:15:49Z</time>
      </trkpt>
      <trkpt lat="43.40299" lon="6.07859">
        <ele>218</ele>
        <time>2016-06-01T15:15:52Z</time>
      </trkpt>
      <trkpt lat="43.40305" lon="6.07806">
        <ele>216.80000305176</ele>
        <time>2016-06-01T15:15:58Z</time>
      </trkpt>
      <trkpt lat="43.4031" lon="6.07759">
        <ele>216</ele>
        <time>2016-06-01T15:16:04Z</time>
      </trkpt>
      <trkpt lat="43.40312" lon="6.07752">
        <ele>215.60000610352</ele>
        <time>2016-06-01T15:16:05Z</time>
      </trkpt>
      <trkpt lat="43.40321" lon="6.07712">
        <ele>215</ele>
        <time>2016-06-01T15:16:10Z</time>
      </trkpt>
      <trkpt lat="43.40324" lon="6.07705">
        <ele>214.80000305176</ele>
        <time>2016-06-01T15:16:11Z</time>
      </trkpt>
      <trkpt lat="43.40328" lon="6.07698">
        <ele>214.60000610352</ele>
        <time>2016-06-01T15:16:12Z</time>
      </trkpt>
      <trkpt lat="43.40341" lon="6.0768">
        <ele>214.19999694824</ele>
        <time>2016-06-01T15:16:15Z</time>
      </trkpt>
      <trkpt lat="43.40346" lon="6.07676">
        <ele>214.19999694824</ele>
        <time>2016-06-01T15:16:16Z</time>
      </trkpt>
      <trkpt lat="43.40362" lon="6.07658">
        <ele>214</ele>
        <time>2016-06-01T15:16:20Z</time>
      </trkpt>
      <trkpt lat="43.40367" lon="6.07648">
        <ele>213.80000305176</ele>
        <time>2016-06-01T15:16:22Z</time>
      </trkpt>
      <trkpt lat="43.40368" lon="6.07642">
        <ele>213.80000305176</ele>
        <time>2016-06-01T15:16:23Z</time>
      </trkpt>
      <trkpt lat="43.40371" lon="6.0763">
        <ele>213.60000610352</ele>
        <time>2016-06-01T15:16:25Z</time>
      </trkpt>
      <trkpt lat="43.40373" lon="6.07618">
        <ele>213.60000610352</ele>
        <time>2016-06-01T15:16:27Z</time>
      </trkpt>
      <trkpt lat="43.40374" lon="6.07599">
        <ele>213.60000610352</ele>
        <time>2016-06-01T15:16:30Z</time>
      </trkpt>
      <trkpt lat="43.40374" lon="6.07573">
        <ele>213.80000305176</ele>
        <time>2016-06-01T15:16:34Z</time>
      </trkpt>
      <trkpt lat="43.40374" lon="6.07547">
        <ele>214.19999694824</ele>
        <time>2016-06-01T15:16:39Z</time>
      </trkpt>
      <trkpt lat="43.40376" lon="6.07523">
        <ele>214.39999389648</ele>
        <time>2016-06-01T15:16:43Z</time>
      </trkpt>
      <trkpt lat="43.40377" lon="6.0751">
        <ele>214.80000305176</ele>
        <time>2016-06-01T15:16:45Z</time>
      </trkpt>
      <trkpt lat="43.40377" lon="6.07504">
        <ele>214.80000305176</ele>
        <time>2016-06-01T15:16:46Z</time>
      </trkpt>
      <trkpt lat="43.40385" lon="6.0746">
        <ele>214.60000610352</ele>
        <time>2016-06-01T15:16:53Z</time>
      </trkpt>
      <trkpt lat="43.4039" lon="6.07418">
        <ele>214.60000610352</ele>
        <time>2016-06-01T15:17:00Z</time>
      </trkpt>
      <trkpt lat="43.4039" lon="6.07376">
        <ele>214.19999694824</ele>
        <time>2016-06-01T15:17:07Z</time>
      </trkpt>
      <trkpt lat="43.40384" lon="6.07331">
        <ele>213.80000305176</ele>
        <time>2016-06-01T15:17:14Z</time>
      </trkpt>
      <trkpt lat="43.40383" lon="6.07324">
        <ele>213.60000610352</ele>
        <time>2016-06-01T15:17:15Z</time>
      </trkpt>
      <trkpt lat="43.40382" lon="6.07298">
        <ele>213.39999389648</ele>
        <time>2016-06-01T15:17:19Z</time>
      </trkpt>
      <trkpt lat="43.40392" lon="6.07283">
        <ele>213</ele>
        <time>2016-06-01T15:17:22Z</time>
      </trkpt>
      <trkpt lat="43.40397" lon="6.0728">
        <ele>212.60000610352</ele>
        <time>2016-06-01T15:17:23Z</time>
      </trkpt>
      <trkpt lat="43.4041" lon="6.07281">
        <ele>211.60000610352</ele>
        <time>2016-06-01T15:17:25Z</time>
      </trkpt>
      <trkpt lat="43.40417" lon="6.07281">
        <ele>211.39999389648</ele>
        <time>2016-06-01T15:17:26Z</time>
      </trkpt>
      <trkpt lat="43.40445" lon="6.07281">
        <ele>210.19999694824</ele>
        <time>2016-06-01T15:17:30Z</time>
      </trkpt>
      <trkpt lat="43.40467" lon="6.0728">
        <ele>209</ele>
        <time>2016-06-01T15:17:33Z</time>
      </trkpt>
      <trkpt lat="43.40487" lon="6.0728">
        <ele>208.39999389648</ele>
        <time>2016-06-01T15:17:36Z</time>
      </trkpt>
      <trkpt lat="43.40499" lon="6.07281">
        <ele>208.39999389648</ele>
        <time>2016-06-01T15:17:38Z</time>
      </trkpt>
      <trkpt lat="43.40509" lon="6.0729">
        <ele>208</ele>
        <time>2016-06-01T15:17:40Z</time>
      </trkpt>
      <trkpt lat="43.40517" lon="6.073">
        <ele>207.60000610352</ele>
        <time>2016-06-01T15:17:42Z</time>
      </trkpt>
      <trkpt lat="43.40528" lon="6.07301">
        <ele>207.60000610352</ele>
        <time>2016-06-01T15:17:44Z</time>
      </trkpt>
      <trkpt lat="43.40542" lon="6.07302">
        <ele>207</ele>
        <time>2016-06-01T15:17:47Z</time>
      </trkpt>
      <trkpt lat="43.40546" lon="6.07303">
        <ele>207</ele>
        <time>2016-06-01T15:17:48Z</time>
      </trkpt>
      <trkpt lat="43.40549" lon="6.07304">
        <ele>206.80000305176</ele>
        <time>2016-06-01T15:17:49Z</time>
      </trkpt>
      <trkpt lat="43.40552" lon="6.07305">
        <ele>206.60000610352</ele>
        <time>2016-06-01T15:17:52Z</time>
      </trkpt>
      <trkpt lat="43.40556" lon="6.07304">
        <ele>206</ele>
        <time>2016-06-01T15:17:59Z</time>
      </trkpt>
      <trkpt lat="43.40565" lon="6.07304">
        <ele>205.80000305176</ele>
        <time>2016-06-01T15:18:02Z</time>
      </trkpt>
      <trkpt lat="43.40577" lon="6.07304">
        <ele>205.80000305176</ele>
        <time>2016-06-01T15:18:05Z</time>
      </trkpt>
      <trkpt lat="43.40593" lon="6.07298">
        <ele>205.60000610352</ele>
        <time>2016-06-01T15:18:09Z</time>
      </trkpt>
      <trkpt lat="43.40597" lon="6.07299">
        <ele>205.39999389648</ele>
        <time>2016-06-01T15:18:10Z</time>
      </trkpt>
      <trkpt lat="43.40608" lon="6.07311">
        <ele>205.39999389648</ele>
        <time>2016-06-01T15:18:13Z</time>
      </trkpt>
      <trkpt lat="43.40611" lon="6.07315">
        <ele>205.39999389648</ele>
        <time>2016-06-01T15:18:14Z</time>
      </trkpt>
      <trkpt lat="43.4062" lon="6.07331">
        <ele>204.80000305176</ele>
        <time>2016-06-01T15:18:18Z</time>
      </trkpt>
      <trkpt lat="43.40622" lon="6.07335">
        <ele>204.60000610352</ele>
        <time>2016-06-01T15:18:19Z</time>
      </trkpt>
      <trkpt lat="43.40628" lon="6.0734">
        <ele>204.39999389648</ele>
        <time>2016-06-01T15:18:21Z</time>
      </trkpt>
      <trkpt lat="43.40631" lon="6.07339">
        <ele>204.19999694824</ele>
        <time>2016-06-01T15:18:22Z</time>
      </trkpt>
      <trkpt lat="43.40645" lon="6.07323">
        <ele>204</ele>
        <time>2016-06-01T15:18:26Z</time>
      </trkpt>
      <trkpt lat="43.40654" lon="6.07316">
        <ele>203.80000305176</ele>
        <time>2016-06-01T15:18:28Z</time>
      </trkpt>
      <trkpt lat="43.4067" lon="6.07307">
        <ele>203.60000610352</ele>
        <time>2016-06-01T15:18:31Z</time>
      </trkpt>
      <trkpt lat="43.40699" lon="6.07291">
        <ele>202.60000610352</ele>
        <time>2016-06-01T15:18:36Z</time>
      </trkpt>
      <trkpt lat="43.40717" lon="6.07281">
        <ele>202.19999694824</ele>
        <time>2016-06-01T15:18:39Z</time>
      </trkpt>
      <trkpt lat="43.40749" lon="6.07261">
        <ele>201.39999389648</ele>
        <time>2016-06-01T15:18:45Z</time>
      </trkpt>
      <trkpt lat="43.40755" lon="6.07258">
        <ele>201.19999694824</ele>
        <time>2016-06-01T15:18:46Z</time>
      </trkpt>
      <trkpt lat="43.40779" lon="6.07242">
        <ele>200.80000305176</ele>
        <time>2016-06-01T15:18:51Z</time>
      </trkpt>
      <trkpt lat="43.40788" lon="6.07235">
        <ele>200.80000305176</ele>
        <time>2016-06-01T15:18:53Z</time>
      </trkpt>
      <trkpt lat="43.40812" lon="6.07206">
        <ele>200.39999389648</ele>
        <time>2016-06-01T15:19:00Z</time>
      </trkpt>
      <trkpt lat="43.40815" lon="6.07201">
        <ele>200.39999389648</ele>
        <time>2016-06-01T15:19:01Z</time>
      </trkpt>
      <trkpt lat="43.40831" lon="6.07169">
        <ele>200.19999694824</ele>
        <time>2016-06-01T15:19:07Z</time>
      </trkpt>
      <trkpt lat="43.40842" lon="6.07139">
        <ele>200.19999694824</ele>
        <time>2016-06-01T15:19:12Z</time>
      </trkpt>
      <trkpt lat="43.40845" lon="6.07125">
        <ele>200.19999694824</ele>
        <time>2016-06-01T15:19:14Z</time>
      </trkpt>
      <trkpt lat="43.40849" lon="6.07088">
        <ele>200.19999694824</ele>
        <time>2016-06-01T15:19:19Z</time>
      </trkpt>
      <trkpt lat="43.4085" lon="6.07073">
        <ele>200.19999694824</ele>
        <time>2016-06-01T15:19:21Z</time>
      </trkpt>
      <trkpt lat="43.40849" lon="6.07059">
        <ele>200.19999694824</ele>
        <time>2016-06-01T15:19:23Z</time>
      </trkpt>
      <trkpt lat="43.40844" lon="6.07027">
        <ele>200.19999694824</ele>
        <time>2016-06-01T15:19:28Z</time>
      </trkpt>
      <trkpt lat="43.40844" lon="6.07021">
        <ele>200.19999694824</ele>
        <time>2016-06-01T15:19:29Z</time>
      </trkpt>
      <trkpt lat="43.40847" lon="6.07011">
        <ele>200.19999694824</ele>
        <time>2016-06-01T15:19:31Z</time>
      </trkpt>
      <trkpt lat="43.40859" lon="6.07005">
        <ele>200</ele>
        <time>2016-06-01T15:19:34Z</time>
      </trkpt>
      <trkpt lat="43.40863" lon="6.07004">
        <ele>200</ele>
        <time>2016-06-01T15:19:35Z</time>
      </trkpt>
      <trkpt lat="43.40888" lon="6.06997">
        <ele>199.80000305176</ele>
        <time>2016-06-01T15:19:41Z</time>
      </trkpt>
      <trkpt lat="43.40903" lon="6.06985">
        <ele>199.80000305176</ele>
        <time>2016-06-01T15:19:47Z</time>
      </trkpt>
      <trkpt lat="43.40907" lon="6.0696">
        <ele>199.60000610352</ele>
        <time>2016-06-01T15:19:52Z</time>
      </trkpt>
      <trkpt lat="43.40915" lon="6.0695">
        <ele>199.60000610352</ele>
        <time>2016-06-01T15:19:55Z</time>
      </trkpt>
      <trkpt lat="43.40937" lon="6.06946">
        <ele>199.80000305176</ele>
        <time>2016-06-01T15:20:01Z</time>
      </trkpt>
      <trkpt lat="43.4095" lon="6.06944">
        <ele>199.39999389648</ele>
        <time>2016-06-01T15:20:04Z</time>
      </trkpt>
      <trkpt lat="43.40968" lon="6.0694">
        <ele>199</ele>
        <time>2016-06-01T15:20:08Z</time>
      </trkpt>
      <trkpt lat="43.40973" lon="6.06939">
        <ele>199</ele>
        <time>2016-06-01T15:20:09Z</time>
      </trkpt>
      <trkpt lat="43.4101" lon="6.0692">
        <ele>199</ele>
        <time>2016-06-01T15:20:18Z</time>
      </trkpt>
      <trkpt lat="43.41016" lon="6.06913">
        <ele>199.39999389648</ele>
        <time>2016-06-01T15:20:20Z</time>
      </trkpt>
      <trkpt lat="43.41018" lon="6.06898">
        <ele>199.60000610352</ele>
        <time>2016-06-01T15:20:23Z</time>
      </trkpt>
      <trkpt lat="43.41025" lon="6.06888">
        <ele>199.39999389648</ele>
        <time>2016-06-01T15:20:26Z</time>
      </trkpt>
      <trkpt lat="43.41034" lon="6.06884">
        <ele>199.19999694824</ele>
        <time>2016-06-01T15:20:30Z</time>
      </trkpt>
      <trkpt lat="43.41039" lon="6.06881">
        <ele>199.80000305176</ele>
        <time>2016-06-01T15:20:35Z</time>
      </trkpt>
      <trkpt lat="43.41043" lon="6.06879">
        <ele>200</ele>
        <time>2016-06-01T15:20:38Z</time>
      </trkpt>
      <trkpt lat="43.41047" lon="6.06877">
        <ele>200.39999389648</ele>
        <time>2016-06-01T15:20:41Z</time>
      </trkpt>
      <trkpt lat="43.41049" lon="6.06876">
        <ele>200.39999389648</ele>
        <time>2016-06-01T15:20:42Z</time>
      </trkpt>
      <trkpt lat="43.4106" lon="6.06873">
        <ele>200.80000305176</ele>
        <time>2016-06-01T15:20:48Z</time>
      </trkpt>
      <trkpt lat="43.41062" lon="6.06871">
        <ele>201</ele>
        <time>2016-06-01T15:20:49Z</time>
      </trkpt>
      <trkpt lat="43.41064" lon="6.06864">
        <ele>201</ele>
        <time>2016-06-01T15:20:51Z</time>
      </trkpt>
      <trkpt lat="43.41067" lon="6.06847">
        <ele>200</ele>
        <time>2016-06-01T15:20:55Z</time>
      </trkpt>
      <trkpt lat="43.41069" lon="6.06843">
        <ele>199.80000305176</ele>
        <time>2016-06-01T15:20:57Z</time>
      </trkpt>
      <trkpt lat="43.41071" lon="6.06838">
        <ele>199.80000305176</ele>
        <time>2016-06-01T15:21:00Z</time>
      </trkpt>
      <trkpt lat="43.41074" lon="6.06823">
        <ele>199.80000305176</ele>
        <time>2016-06-01T15:21:07Z</time>
      </trkpt>
      <trkpt lat="43.41079" lon="6.06797">
        <ele>199.60000610352</ele>
        <time>2016-06-01T15:21:14Z</time>
      </trkpt>
      <trkpt lat="43.41084" lon="6.0677">
        <ele>199.60000610352</ele>
        <time>2016-06-01T15:21:20Z</time>
      </trkpt>
      <trkpt lat="43.4109" lon="6.06754">
        <ele>199.80000305176</ele>
        <time>2016-06-01T15:21:24Z</time>
      </trkpt>
      <trkpt lat="43.4111" lon="6.06734">
        <ele>199.80000305176</ele>
        <time>2016-06-01T15:21:30Z</time>
      </trkpt>
      <trkpt lat="43.41114" lon="6.06732">
        <ele>200</ele>
        <time>2016-06-01T15:21:31Z</time>
      </trkpt>
      <trkpt lat="43.4113" lon="6.06725">
        <ele>200.19999694824</ele>
        <time>2016-06-01T15:21:35Z</time>
      </trkpt>
      <trkpt lat="43.41159" lon="6.06718">
        <ele>200</ele>
        <time>2016-06-01T15:21:42Z</time>
      </trkpt>
      <trkpt lat="43.41181" lon="6.06719">
        <ele>200.19999694824</ele>
        <time>2016-06-01T15:21:48Z</time>
      </trkpt>
      <trkpt lat="43.41197" lon="6.06721">
        <ele>200.60000610352</ele>
        <time>2016-06-01T15:21:53Z</time>
      </trkpt>
      <trkpt lat="43.41208" lon="6.0672">
        <ele>200.80000305176</ele>
        <time>2016-06-01T15:21:58Z</time>
      </trkpt>
      <trkpt lat="43.41223" lon="6.06719">
        <ele>201</ele>
        <time>2016-06-01T15:22:04Z</time>
      </trkpt>
      <trkpt lat="43.41234" lon="6.06718">
        <ele>201.39999389648</ele>
        <time>2016-06-01T15:22:10Z</time>
      </trkpt>
      <trkpt lat="43.41241" lon="6.06718">
        <ele>202.19999694824</ele>
        <time>2016-06-01T15:22:15Z</time>
      </trkpt>
      <trkpt lat="43.41243" lon="6.06717">
        <ele>202.39999389648</ele>
        <time>2016-06-01T15:22:17Z</time>
      </trkpt>
      <trkpt lat="43.41243" lon="6.06716">
        <ele>202.39999389648</ele>
        <time>2016-06-01T15:22:25Z</time>
      </trkpt>
      <trkpt lat="43.41244" lon="6.06716">
        <ele>202.39999389648</ele>
        <time>2016-06-01T15:22:48Z</time>
      </trkpt>
      <trkpt lat="43.41244" lon="6.06716">
        <ele>202.19999694824</ele>
        <time>2016-06-01T15:22:51Z</time>
      </trkpt>
      <trkpt lat="43.41249" lon="6.06716">
        <ele>202.19999694824</ele>
        <time>2016-06-01T15:22:54Z</time>
      </trkpt>
      <trkpt lat="43.41251" lon="6.06719">
        <ele>202.19999694824</ele>
        <time>2016-06-01T15:22:55Z</time>
      </trkpt>
      <trkpt lat="43.41262" lon="6.06741">
        <ele>203.19999694824</ele>
        <time>2016-06-01T15:23:01Z</time>
      </trkpt>
      <trkpt lat="43.41264" lon="6.06745">
        <ele>203.60000610352</ele>
        <time>2016-06-01T15:23:04Z</time>
      </trkpt>
      <trkpt lat="43.41264" lon="6.06745">
        <ele>203.60000610352</ele>
        <time>2016-06-01T15:23:05Z</time>
      </trkpt>
      <trkpt lat="43.41264" lon="6.06744">
        <ele>203.60000610352</ele>
        <time>2016-06-01T15:23:09Z</time>
      </trkpt>
      <trkpt lat="43.41264" lon="6.06744">
        <ele>203.19999694824</ele>
        <time>2016-06-01T15:23:27Z</time>
      </trkpt>
      <trkpt lat="43.41265" lon="6.06745">
        <ele>203.39999389648</ele>
        <time>2016-06-01T15:23:43Z</time>
      </trkpt>
      <trkpt lat="43.4127" lon="6.06753">
        <ele>203.39999389648</ele>
        <time>2016-06-01T15:23:47Z</time>
      </trkpt>
      <trkpt lat="43.41278" lon="6.06768">
        <ele>203.80000305176</ele>
        <time>2016-06-01T15:23:53Z</time>
      </trkpt>
      <trkpt lat="43.41288" lon="6.06782">
        <ele>204.19999694824</ele>
        <time>2016-06-01T15:23:59Z</time>
      </trkpt>
      <trkpt lat="43.41303" lon="6.06798">
        <ele>204.80000305176</ele>
        <time>2016-06-01T15:24:04Z</time>
      </trkpt>
      <trkpt lat="43.4131" lon="6.06803">
        <ele>205</ele>
        <time>2016-06-01T15:24:06Z</time>
      </trkpt>
      <trkpt lat="43.41325" lon="6.06813">
        <ele>205</ele>
        <time>2016-06-01T15:24:10Z</time>
      </trkpt>
      <trkpt lat="43.41348" lon="6.06824">
        <ele>205.60000610352</ele>
        <time>2016-06-01T15:24:16Z</time>
      </trkpt>
      <trkpt lat="43.41364" lon="6.0683">
        <ele>205.80000305176</ele>
        <time>2016-06-01T15:24:20Z</time>
      </trkpt>
      <trkpt lat="43.41382" lon="6.06839">
        <ele>206.19999694824</ele>
        <time>2016-06-01T15:24:25Z</time>
      </trkpt>
      <trkpt lat="43.41402" lon="6.06859">
        <ele>205.60000610352</ele>
        <time>2016-06-01T15:24:32Z</time>
      </trkpt>
      <trkpt lat="43.41411" lon="6.06872">
        <ele>205</ele>
        <time>2016-06-01T15:24:37Z</time>
      </trkpt>
      <trkpt lat="43.41411" lon="6.06873">
        <ele>205</ele>
        <time>2016-06-01T15:24:38Z</time>
      </trkpt>
      <trkpt lat="43.41412" lon="6.06874">
        <ele>205.19999694824</ele>
        <time>2016-06-01T15:24:41Z</time>
      </trkpt>
      <trkpt lat="43.41413" lon="6.06878">
        <ele>205.39999389648</ele>
        <time>2016-06-01T15:24:50Z</time>
      </trkpt>
      <trkpt lat="43.41414" lon="6.0688">
        <ele>205.19999694824</ele>
        <time>2016-06-01T15:24:55Z</time>
      </trkpt>
      <trkpt lat="43.41415" lon="6.06885">
        <ele>205</ele>
        <time>2016-06-01T15:24:57Z</time>
      </trkpt>
      <trkpt lat="43.41419" lon="6.06899">
        <ele>204.80000305176</ele>
        <time>2016-06-01T15:25:00Z</time>
      </trkpt>
      <trkpt lat="43.41421" lon="6.06905">
        <ele>204.80000305176</ele>
        <time>2016-06-01T15:25:01Z</time>
      </trkpt>
      <trkpt lat="43.41438" lon="6.06919">
        <ele>205.39999389648</ele>
        <time>2016-06-01T15:25:05Z</time>
      </trkpt>
      <trkpt lat="43.41442" lon="6.0692">
        <ele>205.19999694824</ele>
        <time>2016-06-01T15:25:06Z</time>
      </trkpt>
      <trkpt lat="43.41453" lon="6.06922">
        <ele>205.39999389648</ele>
        <time>2016-06-01T15:25:08Z</time>
      </trkpt>
      <trkpt lat="43.41462" lon="6.06929">
        <ele>205.19999694824</ele>
        <time>2016-06-01T15:25:10Z</time>
      </trkpt>
      <trkpt lat="43.41472" lon="6.06941">
        <ele>205</ele>
        <time>2016-06-01T15:25:13Z</time>
      </trkpt>
      <trkpt lat="43.41476" lon="6.06941">
        <ele>205</ele>
        <time>2016-06-01T15:25:14Z</time>
      </trkpt>
      <trkpt lat="43.41489" lon="6.06952">
        <ele>204.80000305176</ele>
        <time>2016-06-01T15:25:18Z</time>
      </trkpt>
      <trkpt lat="43.41502" lon="6.06966">
        <ele>204.39999389648</ele>
        <time>2016-06-01T15:25:24Z</time>
      </trkpt>
      <trkpt lat="43.4151" lon="6.06972">
        <ele>204.19999694824</ele>
        <time>2016-06-01T15:25:27Z</time>
      </trkpt>
      <trkpt lat="43.4152" lon="6.06973">
        <ele>204.60000610352</ele>
        <time>2016-06-01T15:25:30Z</time>
      </trkpt>
      <trkpt lat="43.41542" lon="6.06973">
        <ele>204.80000305176</ele>
        <time>2016-06-01T15:25:37Z</time>
      </trkpt>
      <trkpt lat="43.41562" lon="6.06971">
        <ele>205</ele>
        <time>2016-06-01T15:25:44Z</time>
      </trkpt>
      <trkpt lat="43.41566" lon="6.06975">
        <ele>205.19999694824</ele>
        <time>2016-06-01T15:25:46Z</time>
      </trkpt>
      <trkpt lat="43.4157" lon="6.0698">
        <ele>205.60000610352</ele>
        <time>2016-06-01T15:25:48Z</time>
      </trkpt>
      <trkpt lat="43.41571" lon="6.06983">
        <ele>205.60000610352</ele>
        <time>2016-06-01T15:25:49Z</time>
      </trkpt>
      <trkpt lat="43.41572" lon="6.06997">
        <ele>205.60000610352</ele>
        <time>2016-06-01T15:25:53Z</time>
      </trkpt>
      <trkpt lat="43.41576" lon="6.07024">
        <ele>205.60000610352</ele>
        <time>2016-06-01T15:26:00Z</time>
      </trkpt>
      <trkpt lat="43.41579" lon="6.07042">
        <ele>205.39999389648</ele>
        <time>2016-06-01T15:26:06Z</time>
      </trkpt>
      <trkpt lat="43.4158" lon="6.07046">
        <ele>205.39999389648</ele>
        <time>2016-06-01T15:26:11Z</time>
      </trkpt>
      <trkpt lat="43.4158" lon="6.07046">
        <ele>205.60000610352</ele>
        <time>2016-06-01T15:26:18Z</time>
      </trkpt>
      <trkpt lat="43.4158" lon="6.07046">
        <ele>205.19999694824</ele>
        <time>2016-06-01T15:26:47Z</time>
      </trkpt>
      <trkpt lat="43.4158" lon="6.07046">
        <ele>205.39999389648</ele>
        <time>2016-06-01T15:26:59Z</time>
      </trkpt>
    </trkseg>
  </trk>
</gpx>